<?xml version="1.0" encoding="UTF-8" standalone="no" ?>
<gpx xmlns="http://www.topografix.com/GPX/1/1" xmlns:xsi="http://www.w3.org/2001/XMLSchema-instance" xsi:schemaLocation="http://www.topografix.com/GPX/1/1 http://www.topografix.com/GPX/1/1/gpx.xsd" version="1.1" creator="VisuGPX - https://www.visugpx.com">
  <metadata>
    <name>FCSAD 2011 Journée 2</name>
    <desc><![CDATA[Boucle de 47 km de[b] Vallon-Pont-d\'Arc[/b] à [b]Labastide de Virac[/b]]]></desc>
  </metadata>
  <trk>
    <name><![CDATA[2011-05-28 Labastide de Virac]]></name>
    <trkseg>
      <trkpt lat="44.44653" lon="4.36745">
        <ele>194.8043213</ele>
        <time>2011-05-28T06:28:14Z</time>
      </trkpt>
      <trkpt lat="44.44652" lon="4.36757">
        <ele>195.2849121</ele>
        <time>2011-05-28T06:28:21Z</time>
      </trkpt>
      <trkpt lat="44.44644" lon="4.36764">
        <ele>195.2849121</ele>
        <time>2011-05-28T06:28:25Z</time>
      </trkpt>
      <trkpt lat="44.44635" lon="4.36775">
        <ele>195.2849121</ele>
        <time>2011-05-28T06:28:29Z</time>
      </trkpt>
      <trkpt lat="44.44628" lon="4.36784">
        <ele>195.765625</ele>
        <time>2011-05-28T06:28:32Z</time>
      </trkpt>
      <trkpt lat="44.44622" lon="4.36797">
        <ele>194.8043213</ele>
        <time>2011-05-28T06:28:35Z</time>
      </trkpt>
      <trkpt lat="44.44619" lon="4.3681">
        <ele>196.2463379</ele>
        <time>2011-05-28T06:28:38Z</time>
      </trkpt>
      <trkpt lat="44.44617" lon="4.36824">
        <ele>195.765625</ele>
        <time>2011-05-28T06:28:41Z</time>
      </trkpt>
      <trkpt lat="44.44614" lon="4.36838">
        <ele>196.2463379</ele>
        <time>2011-05-28T06:28:44Z</time>
      </trkpt>
      <trkpt lat="44.44613" lon="4.36853">
        <ele>196.7269287</ele>
        <time>2011-05-28T06:28:47Z</time>
      </trkpt>
      <trkpt lat="44.44613" lon="4.36867">
        <ele>197.2075195</ele>
        <time>2011-05-28T06:28:50Z</time>
      </trkpt>
      <trkpt lat="44.44611" lon="4.3688">
        <ele>198.1689453</ele>
        <time>2011-05-28T06:28:54Z</time>
      </trkpt>
      <trkpt lat="44.44601" lon="4.36878">
        <ele>197.6882324</ele>
        <time>2011-05-28T06:28:58Z</time>
      </trkpt>
      <trkpt lat="44.4459" lon="4.36874">
        <ele>196.2463379</ele>
        <time>2011-05-28T06:29:02Z</time>
      </trkpt>
      <trkpt lat="44.44581" lon="4.36879">
        <ele>196.7269287</ele>
        <time>2011-05-28T06:29:06Z</time>
      </trkpt>
      <trkpt lat="44.44576" lon="4.36892">
        <ele>197.6882324</ele>
        <time>2011-05-28T06:29:12Z</time>
      </trkpt>
      <trkpt lat="44.4457" lon="4.36906">
        <ele>198.1689453</ele>
        <time>2011-05-28T06:29:18Z</time>
      </trkpt>
      <trkpt lat="44.44563" lon="4.36921">
        <ele>199.130127</ele>
        <time>2011-05-28T06:29:24Z</time>
      </trkpt>
      <trkpt lat="44.44552" lon="4.36926">
        <ele>199.6108398</ele>
        <time>2011-05-28T06:29:29Z</time>
      </trkpt>
      <trkpt lat="44.44541" lon="4.3692">
        <ele>199.6108398</ele>
        <time>2011-05-28T06:29:33Z</time>
      </trkpt>
      <trkpt lat="44.44531" lon="4.36918">
        <ele>200.0916748</ele>
        <time>2011-05-28T06:29:36Z</time>
      </trkpt>
      <trkpt lat="44.44521" lon="4.36919">
        <ele>199.6108398</ele>
        <time>2011-05-28T06:29:39Z</time>
      </trkpt>
      <trkpt lat="44.44512" lon="4.36922">
        <ele>200.0916748</ele>
        <time>2011-05-28T06:29:42Z</time>
      </trkpt>
      <trkpt lat="44.44502" lon="4.36921">
        <ele>200.5722656</ele>
        <time>2011-05-28T06:29:45Z</time>
      </trkpt>
      <trkpt lat="44.44491" lon="4.36915">
        <ele>200.5722656</ele>
        <time>2011-05-28T06:29:48Z</time>
      </trkpt>
      <trkpt lat="44.44481" lon="4.36908">
        <ele>201.0528564</ele>
        <time>2011-05-28T06:29:51Z</time>
      </trkpt>
      <trkpt lat="44.4447" lon="4.36901">
        <ele>200.5722656</ele>
        <time>2011-05-28T06:29:54Z</time>
      </trkpt>
      <trkpt lat="44.4446" lon="4.36894">
        <ele>201.0528564</ele>
        <time>2011-05-28T06:29:57Z</time>
      </trkpt>
      <trkpt lat="44.44449" lon="4.36887">
        <ele>201.5335693</ele>
        <time>2011-05-28T06:30:00Z</time>
      </trkpt>
      <trkpt lat="44.44438" lon="4.36881">
        <ele>202.0142822</ele>
        <time>2011-05-28T06:30:03Z</time>
      </trkpt>
      <trkpt lat="44.44427" lon="4.36876">
        <ele>202.0142822</ele>
        <time>2011-05-28T06:30:06Z</time>
      </trkpt>
      <trkpt lat="44.44417" lon="4.3687">
        <ele>202.0142822</ele>
        <time>2011-05-28T06:30:09Z</time>
      </trkpt>
      <trkpt lat="44.44408" lon="4.36863">
        <ele>202.0142822</ele>
        <time>2011-05-28T06:30:12Z</time>
      </trkpt>
      <trkpt lat="44.44399" lon="4.36867">
        <ele>202.494873</ele>
        <time>2011-05-28T06:30:17Z</time>
      </trkpt>
      <trkpt lat="44.44394" lon="4.3688">
        <ele>202.9754639</ele>
        <time>2011-05-28T06:30:21Z</time>
      </trkpt>
      <trkpt lat="44.44389" lon="4.36896">
        <ele>203.4561768</ele>
        <time>2011-05-28T06:30:25Z</time>
      </trkpt>
      <trkpt lat="44.44384" lon="4.3691">
        <ele>202.9754639</ele>
        <time>2011-05-28T06:30:32Z</time>
      </trkpt>
      <trkpt lat="44.44376" lon="4.36934">
        <ele>202.0142822</ele>
        <time>2011-05-28T06:32:25Z</time>
      </trkpt>
      <trkpt lat="44.44378" lon="4.36948">
        <ele>202.0142822</ele>
        <time>2011-05-28T06:32:31Z</time>
      </trkpt>
      <trkpt lat="44.44376" lon="4.36964">
        <ele>201.5335693</ele>
        <time>2011-05-28T06:32:40Z</time>
      </trkpt>
      <trkpt lat="44.4438" lon="4.36978">
        <ele>199.6108398</ele>
        <time>2011-05-28T06:32:46Z</time>
      </trkpt>
      <trkpt lat="44.44386" lon="4.36991">
        <ele>197.2075195</ele>
        <time>2011-05-28T06:32:55Z</time>
      </trkpt>
      <trkpt lat="44.44379" lon="4.37001">
        <ele>195.765625</ele>
        <time>2011-05-28T06:33:22Z</time>
      </trkpt>
      <trkpt lat="44.4437" lon="4.37004">
        <ele>194.3237305</ele>
        <time>2011-05-28T06:33:40Z</time>
      </trkpt>
      <trkpt lat="44.44376" lon="4.37016">
        <ele>194.3237305</ele>
        <time>2011-05-28T06:34:00Z</time>
      </trkpt>
      <trkpt lat="44.44383" lon="4.37027">
        <ele>192.8817139</ele>
        <time>2011-05-28T06:34:07Z</time>
      </trkpt>
      <trkpt lat="44.44392" lon="4.3704">
        <ele>190.4783936</ele>
        <time>2011-05-28T06:34:21Z</time>
      </trkpt>
      <trkpt lat="44.44399" lon="4.37052">
        <ele>188.0750732</ele>
        <time>2011-05-28T06:34:29Z</time>
      </trkpt>
      <trkpt lat="44.44403" lon="4.37067">
        <ele>187.1137695</ele>
        <time>2011-05-28T06:34:35Z</time>
      </trkpt>
      <trkpt lat="44.44407" lon="4.37082">
        <ele>184.2298584</ele>
        <time>2011-05-28T06:34:41Z</time>
      </trkpt>
      <trkpt lat="44.44413" lon="4.37098">
        <ele>181.826416</ele>
        <time>2011-05-28T06:34:47Z</time>
      </trkpt>
      <trkpt lat="44.4442" lon="4.37109">
        <ele>179.9038086</ele>
        <time>2011-05-28T06:34:51Z</time>
      </trkpt>
      <trkpt lat="44.44427" lon="4.37119">
        <ele>177.5006104</ele>
        <time>2011-05-28T06:34:56Z</time>
      </trkpt>
      <trkpt lat="44.44421" lon="4.37123">
        <ele>175.5778809</ele>
        <time>2011-05-28T06:35:02Z</time>
      </trkpt>
      <trkpt lat="44.44409" lon="4.37122">
        <ele>174.6165771</ele>
        <time>2011-05-28T06:35:08Z</time>
      </trkpt>
      <trkpt lat="44.444" lon="4.37125">
        <ele>173.1746826</ele>
        <time>2011-05-28T06:35:11Z</time>
      </trkpt>
      <trkpt lat="44.44391" lon="4.37131">
        <ele>171.732666</ele>
        <time>2011-05-28T06:35:15Z</time>
      </trkpt>
      <trkpt lat="44.4438" lon="4.37137">
        <ele>168.8487549</ele>
        <time>2011-05-28T06:35:22Z</time>
      </trkpt>
      <trkpt lat="44.44371" lon="4.37143">
        <ele>169.3294678</ele>
        <time>2011-05-28T06:35:27Z</time>
      </trkpt>
      <trkpt lat="44.4436" lon="4.37146">
        <ele>168.368042</ele>
        <time>2011-05-28T06:35:32Z</time>
      </trkpt>
      <trkpt lat="44.4435" lon="4.37147">
        <ele>165.003418</ele>
        <time>2011-05-28T06:35:38Z</time>
      </trkpt>
      <trkpt lat="44.44343" lon="4.37159">
        <ele>162.1195068</ele>
        <time>2011-05-28T06:35:46Z</time>
      </trkpt>
      <trkpt lat="44.44337" lon="4.37165">
        <ele>161.1582031</ele>
        <time>2011-05-28T06:35:51Z</time>
      </trkpt>
      <trkpt lat="44.44331" lon="4.37154">
        <ele>160.1968994</ele>
        <time>2011-05-28T06:36:01Z</time>
      </trkpt>
      <trkpt lat="44.4433" lon="4.37138">
        <ele>157.7935791</ele>
        <time>2011-05-28T06:36:49Z</time>
      </trkpt>
      <trkpt lat="44.44331" lon="4.37124">
        <ele>155.8709717</ele>
        <time>2011-05-28T06:36:53Z</time>
      </trkpt>
      <trkpt lat="44.44326" lon="4.37113">
        <ele>153.9483643</ele>
        <time>2011-05-28T06:36:59Z</time>
      </trkpt>
      <trkpt lat="44.44321" lon="4.37102">
        <ele>153.9483643</ele>
        <time>2011-05-28T06:37:10Z</time>
      </trkpt>
      <trkpt lat="44.44315" lon="4.37114">
        <ele>155.3902588</ele>
        <time>2011-05-28T06:37:24Z</time>
      </trkpt>
      <trkpt lat="44.44307" lon="4.37126">
        <ele>155.3902588</ele>
        <time>2011-05-28T06:37:29Z</time>
      </trkpt>
      <trkpt lat="44.44297" lon="4.3713">
        <ele>155.8709717</ele>
        <time>2011-05-28T06:37:33Z</time>
      </trkpt>
      <trkpt lat="44.44287" lon="4.37136">
        <ele>155.8709717</ele>
        <time>2011-05-28T06:37:36Z</time>
      </trkpt>
      <trkpt lat="44.44278" lon="4.37142">
        <ele>156.8321533</ele>
        <time>2011-05-28T06:37:39Z</time>
      </trkpt>
      <trkpt lat="44.44268" lon="4.37144">
        <ele>158.2741699</ele>
        <time>2011-05-28T06:37:43Z</time>
      </trkpt>
      <trkpt lat="44.44259" lon="4.37145">
        <ele>158.7547607</ele>
        <time>2011-05-28T06:37:47Z</time>
      </trkpt>
      <trkpt lat="44.44249" lon="4.37148">
        <ele>158.7547607</ele>
        <time>2011-05-28T06:37:51Z</time>
      </trkpt>
      <trkpt lat="44.44244" lon="4.37153">
        <ele>158.7547607</ele>
        <time>2011-05-28T06:39:37Z</time>
      </trkpt>
      <trkpt lat="44.44233" lon="4.37157">
        <ele>158.7547607</ele>
        <time>2011-05-28T06:39:42Z</time>
      </trkpt>
      <trkpt lat="44.44227" lon="4.37166">
        <ele>157.3128662</ele>
        <time>2011-05-28T06:39:46Z</time>
      </trkpt>
      <trkpt lat="44.44221" lon="4.37176">
        <ele>155.8709717</ele>
        <time>2011-05-28T06:39:50Z</time>
      </trkpt>
      <trkpt lat="44.44212" lon="4.37177">
        <ele>154.9095459</ele>
        <time>2011-05-28T06:39:54Z</time>
      </trkpt>
      <trkpt lat="44.44203" lon="4.3717">
        <ele>154.4289551</ele>
        <time>2011-05-28T06:39:57Z</time>
      </trkpt>
      <trkpt lat="44.44194" lon="4.37167">
        <ele>153.4676514</ele>
        <time>2011-05-28T06:40:00Z</time>
      </trkpt>
      <trkpt lat="44.44185" lon="4.37166">
        <ele>152.5063477</ele>
        <time>2011-05-28T06:40:04Z</time>
      </trkpt>
      <trkpt lat="44.44173" lon="4.37166">
        <ele>151.064209</ele>
        <time>2011-05-28T06:40:11Z</time>
      </trkpt>
      <trkpt lat="44.44167" lon="4.37156">
        <ele>151.5449219</ele>
        <time>2011-05-28T06:40:15Z</time>
      </trkpt>
      <trkpt lat="44.44158" lon="4.3715">
        <ele>151.064209</ele>
        <time>2011-05-28T06:40:19Z</time>
      </trkpt>
      <trkpt lat="44.4415" lon="4.37156">
        <ele>152.5063477</ele>
        <time>2011-05-28T06:40:23Z</time>
      </trkpt>
      <trkpt lat="44.44141" lon="4.37159">
        <ele>152.9869385</ele>
        <time>2011-05-28T06:40:27Z</time>
      </trkpt>
      <trkpt lat="44.4413" lon="4.37157">
        <ele>152.5063477</ele>
        <time>2011-05-28T06:40:30Z</time>
      </trkpt>
      <trkpt lat="44.44123" lon="4.37154">
        <ele>152.5063477</ele>
        <time>2011-05-28T06:40:32Z</time>
      </trkpt>
      <trkpt lat="44.44091" lon="4.37152">
        <ele>149.6223145</ele>
        <time>2011-05-28T06:40:38Z</time>
      </trkpt>
      <trkpt lat="44.44074" lon="4.3715">
        <ele>147.699707</ele>
        <time>2011-05-28T06:40:41Z</time>
      </trkpt>
      <trkpt lat="44.44061" lon="4.37146">
        <ele>146.7384033</ele>
        <time>2011-05-28T06:40:43Z</time>
      </trkpt>
      <trkpt lat="44.4405" lon="4.37138">
        <ele>147.2189941</ele>
        <time>2011-05-28T06:40:45Z</time>
      </trkpt>
      <trkpt lat="44.44041" lon="4.37126">
        <ele>147.2189941</ele>
        <time>2011-05-28T06:40:47Z</time>
      </trkpt>
      <trkpt lat="44.44031" lon="4.37119">
        <ele>146.7384033</ele>
        <time>2011-05-28T06:40:49Z</time>
      </trkpt>
      <trkpt lat="44.44021" lon="4.37114">
        <ele>146.2578125</ele>
        <time>2011-05-28T06:40:51Z</time>
      </trkpt>
      <trkpt lat="44.44011" lon="4.3711">
        <ele>146.2578125</ele>
        <time>2011-05-28T06:40:53Z</time>
      </trkpt>
      <trkpt lat="44.44001" lon="4.37107">
        <ele>146.7384033</ele>
        <time>2011-05-28T06:40:55Z</time>
      </trkpt>
      <trkpt lat="44.4399" lon="4.37104">
        <ele>146.2578125</ele>
        <time>2011-05-28T06:40:57Z</time>
      </trkpt>
      <trkpt lat="44.43978" lon="4.37103">
        <ele>145.7770996</ele>
        <time>2011-05-28T06:40:59Z</time>
      </trkpt>
      <trkpt lat="44.43967" lon="4.37102">
        <ele>145.2963867</ele>
        <time>2011-05-28T06:41:01Z</time>
      </trkpt>
      <trkpt lat="44.43957" lon="4.371">
        <ele>145.2963867</ele>
        <time>2011-05-28T06:41:03Z</time>
      </trkpt>
      <trkpt lat="44.43948" lon="4.37095">
        <ele>144.8157959</ele>
        <time>2011-05-28T06:41:05Z</time>
      </trkpt>
      <trkpt lat="44.43938" lon="4.3709">
        <ele>144.3352051</ele>
        <time>2011-05-28T06:41:07Z</time>
      </trkpt>
      <trkpt lat="44.43927" lon="4.37086">
        <ele>143.8543701</ele>
        <time>2011-05-28T06:41:09Z</time>
      </trkpt>
      <trkpt lat="44.43917" lon="4.37081">
        <ele>143.8543701</ele>
        <time>2011-05-28T06:41:11Z</time>
      </trkpt>
      <trkpt lat="44.43907" lon="4.37077">
        <ele>144.3352051</ele>
        <time>2011-05-28T06:41:13Z</time>
      </trkpt>
      <trkpt lat="44.43896" lon="4.37075">
        <ele>144.3352051</ele>
        <time>2011-05-28T06:41:15Z</time>
      </trkpt>
      <trkpt lat="44.43885" lon="4.37074">
        <ele>143.8543701</ele>
        <time>2011-05-28T06:41:17Z</time>
      </trkpt>
      <trkpt lat="44.43874" lon="4.37077">
        <ele>144.3352051</ele>
        <time>2011-05-28T06:41:19Z</time>
      </trkpt>
      <trkpt lat="44.43864" lon="4.37079">
        <ele>143.3736572</ele>
        <time>2011-05-28T06:41:21Z</time>
      </trkpt>
      <trkpt lat="44.43855" lon="4.37077">
        <ele>142.4124756</ele>
        <time>2011-05-28T06:41:23Z</time>
      </trkpt>
      <trkpt lat="44.43844" lon="4.37087">
        <ele>141.4510498</ele>
        <time>2011-05-28T06:41:26Z</time>
      </trkpt>
      <trkpt lat="44.43835" lon="4.37096">
        <ele>140.4898682</ele>
        <time>2011-05-28T06:41:28Z</time>
      </trkpt>
      <trkpt lat="44.43825" lon="4.37101">
        <ele>139.5284424</ele>
        <time>2011-05-28T06:41:30Z</time>
      </trkpt>
      <trkpt lat="44.43814" lon="4.37101">
        <ele>139.5284424</ele>
        <time>2011-05-28T06:41:32Z</time>
      </trkpt>
      <trkpt lat="44.43804" lon="4.37101">
        <ele>139.0478516</ele>
        <time>2011-05-28T06:41:34Z</time>
      </trkpt>
      <trkpt lat="44.43795" lon="4.37107">
        <ele>138.0865479</ele>
        <time>2011-05-28T06:41:36Z</time>
      </trkpt>
      <trkpt lat="44.43789" lon="4.37116">
        <ele>137.1252441</ele>
        <time>2011-05-28T06:41:38Z</time>
      </trkpt>
      <trkpt lat="44.43779" lon="4.37124">
        <ele>135.6831055</ele>
        <time>2011-05-28T06:41:41Z</time>
      </trkpt>
      <trkpt lat="44.43767" lon="4.37122">
        <ele>134.7219238</ele>
        <time>2011-05-28T06:41:44Z</time>
      </trkpt>
      <trkpt lat="44.43759" lon="4.37114">
        <ele>134.2412109</ele>
        <time>2011-05-28T06:41:49Z</time>
      </trkpt>
      <trkpt lat="44.4375" lon="4.3711">
        <ele>134.2412109</ele>
        <time>2011-05-28T06:41:54Z</time>
      </trkpt>
      <trkpt lat="44.43741" lon="4.37108">
        <ele>133.760498</ele>
        <time>2011-05-28T06:41:58Z</time>
      </trkpt>
      <trkpt lat="44.43731" lon="4.37105">
        <ele>133.2799072</ele>
        <time>2011-05-28T06:42:02Z</time>
      </trkpt>
      <trkpt lat="44.43721" lon="4.37101">
        <ele>132.7993164</ele>
        <time>2011-05-28T06:42:06Z</time>
      </trkpt>
      <trkpt lat="44.43711" lon="4.37095">
        <ele>132.7993164</ele>
        <time>2011-05-28T06:42:10Z</time>
      </trkpt>
      <trkpt lat="44.43701" lon="4.3709">
        <ele>133.760498</ele>
        <time>2011-05-28T06:42:14Z</time>
      </trkpt>
      <trkpt lat="44.43692" lon="4.37085">
        <ele>133.2799072</ele>
        <time>2011-05-28T06:42:18Z</time>
      </trkpt>
      <trkpt lat="44.43682" lon="4.37078">
        <ele>132.7993164</ele>
        <time>2011-05-28T06:42:23Z</time>
      </trkpt>
      <trkpt lat="44.43672" lon="4.37071">
        <ele>132.3186035</ele>
        <time>2011-05-28T06:42:27Z</time>
      </trkpt>
      <trkpt lat="44.4366" lon="4.37065">
        <ele>131.3572998</ele>
        <time>2011-05-28T06:42:31Z</time>
      </trkpt>
      <trkpt lat="44.4365" lon="4.37059">
        <ele>130.3959961</ele>
        <time>2011-05-28T06:42:34Z</time>
      </trkpt>
      <trkpt lat="44.43639" lon="4.37053">
        <ele>128.9541016</ele>
        <time>2011-05-28T06:42:37Z</time>
      </trkpt>
      <trkpt lat="44.4363" lon="4.37047">
        <ele>129.4346924</ele>
        <time>2011-05-28T06:42:40Z</time>
      </trkpt>
      <trkpt lat="44.43622" lon="4.37041">
        <ele>128.9541016</ele>
        <time>2011-05-28T06:42:43Z</time>
      </trkpt>
      <trkpt lat="44.43612" lon="4.37033">
        <ele>127.5119629</ele>
        <time>2011-05-28T06:42:47Z</time>
      </trkpt>
      <trkpt lat="44.43604" lon="4.37026">
        <ele>127.5119629</ele>
        <time>2011-05-28T06:42:51Z</time>
      </trkpt>
      <trkpt lat="44.43594" lon="4.37018">
        <ele>127.0313721</ele>
        <time>2011-05-28T06:42:55Z</time>
      </trkpt>
      <trkpt lat="44.43584" lon="4.37009">
        <ele>126.5506592</ele>
        <time>2011-05-28T06:42:59Z</time>
      </trkpt>
      <trkpt lat="44.43576" lon="4.37002">
        <ele>126.5506592</ele>
        <time>2011-05-28T06:43:02Z</time>
      </trkpt>
      <trkpt lat="44.43567" lon="4.36993">
        <ele>126.0699463</ele>
        <time>2011-05-28T06:43:05Z</time>
      </trkpt>
      <trkpt lat="44.43557" lon="4.36984">
        <ele>126.5506592</ele>
        <time>2011-05-28T06:43:08Z</time>
      </trkpt>
      <trkpt lat="44.43544" lon="4.36979">
        <ele>125.5893555</ele>
        <time>2011-05-28T06:43:11Z</time>
      </trkpt>
      <trkpt lat="44.43533" lon="4.36972">
        <ele>125.1087646</ele>
        <time>2011-05-28T06:43:13Z</time>
      </trkpt>
      <trkpt lat="44.4352" lon="4.36964">
        <ele>124.1473389</ele>
        <time>2011-05-28T06:43:15Z</time>
      </trkpt>
      <trkpt lat="44.43508" lon="4.36953">
        <ele>123.1861572</ele>
        <time>2011-05-28T06:43:17Z</time>
      </trkpt>
      <trkpt lat="44.43499" lon="4.36937">
        <ele>122.2247314</ele>
        <time>2011-05-28T06:43:19Z</time>
      </trkpt>
      <trkpt lat="44.43494" lon="4.36918">
        <ele>121.2635498</ele>
        <time>2011-05-28T06:43:21Z</time>
      </trkpt>
      <trkpt lat="44.43491" lon="4.36897">
        <ele>120.7828369</ele>
        <time>2011-05-28T06:43:23Z</time>
      </trkpt>
      <trkpt lat="44.43487" lon="4.36876">
        <ele>119.8214111</ele>
        <time>2011-05-28T06:43:25Z</time>
      </trkpt>
      <trkpt lat="44.43477" lon="4.36857">
        <ele>116.9375</ele>
        <time>2011-05-28T06:43:27Z</time>
      </trkpt>
      <trkpt lat="44.43464" lon="4.3684">
        <ele>115.9761963</ele>
        <time>2011-05-28T06:43:29Z</time>
      </trkpt>
      <trkpt lat="44.43451" lon="4.36824">
        <ele>115.9761963</ele>
        <time>2011-05-28T06:43:31Z</time>
      </trkpt>
      <trkpt lat="44.4344" lon="4.36809">
        <ele>115.9761963</ele>
        <time>2011-05-28T06:43:33Z</time>
      </trkpt>
      <trkpt lat="44.43428" lon="4.36794">
        <ele>116.9375</ele>
        <time>2011-05-28T06:43:35Z</time>
      </trkpt>
      <trkpt lat="44.43418" lon="4.3678">
        <ele>116.9375</ele>
        <time>2011-05-28T06:43:37Z</time>
      </trkpt>
      <trkpt lat="44.43407" lon="4.36766">
        <ele>115.4956055</ele>
        <time>2011-05-28T06:43:39Z</time>
      </trkpt>
      <trkpt lat="44.43397" lon="4.36753">
        <ele>115.9761963</ele>
        <time>2011-05-28T06:43:41Z</time>
      </trkpt>
      <trkpt lat="44.43386" lon="4.3674">
        <ele>115.9761963</ele>
        <time>2011-05-28T06:43:43Z</time>
      </trkpt>
      <trkpt lat="44.43376" lon="4.36728">
        <ele>115.0148926</ele>
        <time>2011-05-28T06:43:45Z</time>
      </trkpt>
      <trkpt lat="44.43366" lon="4.36716">
        <ele>115.4956055</ele>
        <time>2011-05-28T06:43:47Z</time>
      </trkpt>
      <trkpt lat="44.43357" lon="4.36704">
        <ele>115.4956055</ele>
        <time>2011-05-28T06:43:49Z</time>
      </trkpt>
      <trkpt lat="44.43348" lon="4.36692">
        <ele>115.4956055</ele>
        <time>2011-05-28T06:43:51Z</time>
      </trkpt>
      <trkpt lat="44.43339" lon="4.36679">
        <ele>115.4956055</ele>
        <time>2011-05-28T06:43:53Z</time>
      </trkpt>
      <trkpt lat="44.4333" lon="4.36667">
        <ele>115.4956055</ele>
        <time>2011-05-28T06:43:55Z</time>
      </trkpt>
      <trkpt lat="44.43322" lon="4.36655">
        <ele>115.4956055</ele>
        <time>2011-05-28T06:43:57Z</time>
      </trkpt>
      <trkpt lat="44.43314" lon="4.36643">
        <ele>115.0148926</ele>
        <time>2011-05-28T06:43:59Z</time>
      </trkpt>
      <trkpt lat="44.43306" lon="4.36632">
        <ele>115.0148926</ele>
        <time>2011-05-28T06:44:01Z</time>
      </trkpt>
      <trkpt lat="44.43298" lon="4.36622">
        <ele>115.4956055</ele>
        <time>2011-05-28T06:44:03Z</time>
      </trkpt>
      <trkpt lat="44.4329" lon="4.36612">
        <ele>115.0148926</ele>
        <time>2011-05-28T06:44:05Z</time>
      </trkpt>
      <trkpt lat="44.43282" lon="4.36604">
        <ele>114.5341797</ele>
        <time>2011-05-28T06:44:07Z</time>
      </trkpt>
      <trkpt lat="44.43273" lon="4.36596">
        <ele>114.0535889</ele>
        <time>2011-05-28T06:44:09Z</time>
      </trkpt>
      <trkpt lat="44.43264" lon="4.36591">
        <ele>114.0535889</ele>
        <time>2011-05-28T06:44:11Z</time>
      </trkpt>
      <trkpt lat="44.43255" lon="4.36586">
        <ele>113.572998</ele>
        <time>2011-05-28T06:44:13Z</time>
      </trkpt>
      <trkpt lat="44.43245" lon="4.36583">
        <ele>114.0535889</ele>
        <time>2011-05-28T06:44:16Z</time>
      </trkpt>
      <trkpt lat="44.43235" lon="4.36581">
        <ele>114.0535889</ele>
        <time>2011-05-28T06:44:20Z</time>
      </trkpt>
      <trkpt lat="44.43225" lon="4.36578">
        <ele>114.0535889</ele>
        <time>2011-05-28T06:44:25Z</time>
      </trkpt>
      <trkpt lat="44.43215" lon="4.36576">
        <ele>113.572998</ele>
        <time>2011-05-28T06:44:29Z</time>
      </trkpt>
      <trkpt lat="44.43204" lon="4.36573">
        <ele>113.0922852</ele>
        <time>2011-05-28T06:44:33Z</time>
      </trkpt>
      <trkpt lat="44.43195" lon="4.36567">
        <ele>113.0922852</ele>
        <time>2011-05-28T06:44:37Z</time>
      </trkpt>
      <trkpt lat="44.43193" lon="4.36552">
        <ele>113.0922852</ele>
        <time>2011-05-28T06:44:42Z</time>
      </trkpt>
      <trkpt lat="44.43193" lon="4.36535">
        <ele>114.0535889</ele>
        <time>2011-05-28T06:44:46Z</time>
      </trkpt>
      <trkpt lat="44.43194" lon="4.36522">
        <ele>114.0535889</ele>
        <time>2011-05-28T06:44:49Z</time>
      </trkpt>
      <trkpt lat="44.43198" lon="4.3651">
        <ele>114.5341797</ele>
        <time>2011-05-28T06:44:52Z</time>
      </trkpt>
      <trkpt lat="44.43202" lon="4.36497">
        <ele>114.5341797</ele>
        <time>2011-05-28T06:44:55Z</time>
      </trkpt>
      <trkpt lat="44.43206" lon="4.36484">
        <ele>114.5341797</ele>
        <time>2011-05-28T06:44:58Z</time>
      </trkpt>
      <trkpt lat="44.4321" lon="4.36471">
        <ele>114.5341797</ele>
        <time>2011-05-28T06:45:01Z</time>
      </trkpt>
      <trkpt lat="44.43215" lon="4.36458">
        <ele>115.0148926</ele>
        <time>2011-05-28T06:45:04Z</time>
      </trkpt>
      <trkpt lat="44.4322" lon="4.36446">
        <ele>115.0148926</ele>
        <time>2011-05-28T06:45:07Z</time>
      </trkpt>
      <trkpt lat="44.43224" lon="4.36433">
        <ele>115.0148926</ele>
        <time>2011-05-28T06:45:10Z</time>
      </trkpt>
      <trkpt lat="44.43228" lon="4.36421">
        <ele>115.4956055</ele>
        <time>2011-05-28T06:45:13Z</time>
      </trkpt>
      <trkpt lat="44.43233" lon="4.3641">
        <ele>115.9761963</ele>
        <time>2011-05-28T06:45:16Z</time>
      </trkpt>
      <trkpt lat="44.43236" lon="4.36398">
        <ele>115.9761963</ele>
        <time>2011-05-28T06:45:19Z</time>
      </trkpt>
      <trkpt lat="44.43239" lon="4.36385">
        <ele>116.4567871</ele>
        <time>2011-05-28T06:45:22Z</time>
      </trkpt>
      <trkpt lat="44.43238" lon="4.3637">
        <ele>116.9375</ele>
        <time>2011-05-28T06:45:26Z</time>
      </trkpt>
      <trkpt lat="44.43236" lon="4.36357">
        <ele>116.4567871</ele>
        <time>2011-05-28T06:45:29Z</time>
      </trkpt>
      <trkpt lat="44.43232" lon="4.36341">
        <ele>116.4567871</ele>
        <time>2011-05-28T06:45:32Z</time>
      </trkpt>
      <trkpt lat="44.43227" lon="4.36326">
        <ele>115.9761963</ele>
        <time>2011-05-28T06:45:35Z</time>
      </trkpt>
      <trkpt lat="44.43221" lon="4.36309">
        <ele>115.4956055</ele>
        <time>2011-05-28T06:45:38Z</time>
      </trkpt>
      <trkpt lat="44.43217" lon="4.36297">
        <ele>115.9761963</ele>
        <time>2011-05-28T06:45:40Z</time>
      </trkpt>
      <trkpt lat="44.43212" lon="4.36286">
        <ele>115.4956055</ele>
        <time>2011-05-28T06:45:42Z</time>
      </trkpt>
      <trkpt lat="44.43208" lon="4.36273">
        <ele>115.0148926</ele>
        <time>2011-05-28T06:45:44Z</time>
      </trkpt>
      <trkpt lat="44.43204" lon="4.36261">
        <ele>114.5341797</ele>
        <time>2011-05-28T06:45:46Z</time>
      </trkpt>
      <trkpt lat="44.43199" lon="4.36248">
        <ele>115.0148926</ele>
        <time>2011-05-28T06:45:48Z</time>
      </trkpt>
      <trkpt lat="44.43195" lon="4.36235">
        <ele>114.5341797</ele>
        <time>2011-05-28T06:45:50Z</time>
      </trkpt>
      <trkpt lat="44.4319" lon="4.36222">
        <ele>114.0535889</ele>
        <time>2011-05-28T06:45:52Z</time>
      </trkpt>
      <trkpt lat="44.43185" lon="4.36208">
        <ele>114.0535889</ele>
        <time>2011-05-28T06:45:54Z</time>
      </trkpt>
      <trkpt lat="44.4318" lon="4.36194">
        <ele>113.0922852</ele>
        <time>2011-05-28T06:45:56Z</time>
      </trkpt>
      <trkpt lat="44.43175" lon="4.36179">
        <ele>112.6115723</ele>
        <time>2011-05-28T06:45:58Z</time>
      </trkpt>
      <trkpt lat="44.43169" lon="4.36163">
        <ele>113.0922852</ele>
        <time>2011-05-28T06:46:00Z</time>
      </trkpt>
      <trkpt lat="44.43164" lon="4.36147">
        <ele>112.1309814</ele>
        <time>2011-05-28T06:46:02Z</time>
      </trkpt>
      <trkpt lat="44.43157" lon="4.36131">
        <ele>112.6115723</ele>
        <time>2011-05-28T06:46:04Z</time>
      </trkpt>
      <trkpt lat="44.43151" lon="4.36114">
        <ele>111.6502686</ele>
        <time>2011-05-28T06:46:06Z</time>
      </trkpt>
      <trkpt lat="44.43144" lon="4.36097">
        <ele>110.6888428</ele>
        <time>2011-05-28T06:46:08Z</time>
      </trkpt>
      <trkpt lat="44.43136" lon="4.3608">
        <ele>110.6888428</ele>
        <time>2011-05-28T06:46:10Z</time>
      </trkpt>
      <trkpt lat="44.43127" lon="4.36064">
        <ele>109.7276611</ele>
        <time>2011-05-28T06:46:12Z</time>
      </trkpt>
      <trkpt lat="44.43117" lon="4.36051">
        <ele>109.7276611</ele>
        <time>2011-05-28T06:46:14Z</time>
      </trkpt>
      <trkpt lat="44.43107" lon="4.36039">
        <ele>109.2469482</ele>
        <time>2011-05-28T06:46:16Z</time>
      </trkpt>
      <trkpt lat="44.43096" lon="4.36027">
        <ele>108.7662354</ele>
        <time>2011-05-28T06:46:18Z</time>
      </trkpt>
      <trkpt lat="44.43084" lon="4.36014">
        <ele>109.2469482</ele>
        <time>2011-05-28T06:46:20Z</time>
      </trkpt>
      <trkpt lat="44.43073" lon="4.36002">
        <ele>109.2469482</ele>
        <time>2011-05-28T06:46:22Z</time>
      </trkpt>
      <trkpt lat="44.43062" lon="4.3599">
        <ele>109.7276611</ele>
        <time>2011-05-28T06:46:24Z</time>
      </trkpt>
      <trkpt lat="44.43051" lon="4.35978">
        <ele>108.2856445</ele>
        <time>2011-05-28T06:46:26Z</time>
      </trkpt>
      <trkpt lat="44.43041" lon="4.35966">
        <ele>107.8050537</ele>
        <time>2011-05-28T06:46:28Z</time>
      </trkpt>
      <trkpt lat="44.43031" lon="4.35954">
        <ele>107.3243408</ele>
        <time>2011-05-28T06:46:30Z</time>
      </trkpt>
      <trkpt lat="44.43021" lon="4.35943">
        <ele>107.3243408</ele>
        <time>2011-05-28T06:46:32Z</time>
      </trkpt>
      <trkpt lat="44.43012" lon="4.35931">
        <ele>107.3243408</ele>
        <time>2011-05-28T06:46:34Z</time>
      </trkpt>
      <trkpt lat="44.43006" lon="4.35918">
        <ele>106.8436279</ele>
        <time>2011-05-28T06:46:36Z</time>
      </trkpt>
      <trkpt lat="44.43" lon="4.35905">
        <ele>107.3243408</ele>
        <time>2011-05-28T06:46:38Z</time>
      </trkpt>
      <trkpt lat="44.42994" lon="4.35893">
        <ele>107.8050537</ele>
        <time>2011-05-28T06:46:40Z</time>
      </trkpt>
      <trkpt lat="44.42989" lon="4.35881">
        <ele>107.3243408</ele>
        <time>2011-05-28T06:46:42Z</time>
      </trkpt>
      <trkpt lat="44.42983" lon="4.35866">
        <ele>107.3243408</ele>
        <time>2011-05-28T06:46:45Z</time>
      </trkpt>
      <trkpt lat="44.42977" lon="4.35851">
        <ele>106.8436279</ele>
        <time>2011-05-28T06:46:49Z</time>
      </trkpt>
      <trkpt lat="44.42973" lon="4.3584">
        <ele>107.3243408</ele>
        <time>2011-05-28T06:46:53Z</time>
      </trkpt>
      <trkpt lat="44.42969" lon="4.35828">
        <ele>107.3243408</ele>
        <time>2011-05-28T06:47:07Z</time>
      </trkpt>
      <trkpt lat="44.42967" lon="4.35813">
        <ele>107.8050537</ele>
        <time>2011-05-28T06:47:12Z</time>
      </trkpt>
      <trkpt lat="44.42968" lon="4.35796">
        <ele>106.8436279</ele>
        <time>2011-05-28T06:47:15Z</time>
      </trkpt>
      <trkpt lat="44.42968" lon="4.35784">
        <ele>106.3630371</ele>
        <time>2011-05-28T06:47:17Z</time>
      </trkpt>
      <trkpt lat="44.42966" lon="4.35771">
        <ele>104.9210205</ele>
        <time>2011-05-28T06:47:20Z</time>
      </trkpt>
      <trkpt lat="44.42965" lon="4.35761">
        <ele>104.4404297</ele>
        <time>2011-05-28T06:49:00Z</time>
      </trkpt>
      <trkpt lat="44.42962" lon="4.35744">
        <ele>104.4404297</ele>
        <time>2011-05-28T06:49:04Z</time>
      </trkpt>
      <trkpt lat="44.42958" lon="4.35729">
        <ele>103.9597168</ele>
        <time>2011-05-28T06:49:07Z</time>
      </trkpt>
      <trkpt lat="44.42955" lon="4.35717">
        <ele>104.4404297</ele>
        <time>2011-05-28T06:49:10Z</time>
      </trkpt>
      <trkpt lat="44.42951" lon="4.35702">
        <ele>104.9210205</ele>
        <time>2011-05-28T06:49:13Z</time>
      </trkpt>
      <trkpt lat="44.42947" lon="4.35685">
        <ele>104.4404297</ele>
        <time>2011-05-28T06:49:16Z</time>
      </trkpt>
      <trkpt lat="44.42942" lon="4.35667">
        <ele>104.9210205</ele>
        <time>2011-05-28T06:49:19Z</time>
      </trkpt>
      <trkpt lat="44.42938" lon="4.3565">
        <ele>104.9210205</ele>
        <time>2011-05-28T06:49:22Z</time>
      </trkpt>
      <trkpt lat="44.42933" lon="4.35632">
        <ele>105.4017334</ele>
        <time>2011-05-28T06:49:25Z</time>
      </trkpt>
      <trkpt lat="44.42928" lon="4.35615">
        <ele>104.9210205</ele>
        <time>2011-05-28T06:49:28Z</time>
      </trkpt>
      <trkpt lat="44.42924" lon="4.35598">
        <ele>105.8824463</ele>
        <time>2011-05-28T06:49:31Z</time>
      </trkpt>
      <trkpt lat="44.42919" lon="4.3558">
        <ele>106.3630371</ele>
        <time>2011-05-28T06:49:34Z</time>
      </trkpt>
      <trkpt lat="44.42915" lon="4.35562">
        <ele>105.8824463</ele>
        <time>2011-05-28T06:49:37Z</time>
      </trkpt>
      <trkpt lat="44.42912" lon="4.35544">
        <ele>105.8824463</ele>
        <time>2011-05-28T06:49:40Z</time>
      </trkpt>
      <trkpt lat="44.42909" lon="4.35525">
        <ele>106.3630371</ele>
        <time>2011-05-28T06:49:43Z</time>
      </trkpt>
      <trkpt lat="44.4291" lon="4.35507">
        <ele>106.3630371</ele>
        <time>2011-05-28T06:49:46Z</time>
      </trkpt>
      <trkpt lat="44.42911" lon="4.35488">
        <ele>106.3630371</ele>
        <time>2011-05-28T06:49:49Z</time>
      </trkpt>
      <trkpt lat="44.42912" lon="4.35469">
        <ele>106.8436279</ele>
        <time>2011-05-28T06:49:52Z</time>
      </trkpt>
      <trkpt lat="44.42913" lon="4.3545">
        <ele>106.8436279</ele>
        <time>2011-05-28T06:49:55Z</time>
      </trkpt>
      <trkpt lat="44.42914" lon="4.35431">
        <ele>107.3243408</ele>
        <time>2011-05-28T06:49:58Z</time>
      </trkpt>
      <trkpt lat="44.42915" lon="4.35413">
        <ele>107.3243408</ele>
        <time>2011-05-28T06:50:01Z</time>
      </trkpt>
      <trkpt lat="44.42917" lon="4.35393">
        <ele>107.3243408</ele>
        <time>2011-05-28T06:50:04Z</time>
      </trkpt>
      <trkpt lat="44.42918" lon="4.35375">
        <ele>107.8050537</ele>
        <time>2011-05-28T06:50:07Z</time>
      </trkpt>
      <trkpt lat="44.42918" lon="4.35356">
        <ele>108.2856445</ele>
        <time>2011-05-28T06:50:10Z</time>
      </trkpt>
      <trkpt lat="44.42916" lon="4.35339">
        <ele>108.2856445</ele>
        <time>2011-05-28T06:50:13Z</time>
      </trkpt>
      <trkpt lat="44.42911" lon="4.35323">
        <ele>108.7662354</ele>
        <time>2011-05-28T06:50:16Z</time>
      </trkpt>
      <trkpt lat="44.42906" lon="4.35308">
        <ele>108.7662354</ele>
        <time>2011-05-28T06:50:19Z</time>
      </trkpt>
      <trkpt lat="44.429" lon="4.35295">
        <ele>109.2469482</ele>
        <time>2011-05-28T06:50:22Z</time>
      </trkpt>
      <trkpt lat="44.42894" lon="4.35283">
        <ele>110.208252</ele>
        <time>2011-05-28T06:50:25Z</time>
      </trkpt>
      <trkpt lat="44.42885" lon="4.35272">
        <ele>110.208252</ele>
        <time>2011-05-28T06:50:29Z</time>
      </trkpt>
      <trkpt lat="44.42876" lon="4.35268">
        <ele>111.1695557</ele>
        <time>2011-05-28T06:50:32Z</time>
      </trkpt>
      <trkpt lat="44.42866" lon="4.35265">
        <ele>111.1695557</ele>
        <time>2011-05-28T06:50:35Z</time>
      </trkpt>
      <trkpt lat="44.42856" lon="4.35262">
        <ele>111.1695557</ele>
        <time>2011-05-28T06:50:38Z</time>
      </trkpt>
      <trkpt lat="44.42845" lon="4.35259">
        <ele>112.1309814</ele>
        <time>2011-05-28T06:50:41Z</time>
      </trkpt>
      <trkpt lat="44.42834" lon="4.35258">
        <ele>112.1309814</ele>
        <time>2011-05-28T06:50:44Z</time>
      </trkpt>
      <trkpt lat="44.42822" lon="4.35258">
        <ele>112.1309814</ele>
        <time>2011-05-28T06:50:47Z</time>
      </trkpt>
      <trkpt lat="44.4281" lon="4.35259">
        <ele>112.1309814</ele>
        <time>2011-05-28T06:50:50Z</time>
      </trkpt>
      <trkpt lat="44.42797" lon="4.35258">
        <ele>111.6502686</ele>
        <time>2011-05-28T06:50:53Z</time>
      </trkpt>
      <trkpt lat="44.42784" lon="4.35254">
        <ele>112.6115723</ele>
        <time>2011-05-28T06:50:56Z</time>
      </trkpt>
      <trkpt lat="44.42773" lon="4.35247">
        <ele>112.6115723</ele>
        <time>2011-05-28T06:50:59Z</time>
      </trkpt>
      <trkpt lat="44.42763" lon="4.3524">
        <ele>113.0922852</ele>
        <time>2011-05-28T06:51:02Z</time>
      </trkpt>
      <trkpt lat="44.42752" lon="4.35236">
        <ele>114.0535889</ele>
        <time>2011-05-28T06:51:05Z</time>
      </trkpt>
      <trkpt lat="44.42742" lon="4.35239">
        <ele>113.572998</ele>
        <time>2011-05-28T06:51:08Z</time>
      </trkpt>
      <trkpt lat="44.4273" lon="4.35243">
        <ele>114.0535889</ele>
        <time>2011-05-28T06:51:11Z</time>
      </trkpt>
      <trkpt lat="44.42718" lon="4.35244">
        <ele>114.5341797</ele>
        <time>2011-05-28T06:51:14Z</time>
      </trkpt>
      <trkpt lat="44.42706" lon="4.35242">
        <ele>115.4956055</ele>
        <time>2011-05-28T06:51:17Z</time>
      </trkpt>
      <trkpt lat="44.42694" lon="4.35239">
        <ele>115.9761963</ele>
        <time>2011-05-28T06:51:20Z</time>
      </trkpt>
      <trkpt lat="44.42682" lon="4.35235">
        <ele>117.4182129</ele>
        <time>2011-05-28T06:51:23Z</time>
      </trkpt>
      <trkpt lat="44.42671" lon="4.35231">
        <ele>117.4182129</ele>
        <time>2011-05-28T06:51:26Z</time>
      </trkpt>
      <trkpt lat="44.4266" lon="4.35225">
        <ele>118.8601074</ele>
        <time>2011-05-28T06:51:29Z</time>
      </trkpt>
      <trkpt lat="44.42649" lon="4.35215">
        <ele>117.8988037</ele>
        <time>2011-05-28T06:51:32Z</time>
      </trkpt>
      <trkpt lat="44.42638" lon="4.35205">
        <ele>119.3408203</ele>
        <time>2011-05-28T06:51:35Z</time>
      </trkpt>
      <trkpt lat="44.42625" lon="4.35198">
        <ele>118.3793945</ele>
        <time>2011-05-28T06:51:38Z</time>
      </trkpt>
      <trkpt lat="44.42616" lon="4.35195">
        <ele>117.8988037</ele>
        <time>2011-05-28T06:51:40Z</time>
      </trkpt>
      <trkpt lat="44.42607" lon="4.35192">
        <ele>117.8988037</ele>
        <time>2011-05-28T06:51:42Z</time>
      </trkpt>
      <trkpt lat="44.42598" lon="4.35188">
        <ele>117.8988037</ele>
        <time>2011-05-28T06:51:44Z</time>
      </trkpt>
      <trkpt lat="44.42588" lon="4.35185">
        <ele>118.3793945</ele>
        <time>2011-05-28T06:51:46Z</time>
      </trkpt>
      <trkpt lat="44.42579" lon="4.3518">
        <ele>117.8988037</ele>
        <time>2011-05-28T06:51:48Z</time>
      </trkpt>
      <trkpt lat="44.42571" lon="4.35174">
        <ele>117.4182129</ele>
        <time>2011-05-28T06:51:50Z</time>
      </trkpt>
      <trkpt lat="44.42563" lon="4.35167">
        <ele>116.4567871</ele>
        <time>2011-05-28T06:51:52Z</time>
      </trkpt>
      <trkpt lat="44.42555" lon="4.3516">
        <ele>116.4567871</ele>
        <time>2011-05-28T06:51:54Z</time>
      </trkpt>
      <trkpt lat="44.42546" lon="4.35151">
        <ele>115.9761963</ele>
        <time>2011-05-28T06:51:56Z</time>
      </trkpt>
      <trkpt lat="44.42538" lon="4.35142">
        <ele>116.4567871</ele>
        <time>2011-05-28T06:51:58Z</time>
      </trkpt>
      <trkpt lat="44.42531" lon="4.3513">
        <ele>116.4567871</ele>
        <time>2011-05-28T06:52:00Z</time>
      </trkpt>
      <trkpt lat="44.42524" lon="4.35119">
        <ele>116.4567871</ele>
        <time>2011-05-28T06:52:02Z</time>
      </trkpt>
      <trkpt lat="44.42518" lon="4.35107">
        <ele>116.4567871</ele>
        <time>2011-05-28T06:52:04Z</time>
      </trkpt>
      <trkpt lat="44.42513" lon="4.35096">
        <ele>116.9375</ele>
        <time>2011-05-28T06:52:06Z</time>
      </trkpt>
      <trkpt lat="44.4251" lon="4.35078">
        <ele>116.9375</ele>
        <time>2011-05-28T06:52:09Z</time>
      </trkpt>
      <trkpt lat="44.42511" lon="4.35058">
        <ele>116.9375</ele>
        <time>2011-05-28T06:52:12Z</time>
      </trkpt>
      <trkpt lat="44.42516" lon="4.3504">
        <ele>117.4182129</ele>
        <time>2011-05-28T06:52:15Z</time>
      </trkpt>
      <trkpt lat="44.42517" lon="4.35023">
        <ele>117.4182129</ele>
        <time>2011-05-28T06:52:18Z</time>
      </trkpt>
      <trkpt lat="44.42513" lon="4.35012">
        <ele>117.4182129</ele>
        <time>2011-05-28T06:52:20Z</time>
      </trkpt>
      <trkpt lat="44.42505" lon="4.35004">
        <ele>117.4182129</ele>
        <time>2011-05-28T06:52:22Z</time>
      </trkpt>
      <trkpt lat="44.42495" lon="4.35001">
        <ele>117.4182129</ele>
        <time>2011-05-28T06:52:24Z</time>
      </trkpt>
      <trkpt lat="44.42485" lon="4.34998">
        <ele>117.4182129</ele>
        <time>2011-05-28T06:52:26Z</time>
      </trkpt>
      <trkpt lat="44.42476" lon="4.34996">
        <ele>117.4182129</ele>
        <time>2011-05-28T06:52:28Z</time>
      </trkpt>
      <trkpt lat="44.42466" lon="4.34993">
        <ele>117.4182129</ele>
        <time>2011-05-28T06:52:30Z</time>
      </trkpt>
      <trkpt lat="44.42457" lon="4.34989">
        <ele>117.4182129</ele>
        <time>2011-05-28T06:52:32Z</time>
      </trkpt>
      <trkpt lat="44.42448" lon="4.34985">
        <ele>116.9375</ele>
        <time>2011-05-28T06:52:34Z</time>
      </trkpt>
      <trkpt lat="44.42438" lon="4.3498">
        <ele>116.9375</ele>
        <time>2011-05-28T06:52:36Z</time>
      </trkpt>
      <trkpt lat="44.42429" lon="4.34971">
        <ele>115.9761963</ele>
        <time>2011-05-28T06:52:38Z</time>
      </trkpt>
      <trkpt lat="44.4242" lon="4.34955">
        <ele>114.0535889</ele>
        <time>2011-05-28T06:52:40Z</time>
      </trkpt>
      <trkpt lat="44.4241" lon="4.34935">
        <ele>111.6502686</ele>
        <time>2011-05-28T06:52:42Z</time>
      </trkpt>
      <trkpt lat="44.42402" lon="4.34915">
        <ele>110.208252</ele>
        <time>2011-05-28T06:52:44Z</time>
      </trkpt>
      <trkpt lat="44.42398" lon="4.34891">
        <ele>107.8050537</ele>
        <time>2011-05-28T06:52:46Z</time>
      </trkpt>
      <trkpt lat="44.42397" lon="4.34869">
        <ele>105.8824463</ele>
        <time>2011-05-28T06:52:48Z</time>
      </trkpt>
      <trkpt lat="44.42394" lon="4.3485">
        <ele>104.9210205</ele>
        <time>2011-05-28T06:52:50Z</time>
      </trkpt>
      <trkpt lat="44.42391" lon="4.34834">
        <ele>104.9210205</ele>
        <time>2011-05-28T06:52:52Z</time>
      </trkpt>
      <trkpt lat="44.42388" lon="4.34819">
        <ele>106.3630371</ele>
        <time>2011-05-28T06:52:55Z</time>
      </trkpt>
      <trkpt lat="44.42383" lon="4.34809">
        <ele>108.7662354</ele>
        <time>2011-05-28T06:52:59Z</time>
      </trkpt>
      <trkpt lat="44.42376" lon="4.34797">
        <ele>109.2469482</ele>
        <time>2011-05-28T06:53:04Z</time>
      </trkpt>
      <trkpt lat="44.42375" lon="4.34784">
        <ele>110.6888428</ele>
        <time>2011-05-28T06:53:09Z</time>
      </trkpt>
      <trkpt lat="44.42382" lon="4.34772">
        <ele>111.1695557</ele>
        <time>2011-05-28T06:53:14Z</time>
      </trkpt>
      <trkpt lat="44.42388" lon="4.34763">
        <ele>112.1309814</ele>
        <time>2011-05-28T06:53:18Z</time>
      </trkpt>
      <trkpt lat="44.42393" lon="4.34749">
        <ele>113.572998</ele>
        <time>2011-05-28T06:53:23Z</time>
      </trkpt>
      <trkpt lat="44.42394" lon="4.34736">
        <ele>114.5341797</ele>
        <time>2011-05-28T06:53:28Z</time>
      </trkpt>
      <trkpt lat="44.42394" lon="4.34721">
        <ele>115.9761963</ele>
        <time>2011-05-28T06:53:34Z</time>
      </trkpt>
      <trkpt lat="44.42396" lon="4.34708">
        <ele>117.4182129</ele>
        <time>2011-05-28T06:53:40Z</time>
      </trkpt>
      <trkpt lat="44.42398" lon="4.34696">
        <ele>118.3793945</ele>
        <time>2011-05-28T06:53:45Z</time>
      </trkpt>
      <trkpt lat="44.42399" lon="4.34682">
        <ele>118.8601074</ele>
        <time>2011-05-28T06:53:50Z</time>
      </trkpt>
      <trkpt lat="44.424" lon="4.34667">
        <ele>119.8214111</ele>
        <time>2011-05-28T06:53:56Z</time>
      </trkpt>
      <trkpt lat="44.42402" lon="4.34652">
        <ele>119.8214111</ele>
        <time>2011-05-28T06:54:02Z</time>
      </trkpt>
      <trkpt lat="44.42403" lon="4.34637">
        <ele>121.7441406</ele>
        <time>2011-05-28T06:54:08Z</time>
      </trkpt>
      <trkpt lat="44.42404" lon="4.34624">
        <ele>121.7441406</ele>
        <time>2011-05-28T06:54:13Z</time>
      </trkpt>
      <trkpt lat="44.42404" lon="4.34609">
        <ele>121.7441406</ele>
        <time>2011-05-28T06:54:18Z</time>
      </trkpt>
      <trkpt lat="44.42405" lon="4.34596">
        <ele>123.1861572</ele>
        <time>2011-05-28T06:54:23Z</time>
      </trkpt>
      <trkpt lat="44.42406" lon="4.34583">
        <ele>125.5893555</ele>
        <time>2011-05-28T06:54:28Z</time>
      </trkpt>
      <trkpt lat="44.42407" lon="4.3457">
        <ele>127.5119629</ele>
        <time>2011-05-28T06:54:33Z</time>
      </trkpt>
      <trkpt lat="44.42408" lon="4.34557">
        <ele>128.9541016</ele>
        <time>2011-05-28T06:54:38Z</time>
      </trkpt>
      <trkpt lat="44.42409" lon="4.34543">
        <ele>129.9152832</ele>
        <time>2011-05-28T06:54:43Z</time>
      </trkpt>
      <trkpt lat="44.4241" lon="4.34528">
        <ele>130.876709</ele>
        <time>2011-05-28T06:54:49Z</time>
      </trkpt>
      <trkpt lat="44.42411" lon="4.34512">
        <ele>131.3572998</ele>
        <time>2011-05-28T06:54:55Z</time>
      </trkpt>
      <trkpt lat="44.42412" lon="4.34499">
        <ele>131.8378906</ele>
        <time>2011-05-28T06:55:00Z</time>
      </trkpt>
      <trkpt lat="44.42413" lon="4.34484">
        <ele>132.3186035</ele>
        <time>2011-05-28T06:55:05Z</time>
      </trkpt>
      <trkpt lat="44.42414" lon="4.3447">
        <ele>132.7993164</ele>
        <time>2011-05-28T06:55:09Z</time>
      </trkpt>
      <trkpt lat="44.42415" lon="4.34454">
        <ele>132.3186035</ele>
        <time>2011-05-28T06:55:13Z</time>
      </trkpt>
      <trkpt lat="44.42417" lon="4.34441">
        <ele>132.7993164</ele>
        <time>2011-05-28T06:55:16Z</time>
      </trkpt>
      <trkpt lat="44.42417" lon="4.34428">
        <ele>133.2799072</ele>
        <time>2011-05-28T06:55:19Z</time>
      </trkpt>
      <trkpt lat="44.42415" lon="4.34413">
        <ele>133.760498</ele>
        <time>2011-05-28T06:55:23Z</time>
      </trkpt>
      <trkpt lat="44.42414" lon="4.344">
        <ele>133.2799072</ele>
        <time>2011-05-28T06:55:26Z</time>
      </trkpt>
      <trkpt lat="44.42413" lon="4.34384">
        <ele>134.7219238</ele>
        <time>2011-05-28T06:55:30Z</time>
      </trkpt>
      <trkpt lat="44.42407" lon="4.34372">
        <ele>135.2025146</ele>
        <time>2011-05-28T06:55:34Z</time>
      </trkpt>
      <trkpt lat="44.42401" lon="4.34359">
        <ele>137.1252441</ele>
        <time>2011-05-28T06:55:38Z</time>
      </trkpt>
      <trkpt lat="44.42396" lon="4.34346">
        <ele>137.605835</ele>
        <time>2011-05-28T06:55:42Z</time>
      </trkpt>
      <trkpt lat="44.42392" lon="4.34333">
        <ele>139.5284424</ele>
        <time>2011-05-28T06:55:46Z</time>
      </trkpt>
      <trkpt lat="44.42387" lon="4.3432">
        <ele>139.0478516</ele>
        <time>2011-05-28T06:55:50Z</time>
      </trkpt>
      <trkpt lat="44.42383" lon="4.34306">
        <ele>139.5284424</ele>
        <time>2011-05-28T06:55:54Z</time>
      </trkpt>
      <trkpt lat="44.42381" lon="4.34292">
        <ele>140.0091553</ele>
        <time>2011-05-28T06:55:58Z</time>
      </trkpt>
      <trkpt lat="44.42384" lon="4.3428">
        <ele>142.4124756</ele>
        <time>2011-05-28T06:56:02Z</time>
      </trkpt>
      <trkpt lat="44.42389" lon="4.34268">
        <ele>143.8543701</ele>
        <time>2011-05-28T06:56:06Z</time>
      </trkpt>
      <trkpt lat="44.42395" lon="4.34255">
        <ele>144.3352051</ele>
        <time>2011-05-28T06:56:10Z</time>
      </trkpt>
      <trkpt lat="44.42402" lon="4.34242">
        <ele>144.3352051</ele>
        <time>2011-05-28T06:56:14Z</time>
      </trkpt>
      <trkpt lat="44.42408" lon="4.34229">
        <ele>145.2963867</ele>
        <time>2011-05-28T06:56:18Z</time>
      </trkpt>
      <trkpt lat="44.42414" lon="4.34216">
        <ele>144.8157959</ele>
        <time>2011-05-28T06:56:22Z</time>
      </trkpt>
      <trkpt lat="44.42419" lon="4.34204">
        <ele>146.2578125</ele>
        <time>2011-05-28T06:56:26Z</time>
      </trkpt>
      <trkpt lat="44.42424" lon="4.34193">
        <ele>146.7384033</ele>
        <time>2011-05-28T06:56:30Z</time>
      </trkpt>
      <trkpt lat="44.42429" lon="4.3418">
        <ele>148.1804199</ele>
        <time>2011-05-28T06:56:34Z</time>
      </trkpt>
      <trkpt lat="44.42434" lon="4.34167">
        <ele>148.6610107</ele>
        <time>2011-05-28T06:56:38Z</time>
      </trkpt>
      <trkpt lat="44.4244" lon="4.34154">
        <ele>148.6610107</ele>
        <time>2011-05-28T06:56:42Z</time>
      </trkpt>
      <trkpt lat="44.42445" lon="4.34141">
        <ele>149.1416016</ele>
        <time>2011-05-28T06:56:46Z</time>
      </trkpt>
      <trkpt lat="44.42451" lon="4.34128">
        <ele>150.1030273</ele>
        <time>2011-05-28T06:56:50Z</time>
      </trkpt>
      <trkpt lat="44.42452" lon="4.34114">
        <ele>151.5449219</ele>
        <time>2011-05-28T06:56:54Z</time>
      </trkpt>
      <trkpt lat="44.42444" lon="4.34107">
        <ele>152.9869385</ele>
        <time>2011-05-28T06:56:58Z</time>
      </trkpt>
      <trkpt lat="44.42434" lon="4.34111">
        <ele>153.9483643</ele>
        <time>2011-05-28T06:57:02Z</time>
      </trkpt>
      <trkpt lat="44.42425" lon="4.34117">
        <ele>154.4289551</ele>
        <time>2011-05-28T06:57:06Z</time>
      </trkpt>
      <trkpt lat="44.42415" lon="4.34122">
        <ele>155.3902588</ele>
        <time>2011-05-28T06:57:10Z</time>
      </trkpt>
      <trkpt lat="44.42405" lon="4.34128">
        <ele>156.3515625</ele>
        <time>2011-05-28T06:57:14Z</time>
      </trkpt>
      <trkpt lat="44.42395" lon="4.34134">
        <ele>156.8321533</ele>
        <time>2011-05-28T06:57:18Z</time>
      </trkpt>
      <trkpt lat="44.42385" lon="4.34139">
        <ele>157.7935791</ele>
        <time>2011-05-28T06:57:22Z</time>
      </trkpt>
      <trkpt lat="44.42374" lon="4.34143">
        <ele>158.2741699</ele>
        <time>2011-05-28T06:57:26Z</time>
      </trkpt>
      <trkpt lat="44.42364" lon="4.34145">
        <ele>159.2354736</ele>
        <time>2011-05-28T06:57:30Z</time>
      </trkpt>
      <trkpt lat="44.42354" lon="4.34145">
        <ele>159.7161865</ele>
        <time>2011-05-28T06:57:34Z</time>
      </trkpt>
      <trkpt lat="44.42344" lon="4.34142">
        <ele>160.1968994</ele>
        <time>2011-05-28T06:57:39Z</time>
      </trkpt>
      <trkpt lat="44.42334" lon="4.34141">
        <ele>161.638916</ele>
        <time>2011-05-28T06:57:43Z</time>
      </trkpt>
      <trkpt lat="44.42324" lon="4.34138">
        <ele>162.1195068</ele>
        <time>2011-05-28T06:57:47Z</time>
      </trkpt>
      <trkpt lat="44.42315" lon="4.34135">
        <ele>163.0808105</ele>
        <time>2011-05-28T06:57:51Z</time>
      </trkpt>
      <trkpt lat="44.42304" lon="4.3413">
        <ele>164.0421143</ele>
        <time>2011-05-28T06:57:56Z</time>
      </trkpt>
      <trkpt lat="44.42295" lon="4.34126">
        <ele>164.5227051</ele>
        <time>2011-05-28T06:58:00Z</time>
      </trkpt>
      <trkpt lat="44.42284" lon="4.34122">
        <ele>165.4841309</ele>
        <time>2011-05-28T06:58:05Z</time>
      </trkpt>
      <trkpt lat="44.42274" lon="4.34118">
        <ele>165.9647217</ele>
        <time>2011-05-28T06:58:10Z</time>
      </trkpt>
      <trkpt lat="44.42263" lon="4.34117">
        <ele>167.4067383</ele>
        <time>2011-05-28T06:58:15Z</time>
      </trkpt>
      <trkpt lat="44.42253" lon="4.34119">
        <ele>167.4067383</ele>
        <time>2011-05-28T06:58:19Z</time>
      </trkpt>
      <trkpt lat="44.42243" lon="4.34121">
        <ele>168.8487549</ele>
        <time>2011-05-28T06:58:23Z</time>
      </trkpt>
      <trkpt lat="44.42233" lon="4.34124">
        <ele>170.2906494</ele>
        <time>2011-05-28T06:58:27Z</time>
      </trkpt>
      <trkpt lat="44.42223" lon="4.34127">
        <ele>170.7713623</ele>
        <time>2011-05-28T06:58:31Z</time>
      </trkpt>
      <trkpt lat="44.42213" lon="4.34129">
        <ele>171.732666</ele>
        <time>2011-05-28T06:58:35Z</time>
      </trkpt>
      <trkpt lat="44.42203" lon="4.3413">
        <ele>172.2132568</ele>
        <time>2011-05-28T06:58:39Z</time>
      </trkpt>
      <trkpt lat="44.42193" lon="4.34128">
        <ele>173.6552734</ele>
        <time>2011-05-28T06:58:43Z</time>
      </trkpt>
      <trkpt lat="44.42183" lon="4.34124">
        <ele>173.1746826</ele>
        <time>2011-05-28T06:58:47Z</time>
      </trkpt>
      <trkpt lat="44.42175" lon="4.34116">
        <ele>175.09729</ele>
        <time>2011-05-28T06:58:51Z</time>
      </trkpt>
      <trkpt lat="44.42182" lon="4.34107">
        <ele>176.5393066</ele>
        <time>2011-05-28T06:58:56Z</time>
      </trkpt>
      <trkpt lat="44.42192" lon="4.34106">
        <ele>178.4619141</ele>
        <time>2011-05-28T06:59:00Z</time>
      </trkpt>
      <trkpt lat="44.42203" lon="4.34102">
        <ele>179.4232178</ele>
        <time>2011-05-28T06:59:04Z</time>
      </trkpt>
      <trkpt lat="44.42212" lon="4.34096">
        <ele>179.9038086</ele>
        <time>2011-05-28T06:59:08Z</time>
      </trkpt>
      <trkpt lat="44.42221" lon="4.34089">
        <ele>179.9038086</ele>
        <time>2011-05-28T06:59:12Z</time>
      </trkpt>
      <trkpt lat="44.42229" lon="4.34081">
        <ele>180.8652344</ele>
        <time>2011-05-28T06:59:16Z</time>
      </trkpt>
      <trkpt lat="44.42238" lon="4.34074">
        <ele>180.8652344</ele>
        <time>2011-05-28T06:59:20Z</time>
      </trkpt>
      <trkpt lat="44.42245" lon="4.34066">
        <ele>182.3071289</ele>
        <time>2011-05-28T06:59:24Z</time>
      </trkpt>
      <trkpt lat="44.42253" lon="4.34058">
        <ele>182.3071289</ele>
        <time>2011-05-28T06:59:28Z</time>
      </trkpt>
      <trkpt lat="44.42261" lon="4.34047">
        <ele>184.2298584</ele>
        <time>2011-05-28T06:59:33Z</time>
      </trkpt>
      <trkpt lat="44.4226" lon="4.34033">
        <ele>186.6331787</ele>
        <time>2011-05-28T06:59:38Z</time>
      </trkpt>
      <trkpt lat="44.42249" lon="4.34033">
        <ele>189.9976807</ele>
        <time>2011-05-28T06:59:43Z</time>
      </trkpt>
      <trkpt lat="44.4224" lon="4.34036">
        <ele>190.4783936</ele>
        <time>2011-05-28T06:59:47Z</time>
      </trkpt>
      <trkpt lat="44.42229" lon="4.34038">
        <ele>191.4395752</ele>
        <time>2011-05-28T06:59:51Z</time>
      </trkpt>
      <trkpt lat="44.4222" lon="4.34039">
        <ele>192.401123</ele>
        <time>2011-05-28T06:59:55Z</time>
      </trkpt>
      <trkpt lat="44.42208" lon="4.34039">
        <ele>192.401123</ele>
        <time>2011-05-28T07:00:00Z</time>
      </trkpt>
      <trkpt lat="44.42199" lon="4.34037">
        <ele>193.8430176</ele>
        <time>2011-05-28T07:00:04Z</time>
      </trkpt>
      <trkpt lat="44.4219" lon="4.34035">
        <ele>195.765625</ele>
        <time>2011-05-28T07:00:08Z</time>
      </trkpt>
      <trkpt lat="44.4218" lon="4.34031">
        <ele>197.6882324</ele>
        <time>2011-05-28T07:00:12Z</time>
      </trkpt>
      <trkpt lat="44.42172" lon="4.34024">
        <ele>197.2075195</ele>
        <time>2011-05-28T07:00:16Z</time>
      </trkpt>
      <trkpt lat="44.42165" lon="4.34016">
        <ele>197.6882324</ele>
        <time>2011-05-28T07:00:20Z</time>
      </trkpt>
      <trkpt lat="44.42157" lon="4.34009">
        <ele>197.6882324</ele>
        <time>2011-05-28T07:00:24Z</time>
      </trkpt>
      <trkpt lat="44.42147" lon="4.34003">
        <ele>198.6495361</ele>
        <time>2011-05-28T07:00:29Z</time>
      </trkpt>
      <trkpt lat="44.42137" lon="4.34004">
        <ele>200.0916748</ele>
        <time>2011-05-28T07:00:34Z</time>
      </trkpt>
      <trkpt lat="44.42127" lon="4.34008">
        <ele>201.5335693</ele>
        <time>2011-05-28T07:00:40Z</time>
      </trkpt>
      <trkpt lat="44.42118" lon="4.34009">
        <ele>202.9754639</ele>
        <time>2011-05-28T07:00:45Z</time>
      </trkpt>
      <trkpt lat="44.42108" lon="4.34007">
        <ele>203.9368896</ele>
        <time>2011-05-28T07:00:50Z</time>
      </trkpt>
      <trkpt lat="44.42099" lon="4.33998">
        <ele>206.3400879</ele>
        <time>2011-05-28T07:00:56Z</time>
      </trkpt>
      <trkpt lat="44.42107" lon="4.33992">
        <ele>207.7821045</ele>
        <time>2011-05-28T07:01:01Z</time>
      </trkpt>
      <trkpt lat="44.42116" lon="4.33986">
        <ele>208.2628174</ele>
        <time>2011-05-28T07:01:06Z</time>
      </trkpt>
      <trkpt lat="44.42122" lon="4.33977">
        <ele>208.7434082</ele>
        <time>2011-05-28T07:01:11Z</time>
      </trkpt>
      <trkpt lat="44.42128" lon="4.33966">
        <ele>211.1467285</ele>
        <time>2011-05-28T07:01:16Z</time>
      </trkpt>
      <trkpt lat="44.42134" lon="4.33953">
        <ele>212.588623</ele>
        <time>2011-05-28T07:01:22Z</time>
      </trkpt>
      <trkpt lat="44.42142" lon="4.33944">
        <ele>213.0693359</ele>
        <time>2011-05-28T07:01:27Z</time>
      </trkpt>
      <trkpt lat="44.42151" lon="4.33945">
        <ele>213.5500488</ele>
        <time>2011-05-28T07:01:32Z</time>
      </trkpt>
      <trkpt lat="44.4216" lon="4.33948">
        <ele>214.0306396</ele>
        <time>2011-05-28T07:01:37Z</time>
      </trkpt>
      <trkpt lat="44.4217" lon="4.3395">
        <ele>214.0306396</ele>
        <time>2011-05-28T07:01:42Z</time>
      </trkpt>
      <trkpt lat="44.4218" lon="4.3395">
        <ele>214.9919434</ele>
        <time>2011-05-28T07:01:47Z</time>
      </trkpt>
      <trkpt lat="44.4219" lon="4.33944">
        <ele>215.9532471</ele>
        <time>2011-05-28T07:01:52Z</time>
      </trkpt>
      <trkpt lat="44.42198" lon="4.33934">
        <ele>217.3953857</ele>
        <time>2011-05-28T07:01:57Z</time>
      </trkpt>
      <trkpt lat="44.42203" lon="4.33922">
        <ele>219.3179932</ele>
        <time>2011-05-28T07:02:02Z</time>
      </trkpt>
      <trkpt lat="44.42206" lon="4.33908">
        <ele>219.3179932</ele>
        <time>2011-05-28T07:02:07Z</time>
      </trkpt>
      <trkpt lat="44.42202" lon="4.33897">
        <ele>221.2406006</ele>
        <time>2011-05-28T07:02:12Z</time>
      </trkpt>
      <trkpt lat="44.42191" lon="4.339">
        <ele>222.6824951</ele>
        <time>2011-05-28T07:02:17Z</time>
      </trkpt>
      <trkpt lat="44.42181" lon="4.33903">
        <ele>224.1245117</ele>
        <time>2011-05-28T07:02:22Z</time>
      </trkpt>
      <trkpt lat="44.42171" lon="4.33904">
        <ele>224.6052246</ele>
        <time>2011-05-28T07:02:27Z</time>
      </trkpt>
      <trkpt lat="44.42161" lon="4.33898">
        <ele>225.0859375</ele>
        <time>2011-05-28T07:02:32Z</time>
      </trkpt>
      <trkpt lat="44.42154" lon="4.3389">
        <ele>226.0471191</ele>
        <time>2011-05-28T07:02:37Z</time>
      </trkpt>
      <trkpt lat="44.42146" lon="4.33882">
        <ele>227.9697266</ele>
        <time>2011-05-28T07:02:42Z</time>
      </trkpt>
      <trkpt lat="44.42139" lon="4.33874">
        <ele>229.4117432</ele>
        <time>2011-05-28T07:02:47Z</time>
      </trkpt>
      <trkpt lat="44.4213" lon="4.33867">
        <ele>229.4117432</ele>
        <time>2011-05-28T07:02:52Z</time>
      </trkpt>
      <trkpt lat="44.42121" lon="4.33863">
        <ele>230.8537598</ele>
        <time>2011-05-28T07:02:57Z</time>
      </trkpt>
      <trkpt lat="44.42112" lon="4.33863">
        <ele>232.2957764</ele>
        <time>2011-05-28T07:03:02Z</time>
      </trkpt>
      <trkpt lat="44.42103" lon="4.33866">
        <ele>233.2570801</ele>
        <time>2011-05-28T07:03:07Z</time>
      </trkpt>
      <trkpt lat="44.42093" lon="4.33867">
        <ele>234.6990967</ele>
        <time>2011-05-28T07:03:13Z</time>
      </trkpt>
      <trkpt lat="44.42082" lon="4.33865">
        <ele>236.6217041</ele>
        <time>2011-05-28T07:03:19Z</time>
      </trkpt>
      <trkpt lat="44.42072" lon="4.33859">
        <ele>236.6217041</ele>
        <time>2011-05-28T07:03:25Z</time>
      </trkpt>
      <trkpt lat="44.42062" lon="4.33853">
        <ele>237.1022949</ele>
        <time>2011-05-28T07:03:31Z</time>
      </trkpt>
      <trkpt lat="44.42052" lon="4.33848">
        <ele>238.0635986</ele>
        <time>2011-05-28T07:03:37Z</time>
      </trkpt>
      <trkpt lat="44.42042" lon="4.33842">
        <ele>238.5443115</ele>
        <time>2011-05-28T07:03:43Z</time>
      </trkpt>
      <trkpt lat="44.42032" lon="4.33835">
        <ele>240.467041</ele>
        <time>2011-05-28T07:03:49Z</time>
      </trkpt>
      <trkpt lat="44.42023" lon="4.33827">
        <ele>240.467041</ele>
        <time>2011-05-28T07:03:55Z</time>
      </trkpt>
      <trkpt lat="44.42015" lon="4.33819">
        <ele>242.3896484</ele>
        <time>2011-05-28T07:04:00Z</time>
      </trkpt>
      <trkpt lat="44.42008" lon="4.3381">
        <ele>243.831543</ele>
        <time>2011-05-28T07:04:05Z</time>
      </trkpt>
      <trkpt lat="44.42" lon="4.338">
        <ele>244.3122559</ele>
        <time>2011-05-28T07:04:10Z</time>
      </trkpt>
      <trkpt lat="44.41991" lon="4.33793">
        <ele>245.7541504</ele>
        <time>2011-05-28T07:04:15Z</time>
      </trkpt>
      <trkpt lat="44.41982" lon="4.33791">
        <ele>247.1960449</ele>
        <time>2011-05-28T07:04:20Z</time>
      </trkpt>
      <trkpt lat="44.41972" lon="4.33795">
        <ele>248.1575928</ele>
        <time>2011-05-28T07:04:25Z</time>
      </trkpt>
      <trkpt lat="44.41964" lon="4.33802">
        <ele>249.1187744</ele>
        <time>2011-05-28T07:04:31Z</time>
      </trkpt>
      <trkpt lat="44.41955" lon="4.33812">
        <ele>250.0802002</ele>
        <time>2011-05-28T07:04:37Z</time>
      </trkpt>
      <trkpt lat="44.41948" lon="4.33821">
        <ele>252.0028076</ele>
        <time>2011-05-28T07:04:43Z</time>
      </trkpt>
      <trkpt lat="44.41939" lon="4.33828">
        <ele>252.4833984</ele>
        <time>2011-05-28T07:04:50Z</time>
      </trkpt>
      <trkpt lat="44.41928" lon="4.33833">
        <ele>253.925415</ele>
        <time>2011-05-28T07:04:57Z</time>
      </trkpt>
      <trkpt lat="44.41919" lon="4.33827">
        <ele>255.8480225</ele>
        <time>2011-05-28T07:05:03Z</time>
      </trkpt>
      <trkpt lat="44.41922" lon="4.33815">
        <ele>258.2513428</ele>
        <time>2011-05-28T07:05:09Z</time>
      </trkpt>
      <trkpt lat="44.41922" lon="4.338">
        <ele>258.7319336</ele>
        <time>2011-05-28T07:05:15Z</time>
      </trkpt>
      <trkpt lat="44.41919" lon="4.33788">
        <ele>259.6933594</ele>
        <time>2011-05-28T07:05:20Z</time>
      </trkpt>
      <trkpt lat="44.41915" lon="4.33775">
        <ele>259.6933594</ele>
        <time>2011-05-28T07:05:25Z</time>
      </trkpt>
      <trkpt lat="44.4191" lon="4.3376">
        <ele>260.1739502</ele>
        <time>2011-05-28T07:05:30Z</time>
      </trkpt>
      <trkpt lat="44.41906" lon="4.33747">
        <ele>260.654541</ele>
        <time>2011-05-28T07:05:34Z</time>
      </trkpt>
      <trkpt lat="44.419" lon="4.33733">
        <ele>262.0965576</ele>
        <time>2011-05-28T07:05:38Z</time>
      </trkpt>
      <trkpt lat="44.41893" lon="4.33721">
        <ele>262.0965576</ele>
        <time>2011-05-28T07:05:42Z</time>
      </trkpt>
      <trkpt lat="44.41885" lon="4.3371">
        <ele>263.0578613</ele>
        <time>2011-05-28T07:05:46Z</time>
      </trkpt>
      <trkpt lat="44.41877" lon="4.33701">
        <ele>264.0192871</ele>
        <time>2011-05-28T07:05:50Z</time>
      </trkpt>
      <trkpt lat="44.41869" lon="4.33692">
        <ele>265.4613037</ele>
        <time>2011-05-28T07:05:55Z</time>
      </trkpt>
      <trkpt lat="44.41861" lon="4.33685">
        <ele>267.3839111</ele>
        <time>2011-05-28T07:06:01Z</time>
      </trkpt>
      <trkpt lat="44.41852" lon="4.33678">
        <ele>267.3839111</ele>
        <time>2011-05-28T07:06:07Z</time>
      </trkpt>
      <trkpt lat="44.41843" lon="4.33674">
        <ele>269.3065186</ele>
        <time>2011-05-28T07:06:13Z</time>
      </trkpt>
      <trkpt lat="44.41834" lon="4.3367">
        <ele>270.2677002</ele>
        <time>2011-05-28T07:06:19Z</time>
      </trkpt>
      <trkpt lat="44.41825" lon="4.33666">
        <ele>270.7484131</ele>
        <time>2011-05-28T07:06:25Z</time>
      </trkpt>
      <trkpt lat="44.41816" lon="4.3366">
        <ele>271.7097168</ele>
        <time>2011-05-28T07:06:31Z</time>
      </trkpt>
      <trkpt lat="44.41808" lon="4.33652">
        <ele>272.6711426</ele>
        <time>2011-05-28T07:06:37Z</time>
      </trkpt>
      <trkpt lat="44.418" lon="4.33641">
        <ele>274.1130371</ele>
        <time>2011-05-28T07:06:43Z</time>
      </trkpt>
      <trkpt lat="44.41792" lon="4.33631">
        <ele>274.1130371</ele>
        <time>2011-05-28T07:06:49Z</time>
      </trkpt>
      <trkpt lat="44.41785" lon="4.33623">
        <ele>275.5550537</ele>
        <time>2011-05-28T07:06:55Z</time>
      </trkpt>
      <trkpt lat="44.41777" lon="4.33615">
        <ele>277.4776611</ele>
        <time>2011-05-28T07:07:01Z</time>
      </trkpt>
      <trkpt lat="44.41769" lon="4.33607">
        <ele>279.4002686</ele>
        <time>2011-05-28T07:07:07Z</time>
      </trkpt>
      <trkpt lat="44.4176" lon="4.33601">
        <ele>280.3616943</ele>
        <time>2011-05-28T07:07:13Z</time>
      </trkpt>
      <trkpt lat="44.41752" lon="4.33594">
        <ele>281.322998</ele>
        <time>2011-05-28T07:07:19Z</time>
      </trkpt>
      <trkpt lat="44.41743" lon="4.33587">
        <ele>281.8035889</ele>
        <time>2011-05-28T07:07:25Z</time>
      </trkpt>
      <trkpt lat="44.41733" lon="4.33583">
        <ele>283.2456055</ele>
        <time>2011-05-28T07:07:31Z</time>
      </trkpt>
      <trkpt lat="44.41723" lon="4.33581">
        <ele>284.6876221</ele>
        <time>2011-05-28T07:07:36Z</time>
      </trkpt>
      <trkpt lat="44.41713" lon="4.3358">
        <ele>286.1295166</ele>
        <time>2011-05-28T07:07:41Z</time>
      </trkpt>
      <trkpt lat="44.41703" lon="4.33582">
        <ele>287.0908203</ele>
        <time>2011-05-28T07:07:46Z</time>
      </trkpt>
      <trkpt lat="44.41694" lon="4.33587">
        <ele>288.532959</ele>
        <time>2011-05-28T07:07:51Z</time>
      </trkpt>
      <trkpt lat="44.41684" lon="4.33593">
        <ele>289.9748535</ele>
        <time>2011-05-28T07:07:57Z</time>
      </trkpt>
      <trkpt lat="44.41674" lon="4.33601">
        <ele>290.9361572</ele>
        <time>2011-05-28T07:08:03Z</time>
      </trkpt>
      <trkpt lat="44.41667" lon="4.33614">
        <ele>290.9361572</ele>
        <time>2011-05-28T07:08:08Z</time>
      </trkpt>
      <trkpt lat="44.41661" lon="4.33625">
        <ele>290.9361572</ele>
        <time>2011-05-28T07:08:12Z</time>
      </trkpt>
      <trkpt lat="44.41654" lon="4.33634">
        <ele>289.9748535</ele>
        <time>2011-05-28T07:08:16Z</time>
      </trkpt>
      <trkpt lat="44.41645" lon="4.3364">
        <ele>290.4555664</ele>
        <time>2011-05-28T07:08:21Z</time>
      </trkpt>
      <trkpt lat="44.41634" lon="4.33644">
        <ele>290.4555664</ele>
        <time>2011-05-28T07:08:26Z</time>
      </trkpt>
      <trkpt lat="44.41625" lon="4.33649">
        <ele>290.4555664</ele>
        <time>2011-05-28T07:08:30Z</time>
      </trkpt>
      <trkpt lat="44.41616" lon="4.33657">
        <ele>290.4555664</ele>
        <time>2011-05-28T07:08:34Z</time>
      </trkpt>
      <trkpt lat="44.41607" lon="4.33668">
        <ele>289.4941406</ele>
        <time>2011-05-28T07:08:38Z</time>
      </trkpt>
      <trkpt lat="44.41601" lon="4.33678">
        <ele>289.9748535</ele>
        <time>2011-05-28T07:08:41Z</time>
      </trkpt>
      <trkpt lat="44.41595" lon="4.33691">
        <ele>289.9748535</ele>
        <time>2011-05-28T07:08:45Z</time>
      </trkpt>
      <trkpt lat="44.41589" lon="4.33702">
        <ele>289.9748535</ele>
        <time>2011-05-28T07:08:49Z</time>
      </trkpt>
      <trkpt lat="44.41582" lon="4.33712">
        <ele>289.9748535</ele>
        <time>2011-05-28T07:08:53Z</time>
      </trkpt>
      <trkpt lat="44.41573" lon="4.3372">
        <ele>289.9748535</ele>
        <time>2011-05-28T07:09:54Z</time>
      </trkpt>
      <trkpt lat="44.41564" lon="4.33719">
        <ele>289.4941406</ele>
        <time>2011-05-28T07:09:58Z</time>
      </trkpt>
      <trkpt lat="44.41554" lon="4.33718">
        <ele>289.9748535</ele>
        <time>2011-05-28T07:10:01Z</time>
      </trkpt>
      <trkpt lat="44.41542" lon="4.33718">
        <ele>289.4941406</ele>
        <time>2011-05-28T07:10:04Z</time>
      </trkpt>
      <trkpt lat="44.41529" lon="4.33718">
        <ele>289.9748535</ele>
        <time>2011-05-28T07:10:07Z</time>
      </trkpt>
      <trkpt lat="44.41517" lon="4.33721">
        <ele>288.532959</ele>
        <time>2011-05-28T07:10:10Z</time>
      </trkpt>
      <trkpt lat="44.41505" lon="4.33725">
        <ele>288.532959</ele>
        <time>2011-05-28T07:10:13Z</time>
      </trkpt>
      <trkpt lat="44.41494" lon="4.33731">
        <ele>288.532959</ele>
        <time>2011-05-28T07:10:16Z</time>
      </trkpt>
      <trkpt lat="44.41484" lon="4.3374">
        <ele>288.0522461</ele>
        <time>2011-05-28T07:10:19Z</time>
      </trkpt>
      <trkpt lat="44.41476" lon="4.33754">
        <ele>288.532959</ele>
        <time>2011-05-28T07:10:22Z</time>
      </trkpt>
      <trkpt lat="44.41469" lon="4.3377">
        <ele>288.0522461</ele>
        <time>2011-05-28T07:10:25Z</time>
      </trkpt>
      <trkpt lat="44.41462" lon="4.33787">
        <ele>288.0522461</ele>
        <time>2011-05-28T07:10:28Z</time>
      </trkpt>
      <trkpt lat="44.41457" lon="4.33798">
        <ele>288.532959</ele>
        <time>2011-05-28T07:10:30Z</time>
      </trkpt>
      <trkpt lat="44.41453" lon="4.3381">
        <ele>288.0522461</ele>
        <time>2011-05-28T07:10:32Z</time>
      </trkpt>
      <trkpt lat="44.41447" lon="4.33821">
        <ele>288.532959</ele>
        <time>2011-05-28T07:10:34Z</time>
      </trkpt>
      <trkpt lat="44.41441" lon="4.33832">
        <ele>288.532959</ele>
        <time>2011-05-28T07:10:36Z</time>
      </trkpt>
      <trkpt lat="44.41435" lon="4.33842">
        <ele>288.0522461</ele>
        <time>2011-05-28T07:10:38Z</time>
      </trkpt>
      <trkpt lat="44.41428" lon="4.33853">
        <ele>288.0522461</ele>
        <time>2011-05-28T07:10:40Z</time>
      </trkpt>
      <trkpt lat="44.41422" lon="4.33863">
        <ele>287.5714111</ele>
        <time>2011-05-28T07:10:42Z</time>
      </trkpt>
      <trkpt lat="44.41414" lon="4.33878">
        <ele>287.5714111</ele>
        <time>2011-05-28T07:10:45Z</time>
      </trkpt>
      <trkpt lat="44.41409" lon="4.33894">
        <ele>286.6102295</ele>
        <time>2011-05-28T07:10:48Z</time>
      </trkpt>
      <trkpt lat="44.41406" lon="4.33907">
        <ele>287.0908203</ele>
        <time>2011-05-28T07:10:50Z</time>
      </trkpt>
      <trkpt lat="44.41403" lon="4.3392">
        <ele>286.1295166</ele>
        <time>2011-05-28T07:10:52Z</time>
      </trkpt>
      <trkpt lat="44.41399" lon="4.33932">
        <ele>286.1295166</ele>
        <time>2011-05-28T07:10:54Z</time>
      </trkpt>
      <trkpt lat="44.41395" lon="4.33943">
        <ele>285.6488037</ele>
        <time>2011-05-28T07:10:56Z</time>
      </trkpt>
      <trkpt lat="44.4139" lon="4.33955">
        <ele>285.6488037</ele>
        <time>2011-05-28T07:10:58Z</time>
      </trkpt>
      <trkpt lat="44.41386" lon="4.33967">
        <ele>285.6488037</ele>
        <time>2011-05-28T07:11:00Z</time>
      </trkpt>
      <trkpt lat="44.41382" lon="4.33979">
        <ele>285.6488037</ele>
        <time>2011-05-28T07:11:02Z</time>
      </trkpt>
      <trkpt lat="44.41379" lon="4.3399">
        <ele>285.6488037</ele>
        <time>2011-05-28T07:11:04Z</time>
      </trkpt>
      <trkpt lat="44.41373" lon="4.34006">
        <ele>285.1682129</ele>
        <time>2011-05-28T07:11:07Z</time>
      </trkpt>
      <trkpt lat="44.41364" lon="4.3402">
        <ele>285.6488037</ele>
        <time>2011-05-28T07:11:10Z</time>
      </trkpt>
      <trkpt lat="44.41357" lon="4.34028">
        <ele>285.6488037</ele>
        <time>2011-05-28T07:11:12Z</time>
      </trkpt>
      <trkpt lat="44.41346" lon="4.34037">
        <ele>285.1682129</ele>
        <time>2011-05-28T07:11:15Z</time>
      </trkpt>
      <trkpt lat="44.41336" lon="4.34043">
        <ele>285.1682129</ele>
        <time>2011-05-28T07:11:18Z</time>
      </trkpt>
      <trkpt lat="44.41327" lon="4.34048">
        <ele>285.1682129</ele>
        <time>2011-05-28T07:11:22Z</time>
      </trkpt>
      <trkpt lat="44.41318" lon="4.34054">
        <ele>286.6102295</ele>
        <time>2011-05-28T07:11:29Z</time>
      </trkpt>
      <trkpt lat="44.41307" lon="4.34052">
        <ele>286.1295166</ele>
        <time>2011-05-28T07:14:23Z</time>
      </trkpt>
      <trkpt lat="44.41305" lon="4.34055">
        <ele>289.0135498</ele>
        <time>2011-05-28T07:19:12Z</time>
      </trkpt>
      <trkpt lat="44.41296" lon="4.34055">
        <ele>289.4941406</ele>
        <time>2011-05-28T07:19:18Z</time>
      </trkpt>
      <trkpt lat="44.41286" lon="4.34054">
        <ele>290.9361572</ele>
        <time>2011-05-28T07:19:24Z</time>
      </trkpt>
      <trkpt lat="44.41275" lon="4.34054">
        <ele>291.416748</ele>
        <time>2011-05-28T07:19:30Z</time>
      </trkpt>
      <trkpt lat="44.41265" lon="4.34056">
        <ele>291.8974609</ele>
        <time>2011-05-28T07:19:36Z</time>
      </trkpt>
      <trkpt lat="44.41255" lon="4.34059">
        <ele>291.8974609</ele>
        <time>2011-05-28T07:19:41Z</time>
      </trkpt>
      <trkpt lat="44.41246" lon="4.34062">
        <ele>291.8974609</ele>
        <time>2011-05-28T07:19:46Z</time>
      </trkpt>
      <trkpt lat="44.41237" lon="4.34066">
        <ele>292.3781738</ele>
        <time>2011-05-28T07:19:51Z</time>
      </trkpt>
      <trkpt lat="44.41228" lon="4.34071">
        <ele>292.3781738</ele>
        <time>2011-05-28T07:19:57Z</time>
      </trkpt>
      <trkpt lat="44.41218" lon="4.34076">
        <ele>293.8200684</ele>
        <time>2011-05-28T07:20:03Z</time>
      </trkpt>
      <trkpt lat="44.4121" lon="4.34083">
        <ele>294.3007813</ele>
        <time>2011-05-28T07:20:08Z</time>
      </trkpt>
      <trkpt lat="44.412" lon="4.34092">
        <ele>293.3393555</ele>
        <time>2011-05-28T07:20:14Z</time>
      </trkpt>
      <trkpt lat="44.4119" lon="4.34099">
        <ele>294.3007813</ele>
        <time>2011-05-28T07:20:20Z</time>
      </trkpt>
      <trkpt lat="44.41179" lon="4.34107">
        <ele>294.7813721</ele>
        <time>2011-05-28T07:20:26Z</time>
      </trkpt>
      <trkpt lat="44.4117" lon="4.34111">
        <ele>295.2619629</ele>
        <time>2011-05-28T07:20:31Z</time>
      </trkpt>
      <trkpt lat="44.41159" lon="4.34112">
        <ele>295.7426758</ele>
        <time>2011-05-28T07:20:37Z</time>
      </trkpt>
      <trkpt lat="44.4115" lon="4.34113">
        <ele>296.7041016</ele>
        <time>2011-05-28T07:20:44Z</time>
      </trkpt>
      <trkpt lat="44.41139" lon="4.34119">
        <ele>296.7041016</ele>
        <time>2011-05-28T07:20:51Z</time>
      </trkpt>
      <trkpt lat="44.41129" lon="4.34125">
        <ele>298.1461182</ele>
        <time>2011-05-28T07:20:58Z</time>
      </trkpt>
      <trkpt lat="44.4112" lon="4.34132">
        <ele>298.626709</ele>
        <time>2011-05-28T07:21:04Z</time>
      </trkpt>
      <trkpt lat="44.4111" lon="4.3414">
        <ele>298.626709</ele>
        <time>2011-05-28T07:21:10Z</time>
      </trkpt>
      <trkpt lat="44.41102" lon="4.34148">
        <ele>299.5880127</ele>
        <time>2011-05-28T07:21:15Z</time>
      </trkpt>
      <trkpt lat="44.41093" lon="4.34159">
        <ele>299.5880127</ele>
        <time>2011-05-28T07:21:20Z</time>
      </trkpt>
      <trkpt lat="44.41086" lon="4.3417">
        <ele>300.0687256</ele>
        <time>2011-05-28T07:21:25Z</time>
      </trkpt>
      <trkpt lat="44.41079" lon="4.34182">
        <ele>301.5106201</ele>
        <time>2011-05-28T07:21:30Z</time>
      </trkpt>
      <trkpt lat="44.41071" lon="4.34193">
        <ele>301.991333</ele>
        <time>2011-05-28T07:21:36Z</time>
      </trkpt>
      <trkpt lat="44.41061" lon="4.34199">
        <ele>302.4719238</ele>
        <time>2011-05-28T07:21:41Z</time>
      </trkpt>
      <trkpt lat="44.4105" lon="4.34202">
        <ele>302.4719238</ele>
        <time>2011-05-28T07:21:45Z</time>
      </trkpt>
      <trkpt lat="44.41039" lon="4.34204">
        <ele>302.9525146</ele>
        <time>2011-05-28T07:21:49Z</time>
      </trkpt>
      <trkpt lat="44.41028" lon="4.34207">
        <ele>303.9139404</ele>
        <time>2011-05-28T07:21:53Z</time>
      </trkpt>
      <trkpt lat="44.41016" lon="4.34213">
        <ele>303.9139404</ele>
        <time>2011-05-28T07:21:57Z</time>
      </trkpt>
      <trkpt lat="44.41005" lon="4.34215">
        <ele>303.9139404</ele>
        <time>2011-05-28T07:22:01Z</time>
      </trkpt>
      <trkpt lat="44.40996" lon="4.3421">
        <ele>303.9139404</ele>
        <time>2011-05-28T07:22:04Z</time>
      </trkpt>
      <trkpt lat="44.40988" lon="4.34202">
        <ele>303.4332275</ele>
        <time>2011-05-28T07:22:07Z</time>
      </trkpt>
      <trkpt lat="44.40979" lon="4.34193">
        <ele>302.9525146</ele>
        <time>2011-05-28T07:22:10Z</time>
      </trkpt>
      <trkpt lat="44.40969" lon="4.34186">
        <ele>302.4719238</ele>
        <time>2011-05-28T07:22:13Z</time>
      </trkpt>
      <trkpt lat="44.4096" lon="4.34178">
        <ele>302.4719238</ele>
        <time>2011-05-28T07:22:16Z</time>
      </trkpt>
      <trkpt lat="44.40949" lon="4.34171">
        <ele>302.4719238</ele>
        <time>2011-05-28T07:22:19Z</time>
      </trkpt>
      <trkpt lat="44.40938" lon="4.34164">
        <ele>301.991333</ele>
        <time>2011-05-28T07:22:22Z</time>
      </trkpt>
      <trkpt lat="44.40928" lon="4.34158">
        <ele>302.4719238</ele>
        <time>2011-05-28T07:22:25Z</time>
      </trkpt>
      <trkpt lat="44.40917" lon="4.34155">
        <ele>302.4719238</ele>
        <time>2011-05-28T07:22:28Z</time>
      </trkpt>
      <trkpt lat="44.40907" lon="4.34152">
        <ele>303.4332275</ele>
        <time>2011-05-28T07:22:31Z</time>
      </trkpt>
      <trkpt lat="44.40896" lon="4.3415">
        <ele>302.9525146</ele>
        <time>2011-05-28T07:22:35Z</time>
      </trkpt>
      <trkpt lat="44.40887" lon="4.34146">
        <ele>303.9139404</ele>
        <time>2011-05-28T07:22:40Z</time>
      </trkpt>
      <trkpt lat="44.40878" lon="4.34144">
        <ele>304.8752441</ele>
        <time>2011-05-28T07:22:44Z</time>
      </trkpt>
      <trkpt lat="44.40868" lon="4.34143">
        <ele>305.355957</ele>
        <time>2011-05-28T07:22:48Z</time>
      </trkpt>
      <trkpt lat="44.40857" lon="4.34145">
        <ele>305.355957</ele>
        <time>2011-05-28T07:22:52Z</time>
      </trkpt>
      <trkpt lat="44.40845" lon="4.34148">
        <ele>305.8366699</ele>
        <time>2011-05-28T07:22:56Z</time>
      </trkpt>
      <trkpt lat="44.40833" lon="4.34148">
        <ele>306.7978516</ele>
        <time>2011-05-28T07:23:00Z</time>
      </trkpt>
      <trkpt lat="44.40821" lon="4.34143">
        <ele>306.3172607</ele>
        <time>2011-05-28T07:23:04Z</time>
      </trkpt>
      <trkpt lat="44.40812" lon="4.34138">
        <ele>306.7978516</ele>
        <time>2011-05-28T07:23:07Z</time>
      </trkpt>
      <trkpt lat="44.40802" lon="4.34132">
        <ele>307.7592773</ele>
        <time>2011-05-28T07:23:10Z</time>
      </trkpt>
      <trkpt lat="44.40793" lon="4.34126">
        <ele>307.2785645</ele>
        <time>2011-05-28T07:23:13Z</time>
      </trkpt>
      <trkpt lat="44.40782" lon="4.3412">
        <ele>307.2785645</ele>
        <time>2011-05-28T07:23:16Z</time>
      </trkpt>
      <trkpt lat="44.40772" lon="4.34116">
        <ele>307.7592773</ele>
        <time>2011-05-28T07:23:19Z</time>
      </trkpt>
      <trkpt lat="44.40762" lon="4.34112">
        <ele>308.2398682</ele>
        <time>2011-05-28T07:23:22Z</time>
      </trkpt>
      <trkpt lat="44.4075" lon="4.34109">
        <ele>308.720459</ele>
        <time>2011-05-28T07:23:26Z</time>
      </trkpt>
      <trkpt lat="44.40738" lon="4.34103">
        <ele>309.6818848</ele>
        <time>2011-05-28T07:23:30Z</time>
      </trkpt>
      <trkpt lat="44.40728" lon="4.34101">
        <ele>310.1624756</ele>
        <time>2011-05-28T07:23:33Z</time>
      </trkpt>
      <trkpt lat="44.40718" lon="4.34103">
        <ele>310.6430664</ele>
        <time>2011-05-28T07:23:36Z</time>
      </trkpt>
      <trkpt lat="44.40708" lon="4.34105">
        <ele>311.1237793</ele>
        <time>2011-05-28T07:23:39Z</time>
      </trkpt>
      <trkpt lat="44.40699" lon="4.34105">
        <ele>311.1237793</ele>
        <time>2011-05-28T07:23:42Z</time>
      </trkpt>
      <trkpt lat="44.40688" lon="4.34104">
        <ele>311.6044922</ele>
        <time>2011-05-28T07:23:46Z</time>
      </trkpt>
      <trkpt lat="44.40678" lon="4.34108">
        <ele>312.5657959</ele>
        <time>2011-05-28T07:23:51Z</time>
      </trkpt>
      <trkpt lat="44.40668" lon="4.34111">
        <ele>313.5272217</ele>
        <time>2011-05-28T07:23:57Z</time>
      </trkpt>
      <trkpt lat="44.40657" lon="4.34112">
        <ele>314.9691162</ele>
        <time>2011-05-28T07:24:03Z</time>
      </trkpt>
      <trkpt lat="44.40647" lon="4.34113">
        <ele>316.4110107</ele>
        <time>2011-05-28T07:24:10Z</time>
      </trkpt>
      <trkpt lat="44.40636" lon="4.34114">
        <ele>317.8530273</ele>
        <time>2011-05-28T07:24:17Z</time>
      </trkpt>
      <trkpt lat="44.40627" lon="4.34113">
        <ele>319.2950439</ele>
        <time>2011-05-28T07:24:23Z</time>
      </trkpt>
      <trkpt lat="44.40617" lon="4.34111">
        <ele>320.7370605</ele>
        <time>2011-05-28T07:24:29Z</time>
      </trkpt>
      <trkpt lat="44.40607" lon="4.34109">
        <ele>321.6983643</ele>
        <time>2011-05-28T07:24:35Z</time>
      </trkpt>
      <trkpt lat="44.40598" lon="4.34106">
        <ele>322.659668</ele>
        <time>2011-05-28T07:24:40Z</time>
      </trkpt>
      <trkpt lat="44.40587" lon="4.34102">
        <ele>323.1403809</ele>
        <time>2011-05-28T07:24:46Z</time>
      </trkpt>
      <trkpt lat="44.40577" lon="4.34098">
        <ele>324.1015625</ele>
        <time>2011-05-28T07:24:52Z</time>
      </trkpt>
      <trkpt lat="44.40567" lon="4.34092">
        <ele>324.5822754</ele>
        <time>2011-05-28T07:24:58Z</time>
      </trkpt>
      <trkpt lat="44.40558" lon="4.34087">
        <ele>325.0629883</ele>
        <time>2011-05-28T07:25:03Z</time>
      </trkpt>
      <trkpt lat="44.40548" lon="4.34079">
        <ele>326.5048828</ele>
        <time>2011-05-28T07:25:08Z</time>
      </trkpt>
      <trkpt lat="44.40541" lon="4.34069">
        <ele>326.0241699</ele>
        <time>2011-05-28T07:25:11Z</time>
      </trkpt>
      <trkpt lat="44.40534" lon="4.34057">
        <ele>326.5048828</ele>
        <time>2011-05-28T07:25:14Z</time>
      </trkpt>
      <trkpt lat="44.40531" lon="4.34044">
        <ele>326.9855957</ele>
        <time>2011-05-28T07:25:17Z</time>
      </trkpt>
      <trkpt lat="44.40533" lon="4.34029">
        <ele>327.9467773</ele>
        <time>2011-05-28T07:25:21Z</time>
      </trkpt>
      <trkpt lat="44.40537" lon="4.34014">
        <ele>328.9083252</ele>
        <time>2011-05-28T07:25:26Z</time>
      </trkpt>
      <trkpt lat="44.40541" lon="4.34001">
        <ele>330.3502197</ele>
        <time>2011-05-28T07:25:31Z</time>
      </trkpt>
      <trkpt lat="44.40545" lon="4.33988">
        <ele>330.8309326</ele>
        <time>2011-05-28T07:25:37Z</time>
      </trkpt>
      <trkpt lat="44.4055" lon="4.33974">
        <ele>331.7921143</ele>
        <time>2011-05-28T07:25:43Z</time>
      </trkpt>
      <trkpt lat="44.40555" lon="4.33962">
        <ele>332.75354</ele>
        <time>2011-05-28T07:25:49Z</time>
      </trkpt>
      <trkpt lat="44.40557" lon="4.33947">
        <ele>334.1954346</ele>
        <time>2011-05-28T07:25:55Z</time>
      </trkpt>
      <trkpt lat="44.40552" lon="4.33939">
        <ele>333.2341309</ele>
        <time>2011-05-28T07:26:03Z</time>
      </trkpt>
      <trkpt lat="44.40544" lon="4.33947">
        <ele>334.1954346</ele>
        <time>2011-05-28T07:26:10Z</time>
      </trkpt>
      <trkpt lat="44.40537" lon="4.33958">
        <ele>334.6761475</ele>
        <time>2011-05-28T07:26:18Z</time>
      </trkpt>
      <trkpt lat="44.4053" lon="4.33968">
        <ele>336.1181641</ele>
        <time>2011-05-28T07:26:25Z</time>
      </trkpt>
      <trkpt lat="44.40521" lon="4.33975">
        <ele>337.0794678</ele>
        <time>2011-05-28T07:26:32Z</time>
      </trkpt>
      <trkpt lat="44.40512" lon="4.33981">
        <ele>339.0020752</ele>
        <time>2011-05-28T07:26:40Z</time>
      </trkpt>
      <trkpt lat="44.40502" lon="4.33985">
        <ele>340.4440918</ele>
        <time>2011-05-28T07:26:49Z</time>
      </trkpt>
      <trkpt lat="44.40493" lon="4.33989">
        <ele>342.84729</ele>
        <time>2011-05-28T07:26:56Z</time>
      </trkpt>
      <trkpt lat="44.40483" lon="4.33989">
        <ele>344.2894287</ele>
        <time>2011-05-28T07:27:04Z</time>
      </trkpt>
      <trkpt lat="44.40474" lon="4.33992">
        <ele>344.2894287</ele>
        <time>2011-05-28T07:27:20Z</time>
      </trkpt>
      <trkpt lat="44.40464" lon="4.33995">
        <ele>346.2120361</ele>
        <time>2011-05-28T07:27:36Z</time>
      </trkpt>
      <trkpt lat="44.40455" lon="4.33994">
        <ele>346.21</ele>
        <time>2011-05-28T07:28:30Z</time>
      </trkpt>
      <trkpt lat="44.40445" lon="4.33995">
        <ele>347.65</ele>
        <time>2011-05-28T07:28:42Z</time>
      </trkpt>
      <trkpt lat="44.40435" lon="4.33997">
        <ele>348.62</ele>
        <time>2011-05-28T07:28:58Z</time>
      </trkpt>
      <trkpt lat="44.40425" lon="4.33999">
        <ele>349.1</ele>
        <time>2011-05-28T07:29:08Z</time>
      </trkpt>
      <trkpt lat="44.40416" lon="4.34004">
        <ele>350.06</ele>
        <time>2011-05-28T07:29:16Z</time>
      </trkpt>
      <trkpt lat="44.40405" lon="4.34003">
        <ele>351.02</ele>
        <time>2011-05-28T07:29:24Z</time>
      </trkpt>
      <trkpt lat="44.40393" lon="4.34">
        <ele>351.98</ele>
        <time>2011-05-28T07:29:30Z</time>
      </trkpt>
      <trkpt lat="44.40382" lon="4.33997">
        <ele>352.46</ele>
        <time>2011-05-28T07:29:35Z</time>
      </trkpt>
      <trkpt lat="44.40371" lon="4.33993">
        <ele>352.46</ele>
        <time>2011-05-28T07:29:40Z</time>
      </trkpt>
      <trkpt lat="44.40361" lon="4.33987">
        <ele>353.42</ele>
        <time>2011-05-28T07:29:46Z</time>
      </trkpt>
      <trkpt lat="44.40354" lon="4.33983">
        <ele>354.38</ele>
        <time>2011-05-28T07:29:52Z</time>
      </trkpt>
      <trkpt lat="44.40344" lon="4.33972">
        <ele>354.86</ele>
        <time>2011-05-28T07:29:58Z</time>
      </trkpt>
      <trkpt lat="44.40339" lon="4.33963">
        <ele>356.31</ele>
        <time>2011-05-28T07:30:04Z</time>
      </trkpt>
      <trkpt lat="44.40331" lon="4.3395">
        <ele>357.27</ele>
        <time>2011-05-28T07:30:11Z</time>
      </trkpt>
      <trkpt lat="44.40328" lon="4.33936">
        <ele>358.23</ele>
        <time>2011-05-28T07:30:18Z</time>
      </trkpt>
      <trkpt lat="44.40322" lon="4.33924">
        <ele>359.19</ele>
        <time>2011-05-28T07:30:26Z</time>
      </trkpt>
      <trkpt lat="44.40314" lon="4.33914">
        <ele>360.15</ele>
        <time>2011-05-28T07:30:36Z</time>
      </trkpt>
      <trkpt lat="44.40314" lon="4.33901">
        <ele>361.11</ele>
        <time>2011-05-28T07:30:43Z</time>
      </trkpt>
      <trkpt lat="44.40312" lon="4.3389">
        <ele>362.07</ele>
        <time>2011-05-28T07:30:51Z</time>
      </trkpt>
      <trkpt lat="44.40309" lon="4.33877">
        <ele>363.04</ele>
        <time>2011-05-28T07:31:04Z</time>
      </trkpt>
      <trkpt lat="44.4031" lon="4.33875">
        <ele>363.0350342</ele>
        <time>2011-05-28T07:30:50Z</time>
      </trkpt>
      <trkpt lat="44.40319" lon="4.33862">
        <ele>364.4769287</ele>
        <time>2011-05-28T07:31:36Z</time>
      </trkpt>
      <trkpt lat="44.40312" lon="4.33852">
        <ele>366.3995361</ele>
        <time>2011-05-28T07:31:43Z</time>
      </trkpt>
      <trkpt lat="44.40303" lon="4.33848">
        <ele>368.3222656</ele>
        <time>2011-05-28T07:31:54Z</time>
      </trkpt>
      <trkpt lat="44.40293" lon="4.33845">
        <ele>369.2836914</ele>
        <time>2011-05-28T07:32:05Z</time>
      </trkpt>
      <trkpt lat="44.40283" lon="4.33844">
        <ele>370.244873</ele>
        <time>2011-05-28T07:32:29Z</time>
      </trkpt>
      <trkpt lat="44.40274" lon="4.33841">
        <ele>371.6868896</ele>
        <time>2011-05-28T07:32:36Z</time>
      </trkpt>
      <trkpt lat="44.40264" lon="4.33839">
        <ele>372.1674805</ele>
        <time>2011-05-28T07:32:43Z</time>
      </trkpt>
      <trkpt lat="44.40254" lon="4.33834">
        <ele>373.6094971</ele>
        <time>2011-05-28T07:32:50Z</time>
      </trkpt>
      <trkpt lat="44.40246" lon="4.33829">
        <ele>374.5708008</ele>
        <time>2011-05-28T07:32:55Z</time>
      </trkpt>
      <trkpt lat="44.40237" lon="4.33821">
        <ele>375.0515137</ele>
        <time>2011-05-28T07:33:00Z</time>
      </trkpt>
      <trkpt lat="44.40229" lon="4.33814">
        <ele>375.5321045</ele>
        <time>2011-05-28T07:33:06Z</time>
      </trkpt>
      <trkpt lat="44.40222" lon="4.33805">
        <ele>376.0128174</ele>
        <time>2011-05-28T07:33:12Z</time>
      </trkpt>
      <trkpt lat="44.40215" lon="4.33795">
        <ele>377.454834</ele>
        <time>2011-05-28T07:33:18Z</time>
      </trkpt>
      <trkpt lat="44.40209" lon="4.33784">
        <ele>378.8968506</ele>
        <time>2011-05-28T07:33:24Z</time>
      </trkpt>
      <trkpt lat="44.40203" lon="4.33771">
        <ele>378.8968506</ele>
        <time>2011-05-28T07:33:30Z</time>
      </trkpt>
      <trkpt lat="44.40197" lon="4.33759">
        <ele>378.8968506</ele>
        <time>2011-05-28T07:33:35Z</time>
      </trkpt>
      <trkpt lat="44.40191" lon="4.33748">
        <ele>377.9354248</ele>
        <time>2011-05-28T07:33:40Z</time>
      </trkpt>
      <trkpt lat="44.40184" lon="4.33737">
        <ele>378.4161377</ele>
        <time>2011-05-28T07:33:45Z</time>
      </trkpt>
      <trkpt lat="44.40174" lon="4.3373">
        <ele>378.4161377</ele>
        <time>2011-05-28T07:33:50Z</time>
      </trkpt>
      <trkpt lat="44.40165" lon="4.33724">
        <ele>380.3387451</ele>
        <time>2011-05-28T07:33:55Z</time>
      </trkpt>
      <trkpt lat="44.40154" lon="4.33721">
        <ele>380.819458</ele>
        <time>2011-05-28T07:34:01Z</time>
      </trkpt>
      <trkpt lat="44.40145" lon="4.33718">
        <ele>380.819458</ele>
        <time>2011-05-28T07:34:06Z</time>
      </trkpt>
      <trkpt lat="44.40134" lon="4.33711">
        <ele>380.819458</ele>
        <time>2011-05-28T07:34:10Z</time>
      </trkpt>
      <trkpt lat="44.40125" lon="4.33704">
        <ele>379.3774414</ele>
        <time>2011-05-28T07:34:13Z</time>
      </trkpt>
      <trkpt lat="44.40117" lon="4.33697">
        <ele>379.8580322</ele>
        <time>2011-05-28T07:34:16Z</time>
      </trkpt>
      <trkpt lat="44.40106" lon="4.3369">
        <ele>379.3774414</ele>
        <time>2011-05-28T07:34:20Z</time>
      </trkpt>
      <trkpt lat="44.40095" lon="4.33686">
        <ele>377.9354248</ele>
        <time>2011-05-28T07:34:23Z</time>
      </trkpt>
      <trkpt lat="44.40082" lon="4.33685">
        <ele>377.454834</ele>
        <time>2011-05-28T07:34:26Z</time>
      </trkpt>
      <trkpt lat="44.4007" lon="4.33686">
        <ele>376.0128174</ele>
        <time>2011-05-28T07:34:29Z</time>
      </trkpt>
      <trkpt lat="44.40058" lon="4.3369">
        <ele>375.5321045</ele>
        <time>2011-05-28T07:34:32Z</time>
      </trkpt>
      <trkpt lat="44.40045" lon="4.33696">
        <ele>374.5708008</ele>
        <time>2011-05-28T07:34:35Z</time>
      </trkpt>
      <trkpt lat="44.40032" lon="4.33702">
        <ele>374.0900879</ele>
        <time>2011-05-28T07:34:38Z</time>
      </trkpt>
      <trkpt lat="44.40021" lon="4.33708">
        <ele>374.0900879</ele>
        <time>2011-05-28T07:34:41Z</time>
      </trkpt>
      <trkpt lat="44.40011" lon="4.33714">
        <ele>374.5708008</ele>
        <time>2011-05-28T07:34:45Z</time>
      </trkpt>
      <trkpt lat="44.40001" lon="4.33718">
        <ele>375.5321045</ele>
        <time>2011-05-28T07:34:50Z</time>
      </trkpt>
      <trkpt lat="44.3999" lon="4.33721">
        <ele>376.9742432</ele>
        <time>2011-05-28T07:34:55Z</time>
      </trkpt>
      <trkpt lat="44.39981" lon="4.33715">
        <ele>376.9742432</ele>
        <time>2011-05-28T07:34:59Z</time>
      </trkpt>
      <trkpt lat="44.39973" lon="4.33701">
        <ele>376.4935303</ele>
        <time>2011-05-28T07:35:03Z</time>
      </trkpt>
      <trkpt lat="44.39968" lon="4.33687">
        <ele>375.0515137</ele>
        <time>2011-05-28T07:35:06Z</time>
      </trkpt>
      <trkpt lat="44.39962" lon="4.33677">
        <ele>374.5708008</ele>
        <time>2011-05-28T07:35:08Z</time>
      </trkpt>
      <trkpt lat="44.39956" lon="4.33666">
        <ele>373.6094971</ele>
        <time>2011-05-28T07:35:10Z</time>
      </trkpt>
      <trkpt lat="44.3995" lon="4.33655">
        <ele>372.1674805</ele>
        <time>2011-05-28T07:35:12Z</time>
      </trkpt>
      <trkpt lat="44.39941" lon="4.33644">
        <ele>371.2062988</ele>
        <time>2011-05-28T07:35:14Z</time>
      </trkpt>
      <trkpt lat="44.39933" lon="4.33632">
        <ele>369.7642822</ele>
        <time>2011-05-28T07:35:16Z</time>
      </trkpt>
      <trkpt lat="44.39924" lon="4.3362">
        <ele>369.2836914</ele>
        <time>2011-05-28T07:35:18Z</time>
      </trkpt>
      <trkpt lat="44.39915" lon="4.33608">
        <ele>368.8029785</ele>
        <time>2011-05-28T07:35:20Z</time>
      </trkpt>
      <trkpt lat="44.39907" lon="4.33596">
        <ele>368.8029785</ele>
        <time>2011-05-28T07:35:22Z</time>
      </trkpt>
      <trkpt lat="44.39899" lon="4.33585">
        <ele>367.3609619</ele>
        <time>2011-05-28T07:35:24Z</time>
      </trkpt>
      <trkpt lat="44.3989" lon="4.33577">
        <ele>367.8415527</ele>
        <time>2011-05-28T07:35:26Z</time>
      </trkpt>
      <trkpt lat="44.39882" lon="4.3357">
        <ele>367.3609619</ele>
        <time>2011-05-28T07:35:28Z</time>
      </trkpt>
      <trkpt lat="44.39871" lon="4.3356">
        <ele>366.880249</ele>
        <time>2011-05-28T07:35:31Z</time>
      </trkpt>
      <trkpt lat="44.39862" lon="4.33553">
        <ele>366.880249</ele>
        <time>2011-05-28T07:35:34Z</time>
      </trkpt>
      <trkpt lat="44.39853" lon="4.33548">
        <ele>367.3609619</ele>
        <time>2011-05-28T07:35:38Z</time>
      </trkpt>
      <trkpt lat="44.39843" lon="4.33543">
        <ele>368.3222656</ele>
        <time>2011-05-28T07:35:43Z</time>
      </trkpt>
      <trkpt lat="44.39835" lon="4.33535">
        <ele>369.2836914</ele>
        <time>2011-05-28T07:35:49Z</time>
      </trkpt>
      <trkpt lat="44.39827" lon="4.33528">
        <ele>371.2062988</ele>
        <time>2011-05-28T07:35:55Z</time>
      </trkpt>
      <trkpt lat="44.39818" lon="4.33522">
        <ele>372.6481934</ele>
        <time>2011-05-28T07:36:02Z</time>
      </trkpt>
      <trkpt lat="44.39812" lon="4.33517">
        <ele>374.0900879</ele>
        <time>2011-05-28T07:36:14Z</time>
      </trkpt>
      <trkpt lat="44.39805" lon="4.33506">
        <ele>375.5321045</ele>
        <time>2011-05-28T07:36:27Z</time>
      </trkpt>
      <trkpt lat="44.39797" lon="4.33496">
        <ele>376.9742432</ele>
        <time>2011-05-28T07:36:41Z</time>
      </trkpt>
      <trkpt lat="44.3979" lon="4.33485">
        <ele>378.4161377</ele>
        <time>2011-05-28T07:36:54Z</time>
      </trkpt>
      <trkpt lat="44.39784" lon="4.33473">
        <ele>380.819458</ele>
        <time>2011-05-28T07:37:07Z</time>
      </trkpt>
      <trkpt lat="44.39776" lon="4.33464">
        <ele>382.7420654</ele>
        <time>2011-05-28T07:37:18Z</time>
      </trkpt>
      <trkpt lat="44.39768" lon="4.33455">
        <ele>383.7032471</ele>
        <time>2011-05-28T07:37:31Z</time>
      </trkpt>
      <trkpt lat="44.39758" lon="4.33449">
        <ele>384.6647949</ele>
        <time>2011-05-28T07:37:37Z</time>
      </trkpt>
      <trkpt lat="44.39749" lon="4.33443">
        <ele>385.6259766</ele>
        <time>2011-05-28T07:37:43Z</time>
      </trkpt>
      <trkpt lat="44.3974" lon="4.33437">
        <ele>386.1066895</ele>
        <time>2011-05-28T07:37:49Z</time>
      </trkpt>
      <trkpt lat="44.39731" lon="4.33432">
        <ele>386.5874023</ele>
        <time>2011-05-28T07:37:55Z</time>
      </trkpt>
      <trkpt lat="44.39721" lon="4.33426">
        <ele>388.0292969</ele>
        <time>2011-05-28T07:38:02Z</time>
      </trkpt>
      <trkpt lat="44.39712" lon="4.33421">
        <ele>388.9906006</ele>
        <time>2011-05-28T07:38:08Z</time>
      </trkpt>
      <trkpt lat="44.39703" lon="4.33415">
        <ele>389.4711914</ele>
        <time>2011-05-28T07:38:13Z</time>
      </trkpt>
      <trkpt lat="44.39695" lon="4.33408">
        <ele>390.4326172</ele>
        <time>2011-05-28T07:38:18Z</time>
      </trkpt>
      <trkpt lat="44.39686" lon="4.33399">
        <ele>388.9906006</ele>
        <time>2011-05-28T07:38:23Z</time>
      </trkpt>
      <trkpt lat="44.39678" lon="4.33388">
        <ele>388.9906006</ele>
        <time>2011-05-28T07:38:27Z</time>
      </trkpt>
      <trkpt lat="44.39669" lon="4.33379">
        <ele>388.0292969</ele>
        <time>2011-05-28T07:38:31Z</time>
      </trkpt>
      <trkpt lat="44.39658" lon="4.3337">
        <ele>386.1066895</ele>
        <time>2011-05-28T07:38:34Z</time>
      </trkpt>
      <trkpt lat="44.39649" lon="4.33365">
        <ele>385.1453857</ele>
        <time>2011-05-28T07:38:36Z</time>
      </trkpt>
      <trkpt lat="44.3964" lon="4.3336">
        <ele>384.6647949</ele>
        <time>2011-05-28T07:38:38Z</time>
      </trkpt>
      <trkpt lat="44.3963" lon="4.33354">
        <ele>383.2226563</ele>
        <time>2011-05-28T07:38:40Z</time>
      </trkpt>
      <trkpt lat="44.39619" lon="4.33348">
        <ele>383.2226563</ele>
        <time>2011-05-28T07:38:42Z</time>
      </trkpt>
      <trkpt lat="44.3961" lon="4.33344">
        <ele>382.7420654</ele>
        <time>2011-05-28T07:38:44Z</time>
      </trkpt>
      <trkpt lat="44.39601" lon="4.33341">
        <ele>382.2613525</ele>
        <time>2011-05-28T07:38:46Z</time>
      </trkpt>
      <trkpt lat="44.39589" lon="4.33338">
        <ele>383.2226563</ele>
        <time>2011-05-28T07:38:49Z</time>
      </trkpt>
      <trkpt lat="44.39577" lon="4.33338">
        <ele>382.7420654</ele>
        <time>2011-05-28T07:38:53Z</time>
      </trkpt>
      <trkpt lat="44.39567" lon="4.33338">
        <ele>383.2226563</ele>
        <time>2011-05-28T07:38:59Z</time>
      </trkpt>
      <trkpt lat="44.39558" lon="4.33337">
        <ele>384.184082</ele>
        <time>2011-05-28T07:39:05Z</time>
      </trkpt>
      <trkpt lat="44.39548" lon="4.33337">
        <ele>385.1453857</ele>
        <time>2011-05-28T07:39:12Z</time>
      </trkpt>
      <trkpt lat="44.39538" lon="4.33338">
        <ele>385.1453857</ele>
        <time>2011-05-28T07:39:20Z</time>
      </trkpt>
      <trkpt lat="44.39529" lon="4.33337">
        <ele>388.0292969</ele>
        <time>2011-05-28T07:39:29Z</time>
      </trkpt>
      <trkpt lat="44.3952" lon="4.33337">
        <ele>391.3937988</ele>
        <time>2011-05-28T07:39:37Z</time>
      </trkpt>
      <trkpt lat="44.39512" lon="4.33338">
        <ele>391.8745117</ele>
        <time>2011-05-28T07:40:04Z</time>
      </trkpt>
      <trkpt lat="44.39502" lon="4.33341">
        <ele>392.8359375</ele>
        <time>2011-05-28T07:40:16Z</time>
      </trkpt>
      <trkpt lat="44.39493" lon="4.33343">
        <ele>395.2391357</ele>
        <time>2011-05-28T07:40:28Z</time>
      </trkpt>
      <trkpt lat="44.39484" lon="4.33348">
        <ele>395.7198486</ele>
        <time>2011-05-28T07:40:39Z</time>
      </trkpt>
      <trkpt lat="44.39475" lon="4.33354">
        <ele>398.1231689</ele>
        <time>2011-05-28T07:40:50Z</time>
      </trkpt>
      <trkpt lat="44.39466" lon="4.3336">
        <ele>400.0458984</ele>
        <time>2011-05-28T07:41:02Z</time>
      </trkpt>
      <trkpt lat="44.39458" lon="4.33366">
        <ele>401.0070801</ele>
        <time>2011-05-28T07:41:13Z</time>
      </trkpt>
      <trkpt lat="44.39449" lon="4.33369">
        <ele>402.9296875</ele>
        <time>2011-05-28T07:41:23Z</time>
      </trkpt>
      <trkpt lat="44.39439" lon="4.33371">
        <ele>403.8911133</ele>
        <time>2011-05-28T07:41:33Z</time>
      </trkpt>
      <trkpt lat="44.39429" lon="4.33372">
        <ele>404.3717041</ele>
        <time>2011-05-28T07:41:42Z</time>
      </trkpt>
      <trkpt lat="44.39419" lon="4.33372">
        <ele>405.8137207</ele>
        <time>2011-05-28T07:41:51Z</time>
      </trkpt>
      <trkpt lat="44.3941" lon="4.33372">
        <ele>406.7749023</ele>
        <time>2011-05-28T07:42:00Z</time>
      </trkpt>
      <trkpt lat="44.394" lon="4.33371">
        <ele>408.217041</ele>
        <time>2011-05-28T07:42:10Z</time>
      </trkpt>
      <trkpt lat="44.39391" lon="4.33369">
        <ele>409.1783447</ele>
        <time>2011-05-28T07:42:21Z</time>
      </trkpt>
      <trkpt lat="44.39381" lon="4.33367">
        <ele>410.6202393</ele>
        <time>2011-05-28T07:42:33Z</time>
      </trkpt>
      <trkpt lat="44.39372" lon="4.33365">
        <ele>412.0622559</ele>
        <time>2011-05-28T07:42:46Z</time>
      </trkpt>
      <trkpt lat="44.39362" lon="4.33363">
        <ele>413.5042725</ele>
        <time>2011-05-28T07:43:01Z</time>
      </trkpt>
      <trkpt lat="44.39352" lon="4.33361">
        <ele>416.3881836</ele>
        <time>2011-05-28T07:43:16Z</time>
      </trkpt>
      <trkpt lat="44.39342" lon="4.33359">
        <ele>419.2722168</ele>
        <time>2011-05-28T07:43:40Z</time>
      </trkpt>
      <trkpt lat="44.39332" lon="4.33358">
        <ele>420.7141113</ele>
        <time>2011-05-28T07:44:04Z</time>
      </trkpt>
      <trkpt lat="44.39323" lon="4.33363">
        <ele>422.6367188</ele>
        <time>2011-05-28T07:44:17Z</time>
      </trkpt>
      <trkpt lat="44.39313" lon="4.33363">
        <ele>424.5594482</ele>
        <time>2011-05-28T07:44:31Z</time>
      </trkpt>
      <trkpt lat="44.39305" lon="4.33368">
        <ele>426.4820557</ele>
        <time>2011-05-28T07:44:43Z</time>
      </trkpt>
      <trkpt lat="44.39296" lon="4.3337">
        <ele>429.8465576</ele>
        <time>2011-05-28T07:45:06Z</time>
      </trkpt>
      <trkpt lat="44.39287" lon="4.33368">
        <ele>429.8465576</ele>
        <time>2011-05-28T07:45:20Z</time>
      </trkpt>
      <trkpt lat="44.39278" lon="4.33369">
        <ele>430.8079834</ele>
        <time>2011-05-28T07:46:42Z</time>
      </trkpt>
      <trkpt lat="44.39271" lon="4.33359">
        <ele>430.8079834</ele>
        <time>2011-05-28T07:50:12Z</time>
      </trkpt>
      <trkpt lat="44.39263" lon="4.33346">
        <ele>428.4046631</ele>
        <time>2011-05-28T07:50:25Z</time>
      </trkpt>
      <trkpt lat="44.39255" lon="4.33336">
        <ele>427.9239502</ele>
        <time>2011-05-28T07:50:29Z</time>
      </trkpt>
      <trkpt lat="44.39251" lon="4.33325">
        <ele>426.9627686</ele>
        <time>2011-05-28T07:50:32Z</time>
      </trkpt>
      <trkpt lat="44.39244" lon="4.33313">
        <ele>426.0013428</ele>
        <time>2011-05-28T07:50:35Z</time>
      </trkpt>
      <trkpt lat="44.39236" lon="4.33303">
        <ele>425.0401611</ele>
        <time>2011-05-28T07:50:37Z</time>
      </trkpt>
      <trkpt lat="44.39228" lon="4.33291">
        <ele>423.1174316</ele>
        <time>2011-05-28T07:50:39Z</time>
      </trkpt>
      <trkpt lat="44.39218" lon="4.33278">
        <ele>422.6367188</ele>
        <time>2011-05-28T07:50:41Z</time>
      </trkpt>
      <trkpt lat="44.39207" lon="4.33266">
        <ele>420.7141113</ele>
        <time>2011-05-28T07:50:43Z</time>
      </trkpt>
      <trkpt lat="44.39198" lon="4.33254">
        <ele>421.675415</ele>
        <time>2011-05-28T07:50:45Z</time>
      </trkpt>
      <trkpt lat="44.3919" lon="4.33244">
        <ele>421.675415</ele>
        <time>2011-05-28T07:50:47Z</time>
      </trkpt>
      <trkpt lat="44.39182" lon="4.33232">
        <ele>421.675415</ele>
        <time>2011-05-28T07:50:50Z</time>
      </trkpt>
      <trkpt lat="44.39177" lon="4.33221">
        <ele>422.1560059</ele>
        <time>2011-05-28T07:50:57Z</time>
      </trkpt>
      <trkpt lat="44.39172" lon="4.33209">
        <ele>423.5980225</ele>
        <time>2011-05-28T07:51:05Z</time>
      </trkpt>
      <trkpt lat="44.39172" lon="4.33195">
        <ele>426.0013428</ele>
        <time>2011-05-28T07:51:13Z</time>
      </trkpt>
      <trkpt lat="44.39173" lon="4.33182">
        <ele>426.4820557</ele>
        <time>2011-05-28T07:51:21Z</time>
      </trkpt>
      <trkpt lat="44.39174" lon="4.33168">
        <ele>427.9239502</ele>
        <time>2011-05-28T07:51:29Z</time>
      </trkpt>
      <trkpt lat="44.39176" lon="4.33154">
        <ele>428.4046631</ele>
        <time>2011-05-28T07:51:37Z</time>
      </trkpt>
      <trkpt lat="44.39176" lon="4.33139">
        <ele>429.3659668</ele>
        <time>2011-05-28T07:51:45Z</time>
      </trkpt>
      <trkpt lat="44.39175" lon="4.33125">
        <ele>431.2885742</ele>
        <time>2011-05-28T07:51:53Z</time>
      </trkpt>
      <trkpt lat="44.39176" lon="4.33111">
        <ele>432.7307129</ele>
        <time>2011-05-28T07:52:02Z</time>
      </trkpt>
      <trkpt lat="44.39178" lon="4.33097">
        <ele>434.6533203</ele>
        <time>2011-05-28T07:52:11Z</time>
      </trkpt>
      <trkpt lat="44.39178" lon="4.33083">
        <ele>436.5759277</ele>
        <time>2011-05-28T07:52:20Z</time>
      </trkpt>
      <trkpt lat="44.39179" lon="4.33068">
        <ele>438.0178223</ele>
        <time>2011-05-28T07:52:29Z</time>
      </trkpt>
      <trkpt lat="44.39177" lon="4.33054">
        <ele>438.4985352</ele>
        <time>2011-05-28T07:52:37Z</time>
      </trkpt>
      <trkpt lat="44.39174" lon="4.3304">
        <ele>439.4597168</ele>
        <time>2011-05-28T07:52:46Z</time>
      </trkpt>
      <trkpt lat="44.39171" lon="4.33026">
        <ele>440.9018555</ele>
        <time>2011-05-28T07:52:54Z</time>
      </trkpt>
      <trkpt lat="44.39167" lon="4.33012">
        <ele>442.3438721</ele>
        <time>2011-05-28T07:53:01Z</time>
      </trkpt>
      <trkpt lat="44.39163" lon="4.33">
        <ele>443.3050537</ele>
        <time>2011-05-28T07:53:07Z</time>
      </trkpt>
      <trkpt lat="44.39159" lon="4.32987">
        <ele>443.7857666</ele>
        <time>2011-05-28T07:53:13Z</time>
      </trkpt>
      <trkpt lat="44.39157" lon="4.32973">
        <ele>444.2664795</ele>
        <time>2011-05-28T07:53:18Z</time>
      </trkpt>
      <trkpt lat="44.39156" lon="4.3296">
        <ele>444.2664795</ele>
        <time>2011-05-28T07:53:23Z</time>
      </trkpt>
      <trkpt lat="44.39161" lon="4.32945">
        <ele>444.7470703</ele>
        <time>2011-05-28T07:53:29Z</time>
      </trkpt>
      <trkpt lat="44.3917" lon="4.32938">
        <ele>444.2664795</ele>
        <time>2011-05-28T07:53:33Z</time>
      </trkpt>
      <trkpt lat="44.39176" lon="4.32927">
        <ele>444.2664795</ele>
        <time>2011-05-28T07:53:38Z</time>
      </trkpt>
      <trkpt lat="44.39181" lon="4.32915">
        <ele>445.2276611</ele>
        <time>2011-05-28T07:53:44Z</time>
      </trkpt>
      <trkpt lat="44.39187" lon="4.32901">
        <ele>446.1890869</ele>
        <time>2011-05-28T07:53:51Z</time>
      </trkpt>
      <trkpt lat="44.39191" lon="4.32889">
        <ele>449.5537109</ele>
        <time>2011-05-28T07:53:59Z</time>
      </trkpt>
      <trkpt lat="44.39196" lon="4.32878">
        <ele>450.9956055</ele>
        <time>2011-05-28T07:54:17Z</time>
      </trkpt>
      <trkpt lat="44.39194" lon="4.32867">
        <ele>451.9570313</ele>
        <time>2011-05-28T07:54:29Z</time>
      </trkpt>
      <trkpt lat="44.39196" lon="4.32854">
        <ele>453.3989258</ele>
        <time>2011-05-28T07:54:42Z</time>
      </trkpt>
      <trkpt lat="44.392" lon="4.32841">
        <ele>456.7635498</ele>
        <time>2011-05-28T07:55:03Z</time>
      </trkpt>
      <trkpt lat="44.39199" lon="4.32828">
        <ele>458.6861572</ele>
        <time>2011-05-28T07:55:13Z</time>
      </trkpt>
      <trkpt lat="44.39205" lon="4.32817">
        <ele>460.6087646</ele>
        <time>2011-05-28T07:55:26Z</time>
      </trkpt>
      <trkpt lat="44.39211" lon="4.32807">
        <ele>464.4541016</ele>
        <time>2011-05-28T07:55:38Z</time>
      </trkpt>
      <trkpt lat="44.39211" lon="4.32794">
        <ele>465.8961182</ele>
        <time>2011-05-28T07:55:51Z</time>
      </trkpt>
      <trkpt lat="44.39213" lon="4.32781">
        <ele>466.8574219</ele>
        <time>2011-05-28T07:56:03Z</time>
      </trkpt>
      <trkpt lat="44.39205" lon="4.32771">
        <ele>466.376709</ele>
        <time>2011-05-28T07:57:20Z</time>
      </trkpt>
      <trkpt lat="44.39198" lon="4.3276">
        <ele>464.9348145</ele>
        <time>2011-05-28T07:57:25Z</time>
      </trkpt>
      <trkpt lat="44.39188" lon="4.32749">
        <ele>463.012085</ele>
        <time>2011-05-28T07:57:29Z</time>
      </trkpt>
      <trkpt lat="44.39179" lon="4.32739">
        <ele>462.0507813</ele>
        <time>2011-05-28T07:57:32Z</time>
      </trkpt>
      <trkpt lat="44.39172" lon="4.32728">
        <ele>461.0894775</ele>
        <time>2011-05-28T07:57:35Z</time>
      </trkpt>
      <trkpt lat="44.39163" lon="4.32717">
        <ele>461.0894775</ele>
        <time>2011-05-28T07:57:39Z</time>
      </trkpt>
      <trkpt lat="44.39156" lon="4.32704">
        <ele>459.1668701</ele>
        <time>2011-05-28T07:57:43Z</time>
      </trkpt>
      <trkpt lat="44.39151" lon="4.32689">
        <ele>457.2442627</ele>
        <time>2011-05-28T07:57:47Z</time>
      </trkpt>
      <trkpt lat="44.39147" lon="4.32678">
        <ele>455.3215332</ele>
        <time>2011-05-28T07:57:50Z</time>
      </trkpt>
      <trkpt lat="44.39141" lon="4.32667">
        <ele>453.8796387</ele>
        <time>2011-05-28T07:57:53Z</time>
      </trkpt>
      <trkpt lat="44.39132" lon="4.32662">
        <ele>452.4376221</ele>
        <time>2011-05-28T07:57:59Z</time>
      </trkpt>
      <trkpt lat="44.39122" lon="4.32655">
        <ele>450.0344238</ele>
        <time>2011-05-28T07:58:05Z</time>
      </trkpt>
      <trkpt lat="44.39116" lon="4.32645">
        <ele>450.5150146</ele>
        <time>2011-05-28T07:58:09Z</time>
      </trkpt>
      <trkpt lat="44.39106" lon="4.32634">
        <ele>449.5537109</ele>
        <time>2011-05-28T07:58:13Z</time>
      </trkpt>
      <trkpt lat="44.39097" lon="4.3263">
        <ele>448.5924072</ele>
        <time>2011-05-28T07:58:16Z</time>
      </trkpt>
      <trkpt lat="44.39088" lon="4.32627">
        <ele>448.1118164</ele>
        <time>2011-05-28T07:58:19Z</time>
      </trkpt>
      <trkpt lat="44.39077" lon="4.3262">
        <ele>446.6696777</ele>
        <time>2011-05-28T07:58:23Z</time>
      </trkpt>
      <trkpt lat="44.39067" lon="4.32613">
        <ele>447.1502686</ele>
        <time>2011-05-28T07:58:26Z</time>
      </trkpt>
      <trkpt lat="44.39057" lon="4.32608">
        <ele>449.5537109</ele>
        <time>2011-05-28T07:58:31Z</time>
      </trkpt>
      <trkpt lat="44.39048" lon="4.32606">
        <ele>450.0344238</ele>
        <time>2011-05-28T07:58:36Z</time>
      </trkpt>
      <trkpt lat="44.39037" lon="4.32604">
        <ele>450.9956055</ele>
        <time>2011-05-28T07:58:40Z</time>
      </trkpt>
      <trkpt lat="44.39027" lon="4.326">
        <ele>451.4763184</ele>
        <time>2011-05-28T07:58:44Z</time>
      </trkpt>
      <trkpt lat="44.39019" lon="4.32595">
        <ele>451.9570313</ele>
        <time>2011-05-28T07:58:49Z</time>
      </trkpt>
      <trkpt lat="44.3901" lon="4.32591">
        <ele>454.8408203</ele>
        <time>2011-05-28T07:58:55Z</time>
      </trkpt>
      <trkpt lat="44.39" lon="4.32586">
        <ele>455.3215332</ele>
        <time>2011-05-28T07:59:01Z</time>
      </trkpt>
      <trkpt lat="44.38991" lon="4.3258">
        <ele>455.8022461</ele>
        <time>2011-05-28T07:59:08Z</time>
      </trkpt>
      <trkpt lat="44.3898" lon="4.32573">
        <ele>456.282959</ele>
        <time>2011-05-28T07:59:14Z</time>
      </trkpt>
      <trkpt lat="44.38973" lon="4.32563">
        <ele>456.282959</ele>
        <time>2011-05-28T07:59:18Z</time>
      </trkpt>
      <trkpt lat="44.38966" lon="4.32554">
        <ele>456.7635498</ele>
        <time>2011-05-28T07:59:23Z</time>
      </trkpt>
      <trkpt lat="44.38957" lon="4.32544">
        <ele>455.8022461</ele>
        <time>2011-05-28T07:59:27Z</time>
      </trkpt>
      <trkpt lat="44.3895" lon="4.32535">
        <ele>456.7635498</ele>
        <time>2011-05-28T07:59:30Z</time>
      </trkpt>
      <trkpt lat="44.38941" lon="4.32528">
        <ele>456.282959</ele>
        <time>2011-05-28T07:59:34Z</time>
      </trkpt>
      <trkpt lat="44.38932" lon="4.32523">
        <ele>454.8408203</ele>
        <time>2011-05-28T07:59:38Z</time>
      </trkpt>
      <trkpt lat="44.38923" lon="4.32518">
        <ele>453.3989258</ele>
        <time>2011-05-28T07:59:41Z</time>
      </trkpt>
      <trkpt lat="44.38912" lon="4.32515">
        <ele>452.4376221</ele>
        <time>2011-05-28T07:59:44Z</time>
      </trkpt>
      <trkpt lat="44.38902" lon="4.32514">
        <ele>451.9570313</ele>
        <time>2011-05-28T07:59:47Z</time>
      </trkpt>
      <trkpt lat="44.3889" lon="4.32513">
        <ele>450.9956055</ele>
        <time>2011-05-28T07:59:51Z</time>
      </trkpt>
      <trkpt lat="44.3888" lon="4.32512">
        <ele>450.9956055</ele>
        <time>2011-05-28T07:59:55Z</time>
      </trkpt>
      <trkpt lat="44.3887" lon="4.32509">
        <ele>450.9956055</ele>
        <time>2011-05-28T08:00:00Z</time>
      </trkpt>
      <trkpt lat="44.38859" lon="4.32506">
        <ele>451.9570313</ele>
        <time>2011-05-28T08:00:05Z</time>
      </trkpt>
      <trkpt lat="44.38849" lon="4.32502">
        <ele>452.4376221</ele>
        <time>2011-05-28T08:00:10Z</time>
      </trkpt>
      <trkpt lat="44.38839" lon="4.32497">
        <ele>450.9956055</ele>
        <time>2011-05-28T08:00:15Z</time>
      </trkpt>
      <trkpt lat="44.38832" lon="4.32485">
        <ele>449.072998</ele>
        <time>2011-05-28T08:00:19Z</time>
      </trkpt>
      <trkpt lat="44.38826" lon="4.32472">
        <ele>448.1118164</ele>
        <time>2011-05-28T08:00:22Z</time>
      </trkpt>
      <trkpt lat="44.38818" lon="4.3246">
        <ele>448.1118164</ele>
        <time>2011-05-28T08:00:26Z</time>
      </trkpt>
      <trkpt lat="44.38808" lon="4.32453">
        <ele>448.1118164</ele>
        <time>2011-05-28T08:00:30Z</time>
      </trkpt>
      <trkpt lat="44.38799" lon="4.32453">
        <ele>448.1118164</ele>
        <time>2011-05-28T08:00:34Z</time>
      </trkpt>
      <trkpt lat="44.38789" lon="4.3245">
        <ele>448.1118164</ele>
        <time>2011-05-28T08:00:38Z</time>
      </trkpt>
      <trkpt lat="44.38777" lon="4.32448">
        <ele>447.6309814</ele>
        <time>2011-05-28T08:00:42Z</time>
      </trkpt>
      <trkpt lat="44.38767" lon="4.32445">
        <ele>449.072998</ele>
        <time>2011-05-28T08:00:46Z</time>
      </trkpt>
      <trkpt lat="44.38756" lon="4.32444">
        <ele>448.5924072</ele>
        <time>2011-05-28T08:00:51Z</time>
      </trkpt>
      <trkpt lat="44.38743" lon="4.32447">
        <ele>446.1890869</ele>
        <time>2011-05-28T08:00:56Z</time>
      </trkpt>
      <trkpt lat="44.38732" lon="4.32447">
        <ele>445.708374</ele>
        <time>2011-05-28T08:01:00Z</time>
      </trkpt>
      <trkpt lat="44.38721" lon="4.32446">
        <ele>445.708374</ele>
        <time>2011-05-28T08:01:07Z</time>
      </trkpt>
      <trkpt lat="44.3871" lon="4.32443">
        <ele>447.1502686</ele>
        <time>2011-05-28T08:01:20Z</time>
      </trkpt>
      <trkpt lat="44.38701" lon="4.32443">
        <ele>446.6696777</ele>
        <time>2011-05-28T08:01:38Z</time>
      </trkpt>
      <trkpt lat="44.3869" lon="4.32449">
        <ele>442.8244629</ele>
        <time>2011-05-28T08:01:45Z</time>
      </trkpt>
      <trkpt lat="44.38681" lon="4.32449">
        <ele>441.3824463</ele>
        <time>2011-05-28T08:01:49Z</time>
      </trkpt>
      <trkpt lat="44.3867" lon="4.32449">
        <ele>439.9404297</ele>
        <time>2011-05-28T08:01:54Z</time>
      </trkpt>
      <trkpt lat="44.38659" lon="4.32447">
        <ele>437.0565186</ele>
        <time>2011-05-28T08:01:58Z</time>
      </trkpt>
      <trkpt lat="44.38648" lon="4.32448">
        <ele>433.6918945</ele>
        <time>2011-05-28T08:02:02Z</time>
      </trkpt>
      <trkpt lat="44.38637" lon="4.3245">
        <ele>429.3659668</ele>
        <time>2011-05-28T08:02:06Z</time>
      </trkpt>
      <trkpt lat="44.38627" lon="4.32451">
        <ele>428.4046631</ele>
        <time>2011-05-28T08:02:09Z</time>
      </trkpt>
      <trkpt lat="44.38617" lon="4.32452">
        <ele>429.3659668</ele>
        <time>2011-05-28T08:02:13Z</time>
      </trkpt>
      <trkpt lat="44.38607" lon="4.32455">
        <ele>428.4046631</ele>
        <time>2011-05-28T08:02:18Z</time>
      </trkpt>
      <trkpt lat="44.38597" lon="4.32452">
        <ele>427.9239502</ele>
        <time>2011-05-28T08:02:25Z</time>
      </trkpt>
      <trkpt lat="44.38593" lon="4.3244">
        <ele>426.9627686</ele>
        <time>2011-05-28T08:02:30Z</time>
      </trkpt>
      <trkpt lat="44.3859" lon="4.32426">
        <ele>426.0013428</ele>
        <time>2011-05-28T08:02:36Z</time>
      </trkpt>
      <trkpt lat="44.38587" lon="4.32412">
        <ele>426.0013428</ele>
        <time>2011-05-28T08:02:41Z</time>
      </trkpt>
      <trkpt lat="44.38585" lon="4.32396">
        <ele>425.520752</ele>
        <time>2011-05-28T08:02:46Z</time>
      </trkpt>
      <trkpt lat="44.38578" lon="4.32384">
        <ele>426.4820557</ele>
        <time>2011-05-28T08:02:51Z</time>
      </trkpt>
      <trkpt lat="44.38572" lon="4.32374">
        <ele>426.9627686</ele>
        <time>2011-05-28T08:02:55Z</time>
      </trkpt>
      <trkpt lat="44.38567" lon="4.32361">
        <ele>427.9239502</ele>
        <time>2011-05-28T08:02:59Z</time>
      </trkpt>
      <trkpt lat="44.38561" lon="4.32349">
        <ele>426.9627686</ele>
        <time>2011-05-28T08:03:03Z</time>
      </trkpt>
      <trkpt lat="44.38552" lon="4.32344">
        <ele>424.5594482</ele>
        <time>2011-05-28T08:03:07Z</time>
      </trkpt>
      <trkpt lat="44.38543" lon="4.32339">
        <ele>423.1174316</ele>
        <time>2011-05-28T08:03:10Z</time>
      </trkpt>
      <trkpt lat="44.38533" lon="4.32328">
        <ele>424.0787354</ele>
        <time>2011-05-28T08:03:14Z</time>
      </trkpt>
      <trkpt lat="44.38526" lon="4.3232">
        <ele>424.5594482</ele>
        <time>2011-05-28T08:03:17Z</time>
      </trkpt>
      <trkpt lat="44.38519" lon="4.32309">
        <ele>425.520752</ele>
        <time>2011-05-28T08:03:20Z</time>
      </trkpt>
      <trkpt lat="44.38515" lon="4.32296">
        <ele>423.5980225</ele>
        <time>2011-05-28T08:03:23Z</time>
      </trkpt>
      <trkpt lat="44.3851" lon="4.32284">
        <ele>423.1174316</ele>
        <time>2011-05-28T08:03:26Z</time>
      </trkpt>
      <trkpt lat="44.38506" lon="4.32269">
        <ele>421.675415</ele>
        <time>2011-05-28T08:03:29Z</time>
      </trkpt>
      <trkpt lat="44.38499" lon="4.32253">
        <ele>421.1948242</ele>
        <time>2011-05-28T08:03:32Z</time>
      </trkpt>
      <trkpt lat="44.38493" lon="4.32243">
        <ele>421.1948242</ele>
        <time>2011-05-28T08:03:34Z</time>
      </trkpt>
      <trkpt lat="44.38488" lon="4.3223">
        <ele>421.1948242</ele>
        <time>2011-05-28T08:03:36Z</time>
      </trkpt>
      <trkpt lat="44.38482" lon="4.32219">
        <ele>420.7141113</ele>
        <time>2011-05-28T08:03:38Z</time>
      </trkpt>
      <trkpt lat="44.38476" lon="4.32208">
        <ele>420.7141113</ele>
        <time>2011-05-28T08:03:40Z</time>
      </trkpt>
      <trkpt lat="44.38473" lon="4.32195">
        <ele>420.2333984</ele>
        <time>2011-05-28T08:03:42Z</time>
      </trkpt>
      <trkpt lat="44.38467" lon="4.32183">
        <ele>419.7528076</ele>
        <time>2011-05-28T08:03:45Z</time>
      </trkpt>
      <trkpt lat="44.38457" lon="4.32178">
        <ele>418.310791</ele>
        <time>2011-05-28T08:03:48Z</time>
      </trkpt>
      <trkpt lat="44.38446" lon="4.32179">
        <ele>417.8302002</ele>
        <time>2011-05-28T08:03:51Z</time>
      </trkpt>
      <trkpt lat="44.38435" lon="4.3218">
        <ele>416.8688965</ele>
        <time>2011-05-28T08:03:54Z</time>
      </trkpt>
      <trkpt lat="44.38424" lon="4.32179">
        <ele>416.8688965</ele>
        <time>2011-05-28T08:03:57Z</time>
      </trkpt>
      <trkpt lat="44.38412" lon="4.3218">
        <ele>416.3881836</ele>
        <time>2011-05-28T08:04:00Z</time>
      </trkpt>
      <trkpt lat="44.384" lon="4.32183">
        <ele>415.4268799</ele>
        <time>2011-05-28T08:04:03Z</time>
      </trkpt>
      <trkpt lat="44.38387" lon="4.32185">
        <ele>414.946167</ele>
        <time>2011-05-28T08:04:06Z</time>
      </trkpt>
      <trkpt lat="44.38374" lon="4.32187">
        <ele>412.5428467</ele>
        <time>2011-05-28T08:04:09Z</time>
      </trkpt>
      <trkpt lat="44.38363" lon="4.3219">
        <ele>411.1009521</ele>
        <time>2011-05-28T08:04:12Z</time>
      </trkpt>
      <trkpt lat="44.38353" lon="4.32192">
        <ele>410.6202393</ele>
        <time>2011-05-28T08:04:15Z</time>
      </trkpt>
      <trkpt lat="44.38343" lon="4.32195">
        <ele>407.7363281</ele>
        <time>2011-05-28T08:04:18Z</time>
      </trkpt>
      <trkpt lat="44.38331" lon="4.32197">
        <ele>405.3330078</ele>
        <time>2011-05-28T08:04:22Z</time>
      </trkpt>
      <trkpt lat="44.3832" lon="4.32198">
        <ele>403.4104004</ele>
        <time>2011-05-28T08:04:26Z</time>
      </trkpt>
      <trkpt lat="44.3831" lon="4.32196">
        <ele>403.8911133</ele>
        <time>2011-05-28T08:04:32Z</time>
      </trkpt>
      <trkpt lat="44.38314" lon="4.32189">
        <ele>403.4104004</ele>
        <time>2011-05-28T08:14:57Z</time>
      </trkpt>
      <trkpt lat="44.38318" lon="4.32178">
        <ele>404.8522949</ele>
        <time>2011-05-28T08:15:07Z</time>
      </trkpt>
      <trkpt lat="44.38319" lon="4.32165">
        <ele>404.8522949</ele>
        <time>2011-05-28T08:15:21Z</time>
      </trkpt>
      <trkpt lat="44.38317" lon="4.32151">
        <ele>403.8911133</ele>
        <time>2011-05-28T08:15:27Z</time>
      </trkpt>
      <trkpt lat="44.38319" lon="4.32136">
        <ele>403.4104004</ele>
        <time>2011-05-28T08:15:31Z</time>
      </trkpt>
      <trkpt lat="44.38313" lon="4.32125">
        <ele>403.4104004</ele>
        <time>2011-05-28T08:16:12Z</time>
      </trkpt>
      <trkpt lat="44.38302" lon="4.32121">
        <ele>403.4104004</ele>
        <time>2011-05-28T08:16:19Z</time>
      </trkpt>
      <trkpt lat="44.38292" lon="4.32115">
        <ele>403.4104004</ele>
        <time>2011-05-28T08:16:34Z</time>
      </trkpt>
      <trkpt lat="44.38283" lon="4.3211">
        <ele>403.4104004</ele>
        <time>2011-05-28T08:16:39Z</time>
      </trkpt>
      <trkpt lat="44.38272" lon="4.32113">
        <ele>400.5264893</ele>
        <time>2011-05-28T08:16:43Z</time>
      </trkpt>
      <trkpt lat="44.38261" lon="4.32116">
        <ele>399.5650635</ele>
        <time>2011-05-28T08:16:47Z</time>
      </trkpt>
      <trkpt lat="44.38251" lon="4.32119">
        <ele>396.6811523</ele>
        <time>2011-05-28T08:16:50Z</time>
      </trkpt>
      <trkpt lat="44.38238" lon="4.32124">
        <ele>393.3165283</ele>
        <time>2011-05-28T08:16:54Z</time>
      </trkpt>
      <trkpt lat="44.38226" lon="4.32127">
        <ele>391.3937988</ele>
        <time>2011-05-28T08:16:58Z</time>
      </trkpt>
      <trkpt lat="44.38213" lon="4.32133">
        <ele>390.4326172</ele>
        <time>2011-05-28T08:17:02Z</time>
      </trkpt>
      <trkpt lat="44.38203" lon="4.32136">
        <ele>387.0679932</ele>
        <time>2011-05-28T08:17:05Z</time>
      </trkpt>
      <trkpt lat="44.38193" lon="4.32134">
        <ele>386.1066895</ele>
        <time>2011-05-28T08:17:08Z</time>
      </trkpt>
      <trkpt lat="44.38187" lon="4.32121">
        <ele>385.6259766</ele>
        <time>2011-05-28T08:17:12Z</time>
      </trkpt>
      <trkpt lat="44.38185" lon="4.32108">
        <ele>386.1066895</ele>
        <time>2011-05-28T08:17:15Z</time>
      </trkpt>
      <trkpt lat="44.38183" lon="4.32096">
        <ele>386.1066895</ele>
        <time>2011-05-28T08:17:18Z</time>
      </trkpt>
      <trkpt lat="44.38181" lon="4.32083">
        <ele>385.6259766</ele>
        <time>2011-05-28T08:17:22Z</time>
      </trkpt>
      <trkpt lat="44.38178" lon="4.32068">
        <ele>383.7032471</ele>
        <time>2011-05-28T08:17:26Z</time>
      </trkpt>
      <trkpt lat="44.38173" lon="4.32055">
        <ele>379.8580322</ele>
        <time>2011-05-28T08:17:30Z</time>
      </trkpt>
      <trkpt lat="44.3817" lon="4.32041">
        <ele>378.4161377</ele>
        <time>2011-05-28T08:17:34Z</time>
      </trkpt>
      <trkpt lat="44.38163" lon="4.32033">
        <ele>376.0128174</ele>
        <time>2011-05-28T08:17:39Z</time>
      </trkpt>
      <trkpt lat="44.38156" lon="4.32043">
        <ele>374.5708008</ele>
        <time>2011-05-28T08:17:43Z</time>
      </trkpt>
      <trkpt lat="44.38152" lon="4.3206">
        <ele>375.0515137</ele>
        <time>2011-05-28T08:17:48Z</time>
      </trkpt>
      <trkpt lat="44.38144" lon="4.32073">
        <ele>374.5708008</ele>
        <time>2011-05-28T08:17:52Z</time>
      </trkpt>
      <trkpt lat="44.38135" lon="4.32083">
        <ele>376.4935303</ele>
        <time>2011-05-28T08:17:56Z</time>
      </trkpt>
      <trkpt lat="44.38127" lon="4.3209">
        <ele>377.454834</ele>
        <time>2011-05-28T08:18:01Z</time>
      </trkpt>
      <trkpt lat="44.38118" lon="4.32097">
        <ele>378.4161377</ele>
        <time>2011-05-28T08:18:08Z</time>
      </trkpt>
      <trkpt lat="44.38109" lon="4.32104">
        <ele>379.8580322</ele>
        <time>2011-05-28T08:18:14Z</time>
      </trkpt>
      <trkpt lat="44.38098" lon="4.32109">
        <ele>381.3000488</ele>
        <time>2011-05-28T08:18:20Z</time>
      </trkpt>
      <trkpt lat="44.38088" lon="4.32117">
        <ele>381.3000488</ele>
        <time>2011-05-28T08:18:26Z</time>
      </trkpt>
      <trkpt lat="44.3808" lon="4.32124">
        <ele>379.8580322</ele>
        <time>2011-05-28T08:18:30Z</time>
      </trkpt>
      <trkpt lat="44.3807" lon="4.32132">
        <ele>378.4161377</ele>
        <time>2011-05-28T08:18:34Z</time>
      </trkpt>
      <trkpt lat="44.38061" lon="4.32138">
        <ele>377.9354248</ele>
        <time>2011-05-28T08:18:37Z</time>
      </trkpt>
      <trkpt lat="44.38051" lon="4.32146">
        <ele>376.0128174</ele>
        <time>2011-05-28T08:18:40Z</time>
      </trkpt>
      <trkpt lat="44.38039" lon="4.32156">
        <ele>373.1289063</ele>
        <time>2011-05-28T08:18:43Z</time>
      </trkpt>
      <trkpt lat="44.38031" lon="4.32163">
        <ele>370.244873</ele>
        <time>2011-05-28T08:18:45Z</time>
      </trkpt>
      <trkpt lat="44.38022" lon="4.32171">
        <ele>368.3222656</ele>
        <time>2011-05-28T08:18:47Z</time>
      </trkpt>
      <trkpt lat="44.38012" lon="4.32179">
        <ele>365.9189453</ele>
        <time>2011-05-28T08:18:49Z</time>
      </trkpt>
      <trkpt lat="44.38002" lon="4.32188">
        <ele>363.5157471</ele>
        <time>2011-05-28T08:18:51Z</time>
      </trkpt>
      <trkpt lat="44.37991" lon="4.32197">
        <ele>360.6317139</ele>
        <time>2011-05-28T08:18:53Z</time>
      </trkpt>
      <trkpt lat="44.37979" lon="4.32206">
        <ele>359.1896973</ele>
        <time>2011-05-28T08:18:55Z</time>
      </trkpt>
      <trkpt lat="44.37968" lon="4.32217">
        <ele>356.3057861</ele>
        <time>2011-05-28T08:18:57Z</time>
      </trkpt>
      <trkpt lat="44.37958" lon="4.32227">
        <ele>352.9411621</ele>
        <time>2011-05-28T08:18:59Z</time>
      </trkpt>
      <trkpt lat="44.37949" lon="4.32235">
        <ele>351.9798584</ele>
        <time>2011-05-28T08:19:01Z</time>
      </trkpt>
      <trkpt lat="44.37939" lon="4.32246">
        <ele>349.5765381</ele>
        <time>2011-05-28T08:19:04Z</time>
      </trkpt>
      <trkpt lat="44.37929" lon="4.32254">
        <ele>348.6152344</ele>
        <time>2011-05-28T08:19:07Z</time>
      </trkpt>
      <trkpt lat="44.3792" lon="4.32262">
        <ele>346.692627</ele>
        <time>2011-05-28T08:19:10Z</time>
      </trkpt>
      <trkpt lat="44.3791" lon="4.32268">
        <ele>343.8085938</ele>
        <time>2011-05-28T08:19:13Z</time>
      </trkpt>
      <trkpt lat="44.37898" lon="4.32271">
        <ele>342.84729</ele>
        <time>2011-05-28T08:19:16Z</time>
      </trkpt>
      <trkpt lat="44.37886" lon="4.3227">
        <ele>340.9246826</ele>
        <time>2011-05-28T08:19:19Z</time>
      </trkpt>
      <trkpt lat="44.37874" lon="4.32266">
        <ele>338.5214844</ele>
        <time>2011-05-28T08:19:22Z</time>
      </trkpt>
      <trkpt lat="44.37864" lon="4.32263">
        <ele>336.598877</ele>
        <time>2011-05-28T08:19:25Z</time>
      </trkpt>
      <trkpt lat="44.37856" lon="4.32256">
        <ele>336.1181641</ele>
        <time>2011-05-28T08:19:28Z</time>
      </trkpt>
      <trkpt lat="44.37846" lon="4.32247">
        <ele>333.2341309</ele>
        <time>2011-05-28T08:19:32Z</time>
      </trkpt>
      <trkpt lat="44.37837" lon="4.32238">
        <ele>330.3502197</ele>
        <time>2011-05-28T08:19:36Z</time>
      </trkpt>
      <trkpt lat="44.3783" lon="4.32224">
        <ele>328.9083252</ele>
        <time>2011-05-28T08:19:40Z</time>
      </trkpt>
      <trkpt lat="44.37824" lon="4.3221">
        <ele>328.4276123</ele>
        <time>2011-05-28T08:19:44Z</time>
      </trkpt>
      <trkpt lat="44.37816" lon="4.32198">
        <ele>326.5048828</ele>
        <time>2011-05-28T08:19:47Z</time>
      </trkpt>
      <trkpt lat="44.37807" lon="4.32191">
        <ele>324.5822754</ele>
        <time>2011-05-28T08:19:50Z</time>
      </trkpt>
      <trkpt lat="44.37796" lon="4.32181">
        <ele>322.659668</ele>
        <time>2011-05-28T08:19:54Z</time>
      </trkpt>
      <trkpt lat="44.37791" lon="4.32169">
        <ele>320.2563477</ele>
        <time>2011-05-28T08:19:57Z</time>
      </trkpt>
      <trkpt lat="44.37789" lon="4.32156">
        <ele>317.8530273</ele>
        <time>2011-05-28T08:20:00Z</time>
      </trkpt>
      <trkpt lat="44.37791" lon="4.32141">
        <ele>317.3724365</ele>
        <time>2011-05-28T08:20:04Z</time>
      </trkpt>
      <trkpt lat="44.37784" lon="4.32138">
        <ele>316.8917236</ele>
        <time>2011-05-28T08:20:20Z</time>
      </trkpt>
      <trkpt lat="44.37777" lon="4.32149">
        <ele>316.8917236</ele>
        <time>2011-05-28T08:20:30Z</time>
      </trkpt>
      <trkpt lat="44.3777" lon="4.3216">
        <ele>318.8143311</ele>
        <time>2011-05-28T08:20:42Z</time>
      </trkpt>
      <trkpt lat="44.37762" lon="4.32169">
        <ele>320.2563477</ele>
        <time>2011-05-28T08:24:16Z</time>
      </trkpt>
      <trkpt lat="44.37757" lon="4.32182">
        <ele>319.2950439</ele>
        <time>2011-05-28T08:24:28Z</time>
      </trkpt>
      <trkpt lat="44.37747" lon="4.32191">
        <ele>320.2563477</ele>
        <time>2011-05-28T08:24:32Z</time>
      </trkpt>
      <trkpt lat="44.37736" lon="4.32197">
        <ele>319.2950439</ele>
        <time>2011-05-28T08:24:35Z</time>
      </trkpt>
      <trkpt lat="44.37724" lon="4.32203">
        <ele>319.2950439</ele>
        <time>2011-05-28T08:24:38Z</time>
      </trkpt>
      <trkpt lat="44.37715" lon="4.32206">
        <ele>317.8530273</ele>
        <time>2011-05-28T08:24:42Z</time>
      </trkpt>
      <trkpt lat="44.37724" lon="4.32213">
        <ele>316.4110107</ele>
        <time>2011-05-28T08:24:47Z</time>
      </trkpt>
      <trkpt lat="44.37734" lon="4.32223">
        <ele>314.9691162</ele>
        <time>2011-05-28T08:24:50Z</time>
      </trkpt>
      <trkpt lat="44.37739" lon="4.32238">
        <ele>312.0852051</ele>
        <time>2011-05-28T08:24:53Z</time>
      </trkpt>
      <trkpt lat="44.37735" lon="4.32254">
        <ele>312.0852051</ele>
        <time>2011-05-28T08:24:56Z</time>
      </trkpt>
      <trkpt lat="44.37733" lon="4.32266">
        <ele>311.1237793</ele>
        <time>2011-05-28T08:24:58Z</time>
      </trkpt>
      <trkpt lat="44.37728" lon="4.3228">
        <ele>310.6430664</ele>
        <time>2011-05-28T08:25:00Z</time>
      </trkpt>
      <trkpt lat="44.37721" lon="4.32293">
        <ele>309.2011719</ele>
        <time>2011-05-28T08:25:02Z</time>
      </trkpt>
      <trkpt lat="44.37711" lon="4.32307">
        <ele>307.7592773</ele>
        <time>2011-05-28T08:25:04Z</time>
      </trkpt>
      <trkpt lat="44.37701" lon="4.32319">
        <ele>305.8366699</ele>
        <time>2011-05-28T08:25:06Z</time>
      </trkpt>
      <trkpt lat="44.3769" lon="4.32333">
        <ele>303.4332275</ele>
        <time>2011-05-28T08:25:08Z</time>
      </trkpt>
      <trkpt lat="44.37683" lon="4.32353">
        <ele>301.991333</ele>
        <time>2011-05-28T08:25:10Z</time>
      </trkpt>
      <trkpt lat="44.37677" lon="4.32373">
        <ele>299.5880127</ele>
        <time>2011-05-28T08:25:12Z</time>
      </trkpt>
      <trkpt lat="44.37668" lon="4.32391">
        <ele>297.6654053</ele>
        <time>2011-05-28T08:25:14Z</time>
      </trkpt>
      <trkpt lat="44.37657" lon="4.32403">
        <ele>296.7041016</ele>
        <time>2011-05-28T08:25:16Z</time>
      </trkpt>
      <trkpt lat="44.37648" lon="4.32408">
        <ele>293.8200684</ele>
        <time>2011-05-28T08:25:18Z</time>
      </trkpt>
      <trkpt lat="44.37643" lon="4.32416">
        <ele>293.3393555</ele>
        <time>2011-05-28T08:25:22Z</time>
      </trkpt>
      <trkpt lat="44.37655" lon="4.32421">
        <ele>290.9361572</ele>
        <time>2011-05-28T08:25:30Z</time>
      </trkpt>
      <trkpt lat="44.37668" lon="4.32415">
        <ele>289.0135498</ele>
        <time>2011-05-28T08:25:34Z</time>
      </trkpt>
      <trkpt lat="44.37678" lon="4.32416">
        <ele>289.4941406</ele>
        <time>2011-05-28T08:25:37Z</time>
      </trkpt>
      <trkpt lat="44.37685" lon="4.32429">
        <ele>289.4941406</ele>
        <time>2011-05-28T08:25:41Z</time>
      </trkpt>
      <trkpt lat="44.3768" lon="4.32443">
        <ele>289.4941406</ele>
        <time>2011-05-28T08:25:45Z</time>
      </trkpt>
      <trkpt lat="44.37674" lon="4.32454">
        <ele>289.9748535</ele>
        <time>2011-05-28T08:25:48Z</time>
      </trkpt>
      <trkpt lat="44.37667" lon="4.32466">
        <ele>289.4941406</ele>
        <time>2011-05-28T08:25:51Z</time>
      </trkpt>
      <trkpt lat="44.37659" lon="4.32478">
        <ele>289.4941406</ele>
        <time>2011-05-28T08:25:54Z</time>
      </trkpt>
      <trkpt lat="44.37654" lon="4.32496">
        <ele>286.6102295</ele>
        <time>2011-05-28T08:25:57Z</time>
      </trkpt>
      <trkpt lat="44.3765" lon="4.32511">
        <ele>286.1295166</ele>
        <time>2011-05-28T08:25:59Z</time>
      </trkpt>
      <trkpt lat="44.37647" lon="4.32528">
        <ele>286.1295166</ele>
        <time>2011-05-28T08:26:01Z</time>
      </trkpt>
      <trkpt lat="44.37643" lon="4.32544">
        <ele>286.1295166</ele>
        <time>2011-05-28T08:26:03Z</time>
      </trkpt>
      <trkpt lat="44.3764" lon="4.32559">
        <ele>285.1682129</ele>
        <time>2011-05-28T08:26:05Z</time>
      </trkpt>
      <trkpt lat="44.37634" lon="4.32572">
        <ele>285.1682129</ele>
        <time>2011-05-28T08:26:07Z</time>
      </trkpt>
      <trkpt lat="44.37629" lon="4.32585">
        <ele>284.2069092</ele>
        <time>2011-05-28T08:26:09Z</time>
      </trkpt>
      <trkpt lat="44.37624" lon="4.32596">
        <ele>284.2069092</ele>
        <time>2011-05-28T08:26:11Z</time>
      </trkpt>
      <trkpt lat="44.37619" lon="4.32609">
        <ele>283.7261963</ele>
        <time>2011-05-28T08:26:13Z</time>
      </trkpt>
      <trkpt lat="44.37612" lon="4.32621">
        <ele>282.7650146</ele>
        <time>2011-05-28T08:26:15Z</time>
      </trkpt>
      <trkpt lat="44.37603" lon="4.32634">
        <ele>281.322998</ele>
        <time>2011-05-28T08:26:17Z</time>
      </trkpt>
      <trkpt lat="44.37596" lon="4.3265">
        <ele>279.4002686</ele>
        <time>2011-05-28T08:26:19Z</time>
      </trkpt>
      <trkpt lat="44.37589" lon="4.32666">
        <ele>277.958252</ele>
        <time>2011-05-28T08:26:21Z</time>
      </trkpt>
      <trkpt lat="44.37579" lon="4.32681">
        <ele>276.5163574</ele>
        <time>2011-05-28T08:26:23Z</time>
      </trkpt>
      <trkpt lat="44.3757" lon="4.32693">
        <ele>276.0356445</ele>
        <time>2011-05-28T08:26:25Z</time>
      </trkpt>
      <trkpt lat="44.37564" lon="4.32707">
        <ele>274.59375</ele>
        <time>2011-05-28T08:26:27Z</time>
      </trkpt>
      <trkpt lat="44.37559" lon="4.32724">
        <ele>274.59375</ele>
        <time>2011-05-28T08:26:29Z</time>
      </trkpt>
      <trkpt lat="44.37555" lon="4.3274">
        <ele>273.6324463</ele>
        <time>2011-05-28T08:26:31Z</time>
      </trkpt>
      <trkpt lat="44.37547" lon="4.32751">
        <ele>273.6324463</ele>
        <time>2011-05-28T08:26:33Z</time>
      </trkpt>
      <trkpt lat="44.37539" lon="4.32759">
        <ele>273.6324463</ele>
        <time>2011-05-28T08:26:35Z</time>
      </trkpt>
      <trkpt lat="44.3753" lon="4.32768">
        <ele>274.1130371</ele>
        <time>2011-05-28T08:26:38Z</time>
      </trkpt>
      <trkpt lat="44.3752" lon="4.3278">
        <ele>273.1518555</ele>
        <time>2011-05-28T08:26:41Z</time>
      </trkpt>
      <trkpt lat="44.37512" lon="4.32788">
        <ele>271.7097168</ele>
        <time>2011-05-28T08:26:43Z</time>
      </trkpt>
      <trkpt lat="44.37503" lon="4.32795">
        <ele>270.7484131</ele>
        <time>2011-05-28T08:26:45Z</time>
      </trkpt>
      <trkpt lat="44.37493" lon="4.32809">
        <ele>269.7871094</ele>
        <time>2011-05-28T08:26:48Z</time>
      </trkpt>
      <trkpt lat="44.37487" lon="4.32825">
        <ele>267.864502</ele>
        <time>2011-05-28T08:26:51Z</time>
      </trkpt>
      <trkpt lat="44.37478" lon="4.32839">
        <ele>267.864502</ele>
        <time>2011-05-28T08:26:54Z</time>
      </trkpt>
      <trkpt lat="44.37467" lon="4.3285">
        <ele>266.9031982</ele>
        <time>2011-05-28T08:26:57Z</time>
      </trkpt>
      <trkpt lat="44.37456" lon="4.32858">
        <ele>266.9031982</ele>
        <time>2011-05-28T08:27:00Z</time>
      </trkpt>
      <trkpt lat="44.37447" lon="4.32866">
        <ele>264.9805908</ele>
        <time>2011-05-28T08:27:03Z</time>
      </trkpt>
      <trkpt lat="44.37438" lon="4.32877">
        <ele>264.9805908</ele>
        <time>2011-05-28T08:27:06Z</time>
      </trkpt>
      <trkpt lat="44.37426" lon="4.32887">
        <ele>264.9805908</ele>
        <time>2011-05-28T08:27:09Z</time>
      </trkpt>
      <trkpt lat="44.37418" lon="4.32894">
        <ele>264.9805908</ele>
        <time>2011-05-28T08:27:11Z</time>
      </trkpt>
      <trkpt lat="44.3741" lon="4.32902">
        <ele>264.9805908</ele>
        <time>2011-05-28T08:27:13Z</time>
      </trkpt>
      <trkpt lat="44.37401" lon="4.32912">
        <ele>263.0578613</ele>
        <time>2011-05-28T08:27:15Z</time>
      </trkpt>
      <trkpt lat="44.37392" lon="4.32921">
        <ele>263.0578613</ele>
        <time>2011-05-28T08:27:17Z</time>
      </trkpt>
      <trkpt lat="44.37383" lon="4.32929">
        <ele>262.5771484</ele>
        <time>2011-05-28T08:27:19Z</time>
      </trkpt>
      <trkpt lat="44.37374" lon="4.32937">
        <ele>262.5771484</ele>
        <time>2011-05-28T08:27:21Z</time>
      </trkpt>
      <trkpt lat="44.37367" lon="4.32945">
        <ele>261.6159668</ele>
        <time>2011-05-28T08:27:23Z</time>
      </trkpt>
      <trkpt lat="44.37364" lon="4.32959">
        <ele>263.5385742</ele>
        <time>2011-05-28T08:27:27Z</time>
      </trkpt>
      <trkpt lat="44.37365" lon="4.32974">
        <ele>264.9805908</ele>
        <time>2011-05-28T08:27:32Z</time>
      </trkpt>
      <trkpt lat="44.37362" lon="4.32989">
        <ele>264.9805908</ele>
        <time>2011-05-28T08:27:36Z</time>
      </trkpt>
      <trkpt lat="44.37355" lon="4.33002">
        <ele>264.0192871</ele>
        <time>2011-05-28T08:27:39Z</time>
      </trkpt>
      <trkpt lat="44.37346" lon="4.33015">
        <ele>264.4998779</ele>
        <time>2011-05-28T08:27:42Z</time>
      </trkpt>
      <trkpt lat="44.37337" lon="4.33026">
        <ele>264.9805908</ele>
        <time>2011-05-28T08:27:45Z</time>
      </trkpt>
      <trkpt lat="44.3733" lon="4.33036">
        <ele>264.9805908</ele>
        <time>2011-05-28T08:27:48Z</time>
      </trkpt>
      <trkpt lat="44.37323" lon="4.33048">
        <ele>264.4998779</ele>
        <time>2011-05-28T08:27:52Z</time>
      </trkpt>
      <trkpt lat="44.37328" lon="4.3306">
        <ele>264.4998779</ele>
        <time>2011-05-28T08:27:58Z</time>
      </trkpt>
      <trkpt lat="44.37337" lon="4.33067">
        <ele>261.6159668</ele>
        <time>2011-05-28T08:28:02Z</time>
      </trkpt>
      <trkpt lat="44.37346" lon="4.33077">
        <ele>260.654541</ele>
        <time>2011-05-28T08:28:05Z</time>
      </trkpt>
      <trkpt lat="44.37355" lon="4.33085">
        <ele>259.2126465</ele>
        <time>2011-05-28T08:28:07Z</time>
      </trkpt>
      <trkpt lat="44.37365" lon="4.33094">
        <ele>259.2126465</ele>
        <time>2011-05-28T08:28:09Z</time>
      </trkpt>
      <trkpt lat="44.37376" lon="4.33103">
        <ele>258.7319336</ele>
        <time>2011-05-28T08:28:11Z</time>
      </trkpt>
      <trkpt lat="44.37386" lon="4.33113">
        <ele>257.770752</ele>
        <time>2011-05-28T08:28:13Z</time>
      </trkpt>
      <trkpt lat="44.37395" lon="4.33123">
        <ele>258.7319336</ele>
        <time>2011-05-28T08:28:15Z</time>
      </trkpt>
      <trkpt lat="44.37403" lon="4.33133">
        <ele>257.770752</ele>
        <time>2011-05-28T08:28:17Z</time>
      </trkpt>
      <trkpt lat="44.37413" lon="4.33144">
        <ele>259.2126465</ele>
        <time>2011-05-28T08:28:20Z</time>
      </trkpt>
      <trkpt lat="44.37421" lon="4.33152">
        <ele>259.2126465</ele>
        <time>2011-05-28T08:28:23Z</time>
      </trkpt>
      <trkpt lat="44.3743" lon="4.33161">
        <ele>260.1739502</ele>
        <time>2011-05-28T08:28:27Z</time>
      </trkpt>
      <trkpt lat="44.37438" lon="4.33171">
        <ele>260.654541</ele>
        <time>2011-05-28T08:28:31Z</time>
      </trkpt>
      <trkpt lat="44.37446" lon="4.33181">
        <ele>260.1739502</ele>
        <time>2011-05-28T08:28:34Z</time>
      </trkpt>
      <trkpt lat="44.37454" lon="4.33193">
        <ele>259.2126465</ele>
        <time>2011-05-28T08:28:37Z</time>
      </trkpt>
      <trkpt lat="44.37463" lon="4.33207">
        <ele>258.7319336</ele>
        <time>2011-05-28T08:28:40Z</time>
      </trkpt>
      <trkpt lat="44.3747" lon="4.33217">
        <ele>258.2513428</ele>
        <time>2011-05-28T08:28:42Z</time>
      </trkpt>
      <trkpt lat="44.37477" lon="4.33228">
        <ele>258.2513428</ele>
        <time>2011-05-28T08:28:44Z</time>
      </trkpt>
      <trkpt lat="44.37486" lon="4.3324">
        <ele>255.3673096</ele>
        <time>2011-05-28T08:28:46Z</time>
      </trkpt>
      <trkpt lat="44.37494" lon="4.33253">
        <ele>255.3673096</ele>
        <time>2011-05-28T08:28:48Z</time>
      </trkpt>
      <trkpt lat="44.37502" lon="4.33266">
        <ele>253.925415</ele>
        <time>2011-05-28T08:28:50Z</time>
      </trkpt>
      <trkpt lat="44.37512" lon="4.3328">
        <ele>252.9639893</ele>
        <time>2011-05-28T08:28:52Z</time>
      </trkpt>
      <trkpt lat="44.37523" lon="4.33292">
        <ele>251.5220947</ele>
        <time>2011-05-28T08:28:54Z</time>
      </trkpt>
      <trkpt lat="44.37532" lon="4.33305">
        <ele>252.0028076</ele>
        <time>2011-05-28T08:28:56Z</time>
      </trkpt>
      <trkpt lat="44.37538" lon="4.3332">
        <ele>251.5220947</ele>
        <time>2011-05-28T08:28:58Z</time>
      </trkpt>
      <trkpt lat="44.37539" lon="4.33338">
        <ele>251.0413818</ele>
        <time>2011-05-28T08:29:00Z</time>
      </trkpt>
      <trkpt lat="44.37535" lon="4.33356">
        <ele>249.1187744</ele>
        <time>2011-05-28T08:29:02Z</time>
      </trkpt>
      <trkpt lat="44.37527" lon="4.3337">
        <ele>249.1187744</ele>
        <time>2011-05-28T08:29:04Z</time>
      </trkpt>
      <trkpt lat="44.3752" lon="4.33384">
        <ele>248.6381836</ele>
        <time>2011-05-28T08:29:06Z</time>
      </trkpt>
      <trkpt lat="44.3752" lon="4.33397">
        <ele>249.1187744</ele>
        <time>2011-05-28T08:29:08Z</time>
      </trkpt>
      <trkpt lat="44.37527" lon="4.33407">
        <ele>252.0028076</ele>
        <time>2011-05-28T08:29:12Z</time>
      </trkpt>
      <trkpt lat="44.37535" lon="4.33416">
        <ele>252.0028076</ele>
        <time>2011-05-28T08:29:18Z</time>
      </trkpt>
      <trkpt lat="44.37543" lon="4.33426">
        <ele>252.9639893</ele>
        <time>2011-05-28T08:29:24Z</time>
      </trkpt>
      <trkpt lat="44.37551" lon="4.33435">
        <ele>254.8865967</ele>
        <time>2011-05-28T08:29:31Z</time>
      </trkpt>
      <trkpt lat="44.37559" lon="4.33441">
        <ele>256.3287354</ele>
        <time>2011-05-28T08:29:37Z</time>
      </trkpt>
      <trkpt lat="44.37568" lon="4.33448">
        <ele>256.8093262</ele>
        <time>2011-05-28T08:29:43Z</time>
      </trkpt>
      <trkpt lat="44.37577" lon="4.33456">
        <ele>257.2900391</ele>
        <time>2011-05-28T08:29:49Z</time>
      </trkpt>
      <trkpt lat="44.37586" lon="4.33465">
        <ele>258.7319336</ele>
        <time>2011-05-28T08:29:55Z</time>
      </trkpt>
      <trkpt lat="44.37594" lon="4.33473">
        <ele>259.6933594</ele>
        <time>2011-05-28T08:30:01Z</time>
      </trkpt>
      <trkpt lat="44.37602" lon="4.33481">
        <ele>261.6159668</ele>
        <time>2011-05-28T08:30:07Z</time>
      </trkpt>
      <trkpt lat="44.37611" lon="4.33489">
        <ele>263.0578613</ele>
        <time>2011-05-28T08:30:13Z</time>
      </trkpt>
      <trkpt lat="44.3762" lon="4.33496">
        <ele>263.5385742</ele>
        <time>2011-05-28T08:30:19Z</time>
      </trkpt>
      <trkpt lat="44.37629" lon="4.33505">
        <ele>264.4998779</ele>
        <time>2011-05-28T08:30:25Z</time>
      </trkpt>
      <trkpt lat="44.37638" lon="4.33515">
        <ele>265.9418945</ele>
        <time>2011-05-28T08:30:30Z</time>
      </trkpt>
      <trkpt lat="44.37648" lon="4.33523">
        <ele>266.4224854</ele>
        <time>2011-05-28T08:30:35Z</time>
      </trkpt>
      <trkpt lat="44.37658" lon="4.33531">
        <ele>266.4224854</ele>
        <time>2011-05-28T08:30:40Z</time>
      </trkpt>
      <trkpt lat="44.37666" lon="4.33538">
        <ele>267.864502</ele>
        <time>2011-05-28T08:30:44Z</time>
      </trkpt>
      <trkpt lat="44.37674" lon="4.33545">
        <ele>268.8258057</ele>
        <time>2011-05-28T08:30:48Z</time>
      </trkpt>
      <trkpt lat="44.37684" lon="4.33552">
        <ele>269.3065186</ele>
        <time>2011-05-28T08:30:52Z</time>
      </trkpt>
      <trkpt lat="44.37693" lon="4.33559">
        <ele>269.3065186</ele>
        <time>2011-05-28T08:30:56Z</time>
      </trkpt>
      <trkpt lat="44.37702" lon="4.33568">
        <ele>270.2677002</ele>
        <time>2011-05-28T08:31:00Z</time>
      </trkpt>
      <trkpt lat="44.37711" lon="4.3358">
        <ele>270.7484131</ele>
        <time>2011-05-28T08:31:04Z</time>
      </trkpt>
      <trkpt lat="44.37718" lon="4.33591">
        <ele>271.7097168</ele>
        <time>2011-05-28T08:31:08Z</time>
      </trkpt>
      <trkpt lat="44.37723" lon="4.33602">
        <ele>272.1904297</ele>
        <time>2011-05-28T08:31:12Z</time>
      </trkpt>
      <trkpt lat="44.3773" lon="4.33614">
        <ele>273.1518555</ele>
        <time>2011-05-28T08:31:17Z</time>
      </trkpt>
      <trkpt lat="44.37739" lon="4.33621">
        <ele>274.59375</ele>
        <time>2011-05-28T08:31:23Z</time>
      </trkpt>
      <trkpt lat="44.37743" lon="4.33632">
        <ele>274.59375</ele>
        <time>2011-05-28T08:31:31Z</time>
      </trkpt>
      <trkpt lat="44.37747" lon="4.33624">
        <ele>275.0744629</ele>
        <time>2011-05-28T08:31:49Z</time>
      </trkpt>
      <trkpt lat="44.37741" lon="4.33616">
        <ele>274.1130371</ele>
        <time>2011-05-28T08:32:01Z</time>
      </trkpt>
      <trkpt lat="44.37742" lon="4.33625">
        <ele>271.7097168</ele>
        <time>2011-05-28T08:39:48Z</time>
      </trkpt>
      <trkpt lat="44.37741" lon="4.33636">
        <ele>270.2677002</ele>
        <time>2011-05-28T08:39:57Z</time>
      </trkpt>
      <trkpt lat="44.37752" lon="4.33639">
        <ele>270.2677002</ele>
        <time>2011-05-28T08:40:03Z</time>
      </trkpt>
      <trkpt lat="44.3776" lon="4.33646">
        <ele>270.2677002</ele>
        <time>2011-05-28T08:40:06Z</time>
      </trkpt>
      <trkpt lat="44.37772" lon="4.33656">
        <ele>267.864502</ele>
        <time>2011-05-28T08:40:09Z</time>
      </trkpt>
      <trkpt lat="44.37781" lon="4.33662">
        <ele>267.864502</ele>
        <time>2011-05-28T08:40:11Z</time>
      </trkpt>
      <trkpt lat="44.37794" lon="4.33672">
        <ele>265.9418945</ele>
        <time>2011-05-28T08:40:14Z</time>
      </trkpt>
      <trkpt lat="44.37804" lon="4.33685">
        <ele>266.4224854</ele>
        <time>2011-05-28T08:40:17Z</time>
      </trkpt>
      <trkpt lat="44.37811" lon="4.33694">
        <ele>265.4613037</ele>
        <time>2011-05-28T08:40:19Z</time>
      </trkpt>
      <trkpt lat="44.37818" lon="4.33702">
        <ele>264.9805908</ele>
        <time>2011-05-28T08:40:21Z</time>
      </trkpt>
      <trkpt lat="44.37829" lon="4.3371">
        <ele>264.4998779</ele>
        <time>2011-05-28T08:40:24Z</time>
      </trkpt>
      <trkpt lat="44.3784" lon="4.33716">
        <ele>264.4998779</ele>
        <time>2011-05-28T08:40:27Z</time>
      </trkpt>
      <trkpt lat="44.37851" lon="4.33718">
        <ele>264.4998779</ele>
        <time>2011-05-28T08:40:30Z</time>
      </trkpt>
      <trkpt lat="44.37863" lon="4.33718">
        <ele>264.0192871</ele>
        <time>2011-05-28T08:40:34Z</time>
      </trkpt>
      <trkpt lat="44.37873" lon="4.33716">
        <ele>264.0192871</ele>
        <time>2011-05-28T08:40:37Z</time>
      </trkpt>
      <trkpt lat="44.37883" lon="4.33715">
        <ele>264.9805908</ele>
        <time>2011-05-28T08:40:40Z</time>
      </trkpt>
      <trkpt lat="44.37896" lon="4.33715">
        <ele>264.4998779</ele>
        <time>2011-05-28T08:40:44Z</time>
      </trkpt>
      <trkpt lat="44.37907" lon="4.3372">
        <ele>264.4998779</ele>
        <time>2011-05-28T08:40:47Z</time>
      </trkpt>
      <trkpt lat="44.3792" lon="4.33726">
        <ele>263.0578613</ele>
        <time>2011-05-28T08:40:50Z</time>
      </trkpt>
      <trkpt lat="44.3793" lon="4.33729">
        <ele>263.0578613</ele>
        <time>2011-05-28T08:40:52Z</time>
      </trkpt>
      <trkpt lat="44.37942" lon="4.33736">
        <ele>263.5385742</ele>
        <time>2011-05-28T08:40:55Z</time>
      </trkpt>
      <trkpt lat="44.3795" lon="4.33742">
        <ele>262.5771484</ele>
        <time>2011-05-28T08:40:57Z</time>
      </trkpt>
      <trkpt lat="44.37958" lon="4.33748">
        <ele>261.1352539</ele>
        <time>2011-05-28T08:40:59Z</time>
      </trkpt>
      <trkpt lat="44.37969" lon="4.33758">
        <ele>260.1739502</ele>
        <time>2011-05-28T08:41:02Z</time>
      </trkpt>
      <trkpt lat="44.37979" lon="4.33766">
        <ele>258.7319336</ele>
        <time>2011-05-28T08:41:05Z</time>
      </trkpt>
      <trkpt lat="44.37987" lon="4.33771">
        <ele>256.8093262</ele>
        <time>2011-05-28T08:41:08Z</time>
      </trkpt>
      <trkpt lat="44.37996" lon="4.33778">
        <ele>255.8480225</ele>
        <time>2011-05-28T08:41:11Z</time>
      </trkpt>
      <trkpt lat="44.38005" lon="4.33786">
        <ele>253.925415</ele>
        <time>2011-05-28T08:41:14Z</time>
      </trkpt>
      <trkpt lat="44.38014" lon="4.33796">
        <ele>252.4833984</ele>
        <time>2011-05-28T08:41:17Z</time>
      </trkpt>
      <trkpt lat="44.38023" lon="4.33805">
        <ele>250.560791</ele>
        <time>2011-05-28T08:41:20Z</time>
      </trkpt>
      <trkpt lat="44.3803" lon="4.33816">
        <ele>248.6381836</ele>
        <time>2011-05-28T08:41:23Z</time>
      </trkpt>
      <trkpt lat="44.38038" lon="4.33826">
        <ele>246.2348633</ele>
        <time>2011-05-28T08:41:26Z</time>
      </trkpt>
      <trkpt lat="44.38047" lon="4.33836">
        <ele>244.7928467</ele>
        <time>2011-05-28T08:41:29Z</time>
      </trkpt>
      <trkpt lat="44.38056" lon="4.33849">
        <ele>242.3896484</ele>
        <time>2011-05-28T08:41:32Z</time>
      </trkpt>
      <trkpt lat="44.38063" lon="4.33859">
        <ele>241.9089355</ele>
        <time>2011-05-28T08:41:34Z</time>
      </trkpt>
      <trkpt lat="44.38069" lon="4.3387">
        <ele>240.467041</ele>
        <time>2011-05-28T08:41:36Z</time>
      </trkpt>
      <trkpt lat="44.38075" lon="4.33883">
        <ele>240.9476318</ele>
        <time>2011-05-28T08:41:38Z</time>
      </trkpt>
      <trkpt lat="44.38079" lon="4.33897">
        <ele>240.467041</ele>
        <time>2011-05-28T08:41:40Z</time>
      </trkpt>
      <trkpt lat="44.38087" lon="4.3391">
        <ele>241.4282227</ele>
        <time>2011-05-28T08:41:43Z</time>
      </trkpt>
      <trkpt lat="44.38093" lon="4.3392">
        <ele>242.3896484</ele>
        <time>2011-05-28T08:41:46Z</time>
      </trkpt>
      <trkpt lat="44.38096" lon="4.33935">
        <ele>243.831543</ele>
        <time>2011-05-28T08:41:50Z</time>
      </trkpt>
      <trkpt lat="44.381" lon="4.33949">
        <ele>243.3508301</ele>
        <time>2011-05-28T08:41:54Z</time>
      </trkpt>
      <trkpt lat="44.38105" lon="4.33962">
        <ele>245.2734375</ele>
        <time>2011-05-28T08:41:59Z</time>
      </trkpt>
      <trkpt lat="44.381" lon="4.33976">
        <ele>243.3508301</ele>
        <time>2011-05-28T08:43:15Z</time>
      </trkpt>
      <trkpt lat="44.381" lon="4.3399">
        <ele>242.3896484</ele>
        <time>2011-05-28T08:43:19Z</time>
      </trkpt>
      <trkpt lat="44.38108" lon="4.33995">
        <ele>242.8702393</ele>
        <time>2011-05-28T08:43:24Z</time>
      </trkpt>
      <trkpt lat="44.38114" lon="4.34004">
        <ele>240.9476318</ele>
        <time>2011-05-28T08:43:28Z</time>
      </trkpt>
      <trkpt lat="44.38112" lon="4.34017">
        <ele>238.5443115</ele>
        <time>2011-05-28T08:43:31Z</time>
      </trkpt>
      <trkpt lat="44.38107" lon="4.34031">
        <ele>236.1409912</ele>
        <time>2011-05-28T08:43:35Z</time>
      </trkpt>
      <trkpt lat="44.38106" lon="4.34045">
        <ele>233.2570801</ele>
        <time>2011-05-28T08:43:39Z</time>
      </trkpt>
      <trkpt lat="44.38105" lon="4.34057">
        <ele>229.892334</ele>
        <time>2011-05-28T08:43:42Z</time>
      </trkpt>
      <trkpt lat="44.38111" lon="4.34068">
        <ele>229.4117432</ele>
        <time>2011-05-28T08:43:45Z</time>
      </trkpt>
      <trkpt lat="44.38119" lon="4.34075">
        <ele>226.0471191</ele>
        <time>2011-05-28T08:43:48Z</time>
      </trkpt>
      <trkpt lat="44.38116" lon="4.3409">
        <ele>224.6052246</ele>
        <time>2011-05-28T08:43:52Z</time>
      </trkpt>
      <trkpt lat="44.38113" lon="4.34106">
        <ele>221.7211914</ele>
        <time>2011-05-28T08:43:55Z</time>
      </trkpt>
      <trkpt lat="44.3812" lon="4.34119">
        <ele>221.2406006</ele>
        <time>2011-05-28T08:43:58Z</time>
      </trkpt>
      <trkpt lat="44.38127" lon="4.34128">
        <ele>219.798584</ele>
        <time>2011-05-28T08:44:01Z</time>
      </trkpt>
      <trkpt lat="44.38131" lon="4.34142">
        <ele>216.43396</ele>
        <time>2011-05-28T08:44:04Z</time>
      </trkpt>
      <trkpt lat="44.38135" lon="4.34157">
        <ele>214.0306396</ele>
        <time>2011-05-28T08:44:08Z</time>
      </trkpt>
      <trkpt lat="44.38138" lon="4.34172">
        <ele>211.6274414</ele>
        <time>2011-05-28T08:44:12Z</time>
      </trkpt>
      <trkpt lat="44.38143" lon="4.34182">
        <ele>211.1467285</ele>
        <time>2011-05-28T08:44:15Z</time>
      </trkpt>
      <trkpt lat="44.38152" lon="4.34189">
        <ele>210.1854248</ele>
        <time>2011-05-28T08:44:19Z</time>
      </trkpt>
      <trkpt lat="44.38153" lon="4.34203">
        <ele>210.6660156</ele>
        <time>2011-05-28T08:44:23Z</time>
      </trkpt>
      <trkpt lat="44.38158" lon="4.34217">
        <ele>209.2241211</ele>
        <time>2011-05-28T08:44:26Z</time>
      </trkpt>
      <trkpt lat="44.38163" lon="4.34232">
        <ele>206.3400879</ele>
        <time>2011-05-28T08:44:29Z</time>
      </trkpt>
      <trkpt lat="44.3817" lon="4.34249">
        <ele>205.3787842</ele>
        <time>2011-05-28T08:44:32Z</time>
      </trkpt>
      <trkpt lat="44.38173" lon="4.34263">
        <ele>204.4174805</ele>
        <time>2011-05-28T08:44:34Z</time>
      </trkpt>
      <trkpt lat="44.38177" lon="4.34278">
        <ele>202.9754639</ele>
        <time>2011-05-28T08:44:36Z</time>
      </trkpt>
      <trkpt lat="44.38182" lon="4.3429">
        <ele>201.5335693</ele>
        <time>2011-05-28T08:44:38Z</time>
      </trkpt>
      <trkpt lat="44.38185" lon="4.34303">
        <ele>201.5335693</ele>
        <time>2011-05-28T08:44:42Z</time>
      </trkpt>
      <trkpt lat="44.3819" lon="4.34316">
        <ele>199.130127</ele>
        <time>2011-05-28T08:45:20Z</time>
      </trkpt>
      <trkpt lat="44.38193" lon="4.34332">
        <ele>198.1689453</ele>
        <time>2011-05-28T08:45:24Z</time>
      </trkpt>
      <trkpt lat="44.38194" lon="4.34345">
        <ele>196.7269287</ele>
        <time>2011-05-28T08:45:27Z</time>
      </trkpt>
      <trkpt lat="44.38195" lon="4.34359">
        <ele>194.3237305</ele>
        <time>2011-05-28T08:45:34Z</time>
      </trkpt>
      <trkpt lat="44.38194" lon="4.34374">
        <ele>189.9976807</ele>
        <time>2011-05-28T08:45:53Z</time>
      </trkpt>
      <trkpt lat="44.38198" lon="4.34388">
        <ele>188.0750732</ele>
        <time>2011-05-28T08:45:58Z</time>
      </trkpt>
      <trkpt lat="44.38199" lon="4.34401">
        <ele>185.6717529</ele>
        <time>2011-05-28T08:46:03Z</time>
      </trkpt>
      <trkpt lat="44.382" lon="4.34414">
        <ele>182.7878418</ele>
        <time>2011-05-28T08:46:08Z</time>
      </trkpt>
      <trkpt lat="44.38209" lon="4.34424">
        <ele>181.826416</ele>
        <time>2011-05-28T08:46:13Z</time>
      </trkpt>
      <trkpt lat="44.38218" lon="4.34431">
        <ele>179.9038086</ele>
        <time>2011-05-28T08:46:17Z</time>
      </trkpt>
      <trkpt lat="44.38226" lon="4.3444">
        <ele>176.5393066</ele>
        <time>2011-05-28T08:46:21Z</time>
      </trkpt>
      <trkpt lat="44.38232" lon="4.34451">
        <ele>174.6165771</ele>
        <time>2011-05-28T08:46:24Z</time>
      </trkpt>
      <trkpt lat="44.3824" lon="4.34458">
        <ele>173.6552734</ele>
        <time>2011-05-28T08:46:27Z</time>
      </trkpt>
      <trkpt lat="44.38249" lon="4.34463">
        <ele>172.2132568</ele>
        <time>2011-05-28T08:46:31Z</time>
      </trkpt>
      <trkpt lat="44.38255" lon="4.34475">
        <ele>170.7713623</ele>
        <time>2011-05-28T08:48:33Z</time>
      </trkpt>
      <trkpt lat="44.38259" lon="4.34487">
        <ele>169.3294678</ele>
        <time>2011-05-28T08:48:37Z</time>
      </trkpt>
      <trkpt lat="44.38267" lon="4.34497">
        <ele>168.368042</ele>
        <time>2011-05-28T08:48:41Z</time>
      </trkpt>
      <trkpt lat="44.38277" lon="4.34499">
        <ele>164.0421143</ele>
        <time>2011-05-28T08:48:47Z</time>
      </trkpt>
      <trkpt lat="44.38285" lon="4.34505">
        <ele>162.1195068</ele>
        <time>2011-05-28T08:49:03Z</time>
      </trkpt>
      <trkpt lat="44.3829" lon="4.34514">
        <ele>158.2741699</ele>
        <time>2011-05-28T08:49:10Z</time>
      </trkpt>
      <trkpt lat="44.38293" lon="4.34523">
        <ele>155.8709717</ele>
        <time>2011-05-28T08:49:32Z</time>
      </trkpt>
      <trkpt lat="44.38299" lon="4.34533">
        <ele>153.9483643</ele>
        <time>2011-05-28T08:49:49Z</time>
      </trkpt>
      <trkpt lat="44.38302" lon="4.34546">
        <ele>153.9483643</ele>
        <time>2011-05-28T08:50:00Z</time>
      </trkpt>
      <trkpt lat="44.38298" lon="4.34556">
        <ele>154.4289551</ele>
        <time>2011-05-28T08:50:06Z</time>
      </trkpt>
      <trkpt lat="44.38294" lon="4.34565">
        <ele>155.8709717</ele>
        <time>2011-05-28T08:50:12Z</time>
      </trkpt>
      <trkpt lat="44.38297" lon="4.34578">
        <ele>154.4289551</ele>
        <time>2011-05-28T08:50:17Z</time>
      </trkpt>
      <trkpt lat="44.38302" lon="4.34591">
        <ele>152.9869385</ele>
        <time>2011-05-28T08:50:31Z</time>
      </trkpt>
      <trkpt lat="44.38309" lon="4.34599">
        <ele>153.9483643</ele>
        <time>2011-05-28T08:50:43Z</time>
      </trkpt>
      <trkpt lat="44.38313" lon="4.34613">
        <ele>154.9095459</ele>
        <time>2011-05-28T08:50:54Z</time>
      </trkpt>
      <trkpt lat="44.3832" lon="4.3462">
        <ele>155.3902588</ele>
        <time>2011-05-28T08:51:05Z</time>
      </trkpt>
      <trkpt lat="44.38329" lon="4.34627">
        <ele>157.7935791</ele>
        <time>2011-05-28T08:51:18Z</time>
      </trkpt>
      <trkpt lat="44.38339" lon="4.34632">
        <ele>161.1582031</ele>
        <time>2011-05-28T08:51:37Z</time>
      </trkpt>
      <trkpt lat="44.38351" lon="4.34632">
        <ele>163.5615234</ele>
        <time>2011-05-28T08:51:52Z</time>
      </trkpt>
      <trkpt lat="44.38362" lon="4.34625">
        <ele>164.0421143</ele>
        <time>2011-05-28T08:52:02Z</time>
      </trkpt>
      <trkpt lat="44.38372" lon="4.34625">
        <ele>165.003418</ele>
        <time>2011-05-28T08:52:35Z</time>
      </trkpt>
      <trkpt lat="44.38381" lon="4.34629">
        <ele>163.5615234</ele>
        <time>2011-05-28T08:59:14Z</time>
      </trkpt>
      <trkpt lat="44.38392" lon="4.34633">
        <ele>164.0421143</ele>
        <time>2011-05-28T08:59:21Z</time>
      </trkpt>
      <trkpt lat="44.38401" lon="4.34633">
        <ele>164.0421143</ele>
        <time>2011-05-28T08:59:27Z</time>
      </trkpt>
      <trkpt lat="44.38411" lon="4.34629">
        <ele>164.0421143</ele>
        <time>2011-05-28T08:59:34Z</time>
      </trkpt>
      <trkpt lat="44.38418" lon="4.34626">
        <ele>164.0421143</ele>
        <time>2011-05-28T09:05:55Z</time>
      </trkpt>
      <trkpt lat="44.38424" lon="4.34636">
        <ele>163.5615234</ele>
        <time>2011-05-28T09:06:02Z</time>
      </trkpt>
      <trkpt lat="44.38434" lon="4.34638">
        <ele>163.0808105</ele>
        <time>2011-05-28T09:06:07Z</time>
      </trkpt>
      <trkpt lat="44.38442" lon="4.34631">
        <ele>162.1195068</ele>
        <time>2011-05-28T09:06:11Z</time>
      </trkpt>
      <trkpt lat="44.38448" lon="4.34621">
        <ele>162.1195068</ele>
        <time>2011-05-28T09:06:14Z</time>
      </trkpt>
      <trkpt lat="44.38456" lon="4.34612">
        <ele>163.0808105</ele>
        <time>2011-05-28T09:06:17Z</time>
      </trkpt>
      <trkpt lat="44.38466" lon="4.34617">
        <ele>162.6000977</ele>
        <time>2011-05-28T09:06:20Z</time>
      </trkpt>
      <trkpt lat="44.38472" lon="4.34632">
        <ele>162.6000977</ele>
        <time>2011-05-28T09:06:23Z</time>
      </trkpt>
      <trkpt lat="44.38474" lon="4.34649">
        <ele>162.1195068</ele>
        <time>2011-05-28T09:06:26Z</time>
      </trkpt>
      <trkpt lat="44.38478" lon="4.34663">
        <ele>162.6000977</ele>
        <time>2011-05-28T09:06:29Z</time>
      </trkpt>
      <trkpt lat="44.38484" lon="4.34673">
        <ele>162.6000977</ele>
        <time>2011-05-28T09:06:32Z</time>
      </trkpt>
      <trkpt lat="44.38492" lon="4.3468">
        <ele>163.0808105</ele>
        <time>2011-05-28T09:06:36Z</time>
      </trkpt>
      <trkpt lat="44.38501" lon="4.34689">
        <ele>163.5615234</ele>
        <time>2011-05-28T09:06:40Z</time>
      </trkpt>
      <trkpt lat="44.38509" lon="4.34697">
        <ele>163.5615234</ele>
        <time>2011-05-28T09:06:43Z</time>
      </trkpt>
      <trkpt lat="44.38517" lon="4.34707">
        <ele>162.6000977</ele>
        <time>2011-05-28T09:06:46Z</time>
      </trkpt>
      <trkpt lat="44.38526" lon="4.34715">
        <ele>162.1195068</ele>
        <time>2011-05-28T09:06:49Z</time>
      </trkpt>
      <trkpt lat="44.38535" lon="4.34724">
        <ele>162.6000977</ele>
        <time>2011-05-28T09:06:52Z</time>
      </trkpt>
      <trkpt lat="44.38545" lon="4.34733">
        <ele>162.1195068</ele>
        <time>2011-05-28T09:06:55Z</time>
      </trkpt>
      <trkpt lat="44.38555" lon="4.34743">
        <ele>162.6000977</ele>
        <time>2011-05-28T09:06:58Z</time>
      </trkpt>
      <trkpt lat="44.38565" lon="4.34752">
        <ele>162.6000977</ele>
        <time>2011-05-28T09:07:01Z</time>
      </trkpt>
      <trkpt lat="44.38574" lon="4.34762">
        <ele>163.0808105</ele>
        <time>2011-05-28T09:07:04Z</time>
      </trkpt>
      <trkpt lat="44.38584" lon="4.34772">
        <ele>164.0421143</ele>
        <time>2011-05-28T09:07:07Z</time>
      </trkpt>
      <trkpt lat="44.38592" lon="4.34782">
        <ele>164.0421143</ele>
        <time>2011-05-28T09:07:10Z</time>
      </trkpt>
      <trkpt lat="44.38601" lon="4.34791">
        <ele>164.0421143</ele>
        <time>2011-05-28T09:07:13Z</time>
      </trkpt>
      <trkpt lat="44.38611" lon="4.34801">
        <ele>164.0421143</ele>
        <time>2011-05-28T09:07:16Z</time>
      </trkpt>
      <trkpt lat="44.38621" lon="4.34811">
        <ele>164.0421143</ele>
        <time>2011-05-28T09:07:19Z</time>
      </trkpt>
      <trkpt lat="44.38631" lon="4.34823">
        <ele>162.6000977</ele>
        <time>2011-05-28T09:07:22Z</time>
      </trkpt>
      <trkpt lat="44.3864" lon="4.34831">
        <ele>161.1582031</ele>
        <time>2011-05-28T09:07:24Z</time>
      </trkpt>
      <trkpt lat="44.38649" lon="4.34841">
        <ele>160.6774902</ele>
        <time>2011-05-28T09:07:26Z</time>
      </trkpt>
      <trkpt lat="44.38659" lon="4.34851">
        <ele>159.2354736</ele>
        <time>2011-05-28T09:07:28Z</time>
      </trkpt>
      <trkpt lat="44.38667" lon="4.34862">
        <ele>157.7935791</ele>
        <time>2011-05-28T09:07:30Z</time>
      </trkpt>
      <trkpt lat="44.38675" lon="4.34874">
        <ele>156.3515625</ele>
        <time>2011-05-28T09:07:32Z</time>
      </trkpt>
      <trkpt lat="44.38683" lon="4.34885">
        <ele>155.8709717</ele>
        <time>2011-05-28T09:07:34Z</time>
      </trkpt>
      <trkpt lat="44.38689" lon="4.34895">
        <ele>154.9095459</ele>
        <time>2011-05-28T09:07:36Z</time>
      </trkpt>
      <trkpt lat="44.38697" lon="4.34905">
        <ele>154.4289551</ele>
        <time>2011-05-28T09:07:38Z</time>
      </trkpt>
      <trkpt lat="44.38706" lon="4.34913">
        <ele>153.9483643</ele>
        <time>2011-05-28T09:07:40Z</time>
      </trkpt>
      <trkpt lat="44.38715" lon="4.34917">
        <ele>154.4289551</ele>
        <time>2011-05-28T09:07:42Z</time>
      </trkpt>
      <trkpt lat="44.38725" lon="4.34914">
        <ele>152.9869385</ele>
        <time>2011-05-28T09:07:44Z</time>
      </trkpt>
      <trkpt lat="44.38734" lon="4.34913">
        <ele>152.5063477</ele>
        <time>2011-05-28T09:07:46Z</time>
      </trkpt>
      <trkpt lat="44.38744" lon="4.34916">
        <ele>152.0257568</ele>
        <time>2011-05-28T09:07:48Z</time>
      </trkpt>
      <trkpt lat="44.38751" lon="4.34923">
        <ele>152.5063477</ele>
        <time>2011-05-28T09:07:50Z</time>
      </trkpt>
      <trkpt lat="44.38756" lon="4.3494">
        <ele>152.5063477</ele>
        <time>2011-05-28T09:07:53Z</time>
      </trkpt>
      <trkpt lat="44.38758" lon="4.34957">
        <ele>152.5063477</ele>
        <time>2011-05-28T09:07:56Z</time>
      </trkpt>
      <trkpt lat="44.38761" lon="4.34974">
        <ele>152.5063477</ele>
        <time>2011-05-28T09:07:59Z</time>
      </trkpt>
      <trkpt lat="44.38767" lon="4.3499">
        <ele>152.9869385</ele>
        <time>2011-05-28T09:08:02Z</time>
      </trkpt>
      <trkpt lat="44.38774" lon="4.35004">
        <ele>152.9869385</ele>
        <time>2011-05-28T09:08:05Z</time>
      </trkpt>
      <trkpt lat="44.38781" lon="4.35018">
        <ele>152.9869385</ele>
        <time>2011-05-28T09:08:08Z</time>
      </trkpt>
      <trkpt lat="44.38788" lon="4.35032">
        <ele>152.5063477</ele>
        <time>2011-05-28T09:08:11Z</time>
      </trkpt>
      <trkpt lat="44.38795" lon="4.35045">
        <ele>151.064209</ele>
        <time>2011-05-28T09:08:13Z</time>
      </trkpt>
      <trkpt lat="44.38802" lon="4.35056">
        <ele>151.064209</ele>
        <time>2011-05-28T09:08:15Z</time>
      </trkpt>
      <trkpt lat="44.3881" lon="4.35066">
        <ele>151.064209</ele>
        <time>2011-05-28T09:08:17Z</time>
      </trkpt>
      <trkpt lat="44.38818" lon="4.35074">
        <ele>151.5449219</ele>
        <time>2011-05-28T09:08:19Z</time>
      </trkpt>
      <trkpt lat="44.38829" lon="4.35085">
        <ele>151.064209</ele>
        <time>2011-05-28T09:08:22Z</time>
      </trkpt>
      <trkpt lat="44.38836" lon="4.35096">
        <ele>149.6223145</ele>
        <time>2011-05-28T09:08:24Z</time>
      </trkpt>
      <trkpt lat="44.38844" lon="4.3511">
        <ele>147.699707</ele>
        <time>2011-05-28T09:08:26Z</time>
      </trkpt>
      <trkpt lat="44.38852" lon="4.35125">
        <ele>145.7770996</ele>
        <time>2011-05-28T09:08:28Z</time>
      </trkpt>
      <trkpt lat="44.3886" lon="4.3514">
        <ele>145.2963867</ele>
        <time>2011-05-28T09:08:30Z</time>
      </trkpt>
      <trkpt lat="44.38868" lon="4.35153">
        <ele>144.3352051</ele>
        <time>2011-05-28T09:08:32Z</time>
      </trkpt>
      <trkpt lat="44.38878" lon="4.35165">
        <ele>144.8157959</ele>
        <time>2011-05-28T09:08:34Z</time>
      </trkpt>
      <trkpt lat="44.38889" lon="4.35173">
        <ele>142.4124756</ele>
        <time>2011-05-28T09:08:36Z</time>
      </trkpt>
      <trkpt lat="44.38899" lon="4.35182">
        <ele>143.3736572</ele>
        <time>2011-05-28T09:08:38Z</time>
      </trkpt>
      <trkpt lat="44.38908" lon="4.35191">
        <ele>141.9317627</ele>
        <time>2011-05-28T09:08:40Z</time>
      </trkpt>
      <trkpt lat="44.38914" lon="4.35201">
        <ele>142.4124756</ele>
        <time>2011-05-28T09:08:42Z</time>
      </trkpt>
      <trkpt lat="44.38922" lon="4.3521">
        <ele>142.8930664</ele>
        <time>2011-05-28T09:08:44Z</time>
      </trkpt>
      <trkpt lat="44.38929" lon="4.3522">
        <ele>141.9317627</ele>
        <time>2011-05-28T09:08:46Z</time>
      </trkpt>
      <trkpt lat="44.38938" lon="4.35231">
        <ele>141.4510498</ele>
        <time>2011-05-28T09:08:48Z</time>
      </trkpt>
      <trkpt lat="44.38946" lon="4.35241">
        <ele>140.970459</ele>
        <time>2011-05-28T09:08:50Z</time>
      </trkpt>
      <trkpt lat="44.38955" lon="4.35252">
        <ele>140.0091553</ele>
        <time>2011-05-28T09:08:52Z</time>
      </trkpt>
      <trkpt lat="44.38963" lon="4.35262">
        <ele>140.0091553</ele>
        <time>2011-05-28T09:08:54Z</time>
      </trkpt>
      <trkpt lat="44.38971" lon="4.35273">
        <ele>139.5284424</ele>
        <time>2011-05-28T09:08:56Z</time>
      </trkpt>
      <trkpt lat="44.38977" lon="4.35284">
        <ele>139.5284424</ele>
        <time>2011-05-28T09:08:59Z</time>
      </trkpt>
      <trkpt lat="44.38983" lon="4.35295">
        <ele>139.5284424</ele>
        <time>2011-05-28T09:09:02Z</time>
      </trkpt>
      <trkpt lat="44.38987" lon="4.35306">
        <ele>139.0478516</ele>
        <time>2011-05-28T09:09:05Z</time>
      </trkpt>
      <trkpt lat="44.38995" lon="4.35319">
        <ele>138.0865479</ele>
        <time>2011-05-28T09:09:08Z</time>
      </trkpt>
      <trkpt lat="44.39004" lon="4.35331">
        <ele>137.605835</ele>
        <time>2011-05-28T09:09:11Z</time>
      </trkpt>
      <trkpt lat="44.39015" lon="4.35341">
        <ele>136.6446533</ele>
        <time>2011-05-28T09:09:14Z</time>
      </trkpt>
      <trkpt lat="44.39024" lon="4.35344">
        <ele>136.6446533</ele>
        <time>2011-05-28T09:09:16Z</time>
      </trkpt>
      <trkpt lat="44.39035" lon="4.35347">
        <ele>135.6831055</ele>
        <time>2011-05-28T09:09:18Z</time>
      </trkpt>
      <trkpt lat="44.39046" lon="4.35352">
        <ele>135.6831055</ele>
        <time>2011-05-28T09:09:20Z</time>
      </trkpt>
      <trkpt lat="44.39057" lon="4.3536">
        <ele>134.7219238</ele>
        <time>2011-05-28T09:09:22Z</time>
      </trkpt>
      <trkpt lat="44.39066" lon="4.3537">
        <ele>135.2025146</ele>
        <time>2011-05-28T09:09:24Z</time>
      </trkpt>
      <trkpt lat="44.39074" lon="4.35381">
        <ele>134.2412109</ele>
        <time>2011-05-28T09:09:26Z</time>
      </trkpt>
      <trkpt lat="44.39081" lon="4.35393">
        <ele>134.2412109</ele>
        <time>2011-05-28T09:09:28Z</time>
      </trkpt>
      <trkpt lat="44.39086" lon="4.35404">
        <ele>133.760498</ele>
        <time>2011-05-28T09:09:30Z</time>
      </trkpt>
      <trkpt lat="44.3909" lon="4.35417">
        <ele>134.2412109</ele>
        <time>2011-05-28T09:09:34Z</time>
      </trkpt>
      <trkpt lat="44.39094" lon="4.35429">
        <ele>134.7219238</ele>
        <time>2011-05-28T09:09:41Z</time>
      </trkpt>
      <trkpt lat="44.39097" lon="4.3544">
        <ele>134.2412109</ele>
        <time>2011-05-28T09:11:52Z</time>
      </trkpt>
      <trkpt lat="44.39097" lon="4.35448">
        <ele>135.2025146</ele>
        <time>2011-05-28T09:12:03Z</time>
      </trkpt>
      <trkpt lat="44.3909" lon="4.35439">
        <ele>133.760498</ele>
        <time>2011-05-28T09:12:07Z</time>
      </trkpt>
      <trkpt lat="44.39082" lon="4.35429">
        <ele>131.8378906</ele>
        <time>2011-05-28T09:12:10Z</time>
      </trkpt>
      <trkpt lat="44.39073" lon="4.3542">
        <ele>131.3572998</ele>
        <time>2011-05-28T09:12:13Z</time>
      </trkpt>
      <trkpt lat="44.39066" lon="4.35412">
        <ele>129.9152832</ele>
        <time>2011-05-28T09:12:16Z</time>
      </trkpt>
      <trkpt lat="44.39057" lon="4.35409">
        <ele>128.4733887</ele>
        <time>2011-05-28T09:12:21Z</time>
      </trkpt>
      <trkpt lat="44.39048" lon="4.35414">
        <ele>127.9925537</ele>
        <time>2011-05-28T09:12:27Z</time>
      </trkpt>
      <trkpt lat="44.39041" lon="4.35426">
        <ele>127.9925537</ele>
        <time>2011-05-28T09:12:33Z</time>
      </trkpt>
      <trkpt lat="44.39034" lon="4.35437">
        <ele>128.4733887</ele>
        <time>2011-05-28T09:12:38Z</time>
      </trkpt>
      <trkpt lat="44.39027" lon="4.35448">
        <ele>127.5119629</ele>
        <time>2011-05-28T09:12:42Z</time>
      </trkpt>
      <trkpt lat="44.39022" lon="4.3546">
        <ele>127.5119629</ele>
        <time>2011-05-28T09:12:49Z</time>
      </trkpt>
      <trkpt lat="44.39026" lon="4.35472">
        <ele>127.5119629</ele>
        <time>2011-05-28T09:13:01Z</time>
      </trkpt>
      <trkpt lat="44.39032" lon="4.35483">
        <ele>126.5506592</ele>
        <time>2011-05-28T09:13:32Z</time>
      </trkpt>
      <trkpt lat="44.39039" lon="4.35495">
        <ele>126.5506592</ele>
        <time>2011-05-28T09:13:37Z</time>
      </trkpt>
      <trkpt lat="44.39046" lon="4.35507">
        <ele>126.0699463</ele>
        <time>2011-05-28T09:13:42Z</time>
      </trkpt>
      <trkpt lat="44.39053" lon="4.35518">
        <ele>126.0699463</ele>
        <time>2011-05-28T09:13:46Z</time>
      </trkpt>
      <trkpt lat="44.39059" lon="4.3553">
        <ele>125.1087646</ele>
        <time>2011-05-28T09:13:50Z</time>
      </trkpt>
      <trkpt lat="44.39067" lon="4.35541">
        <ele>125.1087646</ele>
        <time>2011-05-28T09:13:54Z</time>
      </trkpt>
      <trkpt lat="44.39076" lon="4.35551">
        <ele>124.6280518</ele>
        <time>2011-05-28T09:13:58Z</time>
      </trkpt>
      <trkpt lat="44.39085" lon="4.35558">
        <ele>124.6280518</ele>
        <time>2011-05-28T09:14:04Z</time>
      </trkpt>
      <trkpt lat="44.39094" lon="4.35559">
        <ele>123.1861572</ele>
        <time>2011-05-28T09:19:53Z</time>
      </trkpt>
      <trkpt lat="44.39099" lon="4.35559">
        <ele>123.1861572</ele>
        <time>2011-05-28T09:21:54Z</time>
      </trkpt>
      <trkpt lat="44.39095" lon="4.35572">
        <ele>121.2635498</ele>
        <time>2011-05-28T09:22:00Z</time>
      </trkpt>
      <trkpt lat="44.39094" lon="4.35582">
        <ele>120.7828369</ele>
        <time>2011-05-28T09:22:06Z</time>
      </trkpt>
      <trkpt lat="44.39101" lon="4.35591">
        <ele>121.2635498</ele>
        <time>2011-05-28T09:22:14Z</time>
      </trkpt>
      <trkpt lat="44.3911" lon="4.35596">
        <ele>120.7828369</ele>
        <time>2011-05-28T09:22:23Z</time>
      </trkpt>
      <trkpt lat="44.39109" lon="4.35591">
        <ele>121.7441406</ele>
        <time>2011-05-28T09:23:23Z</time>
      </trkpt>
      <trkpt lat="44.39111" lon="4.356">
        <ele>121.2635498</ele>
        <time>2011-05-28T09:23:45Z</time>
      </trkpt>
      <trkpt lat="44.39111" lon="4.35607">
        <ele>120.302124</ele>
        <time>2011-05-28T09:23:51Z</time>
      </trkpt>
      <trkpt lat="44.39111" lon="4.35619">
        <ele>123.666748</ele>
        <time>2011-05-28T09:24:17Z</time>
      </trkpt>
      <trkpt lat="44.39107" lon="4.35632">
        <ele>123.666748</ele>
        <time>2011-05-28T09:24:21Z</time>
      </trkpt>
      <trkpt lat="44.39101" lon="4.35645">
        <ele>124.6280518</ele>
        <time>2011-05-28T09:24:25Z</time>
      </trkpt>
      <trkpt lat="44.39093" lon="4.35655">
        <ele>124.6280518</ele>
        <time>2011-05-28T09:24:30Z</time>
      </trkpt>
      <trkpt lat="44.39083" lon="4.35661">
        <ele>126.0699463</ele>
        <time>2011-05-28T09:24:36Z</time>
      </trkpt>
      <trkpt lat="44.39074" lon="4.35661">
        <ele>126.0699463</ele>
        <time>2011-05-28T09:24:46Z</time>
      </trkpt>
      <trkpt lat="44.39065" lon="4.35662">
        <ele>128.4733887</ele>
        <time>2011-05-28T09:25:03Z</time>
      </trkpt>
      <trkpt lat="44.39056" lon="4.35665">
        <ele>129.4346924</ele>
        <time>2011-05-28T09:25:13Z</time>
      </trkpt>
      <trkpt lat="44.39053" lon="4.35678">
        <ele>131.8378906</ele>
        <time>2011-05-28T09:25:28Z</time>
      </trkpt>
      <trkpt lat="44.39053" lon="4.35691">
        <ele>132.7993164</ele>
        <time>2011-05-28T09:25:35Z</time>
      </trkpt>
      <trkpt lat="44.39056" lon="4.35704">
        <ele>133.2799072</ele>
        <time>2011-05-28T09:25:41Z</time>
      </trkpt>
      <trkpt lat="44.39059" lon="4.35719">
        <ele>133.760498</ele>
        <time>2011-05-28T09:25:48Z</time>
      </trkpt>
      <trkpt lat="44.3906" lon="4.35732">
        <ele>134.2412109</ele>
        <time>2011-05-28T09:25:53Z</time>
      </trkpt>
      <trkpt lat="44.39062" lon="4.35745">
        <ele>136.6446533</ele>
        <time>2011-05-28T09:25:58Z</time>
      </trkpt>
      <trkpt lat="44.39064" lon="4.35758">
        <ele>136.6446533</ele>
        <time>2011-05-28T09:26:04Z</time>
      </trkpt>
      <trkpt lat="44.39065" lon="4.3577">
        <ele>138.0865479</ele>
        <time>2011-05-28T09:26:10Z</time>
      </trkpt>
      <trkpt lat="44.39068" lon="4.35783">
        <ele>139.5284424</ele>
        <time>2011-05-28T09:26:17Z</time>
      </trkpt>
      <trkpt lat="44.39069" lon="4.35796">
        <ele>140.970459</ele>
        <time>2011-05-28T09:26:25Z</time>
      </trkpt>
      <trkpt lat="44.39071" lon="4.3581">
        <ele>142.4124756</ele>
        <time>2011-05-28T09:26:33Z</time>
      </trkpt>
      <trkpt lat="44.39072" lon="4.35823">
        <ele>143.3736572</ele>
        <time>2011-05-28T09:26:49Z</time>
      </trkpt>
      <trkpt lat="44.39071" lon="4.35835">
        <ele>144.8157959</ele>
        <time>2011-05-28T09:26:57Z</time>
      </trkpt>
      <trkpt lat="44.3907" lon="4.35849">
        <ele>145.2963867</ele>
        <time>2011-05-28T09:27:06Z</time>
      </trkpt>
      <trkpt lat="44.39063" lon="4.35861">
        <ele>145.2963867</ele>
        <time>2011-05-28T09:27:13Z</time>
      </trkpt>
      <trkpt lat="44.39056" lon="4.35871">
        <ele>145.7770996</ele>
        <time>2011-05-28T09:27:18Z</time>
      </trkpt>
      <trkpt lat="44.39047" lon="4.35882">
        <ele>146.7384033</ele>
        <time>2011-05-28T09:27:24Z</time>
      </trkpt>
      <trkpt lat="44.39038" lon="4.35889">
        <ele>149.1416016</ele>
        <time>2011-05-28T09:27:31Z</time>
      </trkpt>
      <trkpt lat="44.39041" lon="4.35877">
        <ele>149.6223145</ele>
        <time>2011-05-28T09:27:38Z</time>
      </trkpt>
      <trkpt lat="44.39046" lon="4.35865">
        <ele>150.5836182</ele>
        <time>2011-05-28T09:27:44Z</time>
      </trkpt>
      <trkpt lat="44.39049" lon="4.3585">
        <ele>152.0257568</ele>
        <time>2011-05-28T09:27:50Z</time>
      </trkpt>
      <trkpt lat="44.39049" lon="4.35836">
        <ele>152.5063477</ele>
        <time>2011-05-28T09:27:55Z</time>
      </trkpt>
      <trkpt lat="44.39046" lon="4.35823">
        <ele>152.9869385</ele>
        <time>2011-05-28T09:28:00Z</time>
      </trkpt>
      <trkpt lat="44.39043" lon="4.35811">
        <ele>154.4289551</ele>
        <time>2011-05-28T09:28:05Z</time>
      </trkpt>
      <trkpt lat="44.39039" lon="4.35799">
        <ele>154.9095459</ele>
        <time>2011-05-28T09:28:10Z</time>
      </trkpt>
      <trkpt lat="44.39034" lon="4.35786">
        <ele>155.3902588</ele>
        <time>2011-05-28T09:28:15Z</time>
      </trkpt>
      <trkpt lat="44.3903" lon="4.35772">
        <ele>155.3902588</ele>
        <time>2011-05-28T09:28:20Z</time>
      </trkpt>
      <trkpt lat="44.39026" lon="4.35757">
        <ele>156.8321533</ele>
        <time>2011-05-28T09:28:25Z</time>
      </trkpt>
      <trkpt lat="44.39023" lon="4.35744">
        <ele>157.3128662</ele>
        <time>2011-05-28T09:28:29Z</time>
      </trkpt>
      <trkpt lat="44.39019" lon="4.35731">
        <ele>157.7935791</ele>
        <time>2011-05-28T09:28:33Z</time>
      </trkpt>
      <trkpt lat="44.39016" lon="4.35717">
        <ele>158.2741699</ele>
        <time>2011-05-28T09:28:38Z</time>
      </trkpt>
      <trkpt lat="44.39012" lon="4.35705">
        <ele>158.7547607</ele>
        <time>2011-05-28T09:28:42Z</time>
      </trkpt>
      <trkpt lat="44.39008" lon="4.35694">
        <ele>159.2354736</ele>
        <time>2011-05-28T09:28:46Z</time>
      </trkpt>
      <trkpt lat="44.39002" lon="4.35684">
        <ele>159.7161865</ele>
        <time>2011-05-28T09:28:50Z</time>
      </trkpt>
      <trkpt lat="44.38996" lon="4.35674">
        <ele>160.6774902</ele>
        <time>2011-05-28T09:28:54Z</time>
      </trkpt>
      <trkpt lat="44.3899" lon="4.35662">
        <ele>161.1582031</ele>
        <time>2011-05-28T09:28:58Z</time>
      </trkpt>
      <trkpt lat="44.38985" lon="4.35648">
        <ele>162.1195068</ele>
        <time>2011-05-28T09:29:03Z</time>
      </trkpt>
      <trkpt lat="44.3898" lon="4.35634">
        <ele>163.5615234</ele>
        <time>2011-05-28T09:29:08Z</time>
      </trkpt>
      <trkpt lat="44.38975" lon="4.35622">
        <ele>164.5227051</ele>
        <time>2011-05-28T09:29:12Z</time>
      </trkpt>
      <trkpt lat="44.38969" lon="4.3561">
        <ele>165.9647217</ele>
        <time>2011-05-28T09:29:17Z</time>
      </trkpt>
      <trkpt lat="44.38964" lon="4.35597">
        <ele>167.4067383</ele>
        <time>2011-05-28T09:29:22Z</time>
      </trkpt>
      <trkpt lat="44.38958" lon="4.35587">
        <ele>168.368042</ele>
        <time>2011-05-28T09:29:27Z</time>
      </trkpt>
      <trkpt lat="44.38949" lon="4.35578">
        <ele>169.8100586</ele>
        <time>2011-05-28T09:29:32Z</time>
      </trkpt>
      <trkpt lat="44.38938" lon="4.35575">
        <ele>170.2906494</ele>
        <time>2011-05-28T09:29:37Z</time>
      </trkpt>
      <trkpt lat="44.38928" lon="4.35575">
        <ele>172.2132568</ele>
        <time>2011-05-28T09:29:42Z</time>
      </trkpt>
      <trkpt lat="44.38919" lon="4.35572">
        <ele>171.732666</ele>
        <time>2011-05-28T09:29:46Z</time>
      </trkpt>
      <trkpt lat="44.38911" lon="4.35563">
        <ele>171.732666</ele>
        <time>2011-05-28T09:29:50Z</time>
      </trkpt>
      <trkpt lat="44.38909" lon="4.3555">
        <ele>171.2520752</ele>
        <time>2011-05-28T09:29:54Z</time>
      </trkpt>
      <trkpt lat="44.3891" lon="4.35536">
        <ele>171.732666</ele>
        <time>2011-05-28T09:29:59Z</time>
      </trkpt>
      <trkpt lat="44.38907" lon="4.35523">
        <ele>172.6939697</ele>
        <time>2011-05-28T09:30:03Z</time>
      </trkpt>
      <trkpt lat="44.38902" lon="4.3551">
        <ele>172.2132568</ele>
        <time>2011-05-28T09:30:07Z</time>
      </trkpt>
      <trkpt lat="44.38895" lon="4.35498">
        <ele>172.6939697</ele>
        <time>2011-05-28T09:30:11Z</time>
      </trkpt>
      <trkpt lat="44.38887" lon="4.35488">
        <ele>173.6552734</ele>
        <time>2011-05-28T09:30:15Z</time>
      </trkpt>
      <trkpt lat="44.38877" lon="4.35479">
        <ele>174.6165771</ele>
        <time>2011-05-28T09:30:19Z</time>
      </trkpt>
      <trkpt lat="44.3887" lon="4.35472">
        <ele>175.5778809</ele>
        <time>2011-05-28T09:30:22Z</time>
      </trkpt>
      <trkpt lat="44.38862" lon="4.35466">
        <ele>175.5778809</ele>
        <time>2011-05-28T09:30:25Z</time>
      </trkpt>
      <trkpt lat="44.38853" lon="4.35459">
        <ele>176.5393066</ele>
        <time>2011-05-28T09:30:28Z</time>
      </trkpt>
      <trkpt lat="44.38846" lon="4.35452">
        <ele>176.5393066</ele>
        <time>2011-05-28T09:30:31Z</time>
      </trkpt>
      <trkpt lat="44.38835" lon="4.35444">
        <ele>177.0200195</ele>
        <time>2011-05-28T09:30:35Z</time>
      </trkpt>
      <trkpt lat="44.38828" lon="4.35438">
        <ele>177.5006104</ele>
        <time>2011-05-28T09:30:38Z</time>
      </trkpt>
      <trkpt lat="44.3882" lon="4.3543">
        <ele>177.0200195</ele>
        <time>2011-05-28T09:30:41Z</time>
      </trkpt>
      <trkpt lat="44.38812" lon="4.3542">
        <ele>177.9812012</ele>
        <time>2011-05-28T09:30:45Z</time>
      </trkpt>
      <trkpt lat="44.38804" lon="4.35412">
        <ele>177.9812012</ele>
        <time>2011-05-28T09:30:49Z</time>
      </trkpt>
      <trkpt lat="44.38795" lon="4.35405">
        <ele>178.4619141</ele>
        <time>2011-05-28T09:30:53Z</time>
      </trkpt>
      <trkpt lat="44.38787" lon="4.35399">
        <ele>178.4619141</ele>
        <time>2011-05-28T09:30:57Z</time>
      </trkpt>
      <trkpt lat="44.38778" lon="4.3539">
        <ele>179.4232178</ele>
        <time>2011-05-28T09:31:01Z</time>
      </trkpt>
      <trkpt lat="44.38771" lon="4.35381">
        <ele>179.9038086</ele>
        <time>2011-05-28T09:31:05Z</time>
      </trkpt>
      <trkpt lat="44.38763" lon="4.35371">
        <ele>180.3845215</ele>
        <time>2011-05-28T09:31:09Z</time>
      </trkpt>
      <trkpt lat="44.38755" lon="4.35363">
        <ele>180.8652344</ele>
        <time>2011-05-28T09:31:13Z</time>
      </trkpt>
      <trkpt lat="44.38747" lon="4.35357">
        <ele>181.826416</ele>
        <time>2011-05-28T09:31:17Z</time>
      </trkpt>
      <trkpt lat="44.38738" lon="4.3535">
        <ele>182.3071289</ele>
        <time>2011-05-28T09:31:21Z</time>
      </trkpt>
      <trkpt lat="44.38729" lon="4.35345">
        <ele>182.7878418</ele>
        <time>2011-05-28T09:31:25Z</time>
      </trkpt>
      <trkpt lat="44.38721" lon="4.35338">
        <ele>183.2684326</ele>
        <time>2011-05-28T09:31:29Z</time>
      </trkpt>
      <trkpt lat="44.38712" lon="4.35333">
        <ele>184.2298584</ele>
        <time>2011-05-28T09:31:33Z</time>
      </trkpt>
      <trkpt lat="44.38704" lon="4.35324">
        <ele>184.7105713</ele>
        <time>2011-05-28T09:31:37Z</time>
      </trkpt>
      <trkpt lat="44.38696" lon="4.35316">
        <ele>185.6717529</ele>
        <time>2011-05-28T09:31:42Z</time>
      </trkpt>
      <trkpt lat="44.38688" lon="4.35309">
        <ele>185.6717529</ele>
        <time>2011-05-28T09:31:46Z</time>
      </trkpt>
      <trkpt lat="44.38679" lon="4.35301">
        <ele>187.1137695</ele>
        <time>2011-05-28T09:31:52Z</time>
      </trkpt>
      <trkpt lat="44.3867" lon="4.35295">
        <ele>187.5943604</ele>
        <time>2011-05-28T09:31:57Z</time>
      </trkpt>
      <trkpt lat="44.38662" lon="4.35288">
        <ele>187.1137695</ele>
        <time>2011-05-28T09:32:01Z</time>
      </trkpt>
      <trkpt lat="44.38656" lon="4.35276">
        <ele>188.5557861</ele>
        <time>2011-05-28T09:32:06Z</time>
      </trkpt>
      <trkpt lat="44.38649" lon="4.35266">
        <ele>189.5169678</ele>
        <time>2011-05-28T09:32:10Z</time>
      </trkpt>
      <trkpt lat="44.38641" lon="4.35258">
        <ele>189.5169678</ele>
        <time>2011-05-28T09:32:14Z</time>
      </trkpt>
      <trkpt lat="44.38632" lon="4.35251">
        <ele>189.9976807</ele>
        <time>2011-05-28T09:32:18Z</time>
      </trkpt>
      <trkpt lat="44.38623" lon="4.35247">
        <ele>190.4783936</ele>
        <time>2011-05-28T09:32:22Z</time>
      </trkpt>
      <trkpt lat="44.38613" lon="4.35241">
        <ele>189.9976807</ele>
        <time>2011-05-28T09:32:26Z</time>
      </trkpt>
      <trkpt lat="44.38605" lon="4.3523">
        <ele>190.9589844</ele>
        <time>2011-05-28T09:32:31Z</time>
      </trkpt>
      <trkpt lat="44.38598" lon="4.35221">
        <ele>191.9202881</ele>
        <time>2011-05-28T09:32:35Z</time>
      </trkpt>
      <trkpt lat="44.38591" lon="4.35209">
        <ele>192.401123</ele>
        <time>2011-05-28T09:32:39Z</time>
      </trkpt>
      <trkpt lat="44.38582" lon="4.352">
        <ele>192.8817139</ele>
        <time>2011-05-28T09:32:44Z</time>
      </trkpt>
      <trkpt lat="44.38573" lon="4.35193">
        <ele>193.8430176</ele>
        <time>2011-05-28T09:32:48Z</time>
      </trkpt>
      <trkpt lat="44.38564" lon="4.35189">
        <ele>194.3237305</ele>
        <time>2011-05-28T09:32:52Z</time>
      </trkpt>
      <trkpt lat="44.38555" lon="4.35185">
        <ele>194.3237305</ele>
        <time>2011-05-28T09:32:56Z</time>
      </trkpt>
      <trkpt lat="44.38545" lon="4.35182">
        <ele>194.8043213</ele>
        <time>2011-05-28T09:33:01Z</time>
      </trkpt>
      <trkpt lat="44.38535" lon="4.35179">
        <ele>195.765625</ele>
        <time>2011-05-28T09:33:05Z</time>
      </trkpt>
      <trkpt lat="44.38526" lon="4.35176">
        <ele>196.7269287</ele>
        <time>2011-05-28T09:33:10Z</time>
      </trkpt>
      <trkpt lat="44.38515" lon="4.35173">
        <ele>197.2075195</ele>
        <time>2011-05-28T09:33:15Z</time>
      </trkpt>
      <trkpt lat="44.38505" lon="4.35167">
        <ele>198.1689453</ele>
        <time>2011-05-28T09:33:20Z</time>
      </trkpt>
      <trkpt lat="44.38496" lon="4.35162">
        <ele>199.130127</ele>
        <time>2011-05-28T09:33:25Z</time>
      </trkpt>
      <trkpt lat="44.38487" lon="4.35157">
        <ele>199.6108398</ele>
        <time>2011-05-28T09:33:30Z</time>
      </trkpt>
      <trkpt lat="44.38477" lon="4.35153">
        <ele>200.5722656</ele>
        <time>2011-05-28T09:33:35Z</time>
      </trkpt>
      <trkpt lat="44.38467" lon="4.35147">
        <ele>202.0142822</ele>
        <time>2011-05-28T09:33:40Z</time>
      </trkpt>
      <trkpt lat="44.38458" lon="4.35137">
        <ele>202.494873</ele>
        <time>2011-05-28T09:33:45Z</time>
      </trkpt>
      <trkpt lat="44.38451" lon="4.35128">
        <ele>202.9754639</ele>
        <time>2011-05-28T09:33:49Z</time>
      </trkpt>
      <trkpt lat="44.38443" lon="4.35118">
        <ele>203.9368896</ele>
        <time>2011-05-28T09:33:54Z</time>
      </trkpt>
      <trkpt lat="44.38435" lon="4.35107">
        <ele>204.4174805</ele>
        <time>2011-05-28T09:33:59Z</time>
      </trkpt>
      <trkpt lat="44.38428" lon="4.35097">
        <ele>204.4174805</ele>
        <time>2011-05-28T09:34:04Z</time>
      </trkpt>
      <trkpt lat="44.38421" lon="4.35086">
        <ele>204.4174805</ele>
        <time>2011-05-28T09:34:09Z</time>
      </trkpt>
      <trkpt lat="44.38414" lon="4.35077">
        <ele>204.4174805</ele>
        <time>2011-05-28T09:34:14Z</time>
      </trkpt>
      <trkpt lat="44.38407" lon="4.35067">
        <ele>205.8594971</ele>
        <time>2011-05-28T09:34:19Z</time>
      </trkpt>
      <trkpt lat="44.384" lon="4.35057">
        <ele>207.7821045</ele>
        <time>2011-05-28T09:34:25Z</time>
      </trkpt>
      <trkpt lat="44.38393" lon="4.35047">
        <ele>207.7821045</ele>
        <time>2011-05-28T09:34:30Z</time>
      </trkpt>
      <trkpt lat="44.38385" lon="4.35037">
        <ele>208.7434082</ele>
        <time>2011-05-28T09:34:36Z</time>
      </trkpt>
      <trkpt lat="44.38377" lon="4.35027">
        <ele>208.7434082</ele>
        <time>2011-05-28T09:34:41Z</time>
      </trkpt>
      <trkpt lat="44.3837" lon="4.35018">
        <ele>209.704834</ele>
        <time>2011-05-28T09:34:46Z</time>
      </trkpt>
      <trkpt lat="44.38363" lon="4.35006">
        <ele>210.6660156</ele>
        <time>2011-05-28T09:34:52Z</time>
      </trkpt>
      <trkpt lat="44.38356" lon="4.34996">
        <ele>211.1467285</ele>
        <time>2011-05-28T09:34:57Z</time>
      </trkpt>
      <trkpt lat="44.38346" lon="4.3499">
        <ele>211.1467285</ele>
        <time>2011-05-28T09:35:02Z</time>
      </trkpt>
      <trkpt lat="44.38335" lon="4.34991">
        <ele>212.1080322</ele>
        <time>2011-05-28T09:35:07Z</time>
      </trkpt>
      <trkpt lat="44.38325" lon="4.3499">
        <ele>212.588623</ele>
        <time>2011-05-28T09:35:11Z</time>
      </trkpt>
      <trkpt lat="44.38315" lon="4.34988">
        <ele>213.0693359</ele>
        <time>2011-05-28T09:35:16Z</time>
      </trkpt>
      <trkpt lat="44.38306" lon="4.34987">
        <ele>214.0306396</ele>
        <time>2011-05-28T09:35:21Z</time>
      </trkpt>
      <trkpt lat="44.38295" lon="4.34987">
        <ele>214.0306396</ele>
        <time>2011-05-28T09:35:26Z</time>
      </trkpt>
      <trkpt lat="44.38286" lon="4.34988">
        <ele>214.9919434</ele>
        <time>2011-05-28T09:35:31Z</time>
      </trkpt>
      <trkpt lat="44.38276" lon="4.34989">
        <ele>215.4726563</ele>
        <time>2011-05-28T09:35:36Z</time>
      </trkpt>
      <trkpt lat="44.38266" lon="4.3499">
        <ele>216.43396</ele>
        <time>2011-05-28T09:35:41Z</time>
      </trkpt>
      <trkpt lat="44.38257" lon="4.34989">
        <ele>216.9146729</ele>
        <time>2011-05-28T09:35:46Z</time>
      </trkpt>
      <trkpt lat="44.38247" lon="4.34987">
        <ele>217.8759766</ele>
        <time>2011-05-28T09:35:51Z</time>
      </trkpt>
      <trkpt lat="44.38237" lon="4.34983">
        <ele>218.3565674</ele>
        <time>2011-05-28T09:35:56Z</time>
      </trkpt>
      <trkpt lat="44.38228" lon="4.34978">
        <ele>220.2791748</ele>
        <time>2011-05-28T09:36:01Z</time>
      </trkpt>
      <trkpt lat="44.3822" lon="4.34973">
        <ele>220.7598877</ele>
        <time>2011-05-28T09:36:06Z</time>
      </trkpt>
      <trkpt lat="44.38211" lon="4.34966">
        <ele>221.7211914</ele>
        <time>2011-05-28T09:36:11Z</time>
      </trkpt>
      <trkpt lat="44.38202" lon="4.3496">
        <ele>222.2017822</ele>
        <time>2011-05-28T09:36:16Z</time>
      </trkpt>
      <trkpt lat="44.38193" lon="4.34953">
        <ele>222.6824951</ele>
        <time>2011-05-28T09:36:21Z</time>
      </trkpt>
      <trkpt lat="44.38185" lon="4.34946">
        <ele>223.163208</ele>
        <time>2011-05-28T09:36:26Z</time>
      </trkpt>
      <trkpt lat="44.38176" lon="4.34939">
        <ele>224.1245117</ele>
        <time>2011-05-28T09:36:31Z</time>
      </trkpt>
      <trkpt lat="44.38168" lon="4.34929">
        <ele>224.6052246</ele>
        <time>2011-05-28T09:36:36Z</time>
      </trkpt>
      <trkpt lat="44.38159" lon="4.3492">
        <ele>226.0471191</ele>
        <time>2011-05-28T09:36:41Z</time>
      </trkpt>
      <trkpt lat="44.38152" lon="4.34912">
        <ele>225.5665283</ele>
        <time>2011-05-28T09:36:45Z</time>
      </trkpt>
      <trkpt lat="44.38144" lon="4.34901">
        <ele>227.4891357</ele>
        <time>2011-05-28T09:36:50Z</time>
      </trkpt>
      <trkpt lat="44.38137" lon="4.34905">
        <ele>227.9697266</ele>
        <time>2011-05-28T09:36:56Z</time>
      </trkpt>
      <trkpt lat="44.38142" lon="4.34916">
        <ele>229.4117432</ele>
        <time>2011-05-28T09:37:02Z</time>
      </trkpt>
      <trkpt lat="44.38149" lon="4.34926">
        <ele>228.9311523</ele>
        <time>2011-05-28T09:37:07Z</time>
      </trkpt>
      <trkpt lat="44.38157" lon="4.34937">
        <ele>229.892334</ele>
        <time>2011-05-28T09:37:12Z</time>
      </trkpt>
      <trkpt lat="44.38163" lon="4.34947">
        <ele>230.3730469</ele>
        <time>2011-05-28T09:37:16Z</time>
      </trkpt>
      <trkpt lat="44.38171" lon="4.3496">
        <ele>230.8537598</ele>
        <time>2011-05-28T09:37:21Z</time>
      </trkpt>
      <trkpt lat="44.38179" lon="4.34971">
        <ele>232.2957764</ele>
        <time>2011-05-28T09:37:26Z</time>
      </trkpt>
      <trkpt lat="44.38188" lon="4.3498">
        <ele>231.8149414</ele>
        <time>2011-05-28T09:37:31Z</time>
      </trkpt>
      <trkpt lat="44.38198" lon="4.34989">
        <ele>232.7764893</ele>
        <time>2011-05-28T09:37:36Z</time>
      </trkpt>
      <trkpt lat="44.38206" lon="4.34997">
        <ele>233.2570801</ele>
        <time>2011-05-28T09:37:41Z</time>
      </trkpt>
      <trkpt lat="44.38215" lon="4.35007">
        <ele>233.7376709</ele>
        <time>2011-05-28T09:37:47Z</time>
      </trkpt>
      <trkpt lat="44.38226" lon="4.35015">
        <ele>234.6990967</ele>
        <time>2011-05-28T09:37:52Z</time>
      </trkpt>
      <trkpt lat="44.38235" lon="4.35021">
        <ele>235.6602783</ele>
        <time>2011-05-28T09:37:56Z</time>
      </trkpt>
      <trkpt lat="44.38244" lon="4.35027">
        <ele>235.6602783</ele>
        <time>2011-05-28T09:38:00Z</time>
      </trkpt>
      <trkpt lat="44.38252" lon="4.35032">
        <ele>236.6217041</ele>
        <time>2011-05-28T09:38:04Z</time>
      </trkpt>
      <trkpt lat="44.38262" lon="4.35037">
        <ele>238.0635986</ele>
        <time>2011-05-28T09:38:09Z</time>
      </trkpt>
      <trkpt lat="44.38273" lon="4.35043">
        <ele>238.0635986</ele>
        <time>2011-05-28T09:38:14Z</time>
      </trkpt>
      <trkpt lat="44.38281" lon="4.3505">
        <ele>239.0249023</ele>
        <time>2011-05-28T09:38:19Z</time>
      </trkpt>
      <trkpt lat="44.38291" lon="4.35058">
        <ele>240.467041</ele>
        <time>2011-05-28T09:38:24Z</time>
      </trkpt>
      <trkpt lat="44.38299" lon="4.35065">
        <ele>240.467041</ele>
        <time>2011-05-28T09:38:29Z</time>
      </trkpt>
      <trkpt lat="44.38308" lon="4.35074">
        <ele>240.9476318</ele>
        <time>2011-05-28T09:38:34Z</time>
      </trkpt>
      <trkpt lat="44.38315" lon="4.35085">
        <ele>241.4282227</ele>
        <time>2011-05-28T09:38:40Z</time>
      </trkpt>
      <trkpt lat="44.38323" lon="4.35094">
        <ele>242.3896484</ele>
        <time>2011-05-28T09:38:45Z</time>
      </trkpt>
      <trkpt lat="44.38331" lon="4.35108">
        <ele>243.3508301</ele>
        <time>2011-05-28T09:38:51Z</time>
      </trkpt>
      <trkpt lat="44.38337" lon="4.35121">
        <ele>244.7928467</ele>
        <time>2011-05-28T09:38:56Z</time>
      </trkpt>
      <trkpt lat="44.38344" lon="4.35135">
        <ele>245.2734375</ele>
        <time>2011-05-28T09:39:01Z</time>
      </trkpt>
      <trkpt lat="44.38349" lon="4.35148">
        <ele>246.2348633</ele>
        <time>2011-05-28T09:39:06Z</time>
      </trkpt>
      <trkpt lat="44.38355" lon="4.35161">
        <ele>246.2348633</ele>
        <time>2011-05-28T09:39:11Z</time>
      </trkpt>
      <trkpt lat="44.38359" lon="4.35174">
        <ele>247.6767578</ele>
        <time>2011-05-28T09:39:16Z</time>
      </trkpt>
      <trkpt lat="44.38364" lon="4.35187">
        <ele>248.6381836</ele>
        <time>2011-05-28T09:39:21Z</time>
      </trkpt>
      <trkpt lat="44.38367" lon="4.35201">
        <ele>249.5994873</ele>
        <time>2011-05-28T09:39:27Z</time>
      </trkpt>
      <trkpt lat="44.38369" lon="4.35215">
        <ele>250.560791</ele>
        <time>2011-05-28T09:39:32Z</time>
      </trkpt>
      <trkpt lat="44.38371" lon="4.35229">
        <ele>251.5220947</ele>
        <time>2011-05-28T09:39:37Z</time>
      </trkpt>
      <trkpt lat="44.38371" lon="4.35243">
        <ele>252.0028076</ele>
        <time>2011-05-28T09:39:43Z</time>
      </trkpt>
      <trkpt lat="44.38368" lon="4.35254">
        <ele>253.4447021</ele>
        <time>2011-05-28T09:39:53Z</time>
      </trkpt>
      <trkpt lat="44.38367" lon="4.35268">
        <ele>253.925415</ele>
        <time>2011-05-28T09:40:00Z</time>
      </trkpt>
      <trkpt lat="44.38369" lon="4.35278">
        <ele>253.925415</ele>
        <time>2011-05-28T09:40:10Z</time>
      </trkpt>
      <trkpt lat="44.38371" lon="4.35282">
        <ele>254.8865967</ele>
        <time>2011-05-28T09:47:03Z</time>
      </trkpt>
      <trkpt lat="44.38375" lon="4.35296">
        <ele>254.8865967</ele>
        <time>2011-05-28T09:47:07Z</time>
      </trkpt>
      <trkpt lat="44.38378" lon="4.35312">
        <ele>253.4447021</ele>
        <time>2011-05-28T09:47:11Z</time>
      </trkpt>
      <trkpt lat="44.38384" lon="4.35327">
        <ele>252.4833984</ele>
        <time>2011-05-28T09:47:14Z</time>
      </trkpt>
      <trkpt lat="44.38386" lon="4.35343">
        <ele>252.4833984</ele>
        <time>2011-05-28T09:47:17Z</time>
      </trkpt>
      <trkpt lat="44.38386" lon="4.35362">
        <ele>252.0028076</ele>
        <time>2011-05-28T09:47:20Z</time>
      </trkpt>
      <trkpt lat="44.38383" lon="4.35378">
        <ele>251.5220947</ele>
        <time>2011-05-28T09:47:23Z</time>
      </trkpt>
      <trkpt lat="44.38379" lon="4.35395">
        <ele>249.5994873</ele>
        <time>2011-05-28T09:47:26Z</time>
      </trkpt>
      <trkpt lat="44.38376" lon="4.35408">
        <ele>249.5994873</ele>
        <time>2011-05-28T09:47:28Z</time>
      </trkpt>
      <trkpt lat="44.38372" lon="4.35422">
        <ele>249.5994873</ele>
        <time>2011-05-28T09:47:30Z</time>
      </trkpt>
      <trkpt lat="44.38367" lon="4.35436">
        <ele>248.6381836</ele>
        <time>2011-05-28T09:47:32Z</time>
      </trkpt>
      <trkpt lat="44.38361" lon="4.3545">
        <ele>247.1960449</ele>
        <time>2011-05-28T09:47:34Z</time>
      </trkpt>
      <trkpt lat="44.38357" lon="4.35464">
        <ele>246.7154541</ele>
        <time>2011-05-28T09:47:36Z</time>
      </trkpt>
      <trkpt lat="44.38354" lon="4.35479">
        <ele>246.7154541</ele>
        <time>2011-05-28T09:47:38Z</time>
      </trkpt>
      <trkpt lat="44.38349" lon="4.35494">
        <ele>246.7154541</ele>
        <time>2011-05-28T09:47:40Z</time>
      </trkpt>
      <trkpt lat="44.38345" lon="4.35509">
        <ele>246.7154541</ele>
        <time>2011-05-28T09:47:42Z</time>
      </trkpt>
      <trkpt lat="44.3834" lon="4.35523">
        <ele>246.2348633</ele>
        <time>2011-05-28T09:47:44Z</time>
      </trkpt>
      <trkpt lat="44.38335" lon="4.35537">
        <ele>245.7541504</ele>
        <time>2011-05-28T09:47:46Z</time>
      </trkpt>
      <trkpt lat="44.3833" lon="4.35553">
        <ele>245.7541504</ele>
        <time>2011-05-28T09:47:48Z</time>
      </trkpt>
      <trkpt lat="44.38326" lon="4.35569">
        <ele>244.7928467</ele>
        <time>2011-05-28T09:47:50Z</time>
      </trkpt>
      <trkpt lat="44.38322" lon="4.35585">
        <ele>244.3122559</ele>
        <time>2011-05-28T09:47:52Z</time>
      </trkpt>
      <trkpt lat="44.38318" lon="4.35599">
        <ele>244.3122559</ele>
        <time>2011-05-28T09:47:54Z</time>
      </trkpt>
      <trkpt lat="44.38315" lon="4.35612">
        <ele>244.3122559</ele>
        <time>2011-05-28T09:47:56Z</time>
      </trkpt>
      <trkpt lat="44.38311" lon="4.35628">
        <ele>243.831543</ele>
        <time>2011-05-28T09:47:59Z</time>
      </trkpt>
      <trkpt lat="44.38309" lon="4.35643">
        <ele>244.7928467</ele>
        <time>2011-05-28T09:48:03Z</time>
      </trkpt>
      <trkpt lat="44.38309" lon="4.35659">
        <ele>244.7928467</ele>
        <time>2011-05-28T09:48:08Z</time>
      </trkpt>
      <trkpt lat="44.3831" lon="4.35674">
        <ele>244.7928467</ele>
        <time>2011-05-28T09:48:14Z</time>
      </trkpt>
      <trkpt lat="44.38314" lon="4.35691">
        <ele>245.7541504</ele>
        <time>2011-05-28T09:48:20Z</time>
      </trkpt>
      <trkpt lat="44.38315" lon="4.35706">
        <ele>246.2348633</ele>
        <time>2011-05-28T09:48:28Z</time>
      </trkpt>
      <trkpt lat="44.38316" lon="4.35719">
        <ele>247.1960449</ele>
        <time>2011-05-28T09:48:38Z</time>
      </trkpt>
      <trkpt lat="44.38318" lon="4.35735">
        <ele>248.6381836</ele>
        <time>2011-05-28T09:51:28Z</time>
      </trkpt>
      <trkpt lat="44.38316" lon="4.35747">
        <ele>250.0802002</ele>
        <time>2011-05-28T09:51:33Z</time>
      </trkpt>
      <trkpt lat="44.38315" lon="4.35761">
        <ele>250.0802002</ele>
        <time>2011-05-28T09:51:38Z</time>
      </trkpt>
      <trkpt lat="44.38312" lon="4.35774">
        <ele>251.0413818</ele>
        <time>2011-05-28T09:51:43Z</time>
      </trkpt>
      <trkpt lat="44.3831" lon="4.35786">
        <ele>251.0413818</ele>
        <time>2011-05-28T09:51:48Z</time>
      </trkpt>
      <trkpt lat="44.38306" lon="4.35799">
        <ele>252.0028076</ele>
        <time>2011-05-28T09:51:54Z</time>
      </trkpt>
      <trkpt lat="44.38302" lon="4.35812">
        <ele>254.4060059</ele>
        <time>2011-05-28T09:52:01Z</time>
      </trkpt>
      <trkpt lat="44.38298" lon="4.35824">
        <ele>254.8865967</ele>
        <time>2011-05-28T09:52:08Z</time>
      </trkpt>
      <trkpt lat="44.38294" lon="4.35836">
        <ele>256.8093262</ele>
        <time>2011-05-28T09:52:16Z</time>
      </trkpt>
      <trkpt lat="44.38291" lon="4.35849">
        <ele>257.770752</ele>
        <time>2011-05-28T09:52:24Z</time>
      </trkpt>
      <trkpt lat="44.38288" lon="4.35862">
        <ele>260.654541</ele>
        <time>2011-05-28T09:52:32Z</time>
      </trkpt>
      <trkpt lat="44.38285" lon="4.35876">
        <ele>262.0965576</ele>
        <time>2011-05-28T09:52:42Z</time>
      </trkpt>
      <trkpt lat="44.3828" lon="4.35889">
        <ele>263.0578613</ele>
        <time>2011-05-28T09:52:53Z</time>
      </trkpt>
      <trkpt lat="44.3827" lon="4.35906">
        <ele>265.4613037</ele>
        <time>2011-05-28T09:54:40Z</time>
      </trkpt>
      <trkpt lat="44.3826" lon="4.3591">
        <ele>266.4224854</ele>
        <time>2011-05-28T09:57:02Z</time>
      </trkpt>
      <trkpt lat="44.38249" lon="4.35911">
        <ele>266.9031982</ele>
        <time>2011-05-28T09:57:07Z</time>
      </trkpt>
      <trkpt lat="44.38236" lon="4.35912">
        <ele>266.4224854</ele>
        <time>2011-05-28T09:57:11Z</time>
      </trkpt>
      <trkpt lat="44.38223" lon="4.35902">
        <ele>265.9418945</ele>
        <time>2011-05-28T09:57:14Z</time>
      </trkpt>
      <trkpt lat="44.38213" lon="4.35893">
        <ele>265.4613037</ele>
        <time>2011-05-28T09:57:16Z</time>
      </trkpt>
      <trkpt lat="44.38205" lon="4.35881">
        <ele>264.4998779</ele>
        <time>2011-05-28T09:57:18Z</time>
      </trkpt>
      <trkpt lat="44.382" lon="4.35871">
        <ele>262.5771484</ele>
        <time>2011-05-28T09:57:20Z</time>
      </trkpt>
      <trkpt lat="44.38197" lon="4.35857">
        <ele>261.1352539</ele>
        <time>2011-05-28T09:57:24Z</time>
      </trkpt>
      <trkpt lat="44.38187" lon="4.35855">
        <ele>261.1352539</ele>
        <time>2011-05-28T09:57:27Z</time>
      </trkpt>
      <trkpt lat="44.3818" lon="4.35845">
        <ele>259.6933594</ele>
        <time>2011-05-28T09:57:31Z</time>
      </trkpt>
      <trkpt lat="44.3817" lon="4.35846">
        <ele>258.7319336</ele>
        <time>2011-05-28T09:57:35Z</time>
      </trkpt>
      <trkpt lat="44.3816" lon="4.35852">
        <ele>258.7319336</ele>
        <time>2011-05-28T09:57:38Z</time>
      </trkpt>
      <trkpt lat="44.38148" lon="4.35861">
        <ele>257.2900391</ele>
        <time>2011-05-28T09:57:42Z</time>
      </trkpt>
      <trkpt lat="44.38137" lon="4.35872">
        <ele>255.3673096</ele>
        <time>2011-05-28T09:57:45Z</time>
      </trkpt>
      <trkpt lat="44.38126" lon="4.35875">
        <ele>253.4447021</ele>
        <time>2011-05-28T09:57:48Z</time>
      </trkpt>
      <trkpt lat="44.38114" lon="4.35868">
        <ele>251.5220947</ele>
        <time>2011-05-28T09:57:51Z</time>
      </trkpt>
      <trkpt lat="44.381" lon="4.35862">
        <ele>249.5994873</ele>
        <time>2011-05-28T09:57:54Z</time>
      </trkpt>
      <trkpt lat="44.38092" lon="4.35849">
        <ele>249.5994873</ele>
        <time>2011-05-28T09:57:57Z</time>
      </trkpt>
      <trkpt lat="44.38083" lon="4.35838">
        <ele>247.1960449</ele>
        <time>2011-05-28T09:58:01Z</time>
      </trkpt>
      <trkpt lat="44.38072" lon="4.35845">
        <ele>246.7154541</ele>
        <time>2011-05-28T09:58:05Z</time>
      </trkpt>
      <trkpt lat="44.38061" lon="4.35849">
        <ele>246.2348633</ele>
        <time>2011-05-28T09:58:09Z</time>
      </trkpt>
      <trkpt lat="44.38053" lon="4.35837">
        <ele>245.7541504</ele>
        <time>2011-05-28T09:58:13Z</time>
      </trkpt>
      <trkpt lat="44.38042" lon="4.35844">
        <ele>244.7928467</ele>
        <time>2011-05-28T09:58:18Z</time>
      </trkpt>
      <trkpt lat="44.38033" lon="4.35856">
        <ele>242.3896484</ele>
        <time>2011-05-28T09:58:21Z</time>
      </trkpt>
      <trkpt lat="44.3802" lon="4.35866">
        <ele>238.5443115</ele>
        <time>2011-05-28T09:58:24Z</time>
      </trkpt>
      <trkpt lat="44.38008" lon="4.3587">
        <ele>238.0635986</ele>
        <time>2011-05-28T09:58:27Z</time>
      </trkpt>
      <trkpt lat="44.37996" lon="4.35879">
        <ele>235.1796875</ele>
        <time>2011-05-28T09:58:30Z</time>
      </trkpt>
      <trkpt lat="44.37985" lon="4.35884">
        <ele>234.2183838</ele>
        <time>2011-05-28T09:58:33Z</time>
      </trkpt>
      <trkpt lat="44.37971" lon="4.35881">
        <ele>233.7376709</ele>
        <time>2011-05-28T09:58:40Z</time>
      </trkpt>
      <trkpt lat="44.37958" lon="4.35884">
        <ele>232.7764893</ele>
        <time>2011-05-28T09:58:45Z</time>
      </trkpt>
      <trkpt lat="44.37944" lon="4.35886">
        <ele>231.3343506</ele>
        <time>2011-05-28T09:58:49Z</time>
      </trkpt>
      <trkpt lat="44.3793" lon="4.35881">
        <ele>230.8537598</ele>
        <time>2011-05-28T09:58:53Z</time>
      </trkpt>
      <trkpt lat="44.37918" lon="4.35873">
        <ele>231.3343506</ele>
        <time>2011-05-28T09:58:59Z</time>
      </trkpt>
      <trkpt lat="44.37905" lon="4.35859">
        <ele>231.3343506</ele>
        <time>2011-05-28T09:59:20Z</time>
      </trkpt>
      <trkpt lat="44.37895" lon="4.35856">
        <ele>229.4117432</ele>
        <time>2011-05-28T09:59:25Z</time>
      </trkpt>
      <trkpt lat="44.37888" lon="4.35842">
        <ele>229.4117432</ele>
        <time>2011-05-28T09:59:29Z</time>
      </trkpt>
      <trkpt lat="44.37878" lon="4.35831">
        <ele>229.4117432</ele>
        <time>2011-05-28T09:59:33Z</time>
      </trkpt>
      <trkpt lat="44.37866" lon="4.3583">
        <ele>228.9311523</ele>
        <time>2011-05-28T09:59:37Z</time>
      </trkpt>
      <trkpt lat="44.37853" lon="4.35823">
        <ele>227.9697266</ele>
        <time>2011-05-28T09:59:41Z</time>
      </trkpt>
      <trkpt lat="44.37843" lon="4.35819">
        <ele>227.0085449</ele>
        <time>2011-05-28T09:59:45Z</time>
      </trkpt>
      <trkpt lat="44.37832" lon="4.35813">
        <ele>227.0085449</ele>
        <time>2011-05-28T09:59:50Z</time>
      </trkpt>
      <trkpt lat="44.37818" lon="4.35814">
        <ele>226.0471191</ele>
        <time>2011-05-28T09:59:54Z</time>
      </trkpt>
      <trkpt lat="44.37809" lon="4.35824">
        <ele>223.6437988</ele>
        <time>2011-05-28T09:59:58Z</time>
      </trkpt>
      <trkpt lat="44.378" lon="4.35831">
        <ele>221.2406006</ele>
        <time>2011-05-28T10:00:04Z</time>
      </trkpt>
      <trkpt lat="44.37788" lon="4.35833">
        <ele>220.2791748</ele>
        <time>2011-05-28T10:00:08Z</time>
      </trkpt>
      <trkpt lat="44.37777" lon="4.35829">
        <ele>219.3179932</ele>
        <time>2011-05-28T10:00:12Z</time>
      </trkpt>
      <trkpt lat="44.37769" lon="4.3582">
        <ele>218.8372803</ele>
        <time>2011-05-28T10:00:16Z</time>
      </trkpt>
      <trkpt lat="44.37757" lon="4.35816">
        <ele>217.3953857</ele>
        <time>2011-05-28T10:00:20Z</time>
      </trkpt>
      <trkpt lat="44.37744" lon="4.3582">
        <ele>215.4726563</ele>
        <time>2011-05-28T10:00:23Z</time>
      </trkpt>
      <trkpt lat="44.3773" lon="4.35827">
        <ele>214.9919434</ele>
        <time>2011-05-28T10:00:26Z</time>
      </trkpt>
      <trkpt lat="44.37715" lon="4.35827">
        <ele>213.0693359</ele>
        <time>2011-05-28T10:00:29Z</time>
      </trkpt>
      <trkpt lat="44.37703" lon="4.35827">
        <ele>211.1467285</ele>
        <time>2011-05-28T10:00:32Z</time>
      </trkpt>
      <trkpt lat="44.37692" lon="4.3583">
        <ele>209.2241211</ele>
        <time>2011-05-28T10:00:35Z</time>
      </trkpt>
      <trkpt lat="44.37678" lon="4.35832">
        <ele>207.7821045</ele>
        <time>2011-05-28T10:00:38Z</time>
      </trkpt>
      <trkpt lat="44.37667" lon="4.35834">
        <ele>207.7821045</ele>
        <time>2011-05-28T10:00:41Z</time>
      </trkpt>
      <trkpt lat="44.37653" lon="4.35838">
        <ele>206.3400879</ele>
        <time>2011-05-28T10:02:10Z</time>
      </trkpt>
      <trkpt lat="44.37642" lon="4.35836">
        <ele>206.8206787</ele>
        <time>2011-05-28T10:02:13Z</time>
      </trkpt>
      <trkpt lat="44.37633" lon="4.35834">
        <ele>204.8980713</ele>
        <time>2011-05-28T10:02:15Z</time>
      </trkpt>
      <trkpt lat="44.37622" lon="4.35831">
        <ele>204.8980713</ele>
        <time>2011-05-28T10:02:17Z</time>
      </trkpt>
      <trkpt lat="44.3761" lon="4.35828">
        <ele>203.4561768</ele>
        <time>2011-05-28T10:02:19Z</time>
      </trkpt>
      <trkpt lat="44.37597" lon="4.35822">
        <ele>202.9754639</ele>
        <time>2011-05-28T10:02:21Z</time>
      </trkpt>
      <trkpt lat="44.37586" lon="4.35818">
        <ele>202.9754639</ele>
        <time>2011-05-28T10:02:23Z</time>
      </trkpt>
      <trkpt lat="44.37575" lon="4.35816">
        <ele>202.9754639</ele>
        <time>2011-05-28T10:02:25Z</time>
      </trkpt>
      <trkpt lat="44.37563" lon="4.35816">
        <ele>202.494873</ele>
        <time>2011-05-28T10:02:27Z</time>
      </trkpt>
      <trkpt lat="44.3755" lon="4.35815">
        <ele>201.0528564</ele>
        <time>2011-05-28T10:02:29Z</time>
      </trkpt>
      <trkpt lat="44.37536" lon="4.35817">
        <ele>198.1689453</ele>
        <time>2011-05-28T10:02:31Z</time>
      </trkpt>
      <trkpt lat="44.37518" lon="4.35819">
        <ele>197.2075195</ele>
        <time>2011-05-28T10:02:33Z</time>
      </trkpt>
      <trkpt lat="44.37502" lon="4.35818">
        <ele>197.2075195</ele>
        <time>2011-05-28T10:02:35Z</time>
      </trkpt>
      <trkpt lat="44.37489" lon="4.35814">
        <ele>197.6882324</ele>
        <time>2011-05-28T10:02:37Z</time>
      </trkpt>
      <trkpt lat="44.37478" lon="4.35809">
        <ele>197.6882324</ele>
        <time>2011-05-28T10:02:39Z</time>
      </trkpt>
      <trkpt lat="44.37467" lon="4.35804">
        <ele>197.2075195</ele>
        <time>2011-05-28T10:02:41Z</time>
      </trkpt>
      <trkpt lat="44.37454" lon="4.358">
        <ele>195.2849121</ele>
        <time>2011-05-28T10:02:43Z</time>
      </trkpt>
      <trkpt lat="44.37439" lon="4.35799">
        <ele>193.8430176</ele>
        <time>2011-05-28T10:02:45Z</time>
      </trkpt>
      <trkpt lat="44.37426" lon="4.35809">
        <ele>192.8817139</ele>
        <time>2011-05-28T10:02:47Z</time>
      </trkpt>
      <trkpt lat="44.37413" lon="4.35821">
        <ele>191.4395752</ele>
        <time>2011-05-28T10:02:49Z</time>
      </trkpt>
      <trkpt lat="44.37401" lon="4.35836">
        <ele>190.9589844</ele>
        <time>2011-05-28T10:02:51Z</time>
      </trkpt>
      <trkpt lat="44.37397" lon="4.35856">
        <ele>190.9589844</ele>
        <time>2011-05-28T10:02:53Z</time>
      </trkpt>
      <trkpt lat="44.37398" lon="4.35876">
        <ele>189.5169678</ele>
        <time>2011-05-28T10:02:55Z</time>
      </trkpt>
      <trkpt lat="44.37401" lon="4.35894">
        <ele>189.9976807</ele>
        <time>2011-05-28T10:02:57Z</time>
      </trkpt>
      <trkpt lat="44.37403" lon="4.35911">
        <ele>189.036377</ele>
        <time>2011-05-28T10:02:59Z</time>
      </trkpt>
      <trkpt lat="44.37408" lon="4.35926">
        <ele>189.5169678</ele>
        <time>2011-05-28T10:03:01Z</time>
      </trkpt>
      <trkpt lat="44.37414" lon="4.35939">
        <ele>190.4783936</ele>
        <time>2011-05-28T10:03:03Z</time>
      </trkpt>
      <trkpt lat="44.37419" lon="4.35949">
        <ele>189.9976807</ele>
        <time>2011-05-28T10:03:05Z</time>
      </trkpt>
      <trkpt lat="44.37428" lon="4.35963">
        <ele>191.4395752</ele>
        <time>2011-05-28T10:03:08Z</time>
      </trkpt>
      <trkpt lat="44.37433" lon="4.35981">
        <ele>191.9202881</ele>
        <time>2011-05-28T10:03:11Z</time>
      </trkpt>
      <trkpt lat="44.37434" lon="4.35995">
        <ele>191.9202881</ele>
        <time>2011-05-28T10:03:13Z</time>
      </trkpt>
      <trkpt lat="44.37433" lon="4.36009">
        <ele>191.9202881</ele>
        <time>2011-05-28T10:03:15Z</time>
      </trkpt>
      <trkpt lat="44.37432" lon="4.36024">
        <ele>191.9202881</ele>
        <time>2011-05-28T10:03:17Z</time>
      </trkpt>
      <trkpt lat="44.37433" lon="4.36038">
        <ele>191.4395752</ele>
        <time>2011-05-28T10:03:19Z</time>
      </trkpt>
      <trkpt lat="44.37435" lon="4.36052">
        <ele>191.4395752</ele>
        <time>2011-05-28T10:03:21Z</time>
      </trkpt>
      <trkpt lat="44.37439" lon="4.36065">
        <ele>191.9202881</ele>
        <time>2011-05-28T10:03:23Z</time>
      </trkpt>
      <trkpt lat="44.37445" lon="4.36078">
        <ele>191.9202881</ele>
        <time>2011-05-28T10:03:25Z</time>
      </trkpt>
      <trkpt lat="44.37452" lon="4.36089">
        <ele>191.4395752</ele>
        <time>2011-05-28T10:03:27Z</time>
      </trkpt>
      <trkpt lat="44.37459" lon="4.36099">
        <ele>190.9589844</ele>
        <time>2011-05-28T10:03:29Z</time>
      </trkpt>
      <trkpt lat="44.37467" lon="4.36109">
        <ele>191.4395752</ele>
        <time>2011-05-28T10:03:31Z</time>
      </trkpt>
      <trkpt lat="44.37473" lon="4.3612">
        <ele>190.4783936</ele>
        <time>2011-05-28T10:03:33Z</time>
      </trkpt>
      <trkpt lat="44.37477" lon="4.36134">
        <ele>190.4783936</ele>
        <time>2011-05-28T10:03:35Z</time>
      </trkpt>
      <trkpt lat="44.3748" lon="4.3615">
        <ele>189.5169678</ele>
        <time>2011-05-28T10:03:37Z</time>
      </trkpt>
      <trkpt lat="44.37485" lon="4.36164">
        <ele>190.4783936</ele>
        <time>2011-05-28T10:03:39Z</time>
      </trkpt>
      <trkpt lat="44.3749" lon="4.36178">
        <ele>189.9976807</ele>
        <time>2011-05-28T10:03:41Z</time>
      </trkpt>
      <trkpt lat="44.37496" lon="4.36191">
        <ele>189.5169678</ele>
        <time>2011-05-28T10:03:43Z</time>
      </trkpt>
      <trkpt lat="44.37503" lon="4.36203">
        <ele>189.5169678</ele>
        <time>2011-05-28T10:03:45Z</time>
      </trkpt>
      <trkpt lat="44.3751" lon="4.36213">
        <ele>189.9976807</ele>
        <time>2011-05-28T10:03:47Z</time>
      </trkpt>
      <trkpt lat="44.37516" lon="4.36223">
        <ele>189.5169678</ele>
        <time>2011-05-28T10:03:49Z</time>
      </trkpt>
      <trkpt lat="44.37523" lon="4.36233">
        <ele>189.036377</ele>
        <time>2011-05-28T10:03:51Z</time>
      </trkpt>
      <trkpt lat="44.37531" lon="4.36245">
        <ele>188.5557861</ele>
        <time>2011-05-28T10:03:53Z</time>
      </trkpt>
      <trkpt lat="44.37539" lon="4.36256">
        <ele>188.0750732</ele>
        <time>2011-05-28T10:03:55Z</time>
      </trkpt>
      <trkpt lat="44.37547" lon="4.36268">
        <ele>188.0750732</ele>
        <time>2011-05-28T10:03:57Z</time>
      </trkpt>
      <trkpt lat="44.37556" lon="4.36278">
        <ele>187.5943604</ele>
        <time>2011-05-28T10:03:59Z</time>
      </trkpt>
      <trkpt lat="44.37564" lon="4.3629">
        <ele>187.1137695</ele>
        <time>2011-05-28T10:04:01Z</time>
      </trkpt>
      <trkpt lat="44.3757" lon="4.36303">
        <ele>187.5943604</ele>
        <time>2011-05-28T10:04:03Z</time>
      </trkpt>
      <trkpt lat="44.37577" lon="4.36316">
        <ele>187.1137695</ele>
        <time>2011-05-28T10:04:05Z</time>
      </trkpt>
      <trkpt lat="44.37583" lon="4.3633">
        <ele>186.1524658</ele>
        <time>2011-05-28T10:04:07Z</time>
      </trkpt>
      <trkpt lat="44.37591" lon="4.36345">
        <ele>184.2298584</ele>
        <time>2011-05-28T10:04:09Z</time>
      </trkpt>
      <trkpt lat="44.37599" lon="4.36362">
        <ele>182.7878418</ele>
        <time>2011-05-28T10:04:11Z</time>
      </trkpt>
      <trkpt lat="44.37607" lon="4.36378">
        <ele>182.7878418</ele>
        <time>2011-05-28T10:04:13Z</time>
      </trkpt>
      <trkpt lat="44.37617" lon="4.36392">
        <ele>181.826416</ele>
        <time>2011-05-28T10:04:15Z</time>
      </trkpt>
      <trkpt lat="44.37628" lon="4.36404">
        <ele>181.3458252</ele>
        <time>2011-05-28T10:04:17Z</time>
      </trkpt>
      <trkpt lat="44.37637" lon="4.36416">
        <ele>180.3845215</ele>
        <time>2011-05-28T10:04:19Z</time>
      </trkpt>
      <trkpt lat="44.37645" lon="4.36428">
        <ele>179.9038086</ele>
        <time>2011-05-28T10:04:21Z</time>
      </trkpt>
      <trkpt lat="44.37652" lon="4.3644">
        <ele>179.9038086</ele>
        <time>2011-05-28T10:04:23Z</time>
      </trkpt>
      <trkpt lat="44.37659" lon="4.36452">
        <ele>179.4232178</ele>
        <time>2011-05-28T10:04:25Z</time>
      </trkpt>
      <trkpt lat="44.37667" lon="4.36465">
        <ele>178.942627</ele>
        <time>2011-05-28T10:04:27Z</time>
      </trkpt>
      <trkpt lat="44.37674" lon="4.3648">
        <ele>178.4619141</ele>
        <time>2011-05-28T10:04:29Z</time>
      </trkpt>
      <trkpt lat="44.3768" lon="4.36495">
        <ele>178.4619141</ele>
        <time>2011-05-28T10:04:31Z</time>
      </trkpt>
      <trkpt lat="44.37688" lon="4.36508">
        <ele>177.5006104</ele>
        <time>2011-05-28T10:04:33Z</time>
      </trkpt>
      <trkpt lat="44.37695" lon="4.3652">
        <ele>177.0200195</ele>
        <time>2011-05-28T10:04:35Z</time>
      </trkpt>
      <trkpt lat="44.37696" lon="4.36534">
        <ele>177.0200195</ele>
        <time>2011-05-28T10:04:37Z</time>
      </trkpt>
      <trkpt lat="44.37696" lon="4.3655">
        <ele>176.5393066</ele>
        <time>2011-05-28T10:04:39Z</time>
      </trkpt>
      <trkpt lat="44.37697" lon="4.36566">
        <ele>175.09729</ele>
        <time>2011-05-28T10:04:41Z</time>
      </trkpt>
      <trkpt lat="44.37699" lon="4.36581">
        <ele>173.1746826</ele>
        <time>2011-05-28T10:04:43Z</time>
      </trkpt>
      <trkpt lat="44.37693" lon="4.36604">
        <ele>172.2132568</ele>
        <time>2011-05-28T10:04:45Z</time>
      </trkpt>
      <trkpt lat="44.37687" lon="4.36626">
        <ele>171.732666</ele>
        <time>2011-05-28T10:04:47Z</time>
      </trkpt>
      <trkpt lat="44.37682" lon="4.36647">
        <ele>171.2520752</ele>
        <time>2011-05-28T10:04:49Z</time>
      </trkpt>
      <trkpt lat="44.37678" lon="4.36668">
        <ele>171.2520752</ele>
        <time>2011-05-28T10:04:51Z</time>
      </trkpt>
      <trkpt lat="44.37676" lon="4.3669">
        <ele>170.7713623</ele>
        <time>2011-05-28T10:04:53Z</time>
      </trkpt>
      <trkpt lat="44.37673" lon="4.36709">
        <ele>170.2906494</ele>
        <time>2011-05-28T10:04:55Z</time>
      </trkpt>
      <trkpt lat="44.37672" lon="4.36726">
        <ele>170.7713623</ele>
        <time>2011-05-28T10:04:57Z</time>
      </trkpt>
      <trkpt lat="44.3767" lon="4.36743">
        <ele>170.7713623</ele>
        <time>2011-05-28T10:04:59Z</time>
      </trkpt>
      <trkpt lat="44.37666" lon="4.3676">
        <ele>170.2906494</ele>
        <time>2011-05-28T10:05:01Z</time>
      </trkpt>
      <trkpt lat="44.37662" lon="4.36776">
        <ele>170.7713623</ele>
        <time>2011-05-28T10:05:03Z</time>
      </trkpt>
      <trkpt lat="44.37658" lon="4.36791">
        <ele>171.2520752</ele>
        <time>2011-05-28T10:05:05Z</time>
      </trkpt>
      <trkpt lat="44.37657" lon="4.36807">
        <ele>170.7713623</ele>
        <time>2011-05-28T10:05:07Z</time>
      </trkpt>
      <trkpt lat="44.37659" lon="4.36824">
        <ele>170.2906494</ele>
        <time>2011-05-28T10:05:09Z</time>
      </trkpt>
      <trkpt lat="44.37662" lon="4.36844">
        <ele>170.2906494</ele>
        <time>2011-05-28T10:05:11Z</time>
      </trkpt>
      <trkpt lat="44.37669" lon="4.36863">
        <ele>169.3294678</ele>
        <time>2011-05-28T10:05:13Z</time>
      </trkpt>
      <trkpt lat="44.37677" lon="4.36883">
        <ele>168.8487549</ele>
        <time>2011-05-28T10:05:15Z</time>
      </trkpt>
      <trkpt lat="44.37684" lon="4.36902">
        <ele>167.8873291</ele>
        <time>2011-05-28T10:05:17Z</time>
      </trkpt>
      <trkpt lat="44.3769" lon="4.36922">
        <ele>167.8873291</ele>
        <time>2011-05-28T10:05:19Z</time>
      </trkpt>
      <trkpt lat="44.37692" lon="4.36942">
        <ele>166.4453125</ele>
        <time>2011-05-28T10:05:21Z</time>
      </trkpt>
      <trkpt lat="44.37693" lon="4.3696">
        <ele>166.4453125</ele>
        <time>2011-05-28T10:05:23Z</time>
      </trkpt>
      <trkpt lat="44.37691" lon="4.36978">
        <ele>165.9647217</ele>
        <time>2011-05-28T10:05:25Z</time>
      </trkpt>
      <trkpt lat="44.3769" lon="4.36995">
        <ele>166.4453125</ele>
        <time>2011-05-28T10:05:27Z</time>
      </trkpt>
      <trkpt lat="44.37691" lon="4.37012">
        <ele>166.9260254</ele>
        <time>2011-05-28T10:05:29Z</time>
      </trkpt>
      <trkpt lat="44.37698" lon="4.37023">
        <ele>166.4453125</ele>
        <time>2011-05-28T10:05:31Z</time>
      </trkpt>
      <trkpt lat="44.37706" lon="4.37031">
        <ele>166.9260254</ele>
        <time>2011-05-28T10:05:33Z</time>
      </trkpt>
      <trkpt lat="44.37716" lon="4.37037">
        <ele>167.8873291</ele>
        <time>2011-05-28T10:05:36Z</time>
      </trkpt>
      <trkpt lat="44.37721" lon="4.37048">
        <ele>167.8873291</ele>
        <time>2011-05-28T10:05:41Z</time>
      </trkpt>
      <trkpt lat="44.37714" lon="4.37057">
        <ele>167.4067383</ele>
        <time>2011-05-28T10:05:45Z</time>
      </trkpt>
      <trkpt lat="44.37706" lon="4.37066">
        <ele>166.9260254</ele>
        <time>2011-05-28T10:05:48Z</time>
      </trkpt>
      <trkpt lat="44.37697" lon="4.37073">
        <ele>167.4067383</ele>
        <time>2011-05-28T10:05:51Z</time>
      </trkpt>
      <trkpt lat="44.37688" lon="4.37079">
        <ele>167.4067383</ele>
        <time>2011-05-28T10:05:54Z</time>
      </trkpt>
      <trkpt lat="44.3768" lon="4.37086">
        <ele>166.9260254</ele>
        <time>2011-05-28T10:05:57Z</time>
      </trkpt>
      <trkpt lat="44.37671" lon="4.37093">
        <ele>166.4453125</ele>
        <time>2011-05-28T10:06:01Z</time>
      </trkpt>
      <trkpt lat="44.37663" lon="4.37088">
        <ele>166.4453125</ele>
        <time>2011-05-28T10:06:15Z</time>
      </trkpt>
      <trkpt lat="44.3766" lon="4.37094">
        <ele>164.0421143</ele>
        <time>2011-05-28T10:06:37Z</time>
      </trkpt>
      <trkpt lat="44.37668" lon="4.37113">
        <ele>163.0808105</ele>
        <time>2011-05-28T10:06:47Z</time>
      </trkpt>
      <trkpt lat="44.37676" lon="4.37127">
        <ele>161.638916</ele>
        <time>2011-05-28T10:08:17Z</time>
      </trkpt>
      <trkpt lat="44.37687" lon="4.37128">
        <ele>162.1195068</ele>
        <time>2011-05-28T10:08:28Z</time>
      </trkpt>
      <trkpt lat="44.37692" lon="4.37139">
        <ele>165.003418</ele>
        <time>2011-05-28T10:09:00Z</time>
      </trkpt>
      <trkpt lat="44.37693" lon="4.37152">
        <ele>166.9260254</ele>
        <time>2011-05-28T10:09:15Z</time>
      </trkpt>
      <trkpt lat="44.37689" lon="4.37163">
        <ele>168.8487549</ele>
        <time>2011-05-28T10:09:47Z</time>
      </trkpt>
      <trkpt lat="44.37687" lon="4.37176">
        <ele>168.8487549</ele>
        <time>2011-05-28T10:09:58Z</time>
      </trkpt>
      <trkpt lat="44.37688" lon="4.3719">
        <ele>170.2906494</ele>
        <time>2011-05-28T10:13:23Z</time>
      </trkpt>
      <trkpt lat="44.37687" lon="4.37202">
        <ele>170.7713623</ele>
        <time>2011-05-28T10:13:29Z</time>
      </trkpt>
      <trkpt lat="44.37684" lon="4.37216">
        <ele>171.732666</ele>
        <time>2011-05-28T10:13:35Z</time>
      </trkpt>
      <trkpt lat="44.37681" lon="4.3723">
        <ele>173.1746826</ele>
        <time>2011-05-28T10:13:41Z</time>
      </trkpt>
      <trkpt lat="44.37677" lon="4.37242">
        <ele>173.1746826</ele>
        <time>2011-05-28T10:13:46Z</time>
      </trkpt>
      <trkpt lat="44.3767" lon="4.37254">
        <ele>173.1746826</ele>
        <time>2011-05-28T10:13:51Z</time>
      </trkpt>
      <trkpt lat="44.37663" lon="4.37266">
        <ele>173.1746826</ele>
        <time>2011-05-28T10:13:56Z</time>
      </trkpt>
      <trkpt lat="44.37657" lon="4.37276">
        <ele>173.1746826</ele>
        <time>2011-05-28T10:14:00Z</time>
      </trkpt>
      <trkpt lat="44.3765" lon="4.37285">
        <ele>173.6552734</ele>
        <time>2011-05-28T10:14:04Z</time>
      </trkpt>
      <trkpt lat="44.37644" lon="4.37294">
        <ele>173.6552734</ele>
        <time>2011-05-28T10:14:08Z</time>
      </trkpt>
      <trkpt lat="44.37636" lon="4.37305">
        <ele>175.5778809</ele>
        <time>2011-05-28T10:14:13Z</time>
      </trkpt>
      <trkpt lat="44.37628" lon="4.37315">
        <ele>174.6165771</ele>
        <time>2011-05-28T10:14:18Z</time>
      </trkpt>
      <trkpt lat="44.37622" lon="4.37325">
        <ele>176.5393066</ele>
        <time>2011-05-28T10:14:23Z</time>
      </trkpt>
      <trkpt lat="44.37616" lon="4.37336">
        <ele>176.5393066</ele>
        <time>2011-05-28T10:14:28Z</time>
      </trkpt>
      <trkpt lat="44.37611" lon="4.37347">
        <ele>178.942627</ele>
        <time>2011-05-28T10:14:33Z</time>
      </trkpt>
      <trkpt lat="44.37605" lon="4.37359">
        <ele>179.4232178</ele>
        <time>2011-05-28T10:14:39Z</time>
      </trkpt>
      <trkpt lat="44.376" lon="4.37372">
        <ele>180.8652344</ele>
        <time>2011-05-28T10:14:45Z</time>
      </trkpt>
      <trkpt lat="44.37599" lon="4.37386">
        <ele>181.3458252</ele>
        <time>2011-05-28T10:14:50Z</time>
      </trkpt>
      <trkpt lat="44.37602" lon="4.37401">
        <ele>183.7490234</ele>
        <time>2011-05-28T10:14:55Z</time>
      </trkpt>
      <trkpt lat="44.37602" lon="4.37414">
        <ele>185.1911621</ele>
        <time>2011-05-28T10:14:59Z</time>
      </trkpt>
      <trkpt lat="44.37598" lon="4.37427">
        <ele>185.6717529</ele>
        <time>2011-05-28T10:15:04Z</time>
      </trkpt>
      <trkpt lat="44.37592" lon="4.37438">
        <ele>186.6331787</ele>
        <time>2011-05-28T10:15:09Z</time>
      </trkpt>
      <trkpt lat="44.37585" lon="4.37449">
        <ele>187.5943604</ele>
        <time>2011-05-28T10:15:15Z</time>
      </trkpt>
      <trkpt lat="44.37576" lon="4.37453">
        <ele>189.5169678</ele>
        <time>2011-05-28T10:15:20Z</time>
      </trkpt>
      <trkpt lat="44.37566" lon="4.37453">
        <ele>189.9976807</ele>
        <time>2011-05-28T10:15:25Z</time>
      </trkpt>
      <trkpt lat="44.37555" lon="4.37451">
        <ele>190.4783936</ele>
        <time>2011-05-28T10:15:30Z</time>
      </trkpt>
      <trkpt lat="44.37545" lon="4.37449">
        <ele>191.4395752</ele>
        <time>2011-05-28T10:15:34Z</time>
      </trkpt>
      <trkpt lat="44.37536" lon="4.37447">
        <ele>192.8817139</ele>
        <time>2011-05-28T10:15:38Z</time>
      </trkpt>
      <trkpt lat="44.37527" lon="4.37443">
        <ele>191.9202881</ele>
        <time>2011-05-28T10:15:43Z</time>
      </trkpt>
      <trkpt lat="44.37519" lon="4.37439">
        <ele>191.9202881</ele>
        <time>2011-05-28T10:15:49Z</time>
      </trkpt>
      <trkpt lat="44.3751" lon="4.37434">
        <ele>191.9202881</ele>
        <time>2011-05-28T10:15:58Z</time>
      </trkpt>
      <trkpt lat="44.37502" lon="4.37427">
        <ele>190.9589844</ele>
        <time>2011-05-28T10:17:50Z</time>
      </trkpt>
      <trkpt lat="44.37493" lon="4.37425">
        <ele>191.9202881</ele>
        <time>2011-05-28T10:21:04Z</time>
      </trkpt>
      <trkpt lat="44.37486" lon="4.37441">
        <ele>190.4783936</ele>
        <time>2011-05-28T10:21:08Z</time>
      </trkpt>
      <trkpt lat="44.37478" lon="4.37455">
        <ele>190.9589844</ele>
        <time>2011-05-28T10:21:11Z</time>
      </trkpt>
      <trkpt lat="44.37471" lon="4.37467">
        <ele>192.401123</ele>
        <time>2011-05-28T10:21:16Z</time>
      </trkpt>
      <trkpt lat="44.37465" lon="4.37479">
        <ele>192.8817139</ele>
        <time>2011-05-28T10:21:23Z</time>
      </trkpt>
      <trkpt lat="44.37459" lon="4.37491">
        <ele>194.3237305</ele>
        <time>2011-05-28T10:21:31Z</time>
      </trkpt>
      <trkpt lat="44.37453" lon="4.37508">
        <ele>196.2463379</ele>
        <time>2011-05-28T10:22:09Z</time>
      </trkpt>
      <trkpt lat="44.37446" lon="4.37519">
        <ele>197.6882324</ele>
        <time>2011-05-28T10:22:20Z</time>
      </trkpt>
      <trkpt lat="44.3744" lon="4.37531">
        <ele>200.0916748</ele>
        <time>2011-05-28T10:22:33Z</time>
      </trkpt>
      <trkpt lat="44.37433" lon="4.37543">
        <ele>201.0528564</ele>
        <time>2011-05-28T10:22:44Z</time>
      </trkpt>
      <trkpt lat="44.37427" lon="4.37555">
        <ele>202.494873</ele>
        <time>2011-05-28T10:22:54Z</time>
      </trkpt>
      <trkpt lat="44.37419" lon="4.37562">
        <ele>203.4561768</ele>
        <time>2011-05-28T10:23:03Z</time>
      </trkpt>
      <trkpt lat="44.37411" lon="4.37571">
        <ele>204.4174805</ele>
        <time>2011-05-28T10:23:12Z</time>
      </trkpt>
      <trkpt lat="44.37402" lon="4.37578">
        <ele>206.3400879</ele>
        <time>2011-05-28T10:23:21Z</time>
      </trkpt>
      <trkpt lat="44.37393" lon="4.37583">
        <ele>207.3013916</ele>
        <time>2011-05-28T10:23:30Z</time>
      </trkpt>
      <trkpt lat="44.37385" lon="4.37589">
        <ele>207.7821045</ele>
        <time>2011-05-28T10:23:39Z</time>
      </trkpt>
      <trkpt lat="44.37377" lon="4.37597">
        <ele>208.2628174</ele>
        <time>2011-05-28T10:23:46Z</time>
      </trkpt>
      <trkpt lat="44.3737" lon="4.37606">
        <ele>208.2628174</ele>
        <time>2011-05-28T10:23:51Z</time>
      </trkpt>
      <trkpt lat="44.37364" lon="4.37617">
        <ele>208.2628174</ele>
        <time>2011-05-28T10:23:55Z</time>
      </trkpt>
      <trkpt lat="44.37359" lon="4.37629">
        <ele>208.2628174</ele>
        <time>2011-05-28T10:23:58Z</time>
      </trkpt>
      <trkpt lat="44.37354" lon="4.37641">
        <ele>208.2628174</ele>
        <time>2011-05-28T10:24:01Z</time>
      </trkpt>
      <trkpt lat="44.37348" lon="4.37652">
        <ele>208.2628174</ele>
        <time>2011-05-28T10:24:04Z</time>
      </trkpt>
      <trkpt lat="44.37341" lon="4.37661">
        <ele>207.3013916</ele>
        <time>2011-05-28T10:24:07Z</time>
      </trkpt>
      <trkpt lat="44.37333" lon="4.37671">
        <ele>207.7821045</ele>
        <time>2011-05-28T10:24:10Z</time>
      </trkpt>
      <trkpt lat="44.37325" lon="4.37681">
        <ele>206.3400879</ele>
        <time>2011-05-28T10:24:13Z</time>
      </trkpt>
      <trkpt lat="44.37316" lon="4.37691">
        <ele>205.8594971</ele>
        <time>2011-05-28T10:24:16Z</time>
      </trkpt>
      <trkpt lat="44.37307" lon="4.37702">
        <ele>206.3400879</ele>
        <time>2011-05-28T10:24:19Z</time>
      </trkpt>
      <trkpt lat="44.37298" lon="4.37713">
        <ele>205.3787842</ele>
        <time>2011-05-28T10:24:22Z</time>
      </trkpt>
      <trkpt lat="44.3729" lon="4.37725">
        <ele>204.4174805</ele>
        <time>2011-05-28T10:24:25Z</time>
      </trkpt>
      <trkpt lat="44.37283" lon="4.37738">
        <ele>204.8980713</ele>
        <time>2011-05-28T10:24:28Z</time>
      </trkpt>
      <trkpt lat="44.37274" lon="4.37752">
        <ele>204.4174805</ele>
        <time>2011-05-28T10:24:31Z</time>
      </trkpt>
      <trkpt lat="44.37265" lon="4.37766">
        <ele>204.4174805</ele>
        <time>2011-05-28T10:24:34Z</time>
      </trkpt>
      <trkpt lat="44.37259" lon="4.37781">
        <ele>204.8980713</ele>
        <time>2011-05-28T10:24:37Z</time>
      </trkpt>
      <trkpt lat="44.37255" lon="4.37792">
        <ele>205.8594971</ele>
        <time>2011-05-28T10:24:40Z</time>
      </trkpt>
      <trkpt lat="44.37246" lon="4.37785">
        <ele>206.3400879</ele>
        <time>2011-05-28T10:24:44Z</time>
      </trkpt>
      <trkpt lat="44.37238" lon="4.37777">
        <ele>206.3400879</ele>
        <time>2011-05-28T10:24:47Z</time>
      </trkpt>
      <trkpt lat="44.37232" lon="4.37765">
        <ele>205.8594971</ele>
        <time>2011-05-28T10:24:50Z</time>
      </trkpt>
      <trkpt lat="44.37225" lon="4.37754">
        <ele>205.3787842</ele>
        <time>2011-05-28T10:24:53Z</time>
      </trkpt>
      <trkpt lat="44.3722" lon="4.37741">
        <ele>204.8980713</ele>
        <time>2011-05-28T10:24:56Z</time>
      </trkpt>
      <trkpt lat="44.37216" lon="4.37728">
        <ele>203.9368896</ele>
        <time>2011-05-28T10:24:59Z</time>
      </trkpt>
      <trkpt lat="44.37208" lon="4.3772">
        <ele>203.9368896</ele>
        <time>2011-05-28T10:25:02Z</time>
      </trkpt>
      <trkpt lat="44.37197" lon="4.37719">
        <ele>203.4561768</ele>
        <time>2011-05-28T10:25:05Z</time>
      </trkpt>
      <trkpt lat="44.37185" lon="4.37719">
        <ele>203.4561768</ele>
        <time>2011-05-28T10:25:08Z</time>
      </trkpt>
      <trkpt lat="44.37173" lon="4.37721">
        <ele>204.4174805</ele>
        <time>2011-05-28T10:25:11Z</time>
      </trkpt>
      <trkpt lat="44.37162" lon="4.37726">
        <ele>204.4174805</ele>
        <time>2011-05-28T10:25:14Z</time>
      </trkpt>
      <trkpt lat="44.37154" lon="4.37736">
        <ele>206.3400879</ele>
        <time>2011-05-28T10:25:18Z</time>
      </trkpt>
      <trkpt lat="44.37146" lon="4.37743">
        <ele>207.3013916</ele>
        <time>2011-05-28T10:25:23Z</time>
      </trkpt>
      <trkpt lat="44.37137" lon="4.37748">
        <ele>208.2628174</ele>
        <time>2011-05-28T10:25:29Z</time>
      </trkpt>
      <trkpt lat="44.37127" lon="4.37746">
        <ele>208.2628174</ele>
        <time>2011-05-28T10:25:34Z</time>
      </trkpt>
      <trkpt lat="44.37117" lon="4.37744">
        <ele>209.2241211</ele>
        <time>2011-05-28T10:25:40Z</time>
      </trkpt>
      <trkpt lat="44.37106" lon="4.37741">
        <ele>209.704834</ele>
        <time>2011-05-28T10:25:46Z</time>
      </trkpt>
      <trkpt lat="44.37097" lon="4.37737">
        <ele>210.1854248</ele>
        <time>2011-05-28T10:25:52Z</time>
      </trkpt>
      <trkpt lat="44.37086" lon="4.37734">
        <ele>209.704834</ele>
        <time>2011-05-28T10:25:57Z</time>
      </trkpt>
      <trkpt lat="44.37076" lon="4.3773">
        <ele>210.1854248</ele>
        <time>2011-05-28T10:26:02Z</time>
      </trkpt>
      <trkpt lat="44.37065" lon="4.37725">
        <ele>210.1854248</ele>
        <time>2011-05-28T10:26:07Z</time>
      </trkpt>
      <trkpt lat="44.37057" lon="4.37721">
        <ele>210.1854248</ele>
        <time>2011-05-28T10:26:11Z</time>
      </trkpt>
      <trkpt lat="44.37048" lon="4.37716">
        <ele>210.6660156</ele>
        <time>2011-05-28T10:26:16Z</time>
      </trkpt>
      <trkpt lat="44.37038" lon="4.37712">
        <ele>211.1467285</ele>
        <time>2011-05-28T10:26:21Z</time>
      </trkpt>
      <trkpt lat="44.37029" lon="4.37707">
        <ele>212.1080322</ele>
        <time>2011-05-28T10:26:26Z</time>
      </trkpt>
      <trkpt lat="44.3702" lon="4.37704">
        <ele>212.1080322</ele>
        <time>2011-05-28T10:26:31Z</time>
      </trkpt>
      <trkpt lat="44.37011" lon="4.37699">
        <ele>212.1080322</ele>
        <time>2011-05-28T10:26:36Z</time>
      </trkpt>
      <trkpt lat="44.37001" lon="4.37697">
        <ele>213.0693359</ele>
        <time>2011-05-28T10:26:41Z</time>
      </trkpt>
      <trkpt lat="44.36991" lon="4.37698">
        <ele>213.5500488</ele>
        <time>2011-05-28T10:26:47Z</time>
      </trkpt>
      <trkpt lat="44.36982" lon="4.37697">
        <ele>214.0306396</ele>
        <time>2011-05-28T10:26:53Z</time>
      </trkpt>
      <trkpt lat="44.36972" lon="4.37693">
        <ele>216.43396</ele>
        <time>2011-05-28T10:26:59Z</time>
      </trkpt>
      <trkpt lat="44.36962" lon="4.37689">
        <ele>217.3953857</ele>
        <time>2011-05-28T10:27:05Z</time>
      </trkpt>
      <trkpt lat="44.36953" lon="4.37688">
        <ele>218.8372803</ele>
        <time>2011-05-28T10:27:11Z</time>
      </trkpt>
      <trkpt lat="44.36943" lon="4.37685">
        <ele>219.3179932</ele>
        <time>2011-05-28T10:27:17Z</time>
      </trkpt>
      <trkpt lat="44.36933" lon="4.37683">
        <ele>220.7598877</ele>
        <time>2011-05-28T10:27:23Z</time>
      </trkpt>
      <trkpt lat="44.36923" lon="4.37683">
        <ele>222.2017822</ele>
        <time>2011-05-28T10:27:29Z</time>
      </trkpt>
      <trkpt lat="44.36914" lon="4.37685">
        <ele>225.0859375</ele>
        <time>2011-05-28T10:27:35Z</time>
      </trkpt>
      <trkpt lat="44.36904" lon="4.37686">
        <ele>225.0859375</ele>
        <time>2011-05-28T10:27:41Z</time>
      </trkpt>
      <trkpt lat="44.36894" lon="4.37689">
        <ele>226.527832</ele>
        <time>2011-05-28T10:27:47Z</time>
      </trkpt>
      <trkpt lat="44.36885" lon="4.37695">
        <ele>226.527832</ele>
        <time>2011-05-28T10:27:53Z</time>
      </trkpt>
      <trkpt lat="44.36877" lon="4.377">
        <ele>226.527832</ele>
        <time>2011-05-28T10:27:58Z</time>
      </trkpt>
      <trkpt lat="44.36867" lon="4.37705">
        <ele>228.4504395</ele>
        <time>2011-05-28T10:28:04Z</time>
      </trkpt>
      <trkpt lat="44.36858" lon="4.37709">
        <ele>228.4504395</ele>
        <time>2011-05-28T10:28:10Z</time>
      </trkpt>
      <trkpt lat="44.36848" lon="4.37713">
        <ele>229.4117432</ele>
        <time>2011-05-28T10:28:16Z</time>
      </trkpt>
      <trkpt lat="44.36838" lon="4.37718">
        <ele>229.892334</ele>
        <time>2011-05-28T10:28:22Z</time>
      </trkpt>
      <trkpt lat="44.36829" lon="4.37722">
        <ele>230.3730469</ele>
        <time>2011-05-28T10:28:27Z</time>
      </trkpt>
      <trkpt lat="44.36824" lon="4.37721">
        <ele>222.68</ele>
        <time>2011-05-28T10:31:00Z</time>
      </trkpt>
      <trkpt lat="44.36821" lon="4.37709">
        <ele>221.72</ele>
        <time>2011-05-28T10:31:07Z</time>
      </trkpt>
      <trkpt lat="44.36823" lon="4.37694">
        <ele>220.76</ele>
        <time>2011-05-28T10:31:13Z</time>
      </trkpt>
      <trkpt lat="44.36822" lon="4.37682">
        <ele>220.28</ele>
        <time>2011-05-28T10:31:20Z</time>
      </trkpt>
      <trkpt lat="44.36821" lon="4.37669">
        <ele>219.32</ele>
        <time>2011-05-28T10:31:27Z</time>
      </trkpt>
      <trkpt lat="44.36815" lon="4.37653">
        <ele>218.36</ele>
        <time>2011-05-28T10:31:35Z</time>
      </trkpt>
      <trkpt lat="44.36813" lon="4.37637">
        <ele>217.4</ele>
        <time>2011-05-28T10:31:41Z</time>
      </trkpt>
      <trkpt lat="44.36815" lon="4.37618">
        <ele>216.43</ele>
        <time>2011-05-28T10:31:51Z</time>
      </trkpt>
      <trkpt lat="44.36815" lon="4.37599">
        <ele>214.99</ele>
        <time>2011-05-28T10:31:59Z</time>
      </trkpt>
      <trkpt lat="44.36801" lon="4.3757">
        <ele>213.07</ele>
        <time>2011-05-28T10:36:28Z</time>
      </trkpt>
      <trkpt lat="44.36791" lon="4.37566">
        <ele>212.11</ele>
        <time>2011-05-28T10:36:33Z</time>
      </trkpt>
      <trkpt lat="44.36785" lon="4.3757">
        <ele>210.67</ele>
        <time>2011-05-28T10:36:41Z</time>
      </trkpt>
      <trkpt lat="44.36778" lon="4.37583">
        <ele>209.22</ele>
        <time>2011-05-28T10:36:50Z</time>
      </trkpt>
      <trkpt lat="44.36772" lon="4.37594">
        <ele>208.74</ele>
        <time>2011-05-28T10:36:56Z</time>
      </trkpt>
      <trkpt lat="44.36772" lon="4.37612">
        <ele>209.7</ele>
        <time>2011-05-28T10:37:02Z</time>
      </trkpt>
      <trkpt lat="44.36773" lon="4.37627">
        <ele>210.19</ele>
        <time>2011-05-28T10:37:07Z</time>
      </trkpt>
      <trkpt lat="44.36773" lon="4.37643">
        <ele>210.67</ele>
        <time>2011-05-28T10:37:12Z</time>
      </trkpt>
      <trkpt lat="44.36774" lon="4.37658">
        <ele>210.67</ele>
        <time>2011-05-28T10:37:17Z</time>
      </trkpt>
      <trkpt lat="44.36774" lon="4.37673">
        <ele>211.15</ele>
        <time>2011-05-28T10:37:22Z</time>
      </trkpt>
      <trkpt lat="44.36773" lon="4.37688">
        <ele>211.63</ele>
        <time>2011-05-28T10:37:27Z</time>
      </trkpt>
      <trkpt lat="44.36774" lon="4.37703">
        <ele>212.11</ele>
        <time>2011-05-28T10:37:32Z</time>
      </trkpt>
      <trkpt lat="44.36769" lon="4.37717">
        <ele>212.59</ele>
        <time>2011-05-28T10:37:36Z</time>
      </trkpt>
      <trkpt lat="44.36763" lon="4.37732">
        <ele>212.59</ele>
        <time>2011-05-28T10:37:39Z</time>
      </trkpt>
      <trkpt lat="44.36758" lon="4.37743">
        <ele>213.07</ele>
        <time>2011-05-28T10:37:42Z</time>
      </trkpt>
      <trkpt lat="44.36751" lon="4.37754">
        <ele>213.07</ele>
        <time>2011-05-28T10:37:45Z</time>
      </trkpt>
      <trkpt lat="44.36742" lon="4.37765">
        <ele>213.55</ele>
        <time>2011-05-28T10:37:49Z</time>
      </trkpt>
      <trkpt lat="44.36733" lon="4.37776">
        <ele>213.55</ele>
        <time>2011-05-28T10:37:53Z</time>
      </trkpt>
      <trkpt lat="44.36724" lon="4.37787">
        <ele>214.03</ele>
        <time>2011-05-28T10:37:57Z</time>
      </trkpt>
      <trkpt lat="44.36715" lon="4.37796">
        <ele>214.03</ele>
        <time>2011-05-28T10:38:01Z</time>
      </trkpt>
      <trkpt lat="44.36706" lon="4.37804">
        <ele>214.99</ele>
        <time>2011-05-28T10:38:05Z</time>
      </trkpt>
      <trkpt lat="44.36698" lon="4.37811">
        <ele>215.47</ele>
        <time>2011-05-28T10:38:09Z</time>
      </trkpt>
      <trkpt lat="44.36703" lon="4.37823">
        <ele>215.47</ele>
        <time>2011-05-28T10:38:15Z</time>
      </trkpt>
      <trkpt lat="44.36713" lon="4.37825">
        <ele>222.6824951</ele>
        <time>2011-05-28T10:29:49Z</time>
      </trkpt>
      <trkpt lat="44.3672" lon="4.3782">
        <ele>223.6437988</ele>
        <time>2011-05-28T10:35:33Z</time>
      </trkpt>
      <trkpt lat="44.36721" lon="4.37822">
        <ele>223.163208</ele>
        <time>2011-05-28T10:38:07Z</time>
      </trkpt>
      <trkpt lat="44.36718" lon="4.37833">
        <ele>224.6052246</ele>
        <time>2011-05-28T10:38:47Z</time>
      </trkpt>
      <trkpt lat="44.36711" lon="4.37843">
        <ele>225.0859375</ele>
        <time>2011-05-28T10:38:54Z</time>
      </trkpt>
      <trkpt lat="44.36705" lon="4.37853">
        <ele>226.0471191</ele>
        <time>2011-05-28T10:39:00Z</time>
      </trkpt>
      <trkpt lat="44.36701" lon="4.37865">
        <ele>228.4504395</ele>
        <time>2011-05-28T10:39:06Z</time>
      </trkpt>
      <trkpt lat="44.36702" lon="4.3788">
        <ele>228.9311523</ele>
        <time>2011-05-28T10:39:12Z</time>
      </trkpt>
      <trkpt lat="44.36703" lon="4.37895">
        <ele>228.9311523</ele>
        <time>2011-05-28T10:39:18Z</time>
      </trkpt>
      <trkpt lat="44.36704" lon="4.37908">
        <ele>228.9311523</ele>
        <time>2011-05-28T10:39:23Z</time>
      </trkpt>
      <trkpt lat="44.36706" lon="4.37923">
        <ele>229.4117432</ele>
        <time>2011-05-28T10:39:28Z</time>
      </trkpt>
      <trkpt lat="44.36705" lon="4.37938">
        <ele>231.3343506</ele>
        <time>2011-05-28T10:39:33Z</time>
      </trkpt>
      <trkpt lat="44.36706" lon="4.37952">
        <ele>232.2957764</ele>
        <time>2011-05-28T10:39:38Z</time>
      </trkpt>
      <trkpt lat="44.36707" lon="4.37967">
        <ele>232.7764893</ele>
        <time>2011-05-28T10:39:43Z</time>
      </trkpt>
      <trkpt lat="44.36708" lon="4.3798">
        <ele>233.2570801</ele>
        <time>2011-05-28T10:39:48Z</time>
      </trkpt>
      <trkpt lat="44.36708" lon="4.37994">
        <ele>233.7376709</ele>
        <time>2011-05-28T10:39:53Z</time>
      </trkpt>
      <trkpt lat="44.36706" lon="4.38006">
        <ele>233.7376709</ele>
        <time>2011-05-28T10:39:58Z</time>
      </trkpt>
      <trkpt lat="44.36705" lon="4.3802">
        <ele>233.7376709</ele>
        <time>2011-05-28T10:40:03Z</time>
      </trkpt>
      <trkpt lat="44.36705" lon="4.38033">
        <ele>234.2183838</ele>
        <time>2011-05-28T10:40:08Z</time>
      </trkpt>
      <trkpt lat="44.36705" lon="4.38047">
        <ele>235.6602783</ele>
        <time>2011-05-28T10:40:13Z</time>
      </trkpt>
      <trkpt lat="44.36705" lon="4.38061">
        <ele>235.1796875</ele>
        <time>2011-05-28T10:40:18Z</time>
      </trkpt>
      <trkpt lat="44.36711" lon="4.38073">
        <ele>236.6217041</ele>
        <time>2011-05-28T10:40:23Z</time>
      </trkpt>
      <trkpt lat="44.36714" lon="4.38085">
        <ele>238.0635986</ele>
        <time>2011-05-28T10:40:27Z</time>
      </trkpt>
      <trkpt lat="44.36717" lon="4.38097">
        <ele>238.0635986</ele>
        <time>2011-05-28T10:40:31Z</time>
      </trkpt>
      <trkpt lat="44.36722" lon="4.38108">
        <ele>238.5443115</ele>
        <time>2011-05-28T10:40:35Z</time>
      </trkpt>
      <trkpt lat="44.36725" lon="4.3812">
        <ele>239.0249023</ele>
        <time>2011-05-28T10:40:39Z</time>
      </trkpt>
      <trkpt lat="44.3673" lon="4.38132">
        <ele>239.5054932</ele>
        <time>2011-05-28T10:40:43Z</time>
      </trkpt>
      <trkpt lat="44.36735" lon="4.38143">
        <ele>239.5054932</ele>
        <time>2011-05-28T10:40:47Z</time>
      </trkpt>
      <trkpt lat="44.36738" lon="4.38158">
        <ele>240.9476318</ele>
        <time>2011-05-28T10:40:52Z</time>
      </trkpt>
      <trkpt lat="44.36745" lon="4.38167">
        <ele>241.4282227</ele>
        <time>2011-05-28T10:40:56Z</time>
      </trkpt>
      <trkpt lat="44.36753" lon="4.38174">
        <ele>240.467041</ele>
        <time>2011-05-28T10:41:00Z</time>
      </trkpt>
      <trkpt lat="44.36759" lon="4.38183">
        <ele>241.4282227</ele>
        <time>2011-05-28T10:41:04Z</time>
      </trkpt>
      <trkpt lat="44.36767" lon="4.3819">
        <ele>242.8702393</ele>
        <time>2011-05-28T10:41:08Z</time>
      </trkpt>
      <trkpt lat="44.36776" lon="4.38195">
        <ele>242.8702393</ele>
        <time>2011-05-28T10:41:12Z</time>
      </trkpt>
      <trkpt lat="44.36786" lon="4.382">
        <ele>241.4282227</ele>
        <time>2011-05-28T10:41:17Z</time>
      </trkpt>
      <trkpt lat="44.36795" lon="4.38205">
        <ele>242.3896484</ele>
        <time>2011-05-28T10:41:21Z</time>
      </trkpt>
      <trkpt lat="44.36804" lon="4.38211">
        <ele>241.9089355</ele>
        <time>2011-05-28T10:41:25Z</time>
      </trkpt>
      <trkpt lat="44.36814" lon="4.38216">
        <ele>242.3896484</ele>
        <time>2011-05-28T10:41:31Z</time>
      </trkpt>
      <trkpt lat="44.36823" lon="4.38222">
        <ele>242.8702393</ele>
        <time>2011-05-28T10:41:38Z</time>
      </trkpt>
      <trkpt lat="44.36831" lon="4.38227">
        <ele>242.8702393</ele>
        <time>2011-05-28T10:41:43Z</time>
      </trkpt>
      <trkpt lat="44.36841" lon="4.38229">
        <ele>242.3896484</ele>
        <time>2011-05-28T10:41:48Z</time>
      </trkpt>
      <trkpt lat="44.3685" lon="4.38226">
        <ele>242.8702393</ele>
        <time>2011-05-28T10:41:53Z</time>
      </trkpt>
      <trkpt lat="44.36861" lon="4.38221">
        <ele>242.8702393</ele>
        <time>2011-05-28T10:41:58Z</time>
      </trkpt>
      <trkpt lat="44.36872" lon="4.38214">
        <ele>241.9089355</ele>
        <time>2011-05-28T10:42:04Z</time>
      </trkpt>
      <trkpt lat="44.36881" lon="4.38204">
        <ele>241.4282227</ele>
        <time>2011-05-28T10:42:09Z</time>
      </trkpt>
      <trkpt lat="44.3689" lon="4.38193">
        <ele>242.3896484</ele>
        <time>2011-05-28T10:42:13Z</time>
      </trkpt>
      <trkpt lat="44.36898" lon="4.38184">
        <ele>241.9089355</ele>
        <time>2011-05-28T10:42:17Z</time>
      </trkpt>
      <trkpt lat="44.36906" lon="4.38173">
        <ele>242.3896484</ele>
        <time>2011-05-28T10:42:22Z</time>
      </trkpt>
      <trkpt lat="44.36914" lon="4.3816">
        <ele>241.9089355</ele>
        <time>2011-05-28T10:42:27Z</time>
      </trkpt>
      <trkpt lat="44.36917" lon="4.38144">
        <ele>242.3896484</ele>
        <time>2011-05-28T10:42:31Z</time>
      </trkpt>
      <trkpt lat="44.36919" lon="4.38128">
        <ele>241.9089355</ele>
        <time>2011-05-28T10:42:35Z</time>
      </trkpt>
      <trkpt lat="44.36923" lon="4.38113">
        <ele>242.3896484</ele>
        <time>2011-05-28T10:42:39Z</time>
      </trkpt>
      <trkpt lat="44.3693" lon="4.381">
        <ele>242.3896484</ele>
        <time>2011-05-28T10:42:43Z</time>
      </trkpt>
      <trkpt lat="44.3694" lon="4.38097">
        <ele>243.3508301</ele>
        <time>2011-05-28T10:42:48Z</time>
      </trkpt>
      <trkpt lat="44.3695" lon="4.38097">
        <ele>244.3122559</ele>
        <time>2011-05-28T10:42:52Z</time>
      </trkpt>
      <trkpt lat="44.36961" lon="4.38097">
        <ele>244.3122559</ele>
        <time>2011-05-28T10:42:56Z</time>
      </trkpt>
      <trkpt lat="44.36973" lon="4.38094">
        <ele>244.7928467</ele>
        <time>2011-05-28T10:43:00Z</time>
      </trkpt>
      <trkpt lat="44.36986" lon="4.3809">
        <ele>243.831543</ele>
        <time>2011-05-28T10:43:04Z</time>
      </trkpt>
      <trkpt lat="44.36997" lon="4.38088">
        <ele>243.3508301</ele>
        <time>2011-05-28T10:43:07Z</time>
      </trkpt>
      <trkpt lat="44.37007" lon="4.38087">
        <ele>242.3896484</ele>
        <time>2011-05-28T10:43:10Z</time>
      </trkpt>
      <trkpt lat="44.37017" lon="4.38085">
        <ele>242.3896484</ele>
        <time>2011-05-28T10:43:13Z</time>
      </trkpt>
      <trkpt lat="44.37027" lon="4.38084">
        <ele>242.3896484</ele>
        <time>2011-05-28T10:43:16Z</time>
      </trkpt>
      <trkpt lat="44.37039" lon="4.38082">
        <ele>242.3896484</ele>
        <time>2011-05-28T10:43:19Z</time>
      </trkpt>
      <trkpt lat="44.37052" lon="4.3808">
        <ele>241.9089355</ele>
        <time>2011-05-28T10:43:22Z</time>
      </trkpt>
      <trkpt lat="44.37062" lon="4.38078">
        <ele>240.9476318</ele>
        <time>2011-05-28T10:43:24Z</time>
      </trkpt>
      <trkpt lat="44.37074" lon="4.38076">
        <ele>239.5054932</ele>
        <time>2011-05-28T10:43:27Z</time>
      </trkpt>
      <trkpt lat="44.37081" lon="4.38083">
        <ele>239.9862061</ele>
        <time>2011-05-28T10:43:30Z</time>
      </trkpt>
      <trkpt lat="44.37081" lon="4.38097">
        <ele>240.9476318</ele>
        <time>2011-05-28T10:43:35Z</time>
      </trkpt>
      <trkpt lat="44.37081" lon="4.38111">
        <ele>241.9089355</ele>
        <time>2011-05-28T10:43:40Z</time>
      </trkpt>
      <trkpt lat="44.37081" lon="4.38124">
        <ele>242.8702393</ele>
        <time>2011-05-28T10:43:46Z</time>
      </trkpt>
      <trkpt lat="44.37082" lon="4.38137">
        <ele>243.3508301</ele>
        <time>2011-05-28T10:43:52Z</time>
      </trkpt>
      <trkpt lat="44.3708" lon="4.3815">
        <ele>244.7928467</ele>
        <time>2011-05-28T10:43:58Z</time>
      </trkpt>
      <trkpt lat="44.37076" lon="4.38163">
        <ele>246.2348633</ele>
        <time>2011-05-28T10:44:04Z</time>
      </trkpt>
      <trkpt lat="44.37073" lon="4.38176">
        <ele>246.7154541</ele>
        <time>2011-05-28T10:44:10Z</time>
      </trkpt>
      <trkpt lat="44.3707" lon="4.38189">
        <ele>247.1960449</ele>
        <time>2011-05-28T10:44:15Z</time>
      </trkpt>
      <trkpt lat="44.37067" lon="4.38201">
        <ele>247.6767578</ele>
        <time>2011-05-28T10:44:20Z</time>
      </trkpt>
      <trkpt lat="44.37063" lon="4.38213">
        <ele>248.1575928</ele>
        <time>2011-05-28T10:44:25Z</time>
      </trkpt>
      <trkpt lat="44.37056" lon="4.38223">
        <ele>248.6381836</ele>
        <time>2011-05-28T10:44:30Z</time>
      </trkpt>
      <trkpt lat="44.37049" lon="4.38233">
        <ele>248.6381836</ele>
        <time>2011-05-28T10:44:35Z</time>
      </trkpt>
      <trkpt lat="44.37042" lon="4.38243">
        <ele>249.5994873</ele>
        <time>2011-05-28T10:44:40Z</time>
      </trkpt>
      <trkpt lat="44.37035" lon="4.38254">
        <ele>249.1187744</ele>
        <time>2011-05-28T10:44:45Z</time>
      </trkpt>
      <trkpt lat="44.37029" lon="4.38267">
        <ele>250.0802002</ele>
        <time>2011-05-28T10:44:50Z</time>
      </trkpt>
      <trkpt lat="44.37025" lon="4.38281">
        <ele>249.5994873</ele>
        <time>2011-05-28T10:44:55Z</time>
      </trkpt>
      <trkpt lat="44.37019" lon="4.38293">
        <ele>250.0802002</ele>
        <time>2011-05-28T10:44:59Z</time>
      </trkpt>
      <trkpt lat="44.37013" lon="4.38306">
        <ele>250.560791</ele>
        <time>2011-05-28T10:45:03Z</time>
      </trkpt>
      <trkpt lat="44.37008" lon="4.38319">
        <ele>250.0802002</ele>
        <time>2011-05-28T10:45:07Z</time>
      </trkpt>
      <trkpt lat="44.37003" lon="4.38332">
        <ele>250.560791</ele>
        <time>2011-05-28T10:45:11Z</time>
      </trkpt>
      <trkpt lat="44.36998" lon="4.38344">
        <ele>251.0413818</ele>
        <time>2011-05-28T10:45:15Z</time>
      </trkpt>
      <trkpt lat="44.36995" lon="4.38356">
        <ele>252.0028076</ele>
        <time>2011-05-28T10:45:19Z</time>
      </trkpt>
      <trkpt lat="44.3699" lon="4.38368">
        <ele>252.4833984</ele>
        <time>2011-05-28T10:45:23Z</time>
      </trkpt>
      <trkpt lat="44.36985" lon="4.38382">
        <ele>252.9639893</ele>
        <time>2011-05-28T10:45:28Z</time>
      </trkpt>
      <trkpt lat="44.36981" lon="4.38395">
        <ele>253.4447021</ele>
        <time>2011-05-28T10:45:32Z</time>
      </trkpt>
      <trkpt lat="44.36978" lon="4.38406">
        <ele>253.925415</ele>
        <time>2011-05-28T10:45:36Z</time>
      </trkpt>
      <trkpt lat="44.36973" lon="4.38422">
        <ele>254.8865967</ele>
        <time>2011-05-28T10:45:41Z</time>
      </trkpt>
      <trkpt lat="44.36967" lon="4.38433">
        <ele>254.8865967</ele>
        <time>2011-05-28T10:45:45Z</time>
      </trkpt>
      <trkpt lat="44.3696" lon="4.38445">
        <ele>254.4060059</ele>
        <time>2011-05-28T10:45:49Z</time>
      </trkpt>
      <trkpt lat="44.36952" lon="4.38456">
        <ele>252.9639893</ele>
        <time>2011-05-28T10:45:53Z</time>
      </trkpt>
      <trkpt lat="44.36943" lon="4.38466">
        <ele>252.9639893</ele>
        <time>2011-05-28T10:45:57Z</time>
      </trkpt>
      <trkpt lat="44.36933" lon="4.38474">
        <ele>252.4833984</ele>
        <time>2011-05-28T10:46:01Z</time>
      </trkpt>
      <trkpt lat="44.36927" lon="4.38485">
        <ele>251.5220947</ele>
        <time>2011-05-28T10:46:04Z</time>
      </trkpt>
      <trkpt lat="44.36919" lon="4.38495">
        <ele>250.560791</ele>
        <time>2011-05-28T10:46:07Z</time>
      </trkpt>
      <trkpt lat="44.36912" lon="4.38507">
        <ele>250.0802002</ele>
        <time>2011-05-28T10:46:10Z</time>
      </trkpt>
      <trkpt lat="44.36906" lon="4.38516">
        <ele>249.1187744</ele>
        <time>2011-05-28T10:46:14Z</time>
      </trkpt>
      <trkpt lat="44.36896" lon="4.38514">
        <ele>249.1187744</ele>
        <time>2011-05-28T10:46:19Z</time>
      </trkpt>
      <trkpt lat="44.36888" lon="4.38506">
        <ele>248.1575928</ele>
        <time>2011-05-28T10:46:22Z</time>
      </trkpt>
      <trkpt lat="44.36877" lon="4.38496">
        <ele>246.7154541</ele>
        <time>2011-05-28T10:46:25Z</time>
      </trkpt>
      <trkpt lat="44.36868" lon="4.38489">
        <ele>245.7541504</ele>
        <time>2011-05-28T10:46:27Z</time>
      </trkpt>
      <trkpt lat="44.36858" lon="4.38484">
        <ele>244.7928467</ele>
        <time>2011-05-28T10:46:29Z</time>
      </trkpt>
      <trkpt lat="44.36849" lon="4.3848">
        <ele>242.3896484</ele>
        <time>2011-05-28T10:46:31Z</time>
      </trkpt>
      <trkpt lat="44.36839" lon="4.38475">
        <ele>240.9476318</ele>
        <time>2011-05-28T10:46:33Z</time>
      </trkpt>
      <trkpt lat="44.36827" lon="4.3847">
        <ele>239.9862061</ele>
        <time>2011-05-28T10:46:35Z</time>
      </trkpt>
      <trkpt lat="44.36813" lon="4.38465">
        <ele>238.5443115</ele>
        <time>2011-05-28T10:46:37Z</time>
      </trkpt>
      <trkpt lat="44.36798" lon="4.38461">
        <ele>236.6217041</ele>
        <time>2011-05-28T10:46:39Z</time>
      </trkpt>
      <trkpt lat="44.36782" lon="4.38455">
        <ele>235.6602783</ele>
        <time>2011-05-28T10:46:41Z</time>
      </trkpt>
      <trkpt lat="44.36767" lon="4.3845">
        <ele>234.2183838</ele>
        <time>2011-05-28T10:46:43Z</time>
      </trkpt>
      <trkpt lat="44.36752" lon="4.38446">
        <ele>233.2570801</ele>
        <time>2011-05-28T10:46:45Z</time>
      </trkpt>
      <trkpt lat="44.36741" lon="4.38442">
        <ele>231.8149414</ele>
        <time>2011-05-28T10:46:47Z</time>
      </trkpt>
      <trkpt lat="44.36731" lon="4.38437">
        <ele>229.892334</ele>
        <time>2011-05-28T10:46:49Z</time>
      </trkpt>
      <trkpt lat="44.36718" lon="4.38435">
        <ele>228.9311523</ele>
        <time>2011-05-28T10:46:52Z</time>
      </trkpt>
      <trkpt lat="44.3671" lon="4.38439">
        <ele>226.0471191</ele>
        <time>2011-05-28T10:46:54Z</time>
      </trkpt>
      <trkpt lat="44.367" lon="4.38445">
        <ele>225.0859375</ele>
        <time>2011-05-28T10:46:56Z</time>
      </trkpt>
      <trkpt lat="44.3669" lon="4.3845">
        <ele>224.1245117</ele>
        <time>2011-05-28T10:46:58Z</time>
      </trkpt>
      <trkpt lat="44.3668" lon="4.38451">
        <ele>222.2017822</ele>
        <time>2011-05-28T10:47:00Z</time>
      </trkpt>
      <trkpt lat="44.36671" lon="4.3845">
        <ele>221.7211914</ele>
        <time>2011-05-28T10:47:02Z</time>
      </trkpt>
      <trkpt lat="44.36659" lon="4.38449">
        <ele>220.7598877</ele>
        <time>2011-05-28T10:47:05Z</time>
      </trkpt>
      <trkpt lat="44.36649" lon="4.38447">
        <ele>219.798584</ele>
        <time>2011-05-28T10:47:08Z</time>
      </trkpt>
      <trkpt lat="44.3664" lon="4.38446">
        <ele>219.3179932</ele>
        <time>2011-05-28T10:47:11Z</time>
      </trkpt>
      <trkpt lat="44.36631" lon="4.38445">
        <ele>217.3953857</ele>
        <time>2011-05-28T10:47:14Z</time>
      </trkpt>
      <trkpt lat="44.36621" lon="4.38445">
        <ele>216.43396</ele>
        <time>2011-05-28T10:47:17Z</time>
      </trkpt>
      <trkpt lat="44.3661" lon="4.38445">
        <ele>215.4726563</ele>
        <time>2011-05-28T10:47:21Z</time>
      </trkpt>
      <trkpt lat="44.36601" lon="4.38449">
        <ele>214.0306396</ele>
        <time>2011-05-28T10:47:26Z</time>
      </trkpt>
      <trkpt lat="44.36592" lon="4.38461">
        <ele>213.0693359</ele>
        <time>2011-05-28T10:47:31Z</time>
      </trkpt>
      <trkpt lat="44.36585" lon="4.38475">
        <ele>212.1080322</ele>
        <time>2011-05-28T10:47:34Z</time>
      </trkpt>
      <trkpt lat="44.36579" lon="4.38489">
        <ele>212.1080322</ele>
        <time>2011-05-28T10:47:37Z</time>
      </trkpt>
      <trkpt lat="44.3657" lon="4.38502">
        <ele>212.1080322</ele>
        <time>2011-05-28T10:47:40Z</time>
      </trkpt>
      <trkpt lat="44.36562" lon="4.38513">
        <ele>212.1080322</ele>
        <time>2011-05-28T10:47:43Z</time>
      </trkpt>
      <trkpt lat="44.36556" lon="4.38522">
        <ele>211.6274414</ele>
        <time>2011-05-28T10:47:46Z</time>
      </trkpt>
      <trkpt lat="44.36548" lon="4.38531">
        <ele>212.1080322</ele>
        <time>2011-05-28T10:47:53Z</time>
      </trkpt>
      <trkpt lat="44.36538" lon="4.38533">
        <ele>213.5500488</ele>
        <time>2011-05-28T10:48:58Z</time>
      </trkpt>
      <trkpt lat="44.36528" lon="4.38536">
        <ele>214.5112305</ele>
        <time>2011-05-28T10:49:04Z</time>
      </trkpt>
      <trkpt lat="44.36518" lon="4.38539">
        <ele>214.5112305</ele>
        <time>2011-05-28T10:49:09Z</time>
      </trkpt>
      <trkpt lat="44.36509" lon="4.38543">
        <ele>215.4726563</ele>
        <time>2011-05-28T10:49:14Z</time>
      </trkpt>
      <trkpt lat="44.36499" lon="4.38547">
        <ele>216.43396</ele>
        <time>2011-05-28T10:49:19Z</time>
      </trkpt>
      <trkpt lat="44.36489" lon="4.38552">
        <ele>217.3953857</ele>
        <time>2011-05-28T10:49:24Z</time>
      </trkpt>
      <trkpt lat="44.36479" lon="4.38557">
        <ele>217.8759766</ele>
        <time>2011-05-28T10:49:29Z</time>
      </trkpt>
      <trkpt lat="44.36469" lon="4.38562">
        <ele>217.8759766</ele>
        <time>2011-05-28T10:49:34Z</time>
      </trkpt>
      <trkpt lat="44.3646" lon="4.38565">
        <ele>218.3565674</ele>
        <time>2011-05-28T10:49:38Z</time>
      </trkpt>
      <trkpt lat="44.3645" lon="4.38566">
        <ele>218.8372803</ele>
        <time>2011-05-28T10:49:42Z</time>
      </trkpt>
      <trkpt lat="44.36439" lon="4.38566">
        <ele>218.8372803</ele>
        <time>2011-05-28T10:49:46Z</time>
      </trkpt>
      <trkpt lat="44.36427" lon="4.38564">
        <ele>218.8372803</ele>
        <time>2011-05-28T10:49:50Z</time>
      </trkpt>
      <trkpt lat="44.36415" lon="4.38564">
        <ele>218.8372803</ele>
        <time>2011-05-28T10:49:54Z</time>
      </trkpt>
      <trkpt lat="44.36404" lon="4.38567">
        <ele>219.798584</ele>
        <time>2011-05-28T10:49:58Z</time>
      </trkpt>
      <trkpt lat="44.36394" lon="4.38571">
        <ele>219.798584</ele>
        <time>2011-05-28T10:50:01Z</time>
      </trkpt>
      <trkpt lat="44.36385" lon="4.38574">
        <ele>219.798584</ele>
        <time>2011-05-28T10:50:04Z</time>
      </trkpt>
      <trkpt lat="44.36375" lon="4.38577">
        <ele>219.798584</ele>
        <time>2011-05-28T10:50:08Z</time>
      </trkpt>
      <trkpt lat="44.36365" lon="4.38581">
        <ele>220.7598877</ele>
        <time>2011-05-28T10:50:13Z</time>
      </trkpt>
      <trkpt lat="44.36356" lon="4.38585">
        <ele>222.2017822</ele>
        <time>2011-05-28T10:50:19Z</time>
      </trkpt>
      <trkpt lat="44.36347" lon="4.38587">
        <ele>223.6437988</ele>
        <time>2011-05-28T10:50:25Z</time>
      </trkpt>
      <trkpt lat="44.36337" lon="4.38587">
        <ele>224.1245117</ele>
        <time>2011-05-28T10:50:31Z</time>
      </trkpt>
      <trkpt lat="44.36329" lon="4.38581">
        <ele>225.5665283</ele>
        <time>2011-05-28T10:50:40Z</time>
      </trkpt>
      <trkpt lat="44.36324" lon="4.3857">
        <ele>226.0471191</ele>
        <time>2011-05-28T10:50:46Z</time>
      </trkpt>
      <trkpt lat="44.36318" lon="4.38558">
        <ele>226.0471191</ele>
        <time>2011-05-28T10:50:53Z</time>
      </trkpt>
      <trkpt lat="44.36311" lon="4.38549">
        <ele>227.4891357</ele>
        <time>2011-05-28T10:51:00Z</time>
      </trkpt>
      <trkpt lat="44.36303" lon="4.38542">
        <ele>227.4891357</ele>
        <time>2011-05-28T10:51:06Z</time>
      </trkpt>
      <trkpt lat="44.36293" lon="4.38536">
        <ele>228.9311523</ele>
        <time>2011-05-28T10:51:13Z</time>
      </trkpt>
      <trkpt lat="44.36284" lon="4.3853">
        <ele>228.9311523</ele>
        <time>2011-05-28T10:51:20Z</time>
      </trkpt>
      <trkpt lat="44.36275" lon="4.38524">
        <ele>229.892334</ele>
        <time>2011-05-28T10:51:27Z</time>
      </trkpt>
      <trkpt lat="44.36267" lon="4.38519">
        <ele>230.3730469</ele>
        <time>2011-05-28T10:51:33Z</time>
      </trkpt>
      <trkpt lat="44.36257" lon="4.38515">
        <ele>231.3343506</ele>
        <time>2011-05-28T10:51:39Z</time>
      </trkpt>
      <trkpt lat="44.36248" lon="4.38512">
        <ele>231.3343506</ele>
        <time>2011-05-28T10:51:45Z</time>
      </trkpt>
      <trkpt lat="44.36238" lon="4.38511">
        <ele>232.7764893</ele>
        <time>2011-05-28T10:51:52Z</time>
      </trkpt>
      <trkpt lat="44.36228" lon="4.3851">
        <ele>234.2183838</ele>
        <time>2011-05-28T10:51:59Z</time>
      </trkpt>
      <trkpt lat="44.36218" lon="4.38512">
        <ele>234.6990967</ele>
        <time>2011-05-28T10:52:06Z</time>
      </trkpt>
      <trkpt lat="44.36207" lon="4.38514">
        <ele>236.6217041</ele>
        <time>2011-05-28T10:52:12Z</time>
      </trkpt>
      <trkpt lat="44.36197" lon="4.38515">
        <ele>236.1409912</ele>
        <time>2011-05-28T10:52:18Z</time>
      </trkpt>
      <trkpt lat="44.36186" lon="4.38516">
        <ele>236.6217041</ele>
        <time>2011-05-28T10:52:24Z</time>
      </trkpt>
      <trkpt lat="44.36176" lon="4.38516">
        <ele>237.1022949</ele>
        <time>2011-05-28T10:52:29Z</time>
      </trkpt>
      <trkpt lat="44.36166" lon="4.38515">
        <ele>237.5828857</ele>
        <time>2011-05-28T10:52:34Z</time>
      </trkpt>
      <trkpt lat="44.36156" lon="4.38515">
        <ele>238.0635986</ele>
        <time>2011-05-28T10:52:39Z</time>
      </trkpt>
      <trkpt lat="44.36144" lon="4.38515">
        <ele>237.5828857</ele>
        <time>2011-05-28T10:52:44Z</time>
      </trkpt>
      <trkpt lat="44.36135" lon="4.38516">
        <ele>238.0635986</ele>
        <time>2011-05-28T10:52:48Z</time>
      </trkpt>
      <trkpt lat="44.36125" lon="4.38517">
        <ele>238.0635986</ele>
        <time>2011-05-28T10:52:52Z</time>
      </trkpt>
      <trkpt lat="44.36115" lon="4.38516">
        <ele>239.0249023</ele>
        <time>2011-05-28T10:52:57Z</time>
      </trkpt>
      <trkpt lat="44.36104" lon="4.38516">
        <ele>238.5443115</ele>
        <time>2011-05-28T10:53:02Z</time>
      </trkpt>
      <trkpt lat="44.36095" lon="4.38516">
        <ele>238.5443115</ele>
        <time>2011-05-28T10:53:07Z</time>
      </trkpt>
      <trkpt lat="44.36084" lon="4.38514">
        <ele>240.467041</ele>
        <time>2011-05-28T10:53:12Z</time>
      </trkpt>
      <trkpt lat="44.36075" lon="4.38513">
        <ele>240.467041</ele>
        <time>2011-05-28T10:53:16Z</time>
      </trkpt>
      <trkpt lat="44.36064" lon="4.38511">
        <ele>240.9476318</ele>
        <time>2011-05-28T10:53:21Z</time>
      </trkpt>
      <trkpt lat="44.36055" lon="4.38508">
        <ele>240.9476318</ele>
        <time>2011-05-28T10:53:26Z</time>
      </trkpt>
      <trkpt lat="44.36046" lon="4.38499">
        <ele>241.9089355</ele>
        <time>2011-05-28T10:53:32Z</time>
      </trkpt>
      <trkpt lat="44.36039" lon="4.38491">
        <ele>242.3896484</ele>
        <time>2011-05-28T10:53:38Z</time>
      </trkpt>
      <trkpt lat="44.3603" lon="4.38486">
        <ele>243.3508301</ele>
        <time>2011-05-28T10:53:44Z</time>
      </trkpt>
      <trkpt lat="44.36021" lon="4.38483">
        <ele>243.831543</ele>
        <time>2011-05-28T10:53:49Z</time>
      </trkpt>
      <trkpt lat="44.36011" lon="4.38485">
        <ele>244.3122559</ele>
        <time>2011-05-28T10:53:54Z</time>
      </trkpt>
      <trkpt lat="44.36004" lon="4.38494">
        <ele>246.2348633</ele>
        <time>2011-05-28T10:53:59Z</time>
      </trkpt>
      <trkpt lat="44.35999" lon="4.38507">
        <ele>247.1960449</ele>
        <time>2011-05-28T10:54:05Z</time>
      </trkpt>
      <trkpt lat="44.35996" lon="4.38521">
        <ele>247.6767578</ele>
        <time>2011-05-28T10:54:10Z</time>
      </trkpt>
      <trkpt lat="44.35996" lon="4.38535">
        <ele>247.6767578</ele>
        <time>2011-05-28T10:54:15Z</time>
      </trkpt>
      <trkpt lat="44.36" lon="4.3855">
        <ele>247.6767578</ele>
        <time>2011-05-28T10:54:20Z</time>
      </trkpt>
      <trkpt lat="44.36005" lon="4.38562">
        <ele>248.6381836</ele>
        <time>2011-05-28T10:54:24Z</time>
      </trkpt>
      <trkpt lat="44.3601" lon="4.38574">
        <ele>248.6381836</ele>
        <time>2011-05-28T10:54:28Z</time>
      </trkpt>
      <trkpt lat="44.36014" lon="4.38586">
        <ele>249.1187744</ele>
        <time>2011-05-28T10:54:32Z</time>
      </trkpt>
      <trkpt lat="44.36017" lon="4.38601">
        <ele>249.1187744</ele>
        <time>2011-05-28T10:54:37Z</time>
      </trkpt>
      <trkpt lat="44.36018" lon="4.38616">
        <ele>250.560791</ele>
        <time>2011-05-28T10:54:42Z</time>
      </trkpt>
      <trkpt lat="44.36017" lon="4.3863">
        <ele>251.5220947</ele>
        <time>2011-05-28T10:54:47Z</time>
      </trkpt>
      <trkpt lat="44.36016" lon="4.38643">
        <ele>252.9639893</ele>
        <time>2011-05-28T10:54:52Z</time>
      </trkpt>
      <trkpt lat="44.36014" lon="4.38658">
        <ele>253.4447021</ele>
        <time>2011-05-28T10:54:58Z</time>
      </trkpt>
      <trkpt lat="44.36012" lon="4.38671">
        <ele>253.925415</ele>
        <time>2011-05-28T10:55:03Z</time>
      </trkpt>
      <trkpt lat="44.36008" lon="4.38686">
        <ele>253.925415</ele>
        <time>2011-05-28T10:55:08Z</time>
      </trkpt>
      <trkpt lat="44.36004" lon="4.38698">
        <ele>254.4060059</ele>
        <time>2011-05-28T10:55:12Z</time>
      </trkpt>
      <trkpt lat="44.36" lon="4.38712">
        <ele>256.3287354</ele>
        <time>2011-05-28T10:55:16Z</time>
      </trkpt>
      <trkpt lat="44.35996" lon="4.38726">
        <ele>255.8480225</ele>
        <time>2011-05-28T10:55:20Z</time>
      </trkpt>
      <trkpt lat="44.35992" lon="4.38743">
        <ele>255.8480225</ele>
        <time>2011-05-28T10:55:24Z</time>
      </trkpt>
      <trkpt lat="44.3599" lon="4.38755">
        <ele>255.8480225</ele>
        <time>2011-05-28T10:55:27Z</time>
      </trkpt>
      <trkpt lat="44.35989" lon="4.38768">
        <ele>255.8480225</ele>
        <time>2011-05-28T10:55:30Z</time>
      </trkpt>
      <trkpt lat="44.35988" lon="4.38783">
        <ele>255.3673096</ele>
        <time>2011-05-28T10:55:33Z</time>
      </trkpt>
      <trkpt lat="44.35988" lon="4.38794">
        <ele>255.3673096</ele>
        <time>2011-05-28T10:55:35Z</time>
      </trkpt>
      <trkpt lat="44.35995" lon="4.38818">
        <ele>255.3673096</ele>
        <time>2011-05-28T10:55:39Z</time>
      </trkpt>
      <trkpt lat="44.36004" lon="4.38828">
        <ele>251.0413818</ele>
        <time>2011-05-28T10:55:41Z</time>
      </trkpt>
      <trkpt lat="44.36013" lon="4.38837">
        <ele>251.0413818</ele>
        <time>2011-05-28T10:55:43Z</time>
      </trkpt>
      <trkpt lat="44.36023" lon="4.38846">
        <ele>251.0413818</ele>
        <time>2011-05-28T10:55:45Z</time>
      </trkpt>
      <trkpt lat="44.3603" lon="4.38858">
        <ele>250.0802002</ele>
        <time>2011-05-28T10:55:47Z</time>
      </trkpt>
      <trkpt lat="44.36031" lon="4.38885">
        <ele>250.0802002</ele>
        <time>2011-05-28T10:55:50Z</time>
      </trkpt>
      <trkpt lat="44.36032" lon="4.38905">
        <ele>247.1960449</ele>
        <time>2011-05-28T10:55:52Z</time>
      </trkpt>
      <trkpt lat="44.36031" lon="4.38927">
        <ele>245.2734375</ele>
        <time>2011-05-28T10:55:54Z</time>
      </trkpt>
      <trkpt lat="44.3603" lon="4.3895">
        <ele>243.831543</ele>
        <time>2011-05-28T10:55:56Z</time>
      </trkpt>
      <trkpt lat="44.36025" lon="4.38973">
        <ele>243.3508301</ele>
        <time>2011-05-28T10:55:58Z</time>
      </trkpt>
      <trkpt lat="44.36017" lon="4.38994">
        <ele>242.3896484</ele>
        <time>2011-05-28T10:56:00Z</time>
      </trkpt>
      <trkpt lat="44.36011" lon="4.39013">
        <ele>242.3896484</ele>
        <time>2011-05-28T10:56:02Z</time>
      </trkpt>
      <trkpt lat="44.36005" lon="4.3903">
        <ele>241.9089355</ele>
        <time>2011-05-28T10:56:04Z</time>
      </trkpt>
      <trkpt lat="44.36001" lon="4.39048">
        <ele>241.4282227</ele>
        <time>2011-05-28T10:56:06Z</time>
      </trkpt>
      <trkpt lat="44.35996" lon="4.39067">
        <ele>240.467041</ele>
        <time>2011-05-28T10:56:08Z</time>
      </trkpt>
      <trkpt lat="44.35992" lon="4.39087">
        <ele>239.5054932</ele>
        <time>2011-05-28T10:56:10Z</time>
      </trkpt>
      <trkpt lat="44.35992" lon="4.3911">
        <ele>238.5443115</ele>
        <time>2011-05-28T10:56:12Z</time>
      </trkpt>
      <trkpt lat="44.35993" lon="4.39131">
        <ele>238.0635986</ele>
        <time>2011-05-28T10:56:14Z</time>
      </trkpt>
      <trkpt lat="44.35994" lon="4.39148">
        <ele>236.1409912</ele>
        <time>2011-05-28T10:56:16Z</time>
      </trkpt>
      <trkpt lat="44.3599" lon="4.39163">
        <ele>233.7376709</ele>
        <time>2011-05-28T10:56:19Z</time>
      </trkpt>
      <trkpt lat="44.35979" lon="4.39173">
        <ele>233.7376709</ele>
        <time>2011-05-28T10:56:22Z</time>
      </trkpt>
      <trkpt lat="44.35967" lon="4.39179">
        <ele>234.6990967</ele>
        <time>2011-05-28T10:56:25Z</time>
      </trkpt>
      <trkpt lat="44.35954" lon="4.39179">
        <ele>234.6990967</ele>
        <time>2011-05-28T10:56:28Z</time>
      </trkpt>
      <trkpt lat="44.35941" lon="4.3918">
        <ele>235.6602783</ele>
        <time>2011-05-28T10:56:31Z</time>
      </trkpt>
      <trkpt lat="44.35929" lon="4.39187">
        <ele>235.1796875</ele>
        <time>2011-05-28T10:56:34Z</time>
      </trkpt>
      <trkpt lat="44.35922" lon="4.39196">
        <ele>236.1409912</ele>
        <time>2011-05-28T10:56:36Z</time>
      </trkpt>
      <trkpt lat="44.35916" lon="4.39205">
        <ele>237.1022949</ele>
        <time>2011-05-28T10:56:38Z</time>
      </trkpt>
      <trkpt lat="44.35908" lon="4.3922">
        <ele>237.5828857</ele>
        <time>2011-05-28T10:56:41Z</time>
      </trkpt>
      <trkpt lat="44.35904" lon="4.39236">
        <ele>238.0635986</ele>
        <time>2011-05-28T10:56:44Z</time>
      </trkpt>
      <trkpt lat="44.35903" lon="4.39249">
        <ele>237.1022949</ele>
        <time>2011-05-28T10:56:46Z</time>
      </trkpt>
      <trkpt lat="44.35903" lon="4.39264">
        <ele>236.6217041</ele>
        <time>2011-05-28T10:56:48Z</time>
      </trkpt>
      <trkpt lat="44.35902" lon="4.39282">
        <ele>235.1796875</ele>
        <time>2011-05-28T10:56:50Z</time>
      </trkpt>
      <trkpt lat="44.35897" lon="4.39299">
        <ele>234.6990967</ele>
        <time>2011-05-28T10:56:52Z</time>
      </trkpt>
      <trkpt lat="44.35891" lon="4.39318">
        <ele>233.2570801</ele>
        <time>2011-05-28T10:56:54Z</time>
      </trkpt>
      <trkpt lat="44.35884" lon="4.39337">
        <ele>232.7764893</ele>
        <time>2011-05-28T10:56:56Z</time>
      </trkpt>
      <trkpt lat="44.35877" lon="4.39356">
        <ele>231.8149414</ele>
        <time>2011-05-28T10:56:58Z</time>
      </trkpt>
      <trkpt lat="44.35869" lon="4.39376">
        <ele>231.8149414</ele>
        <time>2011-05-28T10:57:00Z</time>
      </trkpt>
      <trkpt lat="44.35859" lon="4.39392">
        <ele>231.3343506</ele>
        <time>2011-05-28T10:57:02Z</time>
      </trkpt>
      <trkpt lat="44.35846" lon="4.39403">
        <ele>231.3343506</ele>
        <time>2011-05-28T10:57:04Z</time>
      </trkpt>
      <trkpt lat="44.35834" lon="4.39412">
        <ele>230.8537598</ele>
        <time>2011-05-28T10:57:06Z</time>
      </trkpt>
      <trkpt lat="44.35823" lon="4.3942">
        <ele>231.3343506</ele>
        <time>2011-05-28T10:57:08Z</time>
      </trkpt>
      <trkpt lat="44.35814" lon="4.39429">
        <ele>231.3343506</ele>
        <time>2011-05-28T10:57:10Z</time>
      </trkpt>
      <trkpt lat="44.35805" lon="4.39438">
        <ele>231.8149414</ele>
        <time>2011-05-28T10:57:12Z</time>
      </trkpt>
      <trkpt lat="44.35795" lon="4.39447">
        <ele>232.2957764</ele>
        <time>2011-05-28T10:57:14Z</time>
      </trkpt>
      <trkpt lat="44.35786" lon="4.39457">
        <ele>232.2957764</ele>
        <time>2011-05-28T10:57:16Z</time>
      </trkpt>
      <trkpt lat="44.35777" lon="4.39467">
        <ele>232.2957764</ele>
        <time>2011-05-28T10:57:18Z</time>
      </trkpt>
      <trkpt lat="44.35768" lon="4.39477">
        <ele>232.2957764</ele>
        <time>2011-05-28T10:57:20Z</time>
      </trkpt>
      <trkpt lat="44.35758" lon="4.39487">
        <ele>232.2957764</ele>
        <time>2011-05-28T10:57:22Z</time>
      </trkpt>
      <trkpt lat="44.35749" lon="4.39498">
        <ele>231.8149414</ele>
        <time>2011-05-28T10:57:24Z</time>
      </trkpt>
      <trkpt lat="44.35739" lon="4.39509">
        <ele>231.8149414</ele>
        <time>2011-05-28T10:57:26Z</time>
      </trkpt>
      <trkpt lat="44.3573" lon="4.39519">
        <ele>231.8149414</ele>
        <time>2011-05-28T10:57:28Z</time>
      </trkpt>
      <trkpt lat="44.3572" lon="4.39529">
        <ele>231.8149414</ele>
        <time>2011-05-28T10:57:30Z</time>
      </trkpt>
      <trkpt lat="44.3571" lon="4.39539">
        <ele>232.2957764</ele>
        <time>2011-05-28T10:57:32Z</time>
      </trkpt>
      <trkpt lat="44.357" lon="4.39549">
        <ele>232.2957764</ele>
        <time>2011-05-28T10:57:34Z</time>
      </trkpt>
      <trkpt lat="44.3569" lon="4.39559">
        <ele>231.8149414</ele>
        <time>2011-05-28T10:57:36Z</time>
      </trkpt>
      <trkpt lat="44.35679" lon="4.39569">
        <ele>232.2957764</ele>
        <time>2011-05-28T10:57:38Z</time>
      </trkpt>
      <trkpt lat="44.35668" lon="4.39577">
        <ele>232.7764893</ele>
        <time>2011-05-28T10:57:40Z</time>
      </trkpt>
      <trkpt lat="44.35657" lon="4.39584">
        <ele>232.2957764</ele>
        <time>2011-05-28T10:57:42Z</time>
      </trkpt>
      <trkpt lat="44.35645" lon="4.3959">
        <ele>232.2957764</ele>
        <time>2011-05-28T10:57:44Z</time>
      </trkpt>
      <trkpt lat="44.35634" lon="4.39596">
        <ele>232.2957764</ele>
        <time>2011-05-28T10:57:46Z</time>
      </trkpt>
      <trkpt lat="44.35622" lon="4.39601">
        <ele>231.3343506</ele>
        <time>2011-05-28T10:57:48Z</time>
      </trkpt>
      <trkpt lat="44.35609" lon="4.39608">
        <ele>231.3343506</ele>
        <time>2011-05-28T10:57:50Z</time>
      </trkpt>
      <trkpt lat="44.35595" lon="4.39615">
        <ele>231.3343506</ele>
        <time>2011-05-28T10:57:52Z</time>
      </trkpt>
      <trkpt lat="44.35581" lon="4.39622">
        <ele>231.3343506</ele>
        <time>2011-05-28T10:57:54Z</time>
      </trkpt>
      <trkpt lat="44.35568" lon="4.39631">
        <ele>231.3343506</ele>
        <time>2011-05-28T10:57:56Z</time>
      </trkpt>
      <trkpt lat="44.35557" lon="4.39644">
        <ele>230.8537598</ele>
        <time>2011-05-28T10:57:58Z</time>
      </trkpt>
      <trkpt lat="44.35549" lon="4.39658">
        <ele>231.3343506</ele>
        <time>2011-05-28T10:58:00Z</time>
      </trkpt>
      <trkpt lat="44.35541" lon="4.39673">
        <ele>230.8537598</ele>
        <time>2011-05-28T10:58:02Z</time>
      </trkpt>
      <trkpt lat="44.35533" lon="4.39685">
        <ele>232.2957764</ele>
        <time>2011-05-28T10:58:04Z</time>
      </trkpt>
      <trkpt lat="44.35523" lon="4.39693">
        <ele>232.2957764</ele>
        <time>2011-05-28T10:58:06Z</time>
      </trkpt>
      <trkpt lat="44.35513" lon="4.39699">
        <ele>231.8149414</ele>
        <time>2011-05-28T10:58:08Z</time>
      </trkpt>
      <trkpt lat="44.35503" lon="4.39705">
        <ele>231.8149414</ele>
        <time>2011-05-28T10:58:10Z</time>
      </trkpt>
      <trkpt lat="44.35492" lon="4.39713">
        <ele>232.2957764</ele>
        <time>2011-05-28T10:58:12Z</time>
      </trkpt>
      <trkpt lat="44.35482" lon="4.39723">
        <ele>231.8149414</ele>
        <time>2011-05-28T10:58:14Z</time>
      </trkpt>
      <trkpt lat="44.35475" lon="4.39737">
        <ele>231.8149414</ele>
        <time>2011-05-28T10:58:16Z</time>
      </trkpt>
      <trkpt lat="44.35471" lon="4.39753">
        <ele>232.2957764</ele>
        <time>2011-05-28T10:58:18Z</time>
      </trkpt>
      <trkpt lat="44.35466" lon="4.39768">
        <ele>232.2957764</ele>
        <time>2011-05-28T10:58:20Z</time>
      </trkpt>
      <trkpt lat="44.35462" lon="4.39781">
        <ele>232.7764893</ele>
        <time>2011-05-28T10:58:22Z</time>
      </trkpt>
      <trkpt lat="44.35457" lon="4.39793">
        <ele>232.7764893</ele>
        <time>2011-05-28T10:58:24Z</time>
      </trkpt>
      <trkpt lat="44.35453" lon="4.39804">
        <ele>232.7764893</ele>
        <time>2011-05-28T10:58:26Z</time>
      </trkpt>
      <trkpt lat="44.35448" lon="4.39814">
        <ele>233.7376709</ele>
        <time>2011-05-28T10:58:28Z</time>
      </trkpt>
      <trkpt lat="44.35443" lon="4.39825">
        <ele>233.7376709</ele>
        <time>2011-05-28T10:58:30Z</time>
      </trkpt>
      <trkpt lat="44.35439" lon="4.39836">
        <ele>233.2570801</ele>
        <time>2011-05-28T10:58:32Z</time>
      </trkpt>
      <trkpt lat="44.35434" lon="4.39849">
        <ele>233.7376709</ele>
        <time>2011-05-28T10:58:34Z</time>
      </trkpt>
      <trkpt lat="44.3543" lon="4.39862">
        <ele>233.7376709</ele>
        <time>2011-05-28T10:58:36Z</time>
      </trkpt>
      <trkpt lat="44.35427" lon="4.39877">
        <ele>233.7376709</ele>
        <time>2011-05-28T10:58:38Z</time>
      </trkpt>
      <trkpt lat="44.35424" lon="4.39892">
        <ele>233.2570801</ele>
        <time>2011-05-28T10:58:40Z</time>
      </trkpt>
      <trkpt lat="44.3542" lon="4.39907">
        <ele>233.2570801</ele>
        <time>2011-05-28T10:58:42Z</time>
      </trkpt>
      <trkpt lat="44.35414" lon="4.39919">
        <ele>233.2570801</ele>
        <time>2011-05-28T10:58:44Z</time>
      </trkpt>
      <trkpt lat="44.35405" lon="4.39927">
        <ele>233.2570801</ele>
        <time>2011-05-28T10:58:46Z</time>
      </trkpt>
      <trkpt lat="44.35395" lon="4.39929">
        <ele>232.7764893</ele>
        <time>2011-05-28T10:58:48Z</time>
      </trkpt>
      <trkpt lat="44.35384" lon="4.39928">
        <ele>232.7764893</ele>
        <time>2011-05-28T10:58:50Z</time>
      </trkpt>
      <trkpt lat="44.35374" lon="4.39926">
        <ele>233.2570801</ele>
        <time>2011-05-28T10:58:52Z</time>
      </trkpt>
      <trkpt lat="44.35363" lon="4.39923">
        <ele>233.2570801</ele>
        <time>2011-05-28T10:58:54Z</time>
      </trkpt>
      <trkpt lat="44.35353" lon="4.39921">
        <ele>233.7376709</ele>
        <time>2011-05-28T10:58:56Z</time>
      </trkpt>
      <trkpt lat="44.35343" lon="4.39921">
        <ele>232.7764893</ele>
        <time>2011-05-28T10:58:58Z</time>
      </trkpt>
      <trkpt lat="44.35334" lon="4.39922">
        <ele>232.7764893</ele>
        <time>2011-05-28T10:59:00Z</time>
      </trkpt>
      <trkpt lat="44.35323" lon="4.39927">
        <ele>234.2183838</ele>
        <time>2011-05-28T10:59:03Z</time>
      </trkpt>
      <trkpt lat="44.35313" lon="4.39933">
        <ele>233.7376709</ele>
        <time>2011-05-28T10:59:06Z</time>
      </trkpt>
      <trkpt lat="44.35302" lon="4.39937">
        <ele>235.1796875</ele>
        <time>2011-05-28T10:59:10Z</time>
      </trkpt>
      <trkpt lat="44.35292" lon="4.39941">
        <ele>236.1409912</ele>
        <time>2011-05-28T10:59:14Z</time>
      </trkpt>
      <trkpt lat="44.35281" lon="4.39945">
        <ele>237.1022949</ele>
        <time>2011-05-28T10:59:18Z</time>
      </trkpt>
      <trkpt lat="44.3527" lon="4.39951">
        <ele>238.0635986</ele>
        <time>2011-05-28T10:59:22Z</time>
      </trkpt>
      <trkpt lat="44.3526" lon="4.39958">
        <ele>240.467041</ele>
        <time>2011-05-28T10:59:26Z</time>
      </trkpt>
      <trkpt lat="44.35251" lon="4.39967">
        <ele>240.9476318</ele>
        <time>2011-05-28T10:59:30Z</time>
      </trkpt>
      <trkpt lat="44.35242" lon="4.39976">
        <ele>242.3896484</ele>
        <time>2011-05-28T10:59:34Z</time>
      </trkpt>
      <trkpt lat="44.35234" lon="4.39985">
        <ele>244.3122559</ele>
        <time>2011-05-28T10:59:38Z</time>
      </trkpt>
      <trkpt lat="44.35226" lon="4.39993">
        <ele>244.7928467</ele>
        <time>2011-05-28T10:59:42Z</time>
      </trkpt>
      <trkpt lat="44.35218" lon="4.40003">
        <ele>245.2734375</ele>
        <time>2011-05-28T10:59:46Z</time>
      </trkpt>
      <trkpt lat="44.35212" lon="4.40016">
        <ele>245.7541504</ele>
        <time>2011-05-28T10:59:50Z</time>
      </trkpt>
      <trkpt lat="44.35208" lon="4.4003">
        <ele>245.7541504</ele>
        <time>2011-05-28T10:59:54Z</time>
      </trkpt>
      <trkpt lat="44.35204" lon="4.40044">
        <ele>248.1575928</ele>
        <time>2011-05-28T10:59:58Z</time>
      </trkpt>
      <trkpt lat="44.35197" lon="4.40054">
        <ele>248.1575928</ele>
        <time>2011-05-28T11:00:03Z</time>
      </trkpt>
      <trkpt lat="44.35191" lon="4.40066">
        <ele>248.6381836</ele>
        <time>2011-05-28T11:00:08Z</time>
      </trkpt>
      <trkpt lat="44.35197" lon="4.40079">
        <ele>249.5994873</ele>
        <time>2011-05-28T11:00:13Z</time>
      </trkpt>
      <trkpt lat="44.35204" lon="4.40091">
        <ele>250.560791</ele>
        <time>2011-05-28T11:00:18Z</time>
      </trkpt>
      <trkpt lat="44.3521" lon="4.40101">
        <ele>250.560791</ele>
        <time>2011-05-28T11:00:22Z</time>
      </trkpt>
      <trkpt lat="44.35216" lon="4.40112">
        <ele>251.0413818</ele>
        <time>2011-05-28T11:00:26Z</time>
      </trkpt>
      <trkpt lat="44.35223" lon="4.40124">
        <ele>252.4833984</ele>
        <time>2011-05-28T11:00:31Z</time>
      </trkpt>
      <trkpt lat="44.35226" lon="4.40137">
        <ele>253.4447021</ele>
        <time>2011-05-28T11:00:35Z</time>
      </trkpt>
      <trkpt lat="44.35227" lon="4.4015">
        <ele>253.4447021</ele>
        <time>2011-05-28T11:00:39Z</time>
      </trkpt>
      <trkpt lat="44.35223" lon="4.40163">
        <ele>253.4447021</ele>
        <time>2011-05-28T11:00:43Z</time>
      </trkpt>
      <trkpt lat="44.35217" lon="4.40177">
        <ele>253.4447021</ele>
        <time>2011-05-28T11:00:47Z</time>
      </trkpt>
      <trkpt lat="44.35209" lon="4.40188">
        <ele>253.4447021</ele>
        <time>2011-05-28T11:00:51Z</time>
      </trkpt>
      <trkpt lat="44.35202" lon="4.402">
        <ele>252.0028076</ele>
        <time>2011-05-28T11:00:55Z</time>
      </trkpt>
      <trkpt lat="44.35197" lon="4.40212">
        <ele>251.0413818</ele>
        <time>2011-05-28T11:00:59Z</time>
      </trkpt>
      <trkpt lat="44.35196" lon="4.40226">
        <ele>251.5220947</ele>
        <time>2011-05-28T11:01:04Z</time>
      </trkpt>
      <trkpt lat="44.35202" lon="4.40239">
        <ele>251.5220947</ele>
        <time>2011-05-28T11:01:09Z</time>
      </trkpt>
      <trkpt lat="44.35207" lon="4.40246">
        <ele>250.560791</ele>
        <time>2011-05-28T11:01:32Z</time>
      </trkpt>
      <trkpt lat="44.35211" lon="4.40248">
        <ele>254.4060059</ele>
        <time>2011-05-28T12:01:56Z</time>
      </trkpt>
      <trkpt lat="44.35202" lon="4.40219">
        <ele>254.8865967</ele>
        <time>2011-05-28T12:03:29Z</time>
      </trkpt>
      <trkpt lat="44.35197" lon="4.40209">
        <ele>253.4447021</ele>
        <time>2011-05-28T12:03:42Z</time>
      </trkpt>
      <trkpt lat="44.35201" lon="4.40197">
        <ele>254.4060059</ele>
        <time>2011-05-28T12:03:51Z</time>
      </trkpt>
      <trkpt lat="44.35209" lon="4.40186">
        <ele>256.3287354</ele>
        <time>2011-05-28T12:04:00Z</time>
      </trkpt>
      <trkpt lat="44.35217" lon="4.40176">
        <ele>257.2900391</ele>
        <time>2011-05-28T12:04:07Z</time>
      </trkpt>
      <trkpt lat="44.35223" lon="4.40164">
        <ele>256.3287354</ele>
        <time>2011-05-28T12:04:14Z</time>
      </trkpt>
      <trkpt lat="44.35228" lon="4.40151">
        <ele>255.3673096</ele>
        <time>2011-05-28T12:04:21Z</time>
      </trkpt>
      <trkpt lat="44.35228" lon="4.40135">
        <ele>255.3673096</ele>
        <time>2011-05-28T12:04:27Z</time>
      </trkpt>
      <trkpt lat="44.35223" lon="4.40118">
        <ele>254.8865967</ele>
        <time>2011-05-28T12:04:31Z</time>
      </trkpt>
      <trkpt lat="44.35213" lon="4.40102">
        <ele>254.4060059</ele>
        <time>2011-05-28T12:04:34Z</time>
      </trkpt>
      <trkpt lat="44.35205" lon="4.40088">
        <ele>253.4447021</ele>
        <time>2011-05-28T12:04:37Z</time>
      </trkpt>
      <trkpt lat="44.35199" lon="4.40077">
        <ele>252.9639893</ele>
        <time>2011-05-28T12:04:40Z</time>
      </trkpt>
      <trkpt lat="44.35193" lon="4.40065">
        <ele>251.5220947</ele>
        <time>2011-05-28T12:04:44Z</time>
      </trkpt>
      <trkpt lat="44.35196" lon="4.40054">
        <ele>250.560791</ele>
        <time>2011-05-28T12:04:52Z</time>
      </trkpt>
      <trkpt lat="44.35201" lon="4.40043">
        <ele>249.5994873</ele>
        <time>2011-05-28T12:05:49Z</time>
      </trkpt>
      <trkpt lat="44.35211" lon="4.40043">
        <ele>249.5994873</ele>
        <time>2011-05-28T12:06:16Z</time>
      </trkpt>
      <trkpt lat="44.35218" lon="4.40056">
        <ele>249.1187744</ele>
        <time>2011-05-28T12:08:46Z</time>
      </trkpt>
      <trkpt lat="44.35228" lon="4.40065">
        <ele>249.1187744</ele>
        <time>2011-05-28T12:08:49Z</time>
      </trkpt>
      <trkpt lat="44.35237" lon="4.40073">
        <ele>247.6767578</ele>
        <time>2011-05-28T12:08:51Z</time>
      </trkpt>
      <trkpt lat="44.35248" lon="4.40081">
        <ele>246.7154541</ele>
        <time>2011-05-28T12:08:53Z</time>
      </trkpt>
      <trkpt lat="44.35261" lon="4.40088">
        <ele>245.7541504</ele>
        <time>2011-05-28T12:08:55Z</time>
      </trkpt>
      <trkpt lat="44.35276" lon="4.40095">
        <ele>244.3122559</ele>
        <time>2011-05-28T12:08:57Z</time>
      </trkpt>
      <trkpt lat="44.35292" lon="4.40104">
        <ele>242.3896484</ele>
        <time>2011-05-28T12:08:59Z</time>
      </trkpt>
      <trkpt lat="44.35308" lon="4.40114">
        <ele>241.4282227</ele>
        <time>2011-05-28T12:09:01Z</time>
      </trkpt>
      <trkpt lat="44.35323" lon="4.40125">
        <ele>240.9476318</ele>
        <time>2011-05-28T12:09:03Z</time>
      </trkpt>
      <trkpt lat="44.35338" lon="4.40136">
        <ele>241.4282227</ele>
        <time>2011-05-28T12:09:05Z</time>
      </trkpt>
      <trkpt lat="44.35351" lon="4.40142">
        <ele>241.9089355</ele>
        <time>2011-05-28T12:09:07Z</time>
      </trkpt>
      <trkpt lat="44.35364" lon="4.4014">
        <ele>240.9476318</ele>
        <time>2011-05-28T12:09:09Z</time>
      </trkpt>
      <trkpt lat="44.35375" lon="4.40133">
        <ele>241.4282227</ele>
        <time>2011-05-28T12:09:11Z</time>
      </trkpt>
      <trkpt lat="44.35386" lon="4.40131">
        <ele>241.9089355</ele>
        <time>2011-05-28T12:09:13Z</time>
      </trkpt>
      <trkpt lat="44.35395" lon="4.40133">
        <ele>241.9089355</ele>
        <time>2011-05-28T12:09:15Z</time>
      </trkpt>
      <trkpt lat="44.35406" lon="4.40137">
        <ele>240.9476318</ele>
        <time>2011-05-28T12:09:18Z</time>
      </trkpt>
      <trkpt lat="44.35417" lon="4.4014">
        <ele>241.9089355</ele>
        <time>2011-05-28T12:09:22Z</time>
      </trkpt>
      <trkpt lat="44.35425" lon="4.40144">
        <ele>241.9089355</ele>
        <time>2011-05-28T12:09:26Z</time>
      </trkpt>
      <trkpt lat="44.35435" lon="4.4015">
        <ele>243.3508301</ele>
        <time>2011-05-28T12:09:31Z</time>
      </trkpt>
      <trkpt lat="44.35443" lon="4.40159">
        <ele>242.8702393</ele>
        <time>2011-05-28T12:09:36Z</time>
      </trkpt>
      <trkpt lat="44.3545" lon="4.40167">
        <ele>243.831543</ele>
        <time>2011-05-28T12:09:41Z</time>
      </trkpt>
      <trkpt lat="44.35459" lon="4.40174">
        <ele>244.3122559</ele>
        <time>2011-05-28T12:09:47Z</time>
      </trkpt>
      <trkpt lat="44.35469" lon="4.40177">
        <ele>246.2348633</ele>
        <time>2011-05-28T12:09:53Z</time>
      </trkpt>
      <trkpt lat="44.35479" lon="4.40178">
        <ele>247.1960449</ele>
        <time>2011-05-28T12:09:59Z</time>
      </trkpt>
      <trkpt lat="44.3549" lon="4.40178">
        <ele>247.1960449</ele>
        <time>2011-05-28T12:10:05Z</time>
      </trkpt>
      <trkpt lat="44.35499" lon="4.40179">
        <ele>248.1575928</ele>
        <time>2011-05-28T12:10:10Z</time>
      </trkpt>
      <trkpt lat="44.3551" lon="4.40181">
        <ele>248.6381836</ele>
        <time>2011-05-28T12:10:16Z</time>
      </trkpt>
      <trkpt lat="44.35521" lon="4.40185">
        <ele>250.0802002</ele>
        <time>2011-05-28T12:10:22Z</time>
      </trkpt>
      <trkpt lat="44.35531" lon="4.40188">
        <ele>250.560791</ele>
        <time>2011-05-28T12:10:27Z</time>
      </trkpt>
      <trkpt lat="44.35543" lon="4.40191">
        <ele>252.0028076</ele>
        <time>2011-05-28T12:10:33Z</time>
      </trkpt>
      <trkpt lat="44.35553" lon="4.40193">
        <ele>252.9639893</ele>
        <time>2011-05-28T12:10:39Z</time>
      </trkpt>
      <trkpt lat="44.35562" lon="4.40197">
        <ele>253.925415</ele>
        <time>2011-05-28T12:10:45Z</time>
      </trkpt>
      <trkpt lat="44.35569" lon="4.40205">
        <ele>254.4060059</ele>
        <time>2011-05-28T12:10:51Z</time>
      </trkpt>
      <trkpt lat="44.35577" lon="4.40214">
        <ele>254.4060059</ele>
        <time>2011-05-28T12:10:57Z</time>
      </trkpt>
      <trkpt lat="44.35584" lon="4.40224">
        <ele>255.8480225</ele>
        <time>2011-05-28T12:11:03Z</time>
      </trkpt>
      <trkpt lat="44.35588" lon="4.40237">
        <ele>256.3287354</ele>
        <time>2011-05-28T12:11:09Z</time>
      </trkpt>
      <trkpt lat="44.3559" lon="4.40249">
        <ele>257.2900391</ele>
        <time>2011-05-28T12:11:15Z</time>
      </trkpt>
      <trkpt lat="44.35589" lon="4.40264">
        <ele>257.770752</ele>
        <time>2011-05-28T12:11:21Z</time>
      </trkpt>
      <trkpt lat="44.35585" lon="4.40276">
        <ele>258.2513428</ele>
        <time>2011-05-28T12:11:26Z</time>
      </trkpt>
      <trkpt lat="44.35581" lon="4.40288">
        <ele>259.2126465</ele>
        <time>2011-05-28T12:11:31Z</time>
      </trkpt>
      <trkpt lat="44.35577" lon="4.40299">
        <ele>260.1739502</ele>
        <time>2011-05-28T12:11:36Z</time>
      </trkpt>
      <trkpt lat="44.35572" lon="4.40311">
        <ele>261.6159668</ele>
        <time>2011-05-28T12:11:42Z</time>
      </trkpt>
      <trkpt lat="44.35577" lon="4.40319">
        <ele>262.0965576</ele>
        <time>2011-05-28T12:11:50Z</time>
      </trkpt>
      <trkpt lat="44.35585" lon="4.40311">
        <ele>262.5771484</ele>
        <time>2011-05-28T12:11:56Z</time>
      </trkpt>
      <trkpt lat="44.35593" lon="4.40302">
        <ele>263.5385742</ele>
        <time>2011-05-28T12:12:02Z</time>
      </trkpt>
      <trkpt lat="44.35602" lon="4.40296">
        <ele>263.5385742</ele>
        <time>2011-05-28T12:12:08Z</time>
      </trkpt>
      <trkpt lat="44.3561" lon="4.40286">
        <ele>264.4998779</ele>
        <time>2011-05-28T12:12:15Z</time>
      </trkpt>
      <trkpt lat="44.35618" lon="4.40278">
        <ele>265.4613037</ele>
        <time>2011-05-28T12:12:21Z</time>
      </trkpt>
      <trkpt lat="44.35622" lon="4.40265">
        <ele>266.9031982</ele>
        <time>2011-05-28T12:12:27Z</time>
      </trkpt>
      <trkpt lat="44.35626" lon="4.40251">
        <ele>267.864502</ele>
        <time>2011-05-28T12:12:32Z</time>
      </trkpt>
      <trkpt lat="44.3563" lon="4.40238">
        <ele>269.3065186</ele>
        <time>2011-05-28T12:12:37Z</time>
      </trkpt>
      <trkpt lat="44.35634" lon="4.40226">
        <ele>269.3065186</ele>
        <time>2011-05-28T12:12:42Z</time>
      </trkpt>
      <trkpt lat="44.3564" lon="4.40215">
        <ele>269.3065186</ele>
        <time>2011-05-28T12:12:47Z</time>
      </trkpt>
      <trkpt lat="44.35647" lon="4.40206">
        <ele>270.7484131</ele>
        <time>2011-05-28T12:12:52Z</time>
      </trkpt>
      <trkpt lat="44.35656" lon="4.40199">
        <ele>272.1904297</ele>
        <time>2011-05-28T12:12:58Z</time>
      </trkpt>
      <trkpt lat="44.35663" lon="4.40206">
        <ele>272.1904297</ele>
        <time>2011-05-28T12:13:04Z</time>
      </trkpt>
      <trkpt lat="44.35664" lon="4.40219">
        <ele>273.1518555</ele>
        <time>2011-05-28T12:13:09Z</time>
      </trkpt>
      <trkpt lat="44.35664" lon="4.40233">
        <ele>274.1130371</ele>
        <time>2011-05-28T12:13:14Z</time>
      </trkpt>
      <trkpt lat="44.35667" lon="4.40248">
        <ele>274.59375</ele>
        <time>2011-05-28T12:13:19Z</time>
      </trkpt>
      <trkpt lat="44.3567" lon="4.40263">
        <ele>275.0744629</ele>
        <time>2011-05-28T12:13:24Z</time>
      </trkpt>
      <trkpt lat="44.35673" lon="4.40275">
        <ele>275.0744629</ele>
        <time>2011-05-28T12:13:28Z</time>
      </trkpt>
      <trkpt lat="44.35682" lon="4.40286">
        <ele>276.5163574</ele>
        <time>2011-05-28T12:13:33Z</time>
      </trkpt>
      <trkpt lat="44.35691" lon="4.40293">
        <ele>276.9970703</ele>
        <time>2011-05-28T12:13:37Z</time>
      </trkpt>
      <trkpt lat="44.357" lon="4.403">
        <ele>277.958252</ele>
        <time>2011-05-28T12:13:41Z</time>
      </trkpt>
      <trkpt lat="44.35709" lon="4.40307">
        <ele>277.958252</ele>
        <time>2011-05-28T12:13:45Z</time>
      </trkpt>
      <trkpt lat="44.35719" lon="4.40314">
        <ele>277.958252</ele>
        <time>2011-05-28T12:13:49Z</time>
      </trkpt>
      <trkpt lat="44.35729" lon="4.4032">
        <ele>277.958252</ele>
        <time>2011-05-28T12:13:53Z</time>
      </trkpt>
      <trkpt lat="44.35741" lon="4.40324">
        <ele>277.958252</ele>
        <time>2011-05-28T12:13:57Z</time>
      </trkpt>
      <trkpt lat="44.35753" lon="4.40331">
        <ele>277.4776611</ele>
        <time>2011-05-28T12:14:01Z</time>
      </trkpt>
      <trkpt lat="44.35761" lon="4.4034">
        <ele>277.4776611</ele>
        <time>2011-05-28T12:14:04Z</time>
      </trkpt>
      <trkpt lat="44.35769" lon="4.40349">
        <ele>277.4776611</ele>
        <time>2011-05-28T12:14:07Z</time>
      </trkpt>
      <trkpt lat="44.35777" lon="4.40354">
        <ele>276.9970703</ele>
        <time>2011-05-28T12:14:10Z</time>
      </trkpt>
      <trkpt lat="44.35788" lon="4.4036">
        <ele>276.9970703</ele>
        <time>2011-05-28T12:14:14Z</time>
      </trkpt>
      <trkpt lat="44.35801" lon="4.40362">
        <ele>276.5163574</ele>
        <time>2011-05-28T12:14:18Z</time>
      </trkpt>
      <trkpt lat="44.35811" lon="4.40359">
        <ele>276.5163574</ele>
        <time>2011-05-28T12:14:21Z</time>
      </trkpt>
      <trkpt lat="44.35822" lon="4.40358">
        <ele>276.0356445</ele>
        <time>2011-05-28T12:14:24Z</time>
      </trkpt>
      <trkpt lat="44.35834" lon="4.4036">
        <ele>275.5550537</ele>
        <time>2011-05-28T12:14:27Z</time>
      </trkpt>
      <trkpt lat="44.35846" lon="4.40363">
        <ele>276.5163574</ele>
        <time>2011-05-28T12:14:30Z</time>
      </trkpt>
      <trkpt lat="44.35857" lon="4.40367">
        <ele>276.0356445</ele>
        <time>2011-05-28T12:14:33Z</time>
      </trkpt>
      <trkpt lat="44.35869" lon="4.40372">
        <ele>276.5163574</ele>
        <time>2011-05-28T12:14:36Z</time>
      </trkpt>
      <trkpt lat="44.35881" lon="4.40376">
        <ele>276.5163574</ele>
        <time>2011-05-28T12:14:39Z</time>
      </trkpt>
      <trkpt lat="44.35894" lon="4.40379">
        <ele>276.5163574</ele>
        <time>2011-05-28T12:14:42Z</time>
      </trkpt>
      <trkpt lat="44.35906" lon="4.40385">
        <ele>276.0356445</ele>
        <time>2011-05-28T12:14:45Z</time>
      </trkpt>
      <trkpt lat="44.35915" lon="4.4039">
        <ele>276.5163574</ele>
        <time>2011-05-28T12:14:47Z</time>
      </trkpt>
      <trkpt lat="44.35924" lon="4.40396">
        <ele>276.0356445</ele>
        <time>2011-05-28T12:14:49Z</time>
      </trkpt>
      <trkpt lat="44.35934" lon="4.40401">
        <ele>276.5163574</ele>
        <time>2011-05-28T12:14:51Z</time>
      </trkpt>
      <trkpt lat="44.35944" lon="4.40407">
        <ele>275.5550537</ele>
        <time>2011-05-28T12:14:53Z</time>
      </trkpt>
      <trkpt lat="44.35953" lon="4.40414">
        <ele>275.5550537</ele>
        <time>2011-05-28T12:14:55Z</time>
      </trkpt>
      <trkpt lat="44.35963" lon="4.40421">
        <ele>275.5550537</ele>
        <time>2011-05-28T12:14:57Z</time>
      </trkpt>
      <trkpt lat="44.35973" lon="4.40428">
        <ele>275.5550537</ele>
        <time>2011-05-28T12:14:59Z</time>
      </trkpt>
      <trkpt lat="44.35983" lon="4.40435">
        <ele>276.0356445</ele>
        <time>2011-05-28T12:15:01Z</time>
      </trkpt>
      <trkpt lat="44.35992" lon="4.4044">
        <ele>275.5550537</ele>
        <time>2011-05-28T12:15:03Z</time>
      </trkpt>
      <trkpt lat="44.36" lon="4.40448">
        <ele>276.5163574</ele>
        <time>2011-05-28T12:15:05Z</time>
      </trkpt>
      <trkpt lat="44.36009" lon="4.40462">
        <ele>276.0356445</ele>
        <time>2011-05-28T12:15:08Z</time>
      </trkpt>
      <trkpt lat="44.36016" lon="4.40471">
        <ele>276.5163574</ele>
        <time>2011-05-28T12:15:10Z</time>
      </trkpt>
      <trkpt lat="44.36023" lon="4.40479">
        <ele>276.5163574</ele>
        <time>2011-05-28T12:15:12Z</time>
      </trkpt>
      <trkpt lat="44.36031" lon="4.40487">
        <ele>276.0356445</ele>
        <time>2011-05-28T12:15:14Z</time>
      </trkpt>
      <trkpt lat="44.36038" lon="4.40495">
        <ele>275.5550537</ele>
        <time>2011-05-28T12:15:16Z</time>
      </trkpt>
      <trkpt lat="44.36045" lon="4.40503">
        <ele>276.0356445</ele>
        <time>2011-05-28T12:15:18Z</time>
      </trkpt>
      <trkpt lat="44.36053" lon="4.40509">
        <ele>276.5163574</ele>
        <time>2011-05-28T12:15:20Z</time>
      </trkpt>
      <trkpt lat="44.36064" lon="4.4052">
        <ele>276.5163574</ele>
        <time>2011-05-28T12:15:23Z</time>
      </trkpt>
      <trkpt lat="44.3607" lon="4.40533">
        <ele>276.0356445</ele>
        <time>2011-05-28T12:15:26Z</time>
      </trkpt>
      <trkpt lat="44.36078" lon="4.40547">
        <ele>277.4776611</ele>
        <time>2011-05-28T12:15:30Z</time>
      </trkpt>
      <trkpt lat="44.36088" lon="4.40558">
        <ele>276.9970703</ele>
        <time>2011-05-28T12:15:33Z</time>
      </trkpt>
      <trkpt lat="44.36096" lon="4.40565">
        <ele>277.4776611</ele>
        <time>2011-05-28T12:15:35Z</time>
      </trkpt>
      <trkpt lat="44.36103" lon="4.40574">
        <ele>277.4776611</ele>
        <time>2011-05-28T12:15:37Z</time>
      </trkpt>
      <trkpt lat="44.36112" lon="4.40586">
        <ele>277.4776611</ele>
        <time>2011-05-28T12:15:40Z</time>
      </trkpt>
      <trkpt lat="44.36123" lon="4.40598">
        <ele>277.958252</ele>
        <time>2011-05-28T12:15:43Z</time>
      </trkpt>
      <trkpt lat="44.36131" lon="4.40605">
        <ele>277.4776611</ele>
        <time>2011-05-28T12:15:45Z</time>
      </trkpt>
      <trkpt lat="44.36139" lon="4.40611">
        <ele>277.4776611</ele>
        <time>2011-05-28T12:15:47Z</time>
      </trkpt>
      <trkpt lat="44.36148" lon="4.40619">
        <ele>278.4389648</ele>
        <time>2011-05-28T12:15:50Z</time>
      </trkpt>
      <trkpt lat="44.36157" lon="4.40626">
        <ele>277.958252</ele>
        <time>2011-05-28T12:15:53Z</time>
      </trkpt>
      <trkpt lat="44.36164" lon="4.40636">
        <ele>277.958252</ele>
        <time>2011-05-28T12:15:56Z</time>
      </trkpt>
      <trkpt lat="44.36171" lon="4.40647">
        <ele>278.4389648</ele>
        <time>2011-05-28T12:15:59Z</time>
      </trkpt>
      <trkpt lat="44.36177" lon="4.40657">
        <ele>278.9196777</ele>
        <time>2011-05-28T12:16:02Z</time>
      </trkpt>
      <trkpt lat="44.36183" lon="4.4067">
        <ele>278.9196777</ele>
        <time>2011-05-28T12:16:06Z</time>
      </trkpt>
      <trkpt lat="44.3619" lon="4.40681">
        <ele>279.4002686</ele>
        <time>2011-05-28T12:16:10Z</time>
      </trkpt>
      <trkpt lat="44.36197" lon="4.40692">
        <ele>279.8808594</ele>
        <time>2011-05-28T12:16:14Z</time>
      </trkpt>
      <trkpt lat="44.36203" lon="4.40703">
        <ele>280.8424072</ele>
        <time>2011-05-28T12:16:23Z</time>
      </trkpt>
      <trkpt lat="44.36209" lon="4.40714">
        <ele>281.322998</ele>
        <time>2011-05-28T12:16:53Z</time>
      </trkpt>
      <trkpt lat="44.36216" lon="4.40727">
        <ele>281.8035889</ele>
        <time>2011-05-28T12:16:58Z</time>
      </trkpt>
      <trkpt lat="44.36223" lon="4.40739">
        <ele>282.7650146</ele>
        <time>2011-05-28T12:17:03Z</time>
      </trkpt>
      <trkpt lat="44.3623" lon="4.40748">
        <ele>282.2843018</ele>
        <time>2011-05-28T12:17:08Z</time>
      </trkpt>
      <trkpt lat="44.36237" lon="4.40758">
        <ele>282.7650146</ele>
        <time>2011-05-28T12:17:13Z</time>
      </trkpt>
      <trkpt lat="44.36248" lon="4.40769">
        <ele>282.7650146</ele>
        <time>2011-05-28T12:17:21Z</time>
      </trkpt>
      <trkpt lat="44.36261" lon="4.40775">
        <ele>283.7261963</ele>
        <time>2011-05-28T12:17:27Z</time>
      </trkpt>
      <trkpt lat="44.36275" lon="4.40773">
        <ele>282.7650146</ele>
        <time>2011-05-28T12:17:32Z</time>
      </trkpt>
      <trkpt lat="44.36286" lon="4.40771">
        <ele>281.322998</ele>
        <time>2011-05-28T12:17:36Z</time>
      </trkpt>
      <trkpt lat="44.36297" lon="4.4077">
        <ele>281.8035889</ele>
        <time>2011-05-28T12:17:40Z</time>
      </trkpt>
      <trkpt lat="44.36309" lon="4.40769">
        <ele>281.8035889</ele>
        <time>2011-05-28T12:17:45Z</time>
      </trkpt>
      <trkpt lat="44.36319" lon="4.40768">
        <ele>282.7650146</ele>
        <time>2011-05-28T12:17:49Z</time>
      </trkpt>
      <trkpt lat="44.3633" lon="4.40767">
        <ele>281.322998</ele>
        <time>2011-05-28T12:17:54Z</time>
      </trkpt>
      <trkpt lat="44.36342" lon="4.4077">
        <ele>281.322998</ele>
        <time>2011-05-28T12:17:58Z</time>
      </trkpt>
      <trkpt lat="44.36354" lon="4.40775">
        <ele>281.322998</ele>
        <time>2011-05-28T12:18:02Z</time>
      </trkpt>
      <trkpt lat="44.36365" lon="4.40778">
        <ele>282.2843018</ele>
        <time>2011-05-28T12:18:06Z</time>
      </trkpt>
      <trkpt lat="44.36376" lon="4.4078">
        <ele>281.8035889</ele>
        <time>2011-05-28T12:18:10Z</time>
      </trkpt>
      <trkpt lat="44.36387" lon="4.40778">
        <ele>281.322998</ele>
        <time>2011-05-28T12:18:15Z</time>
      </trkpt>
      <trkpt lat="44.36396" lon="4.40772">
        <ele>280.8424072</ele>
        <time>2011-05-28T12:18:19Z</time>
      </trkpt>
      <trkpt lat="44.36405" lon="4.40764">
        <ele>281.322998</ele>
        <time>2011-05-28T12:18:22Z</time>
      </trkpt>
      <trkpt lat="44.36414" lon="4.40759">
        <ele>281.322998</ele>
        <time>2011-05-28T12:18:25Z</time>
      </trkpt>
      <trkpt lat="44.36426" lon="4.40758">
        <ele>282.2843018</ele>
        <time>2011-05-28T12:18:29Z</time>
      </trkpt>
      <trkpt lat="44.36435" lon="4.40763">
        <ele>280.8424072</ele>
        <time>2011-05-28T12:18:32Z</time>
      </trkpt>
      <trkpt lat="44.36443" lon="4.40772">
        <ele>280.8424072</ele>
        <time>2011-05-28T12:18:35Z</time>
      </trkpt>
      <trkpt lat="44.36452" lon="4.4078">
        <ele>280.8424072</ele>
        <time>2011-05-28T12:18:38Z</time>
      </trkpt>
      <trkpt lat="44.36461" lon="4.40788">
        <ele>281.322998</ele>
        <time>2011-05-28T12:18:41Z</time>
      </trkpt>
      <trkpt lat="44.36471" lon="4.40796">
        <ele>280.8424072</ele>
        <time>2011-05-28T12:18:44Z</time>
      </trkpt>
      <trkpt lat="44.36481" lon="4.40803">
        <ele>280.8424072</ele>
        <time>2011-05-28T12:18:47Z</time>
      </trkpt>
      <trkpt lat="44.36491" lon="4.40809">
        <ele>280.8424072</ele>
        <time>2011-05-28T12:18:50Z</time>
      </trkpt>
      <trkpt lat="44.365" lon="4.40816">
        <ele>278.9196777</ele>
        <time>2011-05-28T12:18:53Z</time>
      </trkpt>
      <trkpt lat="44.36511" lon="4.40827">
        <ele>278.4389648</ele>
        <time>2011-05-28T12:18:57Z</time>
      </trkpt>
      <trkpt lat="44.36522" lon="4.40836">
        <ele>277.958252</ele>
        <time>2011-05-28T12:19:01Z</time>
      </trkpt>
      <trkpt lat="44.36535" lon="4.40843">
        <ele>278.4389648</ele>
        <time>2011-05-28T12:19:05Z</time>
      </trkpt>
      <trkpt lat="44.36547" lon="4.40844">
        <ele>278.9196777</ele>
        <time>2011-05-28T12:19:09Z</time>
      </trkpt>
      <trkpt lat="44.36558" lon="4.40846">
        <ele>278.4389648</ele>
        <time>2011-05-28T12:19:13Z</time>
      </trkpt>
      <trkpt lat="44.36572" lon="4.40845">
        <ele>278.4389648</ele>
        <time>2011-05-28T12:19:17Z</time>
      </trkpt>
      <trkpt lat="44.36584" lon="4.40842">
        <ele>279.4002686</ele>
        <time>2011-05-28T12:19:20Z</time>
      </trkpt>
      <trkpt lat="44.36596" lon="4.40836">
        <ele>278.9196777</ele>
        <time>2011-05-28T12:19:23Z</time>
      </trkpt>
      <trkpt lat="44.36607" lon="4.40831">
        <ele>277.958252</ele>
        <time>2011-05-28T12:19:26Z</time>
      </trkpt>
      <trkpt lat="44.36618" lon="4.40833">
        <ele>277.958252</ele>
        <time>2011-05-28T12:19:30Z</time>
      </trkpt>
      <trkpt lat="44.36623" lon="4.40845">
        <ele>277.4776611</ele>
        <time>2011-05-28T12:19:33Z</time>
      </trkpt>
      <trkpt lat="44.3663" lon="4.40858">
        <ele>276.5163574</ele>
        <time>2011-05-28T12:19:37Z</time>
      </trkpt>
      <trkpt lat="44.36636" lon="4.40868">
        <ele>275.5550537</ele>
        <time>2011-05-28T12:19:40Z</time>
      </trkpt>
      <trkpt lat="44.36639" lon="4.4088">
        <ele>274.59375</ele>
        <time>2011-05-28T12:19:43Z</time>
      </trkpt>
      <trkpt lat="44.36639" lon="4.40894">
        <ele>274.59375</ele>
        <time>2011-05-28T12:19:47Z</time>
      </trkpt>
      <trkpt lat="44.36642" lon="4.40909">
        <ele>274.1130371</ele>
        <time>2011-05-28T12:19:51Z</time>
      </trkpt>
      <trkpt lat="44.36647" lon="4.40921">
        <ele>273.6324463</ele>
        <time>2011-05-28T12:19:54Z</time>
      </trkpt>
      <trkpt lat="44.36653" lon="4.40933">
        <ele>274.1130371</ele>
        <time>2011-05-28T12:19:57Z</time>
      </trkpt>
      <trkpt lat="44.36662" lon="4.40944">
        <ele>273.6324463</ele>
        <time>2011-05-28T12:20:00Z</time>
      </trkpt>
      <trkpt lat="44.36672" lon="4.40953">
        <ele>272.1904297</ele>
        <time>2011-05-28T12:20:03Z</time>
      </trkpt>
      <trkpt lat="44.36681" lon="4.40963">
        <ele>271.7097168</ele>
        <time>2011-05-28T12:20:06Z</time>
      </trkpt>
      <trkpt lat="44.36689" lon="4.40977">
        <ele>268.8258057</ele>
        <time>2011-05-28T12:20:09Z</time>
      </trkpt>
      <trkpt lat="44.36695" lon="4.4099">
        <ele>267.3839111</ele>
        <time>2011-05-28T12:20:12Z</time>
      </trkpt>
      <trkpt lat="44.36699" lon="4.41005">
        <ele>265.9418945</ele>
        <time>2011-05-28T12:20:16Z</time>
      </trkpt>
      <trkpt lat="44.36704" lon="4.41017">
        <ele>264.4998779</ele>
        <time>2011-05-28T12:20:21Z</time>
      </trkpt>
      <trkpt lat="44.36713" lon="4.41027">
        <ele>263.5385742</ele>
        <time>2011-05-28T12:20:28Z</time>
      </trkpt>
      <trkpt lat="44.36719" lon="4.41039">
        <ele>261.1352539</ele>
        <time>2011-05-28T12:20:32Z</time>
      </trkpt>
      <trkpt lat="44.36724" lon="4.41053">
        <ele>260.654541</ele>
        <time>2011-05-28T12:20:35Z</time>
      </trkpt>
      <trkpt lat="44.3673" lon="4.41063">
        <ele>261.1352539</ele>
        <time>2011-05-28T12:20:40Z</time>
      </trkpt>
      <trkpt lat="44.3674" lon="4.4107">
        <ele>263.5385742</ele>
        <time>2011-05-28T12:20:45Z</time>
      </trkpt>
      <trkpt lat="44.36749" lon="4.41073">
        <ele>264.0192871</ele>
        <time>2011-05-28T12:20:50Z</time>
      </trkpt>
      <trkpt lat="44.36759" lon="4.41079">
        <ele>265.9418945</ele>
        <time>2011-05-28T12:20:56Z</time>
      </trkpt>
      <trkpt lat="44.36768" lon="4.41086">
        <ele>265.9418945</ele>
        <time>2011-05-28T12:21:01Z</time>
      </trkpt>
      <trkpt lat="44.36776" lon="4.41091">
        <ele>267.3839111</ele>
        <time>2011-05-28T12:21:06Z</time>
      </trkpt>
      <trkpt lat="44.36787" lon="4.41097">
        <ele>265.9418945</ele>
        <time>2011-05-28T12:21:11Z</time>
      </trkpt>
      <trkpt lat="44.36797" lon="4.41103">
        <ele>266.4224854</ele>
        <time>2011-05-28T12:21:16Z</time>
      </trkpt>
      <trkpt lat="44.36807" lon="4.4111">
        <ele>265.9418945</ele>
        <time>2011-05-28T12:21:20Z</time>
      </trkpt>
      <trkpt lat="44.36814" lon="4.41119">
        <ele>265.9418945</ele>
        <time>2011-05-28T12:21:23Z</time>
      </trkpt>
      <trkpt lat="44.36819" lon="4.41133">
        <ele>266.9031982</ele>
        <time>2011-05-28T12:21:27Z</time>
      </trkpt>
      <trkpt lat="44.36821" lon="4.41146">
        <ele>266.9031982</ele>
        <time>2011-05-28T12:21:34Z</time>
      </trkpt>
      <trkpt lat="44.36823" lon="4.41158">
        <ele>266.4224854</ele>
        <time>2011-05-28T12:22:07Z</time>
      </trkpt>
      <trkpt lat="44.36833" lon="4.41155">
        <ele>265.4613037</ele>
        <time>2011-05-28T12:22:14Z</time>
      </trkpt>
      <trkpt lat="44.36836" lon="4.41167">
        <ele>265.9418945</ele>
        <time>2011-05-28T12:22:21Z</time>
      </trkpt>
      <trkpt lat="44.36837" lon="4.41181">
        <ele>267.864502</ele>
        <time>2011-05-28T12:22:29Z</time>
      </trkpt>
      <trkpt lat="44.36844" lon="4.41195">
        <ele>270.2677002</ele>
        <time>2011-05-28T12:22:37Z</time>
      </trkpt>
      <trkpt lat="44.36855" lon="4.41203">
        <ele>272.1904297</ele>
        <time>2011-05-28T12:22:43Z</time>
      </trkpt>
      <trkpt lat="44.36867" lon="4.41208">
        <ele>273.1518555</ele>
        <time>2011-05-28T12:22:50Z</time>
      </trkpt>
      <trkpt lat="44.36879" lon="4.41208">
        <ele>272.6711426</ele>
        <time>2011-05-28T12:22:55Z</time>
      </trkpt>
      <trkpt lat="44.36887" lon="4.41216">
        <ele>272.1904297</ele>
        <time>2011-05-28T12:22:59Z</time>
      </trkpt>
      <trkpt lat="44.36892" lon="4.41229">
        <ele>272.6711426</ele>
        <time>2011-05-28T12:23:03Z</time>
      </trkpt>
      <trkpt lat="44.36888" lon="4.41242">
        <ele>274.59375</ele>
        <time>2011-05-28T12:23:11Z</time>
      </trkpt>
      <trkpt lat="44.36884" lon="4.41256">
        <ele>275.5550537</ele>
        <time>2011-05-28T12:23:20Z</time>
      </trkpt>
      <trkpt lat="44.36879" lon="4.41272">
        <ele>277.958252</ele>
        <time>2011-05-28T12:23:29Z</time>
      </trkpt>
      <trkpt lat="44.36886" lon="4.41288">
        <ele>278.9196777</ele>
        <time>2011-05-28T12:23:40Z</time>
      </trkpt>
      <trkpt lat="44.36897" lon="4.41285">
        <ele>278.4389648</ele>
        <time>2011-05-28T12:23:46Z</time>
      </trkpt>
      <trkpt lat="44.36909" lon="4.41287">
        <ele>277.958252</ele>
        <time>2011-05-28T12:23:56Z</time>
      </trkpt>
      <trkpt lat="44.36921" lon="4.41297">
        <ele>278.4389648</ele>
        <time>2011-05-28T12:24:05Z</time>
      </trkpt>
      <trkpt lat="44.36927" lon="4.4131">
        <ele>279.4002686</ele>
        <time>2011-05-28T12:24:13Z</time>
      </trkpt>
      <trkpt lat="44.36939" lon="4.41322">
        <ele>280.8424072</ele>
        <time>2011-05-28T12:24:21Z</time>
      </trkpt>
      <trkpt lat="44.3695" lon="4.41333">
        <ele>282.2843018</ele>
        <time>2011-05-28T12:24:29Z</time>
      </trkpt>
      <trkpt lat="44.3696" lon="4.41345">
        <ele>281.8035889</ele>
        <time>2011-05-28T12:24:35Z</time>
      </trkpt>
      <trkpt lat="44.36973" lon="4.41357">
        <ele>284.2069092</ele>
        <time>2011-05-28T12:24:55Z</time>
      </trkpt>
      <trkpt lat="44.36981" lon="4.41368">
        <ele>287.0908203</ele>
        <time>2011-05-28T12:25:04Z</time>
      </trkpt>
      <trkpt lat="44.36987" lon="4.4138">
        <ele>286.1295166</ele>
        <time>2011-05-28T12:25:11Z</time>
      </trkpt>
      <trkpt lat="44.36992" lon="4.41392">
        <ele>287.5714111</ele>
        <time>2011-05-28T12:25:18Z</time>
      </trkpt>
      <trkpt lat="44.36997" lon="4.41405">
        <ele>288.532959</ele>
        <time>2011-05-28T12:25:24Z</time>
      </trkpt>
      <trkpt lat="44.37" lon="4.41419">
        <ele>289.4941406</ele>
        <time>2011-05-28T12:25:31Z</time>
      </trkpt>
      <trkpt lat="44.37006" lon="4.41432">
        <ele>289.9748535</ele>
        <time>2011-05-28T12:25:38Z</time>
      </trkpt>
      <trkpt lat="44.37012" lon="4.41444">
        <ele>290.4555664</ele>
        <time>2011-05-28T12:25:45Z</time>
      </trkpt>
      <trkpt lat="44.3702" lon="4.41458">
        <ele>290.9361572</ele>
        <time>2011-05-28T12:25:51Z</time>
      </trkpt>
      <trkpt lat="44.37027" lon="4.41471">
        <ele>290.9361572</ele>
        <time>2011-05-28T12:25:56Z</time>
      </trkpt>
      <trkpt lat="44.3703" lon="4.41485">
        <ele>291.416748</ele>
        <time>2011-05-28T12:26:00Z</time>
      </trkpt>
      <trkpt lat="44.3703" lon="4.415">
        <ele>290.4555664</ele>
        <time>2011-05-28T12:26:04Z</time>
      </trkpt>
      <trkpt lat="44.37033" lon="4.41514">
        <ele>289.4941406</ele>
        <time>2011-05-28T12:26:08Z</time>
      </trkpt>
      <trkpt lat="44.37038" lon="4.41526">
        <ele>289.0135498</ele>
        <time>2011-05-28T12:26:12Z</time>
      </trkpt>
      <trkpt lat="44.37049" lon="4.41536">
        <ele>289.0135498</ele>
        <time>2011-05-28T12:26:16Z</time>
      </trkpt>
      <trkpt lat="44.37057" lon="4.41548">
        <ele>288.532959</ele>
        <time>2011-05-28T12:26:20Z</time>
      </trkpt>
      <trkpt lat="44.37064" lon="4.41561">
        <ele>288.0522461</ele>
        <time>2011-05-28T12:26:25Z</time>
      </trkpt>
      <trkpt lat="44.37067" lon="4.41573">
        <ele>287.5714111</ele>
        <time>2011-05-28T12:26:29Z</time>
      </trkpt>
      <trkpt lat="44.37061" lon="4.41586">
        <ele>286.1295166</ele>
        <time>2011-05-28T12:26:33Z</time>
      </trkpt>
      <trkpt lat="44.37058" lon="4.41598">
        <ele>286.1295166</ele>
        <time>2011-05-28T12:26:36Z</time>
      </trkpt>
      <trkpt lat="44.37055" lon="4.41613">
        <ele>285.6488037</ele>
        <time>2011-05-28T12:26:41Z</time>
      </trkpt>
      <trkpt lat="44.37056" lon="4.41627">
        <ele>286.1295166</ele>
        <time>2011-05-28T12:26:45Z</time>
      </trkpt>
      <trkpt lat="44.37056" lon="4.41641">
        <ele>286.6102295</ele>
        <time>2011-05-28T12:26:51Z</time>
      </trkpt>
      <trkpt lat="44.37056" lon="4.41653">
        <ele>286.6102295</ele>
        <time>2011-05-28T12:27:06Z</time>
      </trkpt>
      <trkpt lat="44.3705" lon="4.41668">
        <ele>287.0908203</ele>
        <time>2011-05-28T12:27:19Z</time>
      </trkpt>
      <trkpt lat="44.37044" lon="4.41689">
        <ele>286.6102295</ele>
        <time>2011-05-28T12:27:58Z</time>
      </trkpt>
      <trkpt lat="44.37049" lon="4.41704">
        <ele>287.0908203</ele>
        <time>2011-05-28T12:28:13Z</time>
      </trkpt>
      <trkpt lat="44.37051" lon="4.41718">
        <ele>289.0135498</ele>
        <time>2011-05-28T12:28:27Z</time>
      </trkpt>
      <trkpt lat="44.37055" lon="4.41732">
        <ele>289.0135498</ele>
        <time>2011-05-28T12:28:38Z</time>
      </trkpt>
      <trkpt lat="44.37061" lon="4.41747">
        <ele>288.532959</ele>
        <time>2011-05-28T12:28:44Z</time>
      </trkpt>
      <trkpt lat="44.37072" lon="4.41756">
        <ele>288.532959</ele>
        <time>2011-05-28T12:28:54Z</time>
      </trkpt>
      <trkpt lat="44.3708" lon="4.41769">
        <ele>288.0522461</ele>
        <time>2011-05-28T12:28:59Z</time>
      </trkpt>
      <trkpt lat="44.37086" lon="4.41783">
        <ele>287.5714111</ele>
        <time>2011-05-28T12:29:05Z</time>
      </trkpt>
      <trkpt lat="44.37098" lon="4.41795">
        <ele>284.6876221</ele>
        <time>2011-05-28T12:29:15Z</time>
      </trkpt>
      <trkpt lat="44.37113" lon="4.41805">
        <ele>282.2843018</ele>
        <time>2011-05-28T12:29:22Z</time>
      </trkpt>
      <trkpt lat="44.37131" lon="4.41815">
        <ele>281.322998</ele>
        <time>2011-05-28T12:29:36Z</time>
      </trkpt>
      <trkpt lat="44.37146" lon="4.41823">
        <ele>284.2069092</ele>
        <time>2011-05-28T12:29:52Z</time>
      </trkpt>
      <trkpt lat="44.37162" lon="4.41826">
        <ele>286.6102295</ele>
        <time>2011-05-28T12:30:05Z</time>
      </trkpt>
      <trkpt lat="44.37173" lon="4.41829">
        <ele>288.0522461</ele>
        <time>2011-05-28T12:30:25Z</time>
      </trkpt>
      <trkpt lat="44.37183" lon="4.41829">
        <ele>285.6488037</ele>
        <time>2011-05-28T12:30:49Z</time>
      </trkpt>
      <trkpt lat="44.37186" lon="4.41837">
        <ele>285.1682129</ele>
        <time>2011-05-28T12:32:02Z</time>
      </trkpt>
      <trkpt lat="44.37194" lon="4.41842">
        <ele>284.2069092</ele>
        <time>2011-05-28T12:32:20Z</time>
      </trkpt>
      <trkpt lat="44.37203" lon="4.4185">
        <ele>283.2456055</ele>
        <time>2011-05-28T12:32:33Z</time>
      </trkpt>
      <trkpt lat="44.37212" lon="4.41859">
        <ele>282.7650146</ele>
        <time>2011-05-28T12:32:47Z</time>
      </trkpt>
      <trkpt lat="44.37219" lon="4.41868">
        <ele>280.8424072</ele>
        <time>2011-05-28T12:32:58Z</time>
      </trkpt>
      <trkpt lat="44.37226" lon="4.41876">
        <ele>280.3616943</ele>
        <time>2011-05-28T12:33:09Z</time>
      </trkpt>
      <trkpt lat="44.37233" lon="4.41886">
        <ele>279.8808594</ele>
        <time>2011-05-28T12:33:20Z</time>
      </trkpt>
      <trkpt lat="44.37238" lon="4.41896">
        <ele>278.9196777</ele>
        <time>2011-05-28T12:33:31Z</time>
      </trkpt>
      <trkpt lat="44.37247" lon="4.41902">
        <ele>278.9196777</ele>
        <time>2011-05-28T12:33:43Z</time>
      </trkpt>
      <trkpt lat="44.37256" lon="4.41911">
        <ele>278.4389648</ele>
        <time>2011-05-28T12:33:56Z</time>
      </trkpt>
      <trkpt lat="44.37261" lon="4.41923">
        <ele>276.9970703</ele>
        <time>2011-05-28T12:34:13Z</time>
      </trkpt>
      <trkpt lat="44.37271" lon="4.41931">
        <ele>278.9196777</ele>
        <time>2011-05-28T12:34:28Z</time>
      </trkpt>
      <trkpt lat="44.37278" lon="4.41942">
        <ele>277.4776611</ele>
        <time>2011-05-28T12:34:42Z</time>
      </trkpt>
      <trkpt lat="44.37287" lon="4.4195">
        <ele>277.958252</ele>
        <time>2011-05-28T12:34:59Z</time>
      </trkpt>
      <trkpt lat="44.37295" lon="4.41948">
        <ele>274.59375</ele>
        <time>2011-05-28T12:35:51Z</time>
      </trkpt>
      <trkpt lat="44.37301" lon="4.41945">
        <ele>274.59375</ele>
        <time>2011-05-28T12:37:03Z</time>
      </trkpt>
      <trkpt lat="44.37293" lon="4.41949">
        <ele>277.4776611</ele>
        <time>2011-05-28T12:37:17Z</time>
      </trkpt>
      <trkpt lat="44.37285" lon="4.41948">
        <ele>277.4776611</ele>
        <time>2011-05-28T12:37:30Z</time>
      </trkpt>
      <trkpt lat="44.37279" lon="4.41937">
        <ele>277.4776611</ele>
        <time>2011-05-28T12:37:51Z</time>
      </trkpt>
      <trkpt lat="44.37271" lon="4.41929">
        <ele>278.4389648</ele>
        <time>2011-05-28T12:38:05Z</time>
      </trkpt>
      <trkpt lat="44.37261" lon="4.4192">
        <ele>279.4002686</ele>
        <time>2011-05-28T12:38:18Z</time>
      </trkpt>
      <trkpt lat="44.37256" lon="4.41907">
        <ele>277.958252</ele>
        <time>2011-05-28T12:38:34Z</time>
      </trkpt>
      <trkpt lat="44.37247" lon="4.41898">
        <ele>277.958252</ele>
        <time>2011-05-28T12:38:56Z</time>
      </trkpt>
      <trkpt lat="44.37236" lon="4.41886">
        <ele>279.4002686</ele>
        <time>2011-05-28T12:39:08Z</time>
      </trkpt>
      <trkpt lat="44.3723" lon="4.41874">
        <ele>279.8808594</ele>
        <time>2011-05-28T12:39:19Z</time>
      </trkpt>
      <trkpt lat="44.37222" lon="4.41865">
        <ele>280.8424072</ele>
        <time>2011-05-28T12:39:32Z</time>
      </trkpt>
      <trkpt lat="44.37212" lon="4.41856">
        <ele>282.2843018</ele>
        <time>2011-05-28T12:39:50Z</time>
      </trkpt>
      <trkpt lat="44.37205" lon="4.41846">
        <ele>282.2843018</ele>
        <time>2011-05-28T12:40:04Z</time>
      </trkpt>
      <trkpt lat="44.37194" lon="4.4184">
        <ele>283.7261963</ele>
        <time>2011-05-28T12:40:17Z</time>
      </trkpt>
      <trkpt lat="44.37185" lon="4.41831">
        <ele>283.2456055</ele>
        <time>2011-05-28T12:40:59Z</time>
      </trkpt>
      <trkpt lat="44.37176" lon="4.41827">
        <ele>285.6488037</ele>
        <time>2011-05-28T12:41:52Z</time>
      </trkpt>
      <trkpt lat="44.3716" lon="4.41823">
        <ele>284.6876221</ele>
        <time>2011-05-28T12:42:21Z</time>
      </trkpt>
      <trkpt lat="44.37149" lon="4.41819">
        <ele>283.2456055</ele>
        <time>2011-05-28T12:42:28Z</time>
      </trkpt>
      <trkpt lat="44.37138" lon="4.41812">
        <ele>281.322998</ele>
        <time>2011-05-28T12:42:36Z</time>
      </trkpt>
      <trkpt lat="44.37128" lon="4.41807">
        <ele>283.7261963</ele>
        <time>2011-05-28T12:42:45Z</time>
      </trkpt>
      <trkpt lat="44.37118" lon="4.418">
        <ele>285.1682129</ele>
        <time>2011-05-28T12:42:53Z</time>
      </trkpt>
      <trkpt lat="44.37107" lon="4.41789">
        <ele>287.5714111</ele>
        <time>2011-05-28T12:43:11Z</time>
      </trkpt>
      <trkpt lat="44.37095" lon="4.41772">
        <ele>288.532959</ele>
        <time>2011-05-28T12:43:26Z</time>
      </trkpt>
      <trkpt lat="44.37087" lon="4.4176">
        <ele>288.532959</ele>
        <time>2011-05-28T12:43:33Z</time>
      </trkpt>
      <trkpt lat="44.37074" lon="4.41751">
        <ele>291.416748</ele>
        <time>2011-05-28T12:43:50Z</time>
      </trkpt>
      <trkpt lat="44.37067" lon="4.41739">
        <ele>291.416748</ele>
        <time>2011-05-28T12:43:56Z</time>
      </trkpt>
      <trkpt lat="44.37061" lon="4.41725">
        <ele>290.9361572</ele>
        <time>2011-05-28T12:44:01Z</time>
      </trkpt>
      <trkpt lat="44.37056" lon="4.41711">
        <ele>290.4555664</ele>
        <time>2011-05-28T12:44:07Z</time>
      </trkpt>
      <trkpt lat="44.37051" lon="4.41694">
        <ele>288.0522461</ele>
        <time>2011-05-28T12:44:20Z</time>
      </trkpt>
      <trkpt lat="44.37048" lon="4.41679">
        <ele>288.532959</ele>
        <time>2011-05-28T12:44:25Z</time>
      </trkpt>
      <trkpt lat="44.37054" lon="4.41665">
        <ele>289.4941406</ele>
        <time>2011-05-28T12:44:32Z</time>
      </trkpt>
      <trkpt lat="44.3706" lon="4.41653">
        <ele>289.4941406</ele>
        <time>2011-05-28T12:44:36Z</time>
      </trkpt>
      <trkpt lat="44.37063" lon="4.41638">
        <ele>289.0135498</ele>
        <time>2011-05-28T12:44:40Z</time>
      </trkpt>
      <trkpt lat="44.37061" lon="4.41625">
        <ele>288.532959</ele>
        <time>2011-05-28T12:44:43Z</time>
      </trkpt>
      <trkpt lat="44.37061" lon="4.41611">
        <ele>288.532959</ele>
        <time>2011-05-28T12:44:46Z</time>
      </trkpt>
      <trkpt lat="44.37061" lon="4.41597">
        <ele>288.0522461</ele>
        <time>2011-05-28T12:44:49Z</time>
      </trkpt>
      <trkpt lat="44.37063" lon="4.41581">
        <ele>288.532959</ele>
        <time>2011-05-28T12:44:53Z</time>
      </trkpt>
      <trkpt lat="44.37069" lon="4.41568">
        <ele>289.4941406</ele>
        <time>2011-05-28T12:44:57Z</time>
      </trkpt>
      <trkpt lat="44.37065" lon="4.41553">
        <ele>289.4941406</ele>
        <time>2011-05-28T12:45:01Z</time>
      </trkpt>
      <trkpt lat="44.37059" lon="4.41539">
        <ele>289.9748535</ele>
        <time>2011-05-28T12:45:05Z</time>
      </trkpt>
      <trkpt lat="44.37052" lon="4.4153">
        <ele>289.9748535</ele>
        <time>2011-05-28T12:45:08Z</time>
      </trkpt>
      <trkpt lat="44.37044" lon="4.41522">
        <ele>290.4555664</ele>
        <time>2011-05-28T12:45:11Z</time>
      </trkpt>
      <trkpt lat="44.37038" lon="4.41509">
        <ele>290.4555664</ele>
        <time>2011-05-28T12:45:15Z</time>
      </trkpt>
      <trkpt lat="44.37034" lon="4.41496">
        <ele>291.8974609</ele>
        <time>2011-05-28T12:45:19Z</time>
      </trkpt>
      <trkpt lat="44.37035" lon="4.41482">
        <ele>292.8587646</ele>
        <time>2011-05-28T12:45:23Z</time>
      </trkpt>
      <trkpt lat="44.37031" lon="4.41468">
        <ele>291.8974609</ele>
        <time>2011-05-28T12:45:27Z</time>
      </trkpt>
      <trkpt lat="44.37026" lon="4.41453">
        <ele>291.8974609</ele>
        <time>2011-05-28T12:45:31Z</time>
      </trkpt>
      <trkpt lat="44.37019" lon="4.41439">
        <ele>291.8974609</ele>
        <time>2011-05-28T12:45:35Z</time>
      </trkpt>
      <trkpt lat="44.37012" lon="4.41427">
        <ele>290.9361572</ele>
        <time>2011-05-28T12:45:38Z</time>
      </trkpt>
      <trkpt lat="44.37006" lon="4.41417">
        <ele>290.9361572</ele>
        <time>2011-05-28T12:45:42Z</time>
      </trkpt>
      <trkpt lat="44.37" lon="4.41402">
        <ele>289.9748535</ele>
        <time>2011-05-28T12:45:46Z</time>
      </trkpt>
      <trkpt lat="44.36992" lon="4.41389">
        <ele>288.532959</ele>
        <time>2011-05-28T12:45:50Z</time>
      </trkpt>
      <trkpt lat="44.36987" lon="4.41377">
        <ele>285.6488037</ele>
        <time>2011-05-28T12:45:53Z</time>
      </trkpt>
      <trkpt lat="44.3698" lon="4.41365">
        <ele>285.1682129</ele>
        <time>2011-05-28T12:45:56Z</time>
      </trkpt>
      <trkpt lat="44.36973" lon="4.41357">
        <ele>284.6876221</ele>
        <time>2011-05-28T12:45:59Z</time>
      </trkpt>
      <trkpt lat="44.36964" lon="4.41345">
        <ele>283.7261963</ele>
        <time>2011-05-28T12:46:03Z</time>
      </trkpt>
      <trkpt lat="44.36956" lon="4.41336">
        <ele>283.7261963</ele>
        <time>2011-05-28T12:46:06Z</time>
      </trkpt>
      <trkpt lat="44.36945" lon="4.41327">
        <ele>284.2069092</ele>
        <time>2011-05-28T12:46:10Z</time>
      </trkpt>
      <trkpt lat="44.36936" lon="4.41318">
        <ele>283.7261963</ele>
        <time>2011-05-28T12:46:14Z</time>
      </trkpt>
      <trkpt lat="44.36929" lon="4.41304">
        <ele>281.8035889</ele>
        <time>2011-05-28T12:46:18Z</time>
      </trkpt>
      <trkpt lat="44.3692" lon="4.41296">
        <ele>281.8035889</ele>
        <time>2011-05-28T12:46:21Z</time>
      </trkpt>
      <trkpt lat="44.36909" lon="4.4129">
        <ele>280.8424072</ele>
        <time>2011-05-28T12:46:25Z</time>
      </trkpt>
      <trkpt lat="44.36899" lon="4.41289">
        <ele>281.322998</ele>
        <time>2011-05-28T12:46:30Z</time>
      </trkpt>
      <trkpt lat="44.3689" lon="4.41294">
        <ele>281.322998</ele>
        <time>2011-05-28T12:46:33Z</time>
      </trkpt>
      <trkpt lat="44.3688" lon="4.41289">
        <ele>280.8424072</ele>
        <time>2011-05-28T12:46:37Z</time>
      </trkpt>
      <trkpt lat="44.36878" lon="4.41274">
        <ele>279.4002686</ele>
        <time>2011-05-28T12:46:40Z</time>
      </trkpt>
      <trkpt lat="44.36883" lon="4.41255">
        <ele>276.9970703</ele>
        <time>2011-05-28T12:46:43Z</time>
      </trkpt>
      <trkpt lat="44.36888" lon="4.41241">
        <ele>276.0356445</ele>
        <time>2011-05-28T12:46:45Z</time>
      </trkpt>
      <trkpt lat="44.36892" lon="4.41228">
        <ele>275.0744629</ele>
        <time>2011-05-28T12:46:47Z</time>
      </trkpt>
      <trkpt lat="44.36889" lon="4.41214">
        <ele>274.59375</ele>
        <time>2011-05-28T12:46:50Z</time>
      </trkpt>
      <trkpt lat="44.36879" lon="4.41209">
        <ele>274.1130371</ele>
        <time>2011-05-28T12:46:53Z</time>
      </trkpt>
      <trkpt lat="44.36867" lon="4.4121">
        <ele>274.59375</ele>
        <time>2011-05-28T12:46:57Z</time>
      </trkpt>
      <trkpt lat="44.36856" lon="4.41205">
        <ele>273.6324463</ele>
        <time>2011-05-28T12:47:00Z</time>
      </trkpt>
      <trkpt lat="44.36848" lon="4.41197">
        <ele>271.229126</ele>
        <time>2011-05-28T12:47:02Z</time>
      </trkpt>
      <trkpt lat="44.36841" lon="4.41184">
        <ele>268.8258057</ele>
        <time>2011-05-28T12:47:05Z</time>
      </trkpt>
      <trkpt lat="44.36837" lon="4.41171">
        <ele>267.864502</ele>
        <time>2011-05-28T12:47:09Z</time>
      </trkpt>
      <trkpt lat="44.36837" lon="4.41156">
        <ele>266.9031982</ele>
        <time>2011-05-28T12:47:14Z</time>
      </trkpt>
      <trkpt lat="44.36829" lon="4.41156">
        <ele>267.864502</ele>
        <time>2011-05-28T12:47:20Z</time>
      </trkpt>
      <trkpt lat="44.36823" lon="4.4115">
        <ele>268.3450928</ele>
        <time>2011-05-28T12:47:25Z</time>
      </trkpt>
      <trkpt lat="44.3682" lon="4.41136">
        <ele>268.3450928</ele>
        <time>2011-05-28T12:47:29Z</time>
      </trkpt>
      <trkpt lat="44.36816" lon="4.4112">
        <ele>267.864502</ele>
        <time>2011-05-28T12:47:33Z</time>
      </trkpt>
      <trkpt lat="44.36808" lon="4.4111">
        <ele>267.864502</ele>
        <time>2011-05-28T12:47:36Z</time>
      </trkpt>
      <trkpt lat="44.368" lon="4.41103">
        <ele>267.864502</ele>
        <time>2011-05-28T12:47:39Z</time>
      </trkpt>
      <trkpt lat="44.36789" lon="4.41097">
        <ele>268.3450928</ele>
        <time>2011-05-28T12:47:43Z</time>
      </trkpt>
      <trkpt lat="44.3678" lon="4.41091">
        <ele>268.3450928</ele>
        <time>2011-05-28T12:47:47Z</time>
      </trkpt>
      <trkpt lat="44.36771" lon="4.41087">
        <ele>268.3450928</ele>
        <time>2011-05-28T12:47:51Z</time>
      </trkpt>
      <trkpt lat="44.36761" lon="4.4108">
        <ele>267.3839111</ele>
        <time>2011-05-28T12:47:56Z</time>
      </trkpt>
      <trkpt lat="44.36752" lon="4.41074">
        <ele>266.4224854</ele>
        <time>2011-05-28T12:48:01Z</time>
      </trkpt>
      <trkpt lat="44.36741" lon="4.41068">
        <ele>264.9805908</ele>
        <time>2011-05-28T12:48:04Z</time>
      </trkpt>
      <trkpt lat="44.36732" lon="4.41062">
        <ele>263.5385742</ele>
        <time>2011-05-28T12:48:06Z</time>
      </trkpt>
      <trkpt lat="44.36723" lon="4.41052">
        <ele>261.6159668</ele>
        <time>2011-05-28T12:48:08Z</time>
      </trkpt>
      <trkpt lat="44.36717" lon="4.41039">
        <ele>261.1352539</ele>
        <time>2011-05-28T12:48:10Z</time>
      </trkpt>
      <trkpt lat="44.36711" lon="4.41029">
        <ele>262.0965576</ele>
        <time>2011-05-28T12:48:13Z</time>
      </trkpt>
      <trkpt lat="44.36706" lon="4.41021">
        <ele>264.0192871</ele>
        <time>2011-05-28T12:48:36Z</time>
      </trkpt>
      <trkpt lat="44.367" lon="4.4101">
        <ele>265.9418945</ele>
        <time>2011-05-28T12:48:50Z</time>
      </trkpt>
      <trkpt lat="44.36697" lon="4.40995">
        <ele>267.3839111</ele>
        <time>2011-05-28T12:48:58Z</time>
      </trkpt>
      <trkpt lat="44.36692" lon="4.40983">
        <ele>268.3450928</ele>
        <time>2011-05-28T12:49:06Z</time>
      </trkpt>
      <trkpt lat="44.36687" lon="4.40972">
        <ele>268.3450928</ele>
        <time>2011-05-28T12:49:13Z</time>
      </trkpt>
      <trkpt lat="44.36681" lon="4.40961">
        <ele>270.2677002</ele>
        <time>2011-05-28T12:49:20Z</time>
      </trkpt>
      <trkpt lat="44.36673" lon="4.40953">
        <ele>271.7097168</ele>
        <time>2011-05-28T12:49:26Z</time>
      </trkpt>
      <trkpt lat="44.36665" lon="4.40946">
        <ele>272.6711426</ele>
        <time>2011-05-28T12:49:33Z</time>
      </trkpt>
      <trkpt lat="44.36657" lon="4.40938">
        <ele>274.1130371</ele>
        <time>2011-05-28T12:49:39Z</time>
      </trkpt>
      <trkpt lat="44.36651" lon="4.40926">
        <ele>274.59375</ele>
        <time>2011-05-28T12:49:45Z</time>
      </trkpt>
      <trkpt lat="44.36645" lon="4.40913">
        <ele>275.0744629</ele>
        <time>2011-05-28T12:49:51Z</time>
      </trkpt>
      <trkpt lat="44.36641" lon="4.40899">
        <ele>275.0744629</ele>
        <time>2011-05-28T12:49:56Z</time>
      </trkpt>
      <trkpt lat="44.36639" lon="4.40885">
        <ele>275.0744629</ele>
        <time>2011-05-28T12:50:01Z</time>
      </trkpt>
      <trkpt lat="44.36637" lon="4.40871">
        <ele>275.0744629</ele>
        <time>2011-05-28T12:50:06Z</time>
      </trkpt>
      <trkpt lat="44.36632" lon="4.40858">
        <ele>275.5550537</ele>
        <time>2011-05-28T12:50:12Z</time>
      </trkpt>
      <trkpt lat="44.36625" lon="4.40848">
        <ele>276.5163574</ele>
        <time>2011-05-28T12:50:18Z</time>
      </trkpt>
      <trkpt lat="44.3662" lon="4.40837">
        <ele>277.4776611</ele>
        <time>2011-05-28T12:50:24Z</time>
      </trkpt>
      <trkpt lat="44.36616" lon="4.40826">
        <ele>277.958252</ele>
        <time>2011-05-28T12:50:32Z</time>
      </trkpt>
      <trkpt lat="44.36618" lon="4.40819">
        <ele>276.0356445</ele>
        <time>2011-05-28T13:10:15Z</time>
      </trkpt>
      <trkpt lat="44.36625" lon="4.40812">
        <ele>276.5163574</ele>
        <time>2011-05-28T13:12:03Z</time>
      </trkpt>
      <trkpt lat="44.36625" lon="4.40797">
        <ele>274.1130371</ele>
        <time>2011-05-28T13:12:08Z</time>
      </trkpt>
      <trkpt lat="44.36623" lon="4.40782">
        <ele>273.1518555</ele>
        <time>2011-05-28T13:12:11Z</time>
      </trkpt>
      <trkpt lat="44.36624" lon="4.40764">
        <ele>272.6711426</ele>
        <time>2011-05-28T13:12:14Z</time>
      </trkpt>
      <trkpt lat="44.36631" lon="4.40749">
        <ele>272.1904297</ele>
        <time>2011-05-28T13:12:17Z</time>
      </trkpt>
      <trkpt lat="44.36639" lon="4.40739">
        <ele>273.1518555</ele>
        <time>2011-05-28T13:12:20Z</time>
      </trkpt>
      <trkpt lat="44.36644" lon="4.40728">
        <ele>272.6711426</ele>
        <time>2011-05-28T13:12:23Z</time>
      </trkpt>
      <trkpt lat="44.36651" lon="4.40716">
        <ele>273.6324463</ele>
        <time>2011-05-28T13:12:27Z</time>
      </trkpt>
      <trkpt lat="44.36657" lon="4.40705">
        <ele>276.0356445</ele>
        <time>2011-05-28T13:12:32Z</time>
      </trkpt>
      <trkpt lat="44.36662" lon="4.40692">
        <ele>276.5163574</ele>
        <time>2011-05-28T13:12:37Z</time>
      </trkpt>
      <trkpt lat="44.36667" lon="4.4068">
        <ele>276.5163574</ele>
        <time>2011-05-28T13:12:41Z</time>
      </trkpt>
      <trkpt lat="44.36672" lon="4.40665">
        <ele>276.5163574</ele>
        <time>2011-05-28T13:12:45Z</time>
      </trkpt>
      <trkpt lat="44.36678" lon="4.40651">
        <ele>276.9970703</ele>
        <time>2011-05-28T13:12:49Z</time>
      </trkpt>
      <trkpt lat="44.36683" lon="4.40635">
        <ele>276.5163574</ele>
        <time>2011-05-28T13:12:53Z</time>
      </trkpt>
      <trkpt lat="44.36687" lon="4.40621">
        <ele>277.958252</ele>
        <time>2011-05-28T13:12:57Z</time>
      </trkpt>
      <trkpt lat="44.36692" lon="4.40605">
        <ele>277.958252</ele>
        <time>2011-05-28T13:13:01Z</time>
      </trkpt>
      <trkpt lat="44.36696" lon="4.40593">
        <ele>277.4776611</ele>
        <time>2011-05-28T13:13:04Z</time>
      </trkpt>
      <trkpt lat="44.367" lon="4.40577">
        <ele>277.958252</ele>
        <time>2011-05-28T13:13:08Z</time>
      </trkpt>
      <trkpt lat="44.36706" lon="4.40563">
        <ele>278.4389648</ele>
        <time>2011-05-28T13:13:12Z</time>
      </trkpt>
      <trkpt lat="44.3671" lon="4.40551">
        <ele>278.9196777</ele>
        <time>2011-05-28T13:13:15Z</time>
      </trkpt>
      <trkpt lat="44.36713" lon="4.40538">
        <ele>279.4002686</ele>
        <time>2011-05-28T13:13:18Z</time>
      </trkpt>
      <trkpt lat="44.36718" lon="4.40525">
        <ele>279.4002686</ele>
        <time>2011-05-28T13:13:21Z</time>
      </trkpt>
      <trkpt lat="44.36722" lon="4.4051">
        <ele>279.4002686</ele>
        <time>2011-05-28T13:13:24Z</time>
      </trkpt>
      <trkpt lat="44.36725" lon="4.40495">
        <ele>280.3616943</ele>
        <time>2011-05-28T13:13:27Z</time>
      </trkpt>
      <trkpt lat="44.3673" lon="4.4048">
        <ele>280.3616943</ele>
        <time>2011-05-28T13:13:30Z</time>
      </trkpt>
      <trkpt lat="44.36735" lon="4.40464">
        <ele>280.3616943</ele>
        <time>2011-05-28T13:13:33Z</time>
      </trkpt>
      <trkpt lat="44.36739" lon="4.40449">
        <ele>280.3616943</ele>
        <time>2011-05-28T13:13:36Z</time>
      </trkpt>
      <trkpt lat="44.36744" lon="4.40433">
        <ele>279.8808594</ele>
        <time>2011-05-28T13:13:39Z</time>
      </trkpt>
      <trkpt lat="44.36749" lon="4.40416">
        <ele>279.4002686</ele>
        <time>2011-05-28T13:13:42Z</time>
      </trkpt>
      <trkpt lat="44.36753" lon="4.404">
        <ele>278.9196777</ele>
        <time>2011-05-28T13:13:45Z</time>
      </trkpt>
      <trkpt lat="44.36757" lon="4.40384">
        <ele>279.4002686</ele>
        <time>2011-05-28T13:13:48Z</time>
      </trkpt>
      <trkpt lat="44.36762" lon="4.40368">
        <ele>279.8808594</ele>
        <time>2011-05-28T13:13:51Z</time>
      </trkpt>
      <trkpt lat="44.36767" lon="4.40351">
        <ele>279.4002686</ele>
        <time>2011-05-28T13:13:54Z</time>
      </trkpt>
      <trkpt lat="44.3677" lon="4.40338">
        <ele>278.9196777</ele>
        <time>2011-05-28T13:13:56Z</time>
      </trkpt>
      <trkpt lat="44.36772" lon="4.40325">
        <ele>278.9196777</ele>
        <time>2011-05-28T13:13:58Z</time>
      </trkpt>
      <trkpt lat="44.36774" lon="4.40312">
        <ele>278.4389648</ele>
        <time>2011-05-28T13:14:00Z</time>
      </trkpt>
      <trkpt lat="44.36778" lon="4.40294">
        <ele>277.958252</ele>
        <time>2011-05-28T13:14:03Z</time>
      </trkpt>
      <trkpt lat="44.36782" lon="4.40276">
        <ele>276.9970703</ele>
        <time>2011-05-28T13:14:06Z</time>
      </trkpt>
      <trkpt lat="44.36786" lon="4.40258">
        <ele>276.5163574</ele>
        <time>2011-05-28T13:14:09Z</time>
      </trkpt>
      <trkpt lat="44.36789" lon="4.4024">
        <ele>276.0356445</ele>
        <time>2011-05-28T13:14:12Z</time>
      </trkpt>
      <trkpt lat="44.36792" lon="4.40222">
        <ele>275.0744629</ele>
        <time>2011-05-28T13:14:15Z</time>
      </trkpt>
      <trkpt lat="44.3679" lon="4.40205">
        <ele>273.6324463</ele>
        <time>2011-05-28T13:14:18Z</time>
      </trkpt>
      <trkpt lat="44.36786" lon="4.40186">
        <ele>273.6324463</ele>
        <time>2011-05-28T13:14:21Z</time>
      </trkpt>
      <trkpt lat="44.36782" lon="4.40174">
        <ele>273.6324463</ele>
        <time>2011-05-28T13:14:23Z</time>
      </trkpt>
      <trkpt lat="44.36777" lon="4.40161">
        <ele>273.6324463</ele>
        <time>2011-05-28T13:14:25Z</time>
      </trkpt>
      <trkpt lat="44.36771" lon="4.40147">
        <ele>273.6324463</ele>
        <time>2011-05-28T13:14:27Z</time>
      </trkpt>
      <trkpt lat="44.36766" lon="4.40132">
        <ele>273.6324463</ele>
        <time>2011-05-28T13:14:29Z</time>
      </trkpt>
      <trkpt lat="44.36762" lon="4.40116">
        <ele>272.6711426</ele>
        <time>2011-05-28T13:14:31Z</time>
      </trkpt>
      <trkpt lat="44.3676" lon="4.40099">
        <ele>272.1904297</ele>
        <time>2011-05-28T13:14:33Z</time>
      </trkpt>
      <trkpt lat="44.36759" lon="4.40082">
        <ele>272.1904297</ele>
        <time>2011-05-28T13:14:35Z</time>
      </trkpt>
      <trkpt lat="44.36756" lon="4.40064">
        <ele>271.229126</ele>
        <time>2011-05-28T13:14:37Z</time>
      </trkpt>
      <trkpt lat="44.3675" lon="4.40049">
        <ele>271.7097168</ele>
        <time>2011-05-28T13:14:39Z</time>
      </trkpt>
      <trkpt lat="44.36742" lon="4.40037">
        <ele>271.229126</ele>
        <time>2011-05-28T13:14:41Z</time>
      </trkpt>
      <trkpt lat="44.36736" lon="4.40023">
        <ele>271.229126</ele>
        <time>2011-05-28T13:14:43Z</time>
      </trkpt>
      <trkpt lat="44.36731" lon="4.40009">
        <ele>271.229126</ele>
        <time>2011-05-28T13:14:45Z</time>
      </trkpt>
      <trkpt lat="44.36724" lon="4.39996">
        <ele>272.1904297</ele>
        <time>2011-05-28T13:14:47Z</time>
      </trkpt>
      <trkpt lat="44.36717" lon="4.39985">
        <ele>272.6711426</ele>
        <time>2011-05-28T13:14:49Z</time>
      </trkpt>
      <trkpt lat="44.3671" lon="4.39975">
        <ele>272.6711426</ele>
        <time>2011-05-28T13:14:51Z</time>
      </trkpt>
      <trkpt lat="44.36704" lon="4.39965">
        <ele>273.1518555</ele>
        <time>2011-05-28T13:14:53Z</time>
      </trkpt>
      <trkpt lat="44.36697" lon="4.39952">
        <ele>274.59375</ele>
        <time>2011-05-28T13:14:56Z</time>
      </trkpt>
      <trkpt lat="44.3669" lon="4.39939">
        <ele>274.1130371</ele>
        <time>2011-05-28T13:14:59Z</time>
      </trkpt>
      <trkpt lat="44.36683" lon="4.39923">
        <ele>275.0744629</ele>
        <time>2011-05-28T13:15:02Z</time>
      </trkpt>
      <trkpt lat="44.36675" lon="4.39907">
        <ele>275.0744629</ele>
        <time>2011-05-28T13:15:05Z</time>
      </trkpt>
      <trkpt lat="44.36667" lon="4.3989">
        <ele>275.5550537</ele>
        <time>2011-05-28T13:15:08Z</time>
      </trkpt>
      <trkpt lat="44.36659" lon="4.39875">
        <ele>276.5163574</ele>
        <time>2011-05-28T13:15:11Z</time>
      </trkpt>
      <trkpt lat="44.36654" lon="4.39861">
        <ele>276.0356445</ele>
        <time>2011-05-28T13:15:14Z</time>
      </trkpt>
      <trkpt lat="44.36649" lon="4.39845">
        <ele>276.0356445</ele>
        <time>2011-05-28T13:15:17Z</time>
      </trkpt>
      <trkpt lat="44.36641" lon="4.3983">
        <ele>276.0356445</ele>
        <time>2011-05-28T13:15:20Z</time>
      </trkpt>
      <trkpt lat="44.36634" lon="4.39814">
        <ele>275.5550537</ele>
        <time>2011-05-28T13:15:23Z</time>
      </trkpt>
      <trkpt lat="44.36628" lon="4.39798">
        <ele>274.59375</ele>
        <time>2011-05-28T13:15:26Z</time>
      </trkpt>
      <trkpt lat="44.36622" lon="4.39781">
        <ele>274.59375</ele>
        <time>2011-05-28T13:15:29Z</time>
      </trkpt>
      <trkpt lat="44.36616" lon="4.39769">
        <ele>274.59375</ele>
        <time>2011-05-28T13:15:31Z</time>
      </trkpt>
      <trkpt lat="44.36611" lon="4.39756">
        <ele>274.1130371</ele>
        <time>2011-05-28T13:15:33Z</time>
      </trkpt>
      <trkpt lat="44.36605" lon="4.39745">
        <ele>274.1130371</ele>
        <time>2011-05-28T13:15:35Z</time>
      </trkpt>
      <trkpt lat="44.36598" lon="4.39735">
        <ele>274.1130371</ele>
        <time>2011-05-28T13:15:37Z</time>
      </trkpt>
      <trkpt lat="44.3659" lon="4.39725">
        <ele>273.6324463</ele>
        <time>2011-05-28T13:15:39Z</time>
      </trkpt>
      <trkpt lat="44.36583" lon="4.39716">
        <ele>273.1518555</ele>
        <time>2011-05-28T13:15:41Z</time>
      </trkpt>
      <trkpt lat="44.36573" lon="4.39703">
        <ele>274.1130371</ele>
        <time>2011-05-28T13:15:44Z</time>
      </trkpt>
      <trkpt lat="44.36575" lon="4.39685">
        <ele>272.6711426</ele>
        <time>2011-05-28T13:15:47Z</time>
      </trkpt>
      <trkpt lat="44.36582" lon="4.39671">
        <ele>271.7097168</ele>
        <time>2011-05-28T13:15:50Z</time>
      </trkpt>
      <trkpt lat="44.36594" lon="4.39661">
        <ele>271.229126</ele>
        <time>2011-05-28T13:15:53Z</time>
      </trkpt>
      <trkpt lat="44.36603" lon="4.39653">
        <ele>268.8258057</ele>
        <time>2011-05-28T13:15:55Z</time>
      </trkpt>
      <trkpt lat="44.36612" lon="4.39645">
        <ele>267.864502</ele>
        <time>2011-05-28T13:15:57Z</time>
      </trkpt>
      <trkpt lat="44.36622" lon="4.39637">
        <ele>266.9031982</ele>
        <time>2011-05-28T13:15:59Z</time>
      </trkpt>
      <trkpt lat="44.36632" lon="4.39628">
        <ele>267.3839111</ele>
        <time>2011-05-28T13:16:01Z</time>
      </trkpt>
      <trkpt lat="44.36645" lon="4.39619">
        <ele>266.9031982</ele>
        <time>2011-05-28T13:16:03Z</time>
      </trkpt>
      <trkpt lat="44.36657" lon="4.39609">
        <ele>266.4224854</ele>
        <time>2011-05-28T13:16:05Z</time>
      </trkpt>
      <trkpt lat="44.36669" lon="4.396">
        <ele>265.9418945</ele>
        <time>2011-05-28T13:16:07Z</time>
      </trkpt>
      <trkpt lat="44.36682" lon="4.39595">
        <ele>264.9805908</ele>
        <time>2011-05-28T13:16:09Z</time>
      </trkpt>
      <trkpt lat="44.36694" lon="4.39596">
        <ele>264.0192871</ele>
        <time>2011-05-28T13:16:11Z</time>
      </trkpt>
      <trkpt lat="44.36706" lon="4.39594">
        <ele>264.0192871</ele>
        <time>2011-05-28T13:16:13Z</time>
      </trkpt>
      <trkpt lat="44.36717" lon="4.39596">
        <ele>262.5771484</ele>
        <time>2011-05-28T13:16:15Z</time>
      </trkpt>
      <trkpt lat="44.36727" lon="4.39602">
        <ele>262.0965576</ele>
        <time>2011-05-28T13:16:17Z</time>
      </trkpt>
      <trkpt lat="44.36738" lon="4.39609">
        <ele>260.654541</ele>
        <time>2011-05-28T13:16:19Z</time>
      </trkpt>
      <trkpt lat="44.36748" lon="4.39617">
        <ele>261.1352539</ele>
        <time>2011-05-28T13:16:21Z</time>
      </trkpt>
      <trkpt lat="44.36758" lon="4.39625">
        <ele>260.654541</ele>
        <time>2011-05-28T13:16:23Z</time>
      </trkpt>
      <trkpt lat="44.36768" lon="4.39631">
        <ele>258.7319336</ele>
        <time>2011-05-28T13:16:25Z</time>
      </trkpt>
      <trkpt lat="44.36778" lon="4.39637">
        <ele>257.770752</ele>
        <time>2011-05-28T13:16:27Z</time>
      </trkpt>
      <trkpt lat="44.36789" lon="4.39642">
        <ele>256.3287354</ele>
        <time>2011-05-28T13:16:29Z</time>
      </trkpt>
      <trkpt lat="44.368" lon="4.39646">
        <ele>255.8480225</ele>
        <time>2011-05-28T13:16:31Z</time>
      </trkpt>
      <trkpt lat="44.3681" lon="4.39653">
        <ele>254.8865967</ele>
        <time>2011-05-28T13:16:33Z</time>
      </trkpt>
      <trkpt lat="44.3682" lon="4.39658">
        <ele>254.4060059</ele>
        <time>2011-05-28T13:16:35Z</time>
      </trkpt>
      <trkpt lat="44.36829" lon="4.39659">
        <ele>254.4060059</ele>
        <time>2011-05-28T13:16:37Z</time>
      </trkpt>
      <trkpt lat="44.36838" lon="4.39655">
        <ele>253.925415</ele>
        <time>2011-05-28T13:16:39Z</time>
      </trkpt>
      <trkpt lat="44.36849" lon="4.39649">
        <ele>253.4447021</ele>
        <time>2011-05-28T13:16:41Z</time>
      </trkpt>
      <trkpt lat="44.3686" lon="4.39643">
        <ele>252.9639893</ele>
        <time>2011-05-28T13:16:43Z</time>
      </trkpt>
      <trkpt lat="44.36872" lon="4.39636">
        <ele>251.5220947</ele>
        <time>2011-05-28T13:16:45Z</time>
      </trkpt>
      <trkpt lat="44.36883" lon="4.39628">
        <ele>250.560791</ele>
        <time>2011-05-28T13:16:47Z</time>
      </trkpt>
      <trkpt lat="44.36892" lon="4.3962">
        <ele>249.5994873</ele>
        <time>2011-05-28T13:16:49Z</time>
      </trkpt>
      <trkpt lat="44.36899" lon="4.39611">
        <ele>248.1575928</ele>
        <time>2011-05-28T13:16:51Z</time>
      </trkpt>
      <trkpt lat="44.36908" lon="4.39602">
        <ele>247.1960449</ele>
        <time>2011-05-28T13:16:53Z</time>
      </trkpt>
      <trkpt lat="44.36919" lon="4.39595">
        <ele>245.7541504</ele>
        <time>2011-05-28T13:16:55Z</time>
      </trkpt>
      <trkpt lat="44.36927" lon="4.39587">
        <ele>244.3122559</ele>
        <time>2011-05-28T13:16:57Z</time>
      </trkpt>
      <trkpt lat="44.36935" lon="4.39578">
        <ele>244.7928467</ele>
        <time>2011-05-28T13:16:59Z</time>
      </trkpt>
      <trkpt lat="44.36943" lon="4.39569">
        <ele>244.3122559</ele>
        <time>2011-05-28T13:17:01Z</time>
      </trkpt>
      <trkpt lat="44.36949" lon="4.39559">
        <ele>242.8702393</ele>
        <time>2011-05-28T13:17:03Z</time>
      </trkpt>
      <trkpt lat="44.36953" lon="4.39546">
        <ele>242.3896484</ele>
        <time>2011-05-28T13:17:05Z</time>
      </trkpt>
      <trkpt lat="44.36957" lon="4.39533">
        <ele>240.9476318</ele>
        <time>2011-05-28T13:17:07Z</time>
      </trkpt>
      <trkpt lat="44.36959" lon="4.39519">
        <ele>239.5054932</ele>
        <time>2011-05-28T13:17:09Z</time>
      </trkpt>
      <trkpt lat="44.36959" lon="4.39504">
        <ele>239.5054932</ele>
        <time>2011-05-28T13:17:11Z</time>
      </trkpt>
      <trkpt lat="44.36964" lon="4.39487">
        <ele>238.0635986</ele>
        <time>2011-05-28T13:17:14Z</time>
      </trkpt>
      <trkpt lat="44.36974" lon="4.39481">
        <ele>236.6217041</ele>
        <time>2011-05-28T13:17:17Z</time>
      </trkpt>
      <trkpt lat="44.36984" lon="4.39477">
        <ele>236.6217041</ele>
        <time>2011-05-28T13:17:20Z</time>
      </trkpt>
      <trkpt lat="44.36994" lon="4.39473">
        <ele>234.6990967</ele>
        <time>2011-05-28T13:17:22Z</time>
      </trkpt>
      <trkpt lat="44.37003" lon="4.39467">
        <ele>233.2570801</ele>
        <time>2011-05-28T13:17:24Z</time>
      </trkpt>
      <trkpt lat="44.37014" lon="4.3946">
        <ele>233.2570801</ele>
        <time>2011-05-28T13:17:26Z</time>
      </trkpt>
      <trkpt lat="44.37024" lon="4.3945">
        <ele>231.3343506</ele>
        <time>2011-05-28T13:17:28Z</time>
      </trkpt>
      <trkpt lat="44.37033" lon="4.3944">
        <ele>230.8537598</ele>
        <time>2011-05-28T13:17:30Z</time>
      </trkpt>
      <trkpt lat="44.37042" lon="4.39431">
        <ele>230.8537598</ele>
        <time>2011-05-28T13:17:32Z</time>
      </trkpt>
      <trkpt lat="44.37051" lon="4.39423">
        <ele>229.4117432</ele>
        <time>2011-05-28T13:17:34Z</time>
      </trkpt>
      <trkpt lat="44.37059" lon="4.39414">
        <ele>228.4504395</ele>
        <time>2011-05-28T13:17:36Z</time>
      </trkpt>
      <trkpt lat="44.37067" lon="4.39406">
        <ele>228.4504395</ele>
        <time>2011-05-28T13:17:38Z</time>
      </trkpt>
      <trkpt lat="44.37075" lon="4.39399">
        <ele>227.9697266</ele>
        <time>2011-05-28T13:17:40Z</time>
      </trkpt>
      <trkpt lat="44.37084" lon="4.39394">
        <ele>227.0085449</ele>
        <time>2011-05-28T13:17:42Z</time>
      </trkpt>
      <trkpt lat="44.37095" lon="4.3939">
        <ele>225.5665283</ele>
        <time>2011-05-28T13:17:44Z</time>
      </trkpt>
      <trkpt lat="44.37105" lon="4.39385">
        <ele>224.1245117</ele>
        <time>2011-05-28T13:17:46Z</time>
      </trkpt>
      <trkpt lat="44.37115" lon="4.39379">
        <ele>223.6437988</ele>
        <time>2011-05-28T13:17:48Z</time>
      </trkpt>
      <trkpt lat="44.37126" lon="4.39371">
        <ele>224.1245117</ele>
        <time>2011-05-28T13:17:50Z</time>
      </trkpt>
      <trkpt lat="44.37136" lon="4.39364">
        <ele>224.1245117</ele>
        <time>2011-05-28T13:17:52Z</time>
      </trkpt>
      <trkpt lat="44.37146" lon="4.39355">
        <ele>223.6437988</ele>
        <time>2011-05-28T13:17:54Z</time>
      </trkpt>
      <trkpt lat="44.37155" lon="4.39346">
        <ele>221.7211914</ele>
        <time>2011-05-28T13:17:56Z</time>
      </trkpt>
      <trkpt lat="44.37164" lon="4.39337">
        <ele>220.2791748</ele>
        <time>2011-05-28T13:17:58Z</time>
      </trkpt>
      <trkpt lat="44.37172" lon="4.39326">
        <ele>220.2791748</ele>
        <time>2011-05-28T13:18:00Z</time>
      </trkpt>
      <trkpt lat="44.3718" lon="4.39315">
        <ele>218.8372803</ele>
        <time>2011-05-28T13:18:02Z</time>
      </trkpt>
      <trkpt lat="44.37185" lon="4.39303">
        <ele>217.8759766</ele>
        <time>2011-05-28T13:18:04Z</time>
      </trkpt>
      <trkpt lat="44.37188" lon="4.39291">
        <ele>217.8759766</ele>
        <time>2011-05-28T13:18:06Z</time>
      </trkpt>
      <trkpt lat="44.37185" lon="4.39273">
        <ele>216.43396</ele>
        <time>2011-05-28T13:18:09Z</time>
      </trkpt>
      <trkpt lat="44.37183" lon="4.39256">
        <ele>214.5112305</ele>
        <time>2011-05-28T13:18:12Z</time>
      </trkpt>
      <trkpt lat="44.37185" lon="4.39241">
        <ele>214.0306396</ele>
        <time>2011-05-28T13:18:16Z</time>
      </trkpt>
      <trkpt lat="44.37194" lon="4.39232">
        <ele>212.588623</ele>
        <time>2011-05-28T13:18:22Z</time>
      </trkpt>
      <trkpt lat="44.37203" lon="4.39226">
        <ele>212.1080322</ele>
        <time>2011-05-28T13:18:25Z</time>
      </trkpt>
      <trkpt lat="44.37211" lon="4.39218">
        <ele>212.1080322</ele>
        <time>2011-05-28T13:18:28Z</time>
      </trkpt>
      <trkpt lat="44.3722" lon="4.3921">
        <ele>212.1080322</ele>
        <time>2011-05-28T13:18:31Z</time>
      </trkpt>
      <trkpt lat="44.37234" lon="4.39208">
        <ele>210.1854248</ele>
        <time>2011-05-28T13:18:34Z</time>
      </trkpt>
      <trkpt lat="44.37251" lon="4.39211">
        <ele>210.1854248</ele>
        <time>2011-05-28T13:18:37Z</time>
      </trkpt>
      <trkpt lat="44.37262" lon="4.39213">
        <ele>207.3013916</ele>
        <time>2011-05-28T13:18:39Z</time>
      </trkpt>
      <trkpt lat="44.37273" lon="4.39217">
        <ele>205.8594971</ele>
        <time>2011-05-28T13:18:41Z</time>
      </trkpt>
      <trkpt lat="44.37285" lon="4.39219">
        <ele>204.8980713</ele>
        <time>2011-05-28T13:18:43Z</time>
      </trkpt>
      <trkpt lat="44.37297" lon="4.39219">
        <ele>204.4174805</ele>
        <time>2011-05-28T13:18:45Z</time>
      </trkpt>
      <trkpt lat="44.37307" lon="4.39221">
        <ele>203.4561768</ele>
        <time>2011-05-28T13:18:47Z</time>
      </trkpt>
      <trkpt lat="44.37319" lon="4.39224">
        <ele>201.5335693</ele>
        <time>2011-05-28T13:18:50Z</time>
      </trkpt>
      <trkpt lat="44.37328" lon="4.39229">
        <ele>199.130127</ele>
        <time>2011-05-28T13:18:53Z</time>
      </trkpt>
      <trkpt lat="44.37338" lon="4.39234">
        <ele>199.6108398</ele>
        <time>2011-05-28T13:18:56Z</time>
      </trkpt>
      <trkpt lat="44.37348" lon="4.39242">
        <ele>198.1689453</ele>
        <time>2011-05-28T13:18:59Z</time>
      </trkpt>
      <trkpt lat="44.3736" lon="4.39248">
        <ele>197.2075195</ele>
        <time>2011-05-28T13:19:02Z</time>
      </trkpt>
      <trkpt lat="44.37371" lon="4.39258">
        <ele>195.2849121</ele>
        <time>2011-05-28T13:19:05Z</time>
      </trkpt>
      <trkpt lat="44.3738" lon="4.39265">
        <ele>193.8430176</ele>
        <time>2011-05-28T13:19:07Z</time>
      </trkpt>
      <trkpt lat="44.3739" lon="4.39271">
        <ele>192.8817139</ele>
        <time>2011-05-28T13:19:09Z</time>
      </trkpt>
      <trkpt lat="44.37401" lon="4.39275">
        <ele>191.4395752</ele>
        <time>2011-05-28T13:19:11Z</time>
      </trkpt>
      <trkpt lat="44.37412" lon="4.39279">
        <ele>190.4783936</ele>
        <time>2011-05-28T13:19:13Z</time>
      </trkpt>
      <trkpt lat="44.37424" lon="4.39282">
        <ele>190.4783936</ele>
        <time>2011-05-28T13:19:15Z</time>
      </trkpt>
      <trkpt lat="44.37436" lon="4.39277">
        <ele>189.9976807</ele>
        <time>2011-05-28T13:19:17Z</time>
      </trkpt>
      <trkpt lat="44.37448" lon="4.39268">
        <ele>189.036377</ele>
        <time>2011-05-28T13:19:19Z</time>
      </trkpt>
      <trkpt lat="44.37461" lon="4.39261">
        <ele>188.0750732</ele>
        <time>2011-05-28T13:19:21Z</time>
      </trkpt>
      <trkpt lat="44.37473" lon="4.39253">
        <ele>187.5943604</ele>
        <time>2011-05-28T13:19:23Z</time>
      </trkpt>
      <trkpt lat="44.37485" lon="4.39242">
        <ele>186.6331787</ele>
        <time>2011-05-28T13:19:25Z</time>
      </trkpt>
      <trkpt lat="44.3749" lon="4.39231">
        <ele>187.1137695</ele>
        <time>2011-05-28T13:19:27Z</time>
      </trkpt>
      <trkpt lat="44.3749" lon="4.39217">
        <ele>186.6331787</ele>
        <time>2011-05-28T13:19:29Z</time>
      </trkpt>
      <trkpt lat="44.37488" lon="4.39203">
        <ele>186.6331787</ele>
        <time>2011-05-28T13:19:31Z</time>
      </trkpt>
      <trkpt lat="44.37483" lon="4.39186">
        <ele>185.6717529</ele>
        <time>2011-05-28T13:19:33Z</time>
      </trkpt>
      <trkpt lat="44.37476" lon="4.39167">
        <ele>184.7105713</ele>
        <time>2011-05-28T13:19:35Z</time>
      </trkpt>
      <trkpt lat="44.37466" lon="4.39154">
        <ele>183.7490234</ele>
        <time>2011-05-28T13:19:37Z</time>
      </trkpt>
      <trkpt lat="44.37458" lon="4.3914">
        <ele>183.7490234</ele>
        <time>2011-05-28T13:19:39Z</time>
      </trkpt>
      <trkpt lat="44.37454" lon="4.39124">
        <ele>183.7490234</ele>
        <time>2011-05-28T13:19:41Z</time>
      </trkpt>
      <trkpt lat="44.37456" lon="4.39107">
        <ele>184.2298584</ele>
        <time>2011-05-28T13:19:43Z</time>
      </trkpt>
      <trkpt lat="44.37461" lon="4.39089">
        <ele>183.7490234</ele>
        <time>2011-05-28T13:19:45Z</time>
      </trkpt>
      <trkpt lat="44.3747" lon="4.39073">
        <ele>183.2684326</ele>
        <time>2011-05-28T13:19:47Z</time>
      </trkpt>
      <trkpt lat="44.37482" lon="4.39061">
        <ele>181.3458252</ele>
        <time>2011-05-28T13:19:49Z</time>
      </trkpt>
      <trkpt lat="44.37495" lon="4.39056">
        <ele>180.8652344</ele>
        <time>2011-05-28T13:19:51Z</time>
      </trkpt>
      <trkpt lat="44.37507" lon="4.39051">
        <ele>180.8652344</ele>
        <time>2011-05-28T13:19:53Z</time>
      </trkpt>
      <trkpt lat="44.37518" lon="4.39047">
        <ele>180.8652344</ele>
        <time>2011-05-28T13:19:55Z</time>
      </trkpt>
      <trkpt lat="44.37529" lon="4.39052">
        <ele>181.3458252</ele>
        <time>2011-05-28T13:19:58Z</time>
      </trkpt>
      <trkpt lat="44.37539" lon="4.3906">
        <ele>180.8652344</ele>
        <time>2011-05-28T13:20:01Z</time>
      </trkpt>
      <trkpt lat="44.3755" lon="4.39072">
        <ele>180.8652344</ele>
        <time>2011-05-28T13:20:04Z</time>
      </trkpt>
      <trkpt lat="44.37558" lon="4.39082">
        <ele>179.9038086</ele>
        <time>2011-05-28T13:20:06Z</time>
      </trkpt>
      <trkpt lat="44.37567" lon="4.39092">
        <ele>178.942627</ele>
        <time>2011-05-28T13:20:08Z</time>
      </trkpt>
      <trkpt lat="44.37576" lon="4.39102">
        <ele>178.4619141</ele>
        <time>2011-05-28T13:20:10Z</time>
      </trkpt>
      <trkpt lat="44.37584" lon="4.39113">
        <ele>178.4619141</ele>
        <time>2011-05-28T13:20:12Z</time>
      </trkpt>
      <trkpt lat="44.37594" lon="4.39122">
        <ele>178.4619141</ele>
        <time>2011-05-28T13:20:14Z</time>
      </trkpt>
      <trkpt lat="44.37604" lon="4.39127">
        <ele>177.0200195</ele>
        <time>2011-05-28T13:20:16Z</time>
      </trkpt>
      <trkpt lat="44.37614" lon="4.39128">
        <ele>176.5393066</ele>
        <time>2011-05-28T13:20:18Z</time>
      </trkpt>
      <trkpt lat="44.37624" lon="4.39127">
        <ele>175.5778809</ele>
        <time>2011-05-28T13:20:20Z</time>
      </trkpt>
      <trkpt lat="44.37636" lon="4.39125">
        <ele>175.5778809</ele>
        <time>2011-05-28T13:20:22Z</time>
      </trkpt>
      <trkpt lat="44.37649" lon="4.39124">
        <ele>175.09729</ele>
        <time>2011-05-28T13:20:24Z</time>
      </trkpt>
      <trkpt lat="44.37662" lon="4.39125">
        <ele>175.09729</ele>
        <time>2011-05-28T13:20:26Z</time>
      </trkpt>
      <trkpt lat="44.37675" lon="4.39128">
        <ele>175.5778809</ele>
        <time>2011-05-28T13:20:28Z</time>
      </trkpt>
      <trkpt lat="44.37687" lon="4.39129">
        <ele>175.09729</ele>
        <time>2011-05-28T13:20:30Z</time>
      </trkpt>
      <trkpt lat="44.37699" lon="4.39132">
        <ele>174.1358643</ele>
        <time>2011-05-28T13:20:32Z</time>
      </trkpt>
      <trkpt lat="44.37711" lon="4.39137">
        <ele>174.1358643</ele>
        <time>2011-05-28T13:20:34Z</time>
      </trkpt>
      <trkpt lat="44.37724" lon="4.39141">
        <ele>173.6552734</ele>
        <time>2011-05-28T13:20:36Z</time>
      </trkpt>
      <trkpt lat="44.37737" lon="4.39146">
        <ele>172.6939697</ele>
        <time>2011-05-28T13:20:38Z</time>
      </trkpt>
      <trkpt lat="44.37751" lon="4.39151">
        <ele>171.2520752</ele>
        <time>2011-05-28T13:20:40Z</time>
      </trkpt>
      <trkpt lat="44.37764" lon="4.39155">
        <ele>171.732666</ele>
        <time>2011-05-28T13:20:42Z</time>
      </trkpt>
      <trkpt lat="44.37777" lon="4.39162">
        <ele>170.2906494</ele>
        <time>2011-05-28T13:20:44Z</time>
      </trkpt>
      <trkpt lat="44.37791" lon="4.39169">
        <ele>169.3294678</ele>
        <time>2011-05-28T13:20:46Z</time>
      </trkpt>
      <trkpt lat="44.37804" lon="4.39178">
        <ele>169.3294678</ele>
        <time>2011-05-28T13:20:48Z</time>
      </trkpt>
      <trkpt lat="44.37819" lon="4.39181">
        <ele>169.3294678</ele>
        <time>2011-05-28T13:20:50Z</time>
      </trkpt>
      <trkpt lat="44.37834" lon="4.39182">
        <ele>168.368042</ele>
        <time>2011-05-28T13:20:52Z</time>
      </trkpt>
      <trkpt lat="44.37849" lon="4.39182">
        <ele>168.368042</ele>
        <time>2011-05-28T13:20:54Z</time>
      </trkpt>
      <trkpt lat="44.37864" lon="4.39182">
        <ele>167.4067383</ele>
        <time>2011-05-28T13:20:56Z</time>
      </trkpt>
      <trkpt lat="44.37879" lon="4.39183">
        <ele>166.9260254</ele>
        <time>2011-05-28T13:20:58Z</time>
      </trkpt>
      <trkpt lat="44.37894" lon="4.39183">
        <ele>167.8873291</ele>
        <time>2011-05-28T13:21:00Z</time>
      </trkpt>
      <trkpt lat="44.37909" lon="4.39186">
        <ele>167.4067383</ele>
        <time>2011-05-28T13:21:02Z</time>
      </trkpt>
      <trkpt lat="44.37923" lon="4.39193">
        <ele>167.8873291</ele>
        <time>2011-05-28T13:21:04Z</time>
      </trkpt>
      <trkpt lat="44.37936" lon="4.392">
        <ele>168.368042</ele>
        <time>2011-05-28T13:21:06Z</time>
      </trkpt>
      <trkpt lat="44.37946" lon="4.3921">
        <ele>169.8100586</ele>
        <time>2011-05-28T13:21:08Z</time>
      </trkpt>
      <trkpt lat="44.37952" lon="4.39222">
        <ele>169.8100586</ele>
        <time>2011-05-28T13:21:10Z</time>
      </trkpt>
      <trkpt lat="44.37956" lon="4.39233">
        <ele>170.7713623</ele>
        <time>2011-05-28T13:21:13Z</time>
      </trkpt>
      <trkpt lat="44.3796" lon="4.39243">
        <ele>172.2132568</ele>
        <time>2011-05-28T13:21:18Z</time>
      </trkpt>
      <trkpt lat="44.37969" lon="4.39248">
        <ele>172.6939697</ele>
        <time>2011-05-28T13:21:23Z</time>
      </trkpt>
      <trkpt lat="44.37978" lon="4.39239">
        <ele>173.6552734</ele>
        <time>2011-05-28T13:21:27Z</time>
      </trkpt>
      <trkpt lat="44.37987" lon="4.3923">
        <ele>174.1358643</ele>
        <time>2011-05-28T13:21:31Z</time>
      </trkpt>
      <trkpt lat="44.37995" lon="4.3922">
        <ele>173.6552734</ele>
        <time>2011-05-28T13:21:35Z</time>
      </trkpt>
      <trkpt lat="44.38002" lon="4.39211">
        <ele>173.6552734</ele>
        <time>2011-05-28T13:21:38Z</time>
      </trkpt>
      <trkpt lat="44.3801" lon="4.39198">
        <ele>173.1746826</ele>
        <time>2011-05-28T13:21:45Z</time>
      </trkpt>
      <trkpt lat="44.38016" lon="4.39187">
        <ele>172.6939697</ele>
        <time>2011-05-28T13:21:48Z</time>
      </trkpt>
      <trkpt lat="44.38025" lon="4.39173">
        <ele>172.6939697</ele>
        <time>2011-05-28T13:21:51Z</time>
      </trkpt>
      <trkpt lat="44.38032" lon="4.39162">
        <ele>172.6939697</ele>
        <time>2011-05-28T13:21:53Z</time>
      </trkpt>
      <trkpt lat="44.38039" lon="4.3915">
        <ele>172.2132568</ele>
        <time>2011-05-28T13:21:55Z</time>
      </trkpt>
      <trkpt lat="44.38046" lon="4.39139">
        <ele>172.6939697</ele>
        <time>2011-05-28T13:21:57Z</time>
      </trkpt>
      <trkpt lat="44.38056" lon="4.39126">
        <ele>173.6552734</ele>
        <time>2011-05-28T13:22:00Z</time>
      </trkpt>
      <trkpt lat="44.38063" lon="4.39118">
        <ele>174.1358643</ele>
        <time>2011-05-28T13:22:03Z</time>
      </trkpt>
      <trkpt lat="44.38072" lon="4.39108">
        <ele>175.5778809</ele>
        <time>2011-05-28T13:22:07Z</time>
      </trkpt>
      <trkpt lat="44.38079" lon="4.39099">
        <ele>176.5393066</ele>
        <time>2011-05-28T13:22:11Z</time>
      </trkpt>
      <trkpt lat="44.38088" lon="4.39092">
        <ele>177.5006104</ele>
        <time>2011-05-28T13:22:15Z</time>
      </trkpt>
      <trkpt lat="44.38099" lon="4.39086">
        <ele>178.4619141</ele>
        <time>2011-05-28T13:22:20Z</time>
      </trkpt>
      <trkpt lat="44.38108" lon="4.39083">
        <ele>179.4232178</ele>
        <time>2011-05-28T13:22:25Z</time>
      </trkpt>
      <trkpt lat="44.38117" lon="4.3908">
        <ele>180.3845215</ele>
        <time>2011-05-28T13:22:31Z</time>
      </trkpt>
      <trkpt lat="44.38126" lon="4.39076">
        <ele>181.3458252</ele>
        <time>2011-05-28T13:22:40Z</time>
      </trkpt>
      <trkpt lat="44.38135" lon="4.39072">
        <ele>182.7878418</ele>
        <time>2011-05-28T13:22:47Z</time>
      </trkpt>
      <trkpt lat="44.38143" lon="4.39067">
        <ele>184.2298584</ele>
        <time>2011-05-28T13:22:53Z</time>
      </trkpt>
      <trkpt lat="44.38152" lon="4.39063">
        <ele>184.7105713</ele>
        <time>2011-05-28T13:23:01Z</time>
      </trkpt>
      <trkpt lat="44.3816" lon="4.39056">
        <ele>186.1524658</ele>
        <time>2011-05-28T13:23:07Z</time>
      </trkpt>
      <trkpt lat="44.3817" lon="4.39049">
        <ele>187.1137695</ele>
        <time>2011-05-28T13:23:13Z</time>
      </trkpt>
      <trkpt lat="44.38178" lon="4.39044">
        <ele>188.5557861</ele>
        <time>2011-05-28T13:23:20Z</time>
      </trkpt>
      <trkpt lat="44.38187" lon="4.39036">
        <ele>189.5169678</ele>
        <time>2011-05-28T13:23:36Z</time>
      </trkpt>
      <trkpt lat="44.38197" lon="4.39028">
        <ele>190.9589844</ele>
        <time>2011-05-28T13:23:45Z</time>
      </trkpt>
      <trkpt lat="44.38203" lon="4.39017">
        <ele>191.9202881</ele>
        <time>2011-05-28T13:23:53Z</time>
      </trkpt>
      <trkpt lat="44.3821" lon="4.39004">
        <ele>191.4395752</ele>
        <time>2011-05-28T13:24:06Z</time>
      </trkpt>
      <trkpt lat="44.38217" lon="4.38991">
        <ele>189.5169678</ele>
        <time>2011-05-28T13:24:10Z</time>
      </trkpt>
      <trkpt lat="44.38224" lon="4.38981">
        <ele>188.5557861</ele>
        <time>2011-05-28T13:24:14Z</time>
      </trkpt>
      <trkpt lat="44.38231" lon="4.38972">
        <ele>187.5943604</ele>
        <time>2011-05-28T13:24:17Z</time>
      </trkpt>
      <trkpt lat="44.38239" lon="4.38962">
        <ele>186.6331787</ele>
        <time>2011-05-28T13:24:20Z</time>
      </trkpt>
      <trkpt lat="44.38247" lon="4.38954">
        <ele>185.1911621</ele>
        <time>2011-05-28T13:24:23Z</time>
      </trkpt>
      <trkpt lat="44.38258" lon="4.38943">
        <ele>183.2684326</ele>
        <time>2011-05-28T13:24:26Z</time>
      </trkpt>
      <trkpt lat="44.3827" lon="4.38932">
        <ele>181.826416</ele>
        <time>2011-05-28T13:24:29Z</time>
      </trkpt>
      <trkpt lat="44.38278" lon="4.38923">
        <ele>180.8652344</ele>
        <time>2011-05-28T13:24:31Z</time>
      </trkpt>
      <trkpt lat="44.38286" lon="4.38914">
        <ele>179.9038086</ele>
        <time>2011-05-28T13:24:33Z</time>
      </trkpt>
      <trkpt lat="44.38295" lon="4.38903">
        <ele>178.942627</ele>
        <time>2011-05-28T13:24:35Z</time>
      </trkpt>
      <trkpt lat="44.38303" lon="4.38893">
        <ele>177.0200195</ele>
        <time>2011-05-28T13:24:37Z</time>
      </trkpt>
      <trkpt lat="44.38311" lon="4.38882">
        <ele>177.0200195</ele>
        <time>2011-05-28T13:24:39Z</time>
      </trkpt>
      <trkpt lat="44.38317" lon="4.38871">
        <ele>176.5393066</ele>
        <time>2011-05-28T13:24:41Z</time>
      </trkpt>
      <trkpt lat="44.38325" lon="4.38856">
        <ele>176.0585938</ele>
        <time>2011-05-28T13:24:44Z</time>
      </trkpt>
      <trkpt lat="44.38331" lon="4.38842">
        <ele>175.5778809</ele>
        <time>2011-05-28T13:24:47Z</time>
      </trkpt>
      <trkpt lat="44.3834" lon="4.38827">
        <ele>175.09729</ele>
        <time>2011-05-28T13:24:50Z</time>
      </trkpt>
      <trkpt lat="44.38348" lon="4.38819">
        <ele>174.6165771</ele>
        <time>2011-05-28T13:24:52Z</time>
      </trkpt>
      <trkpt lat="44.38358" lon="4.3881">
        <ele>174.1358643</ele>
        <time>2011-05-28T13:24:54Z</time>
      </trkpt>
      <trkpt lat="44.38367" lon="4.38801">
        <ele>173.6552734</ele>
        <time>2011-05-28T13:24:56Z</time>
      </trkpt>
      <trkpt lat="44.38377" lon="4.38793">
        <ele>173.6552734</ele>
        <time>2011-05-28T13:24:58Z</time>
      </trkpt>
      <trkpt lat="44.38384" lon="4.38785">
        <ele>173.1746826</ele>
        <time>2011-05-28T13:25:00Z</time>
      </trkpt>
      <trkpt lat="44.38393" lon="4.38772">
        <ele>172.6939697</ele>
        <time>2011-05-28T13:25:03Z</time>
      </trkpt>
      <trkpt lat="44.384" lon="4.38762">
        <ele>172.2132568</ele>
        <time>2011-05-28T13:25:05Z</time>
      </trkpt>
      <trkpt lat="44.3841" lon="4.38752">
        <ele>171.732666</ele>
        <time>2011-05-28T13:25:08Z</time>
      </trkpt>
      <trkpt lat="44.3842" lon="4.38742">
        <ele>170.7713623</ele>
        <time>2011-05-28T13:25:11Z</time>
      </trkpt>
      <trkpt lat="44.38431" lon="4.38731">
        <ele>169.3294678</ele>
        <time>2011-05-28T13:25:14Z</time>
      </trkpt>
      <trkpt lat="44.38439" lon="4.38721">
        <ele>168.368042</ele>
        <time>2011-05-28T13:25:16Z</time>
      </trkpt>
      <trkpt lat="44.38447" lon="4.38709">
        <ele>167.4067383</ele>
        <time>2011-05-28T13:25:19Z</time>
      </trkpt>
      <trkpt lat="44.38455" lon="4.38701">
        <ele>167.8873291</ele>
        <time>2011-05-28T13:25:22Z</time>
      </trkpt>
      <trkpt lat="44.38463" lon="4.38692">
        <ele>166.4453125</ele>
        <time>2011-05-28T13:25:34Z</time>
      </trkpt>
      <trkpt lat="44.38473" lon="4.38679">
        <ele>166.9260254</ele>
        <time>2011-05-28T13:25:39Z</time>
      </trkpt>
      <trkpt lat="44.38482" lon="4.38668">
        <ele>165.9647217</ele>
        <time>2011-05-28T13:25:42Z</time>
      </trkpt>
      <trkpt lat="44.3849" lon="4.38658">
        <ele>165.003418</ele>
        <time>2011-05-28T13:25:45Z</time>
      </trkpt>
      <trkpt lat="44.385" lon="4.38648">
        <ele>165.003418</ele>
        <time>2011-05-28T13:25:48Z</time>
      </trkpt>
      <trkpt lat="44.38508" lon="4.3864">
        <ele>164.0421143</ele>
        <time>2011-05-28T13:25:51Z</time>
      </trkpt>
      <trkpt lat="44.38519" lon="4.38632">
        <ele>164.0421143</ele>
        <time>2011-05-28T13:25:54Z</time>
      </trkpt>
      <trkpt lat="44.38531" lon="4.38623">
        <ele>162.1195068</ele>
        <time>2011-05-28T13:25:57Z</time>
      </trkpt>
      <trkpt lat="44.38545" lon="4.38618">
        <ele>161.638916</ele>
        <time>2011-05-28T13:26:00Z</time>
      </trkpt>
      <trkpt lat="44.38556" lon="4.38614">
        <ele>159.2354736</ele>
        <time>2011-05-28T13:26:03Z</time>
      </trkpt>
      <trkpt lat="44.38568" lon="4.38605">
        <ele>157.7935791</ele>
        <time>2011-05-28T13:26:06Z</time>
      </trkpt>
      <trkpt lat="44.38573" lon="4.38591">
        <ele>156.8321533</ele>
        <time>2011-05-28T13:26:09Z</time>
      </trkpt>
      <trkpt lat="44.38575" lon="4.38573">
        <ele>155.8709717</ele>
        <time>2011-05-28T13:26:12Z</time>
      </trkpt>
      <trkpt lat="44.38581" lon="4.38557">
        <ele>152.9869385</ele>
        <time>2011-05-28T13:26:15Z</time>
      </trkpt>
      <trkpt lat="44.38589" lon="4.38545">
        <ele>153.4676514</ele>
        <time>2011-05-28T13:26:19Z</time>
      </trkpt>
      <trkpt lat="44.38599" lon="4.38542">
        <ele>154.4289551</ele>
        <time>2011-05-28T13:26:25Z</time>
      </trkpt>
      <trkpt lat="44.3861" lon="4.38542">
        <ele>155.3902588</ele>
        <time>2011-05-28T13:26:30Z</time>
      </trkpt>
      <trkpt lat="44.3862" lon="4.38537">
        <ele>155.8709717</ele>
        <time>2011-05-28T13:26:34Z</time>
      </trkpt>
      <trkpt lat="44.38628" lon="4.38525">
        <ele>157.3128662</ele>
        <time>2011-05-28T13:26:39Z</time>
      </trkpt>
      <trkpt lat="44.38633" lon="4.38515">
        <ele>157.7935791</ele>
        <time>2011-05-28T13:26:43Z</time>
      </trkpt>
      <trkpt lat="44.38641" lon="4.38507">
        <ele>158.2741699</ele>
        <time>2011-05-28T13:26:47Z</time>
      </trkpt>
      <trkpt lat="44.38648" lon="4.38499">
        <ele>158.2741699</ele>
        <time>2011-05-28T13:26:51Z</time>
      </trkpt>
      <trkpt lat="44.38641" lon="4.38487">
        <ele>160.1968994</ele>
        <time>2011-05-28T13:26:58Z</time>
      </trkpt>
      <trkpt lat="44.38631" lon="4.38478">
        <ele>161.638916</ele>
        <time>2011-05-28T13:27:11Z</time>
      </trkpt>
      <trkpt lat="44.38622" lon="4.38464">
        <ele>164.5227051</ele>
        <time>2011-05-28T13:27:29Z</time>
      </trkpt>
      <trkpt lat="44.38618" lon="4.38449">
        <ele>165.003418</ele>
        <time>2011-05-28T13:27:47Z</time>
      </trkpt>
      <trkpt lat="44.38613" lon="4.38437">
        <ele>167.4067383</ele>
        <time>2011-05-28T13:27:58Z</time>
      </trkpt>
      <trkpt lat="44.38607" lon="4.38424">
        <ele>168.8487549</ele>
        <time>2011-05-28T13:28:08Z</time>
      </trkpt>
      <trkpt lat="44.38598" lon="4.38409">
        <ele>171.2520752</ele>
        <time>2011-05-28T13:28:20Z</time>
      </trkpt>
      <trkpt lat="44.38593" lon="4.38396">
        <ele>172.2132568</ele>
        <time>2011-05-28T13:28:30Z</time>
      </trkpt>
      <trkpt lat="44.38598" lon="4.38383">
        <ele>173.1746826</ele>
        <time>2011-05-28T13:28:41Z</time>
      </trkpt>
      <trkpt lat="44.38606" lon="4.38376">
        <ele>175.5778809</ele>
        <time>2011-05-28T13:28:51Z</time>
      </trkpt>
      <trkpt lat="44.38614" lon="4.38382">
        <ele>175.09729</ele>
        <time>2011-05-28T13:29:01Z</time>
      </trkpt>
      <trkpt lat="44.38622" lon="4.3839">
        <ele>174.6165771</ele>
        <time>2011-05-28T13:29:07Z</time>
      </trkpt>
      <trkpt lat="44.38631" lon="4.38395">
        <ele>175.09729</ele>
        <time>2011-05-28T13:29:13Z</time>
      </trkpt>
      <trkpt lat="44.38638" lon="4.38403">
        <ele>175.5778809</ele>
        <time>2011-05-28T13:29:19Z</time>
      </trkpt>
      <trkpt lat="44.38641" lon="4.3842">
        <ele>175.09729</ele>
        <time>2011-05-28T13:29:23Z</time>
      </trkpt>
      <trkpt lat="44.38647" lon="4.38434">
        <ele>174.6165771</ele>
        <time>2011-05-28T13:29:26Z</time>
      </trkpt>
      <trkpt lat="44.38656" lon="4.38446">
        <ele>173.1746826</ele>
        <time>2011-05-28T13:29:29Z</time>
      </trkpt>
      <trkpt lat="44.38664" lon="4.38461">
        <ele>172.2132568</ele>
        <time>2011-05-28T13:29:32Z</time>
      </trkpt>
      <trkpt lat="44.38671" lon="4.38475">
        <ele>171.2520752</ele>
        <time>2011-05-28T13:29:35Z</time>
      </trkpt>
      <trkpt lat="44.38679" lon="4.3849">
        <ele>170.2906494</ele>
        <time>2011-05-28T13:29:38Z</time>
      </trkpt>
      <trkpt lat="44.38686" lon="4.38497">
        <ele>169.3294678</ele>
        <time>2011-05-28T13:29:40Z</time>
      </trkpt>
      <trkpt lat="44.38694" lon="4.38507">
        <ele>169.8100586</ele>
        <time>2011-05-28T13:29:43Z</time>
      </trkpt>
      <trkpt lat="44.387" lon="4.38519">
        <ele>168.8487549</ele>
        <time>2011-05-28T13:29:46Z</time>
      </trkpt>
      <trkpt lat="44.38705" lon="4.38533">
        <ele>169.8100586</ele>
        <time>2011-05-28T13:29:49Z</time>
      </trkpt>
      <trkpt lat="44.38708" lon="4.38546">
        <ele>170.2906494</ele>
        <time>2011-05-28T13:29:52Z</time>
      </trkpt>
      <trkpt lat="44.38712" lon="4.38559">
        <ele>170.7713623</ele>
        <time>2011-05-28T13:29:56Z</time>
      </trkpt>
      <trkpt lat="44.38715" lon="4.38571">
        <ele>170.7713623</ele>
        <time>2011-05-28T13:29:59Z</time>
      </trkpt>
      <trkpt lat="44.3872" lon="4.38584">
        <ele>170.7713623</ele>
        <time>2011-05-28T13:30:02Z</time>
      </trkpt>
      <trkpt lat="44.38725" lon="4.38598">
        <ele>170.2906494</ele>
        <time>2011-05-28T13:30:05Z</time>
      </trkpt>
      <trkpt lat="44.38729" lon="4.38613">
        <ele>169.8100586</ele>
        <time>2011-05-28T13:30:08Z</time>
      </trkpt>
      <trkpt lat="44.38733" lon="4.38625">
        <ele>169.8100586</ele>
        <time>2011-05-28T13:30:11Z</time>
      </trkpt>
      <trkpt lat="44.38738" lon="4.38641">
        <ele>169.3294678</ele>
        <time>2011-05-28T13:30:14Z</time>
      </trkpt>
      <trkpt lat="44.38743" lon="4.38658">
        <ele>168.368042</ele>
        <time>2011-05-28T13:30:17Z</time>
      </trkpt>
      <trkpt lat="44.38741" lon="4.38671">
        <ele>167.4067383</ele>
        <time>2011-05-28T13:30:19Z</time>
      </trkpt>
      <trkpt lat="44.38741" lon="4.38685">
        <ele>165.4841309</ele>
        <time>2011-05-28T13:30:21Z</time>
      </trkpt>
      <trkpt lat="44.38741" lon="4.38699">
        <ele>165.4841309</ele>
        <time>2011-05-28T13:30:23Z</time>
      </trkpt>
      <trkpt lat="44.38749" lon="4.38705">
        <ele>166.4453125</ele>
        <time>2011-05-28T13:30:26Z</time>
      </trkpt>
      <trkpt lat="44.38749" lon="4.38721">
        <ele>166.4453125</ele>
        <time>2011-05-28T13:30:30Z</time>
      </trkpt>
      <trkpt lat="44.38753" lon="4.38735">
        <ele>168.8487549</ele>
        <time>2011-05-28T13:30:34Z</time>
      </trkpt>
      <trkpt lat="44.38752" lon="4.38749">
        <ele>169.8100586</ele>
        <time>2011-05-28T13:30:39Z</time>
      </trkpt>
      <trkpt lat="44.38754" lon="4.38763">
        <ele>170.7713623</ele>
        <time>2011-05-28T13:30:45Z</time>
      </trkpt>
      <trkpt lat="44.38755" lon="4.38777">
        <ele>172.2132568</ele>
        <time>2011-05-28T13:30:51Z</time>
      </trkpt>
      <trkpt lat="44.38765" lon="4.38784">
        <ele>171.2520752</ele>
        <time>2011-05-28T13:30:56Z</time>
      </trkpt>
      <trkpt lat="44.38777" lon="4.38785">
        <ele>170.2906494</ele>
        <time>2011-05-28T13:30:59Z</time>
      </trkpt>
      <trkpt lat="44.3879" lon="4.38791">
        <ele>168.8487549</ele>
        <time>2011-05-28T13:31:02Z</time>
      </trkpt>
      <trkpt lat="44.388" lon="4.38796">
        <ele>167.8873291</ele>
        <time>2011-05-28T13:31:04Z</time>
      </trkpt>
      <trkpt lat="44.3881" lon="4.38801">
        <ele>165.4841309</ele>
        <time>2011-05-28T13:31:06Z</time>
      </trkpt>
      <trkpt lat="44.38821" lon="4.38804">
        <ele>164.0421143</ele>
        <time>2011-05-28T13:31:08Z</time>
      </trkpt>
      <trkpt lat="44.38833" lon="4.38805">
        <ele>162.1195068</ele>
        <time>2011-05-28T13:31:10Z</time>
      </trkpt>
      <trkpt lat="44.38845" lon="4.38806">
        <ele>160.1968994</ele>
        <time>2011-05-28T13:31:12Z</time>
      </trkpt>
      <trkpt lat="44.38854" lon="4.38811">
        <ele>158.2741699</ele>
        <time>2011-05-28T13:31:14Z</time>
      </trkpt>
      <trkpt lat="44.38858" lon="4.38827">
        <ele>157.7935791</ele>
        <time>2011-05-28T13:31:17Z</time>
      </trkpt>
      <trkpt lat="44.38858" lon="4.38842">
        <ele>156.3515625</ele>
        <time>2011-05-28T13:31:21Z</time>
      </trkpt>
      <trkpt lat="44.38852" lon="4.38855">
        <ele>154.9095459</ele>
        <time>2011-05-28T13:31:26Z</time>
      </trkpt>
      <trkpt lat="44.38845" lon="4.38869">
        <ele>153.4676514</ele>
        <time>2011-05-28T13:31:29Z</time>
      </trkpt>
      <trkpt lat="44.3885" lon="4.38881">
        <ele>150.1030273</ele>
        <time>2011-05-28T13:31:33Z</time>
      </trkpt>
      <trkpt lat="44.38864" lon="4.38879">
        <ele>148.6610107</ele>
        <time>2011-05-28T13:31:36Z</time>
      </trkpt>
      <trkpt lat="44.38874" lon="4.38875">
        <ele>146.2578125</ele>
        <time>2011-05-28T13:31:38Z</time>
      </trkpt>
      <trkpt lat="44.38884" lon="4.38876">
        <ele>143.3736572</ele>
        <time>2011-05-28T13:31:41Z</time>
      </trkpt>
      <trkpt lat="44.38887" lon="4.38889">
        <ele>140.4898682</ele>
        <time>2011-05-28T13:31:44Z</time>
      </trkpt>
      <trkpt lat="44.38889" lon="4.38907">
        <ele>138.0865479</ele>
        <time>2011-05-28T13:31:47Z</time>
      </trkpt>
      <trkpt lat="44.38892" lon="4.38921">
        <ele>136.1639404</ele>
        <time>2011-05-28T13:31:49Z</time>
      </trkpt>
      <trkpt lat="44.38897" lon="4.3893">
        <ele>136.6446533</ele>
        <time>2011-05-28T13:31:53Z</time>
      </trkpt>
      <trkpt lat="44.38901" lon="4.38914">
        <ele>135.2025146</ele>
        <time>2011-05-28T13:31:57Z</time>
      </trkpt>
      <trkpt lat="44.38907" lon="4.38899">
        <ele>134.2412109</ele>
        <time>2011-05-28T13:32:00Z</time>
      </trkpt>
      <trkpt lat="44.38915" lon="4.38883">
        <ele>134.2412109</ele>
        <time>2011-05-28T13:32:03Z</time>
      </trkpt>
      <trkpt lat="44.38924" lon="4.38879">
        <ele>133.760498</ele>
        <time>2011-05-28T13:32:05Z</time>
      </trkpt>
      <trkpt lat="44.38932" lon="4.38884">
        <ele>133.2799072</ele>
        <time>2011-05-28T13:32:07Z</time>
      </trkpt>
      <trkpt lat="44.3894" lon="4.38892">
        <ele>132.3186035</ele>
        <time>2011-05-28T13:32:09Z</time>
      </trkpt>
      <trkpt lat="44.38947" lon="4.38901">
        <ele>131.3572998</ele>
        <time>2011-05-28T13:32:11Z</time>
      </trkpt>
      <trkpt lat="44.38956" lon="4.38907">
        <ele>130.3959961</ele>
        <time>2011-05-28T13:32:13Z</time>
      </trkpt>
      <trkpt lat="44.38969" lon="4.38908">
        <ele>129.9152832</ele>
        <time>2011-05-28T13:32:16Z</time>
      </trkpt>
      <trkpt lat="44.38977" lon="4.389">
        <ele>129.9152832</ele>
        <time>2011-05-28T13:32:19Z</time>
      </trkpt>
      <trkpt lat="44.38986" lon="4.38894">
        <ele>129.9152832</ele>
        <time>2011-05-28T13:32:23Z</time>
      </trkpt>
      <trkpt lat="44.38991" lon="4.38881">
        <ele>130.876709</ele>
        <time>2011-05-28T13:32:28Z</time>
      </trkpt>
      <trkpt lat="44.38996" lon="4.38869">
        <ele>130.876709</ele>
        <time>2011-05-28T13:32:32Z</time>
      </trkpt>
      <trkpt lat="44.39" lon="4.38856">
        <ele>131.3572998</ele>
        <time>2011-05-28T13:32:36Z</time>
      </trkpt>
      <trkpt lat="44.39005" lon="4.38841">
        <ele>131.8378906</ele>
        <time>2011-05-28T13:32:40Z</time>
      </trkpt>
      <trkpt lat="44.39009" lon="4.38827">
        <ele>131.8378906</ele>
        <time>2011-05-28T13:32:43Z</time>
      </trkpt>
      <trkpt lat="44.39013" lon="4.38812">
        <ele>131.3572998</ele>
        <time>2011-05-28T13:32:46Z</time>
      </trkpt>
      <trkpt lat="44.39019" lon="4.38796">
        <ele>130.876709</ele>
        <time>2011-05-28T13:32:49Z</time>
      </trkpt>
      <trkpt lat="44.39025" lon="4.3878">
        <ele>131.3572998</ele>
        <time>2011-05-28T13:32:52Z</time>
      </trkpt>
      <trkpt lat="44.3903" lon="4.38769">
        <ele>130.876709</ele>
        <time>2011-05-28T13:32:54Z</time>
      </trkpt>
      <trkpt lat="44.39036" lon="4.38757">
        <ele>130.3959961</ele>
        <time>2011-05-28T13:32:56Z</time>
      </trkpt>
      <trkpt lat="44.39042" lon="4.38744">
        <ele>129.9152832</ele>
        <time>2011-05-28T13:32:58Z</time>
      </trkpt>
      <trkpt lat="44.39049" lon="4.38731">
        <ele>129.4346924</ele>
        <time>2011-05-28T13:33:00Z</time>
      </trkpt>
      <trkpt lat="44.39056" lon="4.38717">
        <ele>129.4346924</ele>
        <time>2011-05-28T13:33:02Z</time>
      </trkpt>
      <trkpt lat="44.39063" lon="4.38703">
        <ele>128.9541016</ele>
        <time>2011-05-28T13:33:04Z</time>
      </trkpt>
      <trkpt lat="44.39071" lon="4.38694">
        <ele>128.9541016</ele>
        <time>2011-05-28T13:33:06Z</time>
      </trkpt>
      <trkpt lat="44.39082" lon="4.38701">
        <ele>127.5119629</ele>
        <time>2011-05-28T13:33:08Z</time>
      </trkpt>
      <trkpt lat="44.39094" lon="4.38711">
        <ele>126.5506592</ele>
        <time>2011-05-28T13:33:10Z</time>
      </trkpt>
      <trkpt lat="44.39105" lon="4.38719">
        <ele>126.0699463</ele>
        <time>2011-05-28T13:33:12Z</time>
      </trkpt>
      <trkpt lat="44.39116" lon="4.38727">
        <ele>126.0699463</ele>
        <time>2011-05-28T13:33:14Z</time>
      </trkpt>
      <trkpt lat="44.39126" lon="4.38731">
        <ele>124.6280518</ele>
        <time>2011-05-28T13:33:16Z</time>
      </trkpt>
      <trkpt lat="44.39133" lon="4.38725">
        <ele>124.6280518</ele>
        <time>2011-05-28T13:33:18Z</time>
      </trkpt>
      <trkpt lat="44.39138" lon="4.38707">
        <ele>126.0699463</ele>
        <time>2011-05-28T13:33:21Z</time>
      </trkpt>
      <trkpt lat="44.39142" lon="4.38689">
        <ele>126.0699463</ele>
        <time>2011-05-28T13:33:24Z</time>
      </trkpt>
      <trkpt lat="44.39146" lon="4.38671">
        <ele>127.0313721</ele>
        <time>2011-05-28T13:33:27Z</time>
      </trkpt>
      <trkpt lat="44.39151" lon="4.38655">
        <ele>128.4733887</ele>
        <time>2011-05-28T13:33:30Z</time>
      </trkpt>
      <trkpt lat="44.39155" lon="4.38639">
        <ele>128.4733887</ele>
        <time>2011-05-28T13:33:33Z</time>
      </trkpt>
      <trkpt lat="44.39159" lon="4.38623">
        <ele>128.9541016</ele>
        <time>2011-05-28T13:33:36Z</time>
      </trkpt>
      <trkpt lat="44.39163" lon="4.38608">
        <ele>128.9541016</ele>
        <time>2011-05-28T13:33:39Z</time>
      </trkpt>
      <trkpt lat="44.39168" lon="4.38594">
        <ele>129.4346924</ele>
        <time>2011-05-28T13:33:42Z</time>
      </trkpt>
      <trkpt lat="44.39173" lon="4.38579">
        <ele>130.3959961</ele>
        <time>2011-05-28T13:33:45Z</time>
      </trkpt>
      <trkpt lat="44.39178" lon="4.38563">
        <ele>130.876709</ele>
        <time>2011-05-28T13:33:48Z</time>
      </trkpt>
      <trkpt lat="44.39184" lon="4.38547">
        <ele>131.8378906</ele>
        <time>2011-05-28T13:33:51Z</time>
      </trkpt>
      <trkpt lat="44.39189" lon="4.38532">
        <ele>131.8378906</ele>
        <time>2011-05-28T13:33:54Z</time>
      </trkpt>
      <trkpt lat="44.39194" lon="4.38517">
        <ele>131.3572998</ele>
        <time>2011-05-28T13:33:57Z</time>
      </trkpt>
      <trkpt lat="44.392" lon="4.38501">
        <ele>131.8378906</ele>
        <time>2011-05-28T13:34:00Z</time>
      </trkpt>
      <trkpt lat="44.39206" lon="4.3849">
        <ele>130.876709</ele>
        <time>2011-05-28T13:34:02Z</time>
      </trkpt>
      <trkpt lat="44.39212" lon="4.38478">
        <ele>130.3959961</ele>
        <time>2011-05-28T13:34:04Z</time>
      </trkpt>
      <trkpt lat="44.39219" lon="4.38466">
        <ele>129.9152832</ele>
        <time>2011-05-28T13:34:06Z</time>
      </trkpt>
      <trkpt lat="44.39226" lon="4.38454">
        <ele>130.3959961</ele>
        <time>2011-05-28T13:34:08Z</time>
      </trkpt>
      <trkpt lat="44.39234" lon="4.3844">
        <ele>129.4346924</ele>
        <time>2011-05-28T13:34:10Z</time>
      </trkpt>
      <trkpt lat="44.39243" lon="4.38427">
        <ele>128.4733887</ele>
        <time>2011-05-28T13:34:12Z</time>
      </trkpt>
      <trkpt lat="44.39253" lon="4.38411">
        <ele>127.5119629</ele>
        <time>2011-05-28T13:34:14Z</time>
      </trkpt>
      <trkpt lat="44.39264" lon="4.38398">
        <ele>127.5119629</ele>
        <time>2011-05-28T13:34:16Z</time>
      </trkpt>
      <trkpt lat="44.39276" lon="4.38385">
        <ele>127.0313721</ele>
        <time>2011-05-28T13:34:18Z</time>
      </trkpt>
      <trkpt lat="44.39288" lon="4.38373">
        <ele>127.0313721</ele>
        <time>2011-05-28T13:34:20Z</time>
      </trkpt>
      <trkpt lat="44.393" lon="4.38361">
        <ele>126.5506592</ele>
        <time>2011-05-28T13:34:22Z</time>
      </trkpt>
      <trkpt lat="44.39309" lon="4.38348">
        <ele>124.6280518</ele>
        <time>2011-05-28T13:34:24Z</time>
      </trkpt>
      <trkpt lat="44.39312" lon="4.38329">
        <ele>123.666748</ele>
        <time>2011-05-28T13:34:26Z</time>
      </trkpt>
      <trkpt lat="44.39314" lon="4.38317">
        <ele>124.6280518</ele>
        <time>2011-05-28T13:34:28Z</time>
      </trkpt>
      <trkpt lat="44.39316" lon="4.38299">
        <ele>123.1861572</ele>
        <time>2011-05-28T13:34:31Z</time>
      </trkpt>
      <trkpt lat="44.39317" lon="4.38284">
        <ele>122.2247314</ele>
        <time>2011-05-28T13:34:34Z</time>
      </trkpt>
      <trkpt lat="44.39321" lon="4.38271">
        <ele>123.1861572</ele>
        <time>2011-05-28T13:34:38Z</time>
      </trkpt>
      <trkpt lat="44.39336" lon="4.38275">
        <ele>123.1861572</ele>
        <time>2011-05-28T13:34:43Z</time>
      </trkpt>
      <trkpt lat="44.39345" lon="4.38272">
        <ele>125.5893555</ele>
        <time>2011-05-28T13:34:47Z</time>
      </trkpt>
      <trkpt lat="44.39355" lon="4.38282">
        <ele>123.666748</ele>
        <time>2011-05-28T13:34:53Z</time>
      </trkpt>
      <trkpt lat="44.39366" lon="4.38288">
        <ele>120.302124</ele>
        <time>2011-05-28T13:34:59Z</time>
      </trkpt>
      <trkpt lat="44.39368" lon="4.38303">
        <ele>118.8601074</ele>
        <time>2011-05-28T13:35:03Z</time>
      </trkpt>
      <trkpt lat="44.39365" lon="4.38318">
        <ele>115.9761963</ele>
        <time>2011-05-28T13:35:08Z</time>
      </trkpt>
      <trkpt lat="44.39367" lon="4.38324">
        <ele>113.572998</ele>
        <time>2011-05-28T13:35:20Z</time>
      </trkpt>
      <trkpt lat="44.39382" lon="4.38331">
        <ele>113.0922852</ele>
        <time>2011-05-28T13:35:45Z</time>
      </trkpt>
      <trkpt lat="44.39389" lon="4.38334">
        <ele>106.3630371</ele>
        <time>2011-05-28T13:36:02Z</time>
      </trkpt>
      <trkpt lat="44.39392" lon="4.38347">
        <ele>103.9597168</ele>
        <time>2011-05-28T13:36:04Z</time>
      </trkpt>
      <trkpt lat="44.39398" lon="4.38358">
        <ele>103.4790039</ele>
        <time>2011-05-28T13:36:08Z</time>
      </trkpt>
      <trkpt lat="44.39407" lon="4.38357">
        <ele>101.0756836</ele>
        <time>2011-05-28T13:46:04Z</time>
      </trkpt>
      <trkpt lat="44.39415" lon="4.38365">
        <ele>100.5950928</ele>
        <time>2011-05-28T13:46:09Z</time>
      </trkpt>
      <trkpt lat="44.39423" lon="4.38373">
        <ele>100.5950928</ele>
        <time>2011-05-28T13:46:13Z</time>
      </trkpt>
      <trkpt lat="44.39432" lon="4.38382">
        <ele>101.0756836</ele>
        <time>2011-05-28T13:46:17Z</time>
      </trkpt>
      <trkpt lat="44.39441" lon="4.38391">
        <ele>99.6337891</ele>
        <time>2011-05-28T13:46:20Z</time>
      </trkpt>
      <trkpt lat="44.39449" lon="4.38399">
        <ele>100.114502</ele>
        <time>2011-05-28T13:46:23Z</time>
      </trkpt>
      <trkpt lat="44.39458" lon="4.38408">
        <ele>100.114502</ele>
        <time>2011-05-28T13:46:26Z</time>
      </trkpt>
      <trkpt lat="44.39468" lon="4.38417">
        <ele>99.6337891</ele>
        <time>2011-05-28T13:46:29Z</time>
      </trkpt>
      <trkpt lat="44.39479" lon="4.38425">
        <ele>99.6337891</ele>
        <time>2011-05-28T13:46:32Z</time>
      </trkpt>
      <trkpt lat="44.39491" lon="4.38434">
        <ele>100.114502</ele>
        <time>2011-05-28T13:46:35Z</time>
      </trkpt>
      <trkpt lat="44.395" lon="4.38439">
        <ele>99.1530762</ele>
        <time>2011-05-28T13:46:37Z</time>
      </trkpt>
      <trkpt lat="44.39509" lon="4.38444">
        <ele>98.6724854</ele>
        <time>2011-05-28T13:46:39Z</time>
      </trkpt>
      <trkpt lat="44.39519" lon="4.38448">
        <ele>98.1918945</ele>
        <time>2011-05-28T13:46:41Z</time>
      </trkpt>
      <trkpt lat="44.3953" lon="4.38452">
        <ele>98.1918945</ele>
        <time>2011-05-28T13:46:43Z</time>
      </trkpt>
      <trkpt lat="44.39541" lon="4.38457">
        <ele>97.2304688</ele>
        <time>2011-05-28T13:46:45Z</time>
      </trkpt>
      <trkpt lat="44.39552" lon="4.38464">
        <ele>97.2304688</ele>
        <time>2011-05-28T13:46:47Z</time>
      </trkpt>
      <trkpt lat="44.39563" lon="4.38473">
        <ele>97.7111816</ele>
        <time>2011-05-28T13:46:49Z</time>
      </trkpt>
      <trkpt lat="44.39573" lon="4.38482">
        <ele>97.2304688</ele>
        <time>2011-05-28T13:46:51Z</time>
      </trkpt>
      <trkpt lat="44.39583" lon="4.38491">
        <ele>96.7498779</ele>
        <time>2011-05-28T13:46:53Z</time>
      </trkpt>
      <trkpt lat="44.39593" lon="4.385">
        <ele>96.2692871</ele>
        <time>2011-05-28T13:46:55Z</time>
      </trkpt>
      <trkpt lat="44.39603" lon="4.38508">
        <ele>96.2692871</ele>
        <time>2011-05-28T13:46:57Z</time>
      </trkpt>
      <trkpt lat="44.39613" lon="4.38516">
        <ele>96.7498779</ele>
        <time>2011-05-28T13:46:59Z</time>
      </trkpt>
      <trkpt lat="44.39623" lon="4.38525">
        <ele>95.7884521</ele>
        <time>2011-05-28T13:47:01Z</time>
      </trkpt>
      <trkpt lat="44.39633" lon="4.38534">
        <ele>96.2692871</ele>
        <time>2011-05-28T13:47:03Z</time>
      </trkpt>
      <trkpt lat="44.39642" lon="4.38542">
        <ele>96.2692871</ele>
        <time>2011-05-28T13:47:05Z</time>
      </trkpt>
      <trkpt lat="44.3965" lon="4.3855">
        <ele>95.7884521</ele>
        <time>2011-05-28T13:47:07Z</time>
      </trkpt>
      <trkpt lat="44.39659" lon="4.38558">
        <ele>94.3465576</ele>
        <time>2011-05-28T13:47:09Z</time>
      </trkpt>
      <trkpt lat="44.39665" lon="4.38567">
        <ele>93.8658447</ele>
        <time>2011-05-28T13:47:11Z</time>
      </trkpt>
      <trkpt lat="44.39674" lon="4.38572">
        <ele>93.3851318</ele>
        <time>2011-05-28T13:47:14Z</time>
      </trkpt>
      <trkpt lat="44.39684" lon="4.38573">
        <ele>93.3851318</ele>
        <time>2011-05-28T13:47:19Z</time>
      </trkpt>
      <trkpt lat="44.39693" lon="4.38578">
        <ele>92.4239502</ele>
        <time>2011-05-28T13:47:31Z</time>
      </trkpt>
      <trkpt lat="44.39702" lon="4.38578">
        <ele>92.4239502</ele>
        <time>2011-05-28T13:47:43Z</time>
      </trkpt>
      <trkpt lat="44.397" lon="4.38571">
        <ele>92.4239502</ele>
        <time>2011-05-28T14:00:19Z</time>
      </trkpt>
      <trkpt lat="44.39703" lon="4.38559">
        <ele>92.904541</ele>
        <time>2011-05-28T14:00:45Z</time>
      </trkpt>
      <trkpt lat="44.39709" lon="4.38546">
        <ele>93.8658447</ele>
        <time>2011-05-28T14:00:51Z</time>
      </trkpt>
      <trkpt lat="44.39715" lon="4.38539">
        <ele>94.3465576</ele>
        <time>2011-05-28T14:01:36Z</time>
      </trkpt>
      <trkpt lat="44.39724" lon="4.38533">
        <ele>95.3077393</ele>
        <time>2011-05-28T14:01:41Z</time>
      </trkpt>
      <trkpt lat="44.39733" lon="4.38528">
        <ele>95.3077393</ele>
        <time>2011-05-28T14:01:45Z</time>
      </trkpt>
      <trkpt lat="44.39743" lon="4.3852">
        <ele>94.8271484</ele>
        <time>2011-05-28T14:01:49Z</time>
      </trkpt>
      <trkpt lat="44.39752" lon="4.38513">
        <ele>94.3465576</ele>
        <time>2011-05-28T14:01:52Z</time>
      </trkpt>
      <trkpt lat="44.3976" lon="4.38506">
        <ele>95.3077393</ele>
        <time>2011-05-28T14:01:55Z</time>
      </trkpt>
      <trkpt lat="44.39769" lon="4.385">
        <ele>94.8271484</ele>
        <time>2011-05-28T14:01:58Z</time>
      </trkpt>
      <trkpt lat="44.39778" lon="4.38493">
        <ele>94.8271484</ele>
        <time>2011-05-28T14:02:01Z</time>
      </trkpt>
      <trkpt lat="44.39788" lon="4.38485">
        <ele>94.8271484</ele>
        <time>2011-05-28T14:02:04Z</time>
      </trkpt>
      <trkpt lat="44.39798" lon="4.38478">
        <ele>94.3465576</ele>
        <time>2011-05-28T14:02:07Z</time>
      </trkpt>
      <trkpt lat="44.39807" lon="4.38469">
        <ele>94.3465576</ele>
        <time>2011-05-28T14:02:11Z</time>
      </trkpt>
      <trkpt lat="44.39811" lon="4.38457">
        <ele>94.3465576</ele>
        <time>2011-05-28T14:02:17Z</time>
      </trkpt>
      <trkpt lat="44.39809" lon="4.38443">
        <ele>95.3077393</ele>
        <time>2011-05-28T14:02:23Z</time>
      </trkpt>
      <trkpt lat="44.39803" lon="4.38431">
        <ele>96.2692871</ele>
        <time>2011-05-28T14:02:28Z</time>
      </trkpt>
      <trkpt lat="44.39796" lon="4.38421">
        <ele>96.2692871</ele>
        <time>2011-05-28T14:02:31Z</time>
      </trkpt>
      <trkpt lat="44.3979" lon="4.38409">
        <ele>96.2692871</ele>
        <time>2011-05-28T14:02:34Z</time>
      </trkpt>
      <trkpt lat="44.39784" lon="4.38395">
        <ele>96.2692871</ele>
        <time>2011-05-28T14:02:37Z</time>
      </trkpt>
      <trkpt lat="44.39778" lon="4.38381">
        <ele>96.2692871</ele>
        <time>2011-05-28T14:02:40Z</time>
      </trkpt>
      <trkpt lat="44.39772" lon="4.38368">
        <ele>96.7498779</ele>
        <time>2011-05-28T14:02:43Z</time>
      </trkpt>
      <trkpt lat="44.39768" lon="4.38356">
        <ele>97.2304688</ele>
        <time>2011-05-28T14:02:46Z</time>
      </trkpt>
      <trkpt lat="44.39763" lon="4.38344">
        <ele>97.7111816</ele>
        <time>2011-05-28T14:02:49Z</time>
      </trkpt>
      <trkpt lat="44.39757" lon="4.38331">
        <ele>99.6337891</ele>
        <time>2011-05-28T14:02:53Z</time>
      </trkpt>
      <trkpt lat="44.39751" lon="4.38317">
        <ele>99.1530762</ele>
        <time>2011-05-28T14:02:57Z</time>
      </trkpt>
      <trkpt lat="44.39746" lon="4.38306">
        <ele>98.6724854</ele>
        <time>2011-05-28T14:03:00Z</time>
      </trkpt>
      <trkpt lat="44.39739" lon="4.38294">
        <ele>98.6724854</ele>
        <time>2011-05-28T14:03:05Z</time>
      </trkpt>
      <trkpt lat="44.39735" lon="4.38284">
        <ele>98.6724854</ele>
        <time>2011-05-28T14:03:12Z</time>
      </trkpt>
      <trkpt lat="44.39743" lon="4.38289">
        <ele>99.1530762</ele>
        <time>2011-05-28T14:03:17Z</time>
      </trkpt>
      <trkpt lat="44.3975" lon="4.38302">
        <ele>100.5950928</ele>
        <time>2011-05-28T14:03:21Z</time>
      </trkpt>
      <trkpt lat="44.39757" lon="4.38316">
        <ele>100.5950928</ele>
        <time>2011-05-28T14:03:25Z</time>
      </trkpt>
      <trkpt lat="44.39763" lon="4.38326">
        <ele>101.5563965</ele>
        <time>2011-05-28T14:03:28Z</time>
      </trkpt>
      <trkpt lat="44.39771" lon="4.3834">
        <ele>102.0371094</ele>
        <time>2011-05-28T14:03:32Z</time>
      </trkpt>
      <trkpt lat="44.39778" lon="4.38353">
        <ele>102.998291</ele>
        <time>2011-05-28T14:03:36Z</time>
      </trkpt>
      <trkpt lat="44.39785" lon="4.38367">
        <ele>103.4790039</ele>
        <time>2011-05-28T14:03:40Z</time>
      </trkpt>
      <trkpt lat="44.39793" lon="4.3838">
        <ele>103.9597168</ele>
        <time>2011-05-28T14:03:44Z</time>
      </trkpt>
      <trkpt lat="44.39799" lon="4.38391">
        <ele>104.9210205</ele>
        <time>2011-05-28T14:03:47Z</time>
      </trkpt>
      <trkpt lat="44.39804" lon="4.38402">
        <ele>104.9210205</ele>
        <time>2011-05-28T14:03:50Z</time>
      </trkpt>
      <trkpt lat="44.3981" lon="4.38412">
        <ele>105.8824463</ele>
        <time>2011-05-28T14:03:53Z</time>
      </trkpt>
      <trkpt lat="44.39817" lon="4.38426">
        <ele>105.8824463</ele>
        <time>2011-05-28T14:03:57Z</time>
      </trkpt>
      <trkpt lat="44.39823" lon="4.38436">
        <ele>106.3630371</ele>
        <time>2011-05-28T14:04:00Z</time>
      </trkpt>
      <trkpt lat="44.39829" lon="4.38447">
        <ele>106.8436279</ele>
        <time>2011-05-28T14:04:03Z</time>
      </trkpt>
      <trkpt lat="44.39836" lon="4.38458">
        <ele>107.3243408</ele>
        <time>2011-05-28T14:04:06Z</time>
      </trkpt>
      <trkpt lat="44.39842" lon="4.38469">
        <ele>107.8050537</ele>
        <time>2011-05-28T14:04:09Z</time>
      </trkpt>
      <trkpt lat="44.39848" lon="4.3848">
        <ele>107.8050537</ele>
        <time>2011-05-28T14:04:12Z</time>
      </trkpt>
      <trkpt lat="44.39855" lon="4.38492">
        <ele>107.8050537</ele>
        <time>2011-05-28T14:04:15Z</time>
      </trkpt>
      <trkpt lat="44.39862" lon="4.38504">
        <ele>108.7662354</ele>
        <time>2011-05-28T14:04:18Z</time>
      </trkpt>
      <trkpt lat="44.3987" lon="4.38517">
        <ele>107.8050537</ele>
        <time>2011-05-28T14:04:21Z</time>
      </trkpt>
      <trkpt lat="44.39877" lon="4.3853">
        <ele>107.3243408</ele>
        <time>2011-05-28T14:04:24Z</time>
      </trkpt>
      <trkpt lat="44.39885" lon="4.38544">
        <ele>107.3243408</ele>
        <time>2011-05-28T14:04:27Z</time>
      </trkpt>
      <trkpt lat="44.39893" lon="4.38559">
        <ele>106.8436279</ele>
        <time>2011-05-28T14:04:30Z</time>
      </trkpt>
      <trkpt lat="44.39899" lon="4.38569">
        <ele>107.3243408</ele>
        <time>2011-05-28T14:04:32Z</time>
      </trkpt>
      <trkpt lat="44.39907" lon="4.38583">
        <ele>105.8824463</ele>
        <time>2011-05-28T14:04:35Z</time>
      </trkpt>
      <trkpt lat="44.39913" lon="4.38594">
        <ele>105.4017334</ele>
        <time>2011-05-28T14:04:37Z</time>
      </trkpt>
      <trkpt lat="44.39921" lon="4.38608">
        <ele>106.3630371</ele>
        <time>2011-05-28T14:04:39Z</time>
      </trkpt>
      <trkpt lat="44.39928" lon="4.3862">
        <ele>107.3243408</ele>
        <time>2011-05-28T14:04:41Z</time>
      </trkpt>
      <trkpt lat="44.39935" lon="4.38631">
        <ele>107.3243408</ele>
        <time>2011-05-28T14:04:43Z</time>
      </trkpt>
      <trkpt lat="44.39942" lon="4.38643">
        <ele>107.3243408</ele>
        <time>2011-05-28T14:04:45Z</time>
      </trkpt>
      <trkpt lat="44.39948" lon="4.38655">
        <ele>107.3243408</ele>
        <time>2011-05-28T14:04:47Z</time>
      </trkpt>
      <trkpt lat="44.39954" lon="4.38666">
        <ele>107.8050537</ele>
        <time>2011-05-28T14:04:49Z</time>
      </trkpt>
      <trkpt lat="44.3996" lon="4.38675">
        <ele>108.2856445</ele>
        <time>2011-05-28T14:04:51Z</time>
      </trkpt>
      <trkpt lat="44.39968" lon="4.38689">
        <ele>109.7276611</ele>
        <time>2011-05-28T14:04:54Z</time>
      </trkpt>
      <trkpt lat="44.39977" lon="4.38704">
        <ele>110.208252</ele>
        <time>2011-05-28T14:04:57Z</time>
      </trkpt>
      <trkpt lat="44.39986" lon="4.38718">
        <ele>110.208252</ele>
        <time>2011-05-28T14:05:00Z</time>
      </trkpt>
      <trkpt lat="44.39994" lon="4.38732">
        <ele>110.208252</ele>
        <time>2011-05-28T14:05:03Z</time>
      </trkpt>
      <trkpt lat="44.40003" lon="4.38747">
        <ele>110.6888428</ele>
        <time>2011-05-28T14:05:06Z</time>
      </trkpt>
      <trkpt lat="44.40012" lon="4.3876">
        <ele>110.208252</ele>
        <time>2011-05-28T14:05:09Z</time>
      </trkpt>
      <trkpt lat="44.40021" lon="4.38772">
        <ele>111.1695557</ele>
        <time>2011-05-28T14:05:12Z</time>
      </trkpt>
      <trkpt lat="44.40028" lon="4.38787">
        <ele>111.6502686</ele>
        <time>2011-05-28T14:05:15Z</time>
      </trkpt>
      <trkpt lat="44.40038" lon="4.388">
        <ele>111.1695557</ele>
        <time>2011-05-28T14:05:18Z</time>
      </trkpt>
      <trkpt lat="44.40049" lon="4.38799">
        <ele>111.1695557</ele>
        <time>2011-05-28T14:05:21Z</time>
      </trkpt>
      <trkpt lat="44.40059" lon="4.38786">
        <ele>113.0922852</ele>
        <time>2011-05-28T14:05:24Z</time>
      </trkpt>
      <trkpt lat="44.40069" lon="4.38775">
        <ele>113.572998</ele>
        <time>2011-05-28T14:05:27Z</time>
      </trkpt>
      <trkpt lat="44.40079" lon="4.38766">
        <ele>113.0922852</ele>
        <time>2011-05-28T14:05:30Z</time>
      </trkpt>
      <trkpt lat="44.40087" lon="4.38757">
        <ele>113.0922852</ele>
        <time>2011-05-28T14:05:33Z</time>
      </trkpt>
      <trkpt lat="44.40095" lon="4.38748">
        <ele>114.5341797</ele>
        <time>2011-05-28T14:05:36Z</time>
      </trkpt>
      <trkpt lat="44.40104" lon="4.38745">
        <ele>115.0148926</ele>
        <time>2011-05-28T14:05:39Z</time>
      </trkpt>
      <trkpt lat="44.40114" lon="4.38752">
        <ele>115.9761963</ele>
        <time>2011-05-28T14:05:43Z</time>
      </trkpt>
      <trkpt lat="44.40123" lon="4.38759">
        <ele>117.4182129</ele>
        <time>2011-05-28T14:05:47Z</time>
      </trkpt>
      <trkpt lat="44.40132" lon="4.38767">
        <ele>118.3793945</ele>
        <time>2011-05-28T14:05:51Z</time>
      </trkpt>
      <trkpt lat="44.40142" lon="4.38774">
        <ele>119.3408203</ele>
        <time>2011-05-28T14:05:55Z</time>
      </trkpt>
      <trkpt lat="44.40152" lon="4.38783">
        <ele>120.302124</ele>
        <time>2011-05-28T14:05:59Z</time>
      </trkpt>
      <trkpt lat="44.40163" lon="4.38791">
        <ele>121.7441406</ele>
        <time>2011-05-28T14:06:03Z</time>
      </trkpt>
      <trkpt lat="44.40172" lon="4.388">
        <ele>122.7054443</ele>
        <time>2011-05-28T14:06:07Z</time>
      </trkpt>
      <trkpt lat="44.40182" lon="4.38808">
        <ele>123.1861572</ele>
        <time>2011-05-28T14:06:11Z</time>
      </trkpt>
      <trkpt lat="44.40192" lon="4.38817">
        <ele>124.1473389</ele>
        <time>2011-05-28T14:06:15Z</time>
      </trkpt>
      <trkpt lat="44.402" lon="4.38825">
        <ele>123.666748</ele>
        <time>2011-05-28T14:06:18Z</time>
      </trkpt>
      <trkpt lat="44.40208" lon="4.38835">
        <ele>124.1473389</ele>
        <time>2011-05-28T14:06:21Z</time>
      </trkpt>
      <trkpt lat="44.40215" lon="4.38845">
        <ele>123.666748</ele>
        <time>2011-05-28T14:06:24Z</time>
      </trkpt>
      <trkpt lat="44.40223" lon="4.38856">
        <ele>124.1473389</ele>
        <time>2011-05-28T14:06:27Z</time>
      </trkpt>
      <trkpt lat="44.40229" lon="4.38869">
        <ele>123.666748</ele>
        <time>2011-05-28T14:06:30Z</time>
      </trkpt>
      <trkpt lat="44.40236" lon="4.38882">
        <ele>124.1473389</ele>
        <time>2011-05-28T14:06:33Z</time>
      </trkpt>
      <trkpt lat="44.40242" lon="4.38895">
        <ele>125.1087646</ele>
        <time>2011-05-28T14:06:36Z</time>
      </trkpt>
      <trkpt lat="44.40249" lon="4.38908">
        <ele>125.1087646</ele>
        <time>2011-05-28T14:06:39Z</time>
      </trkpt>
      <trkpt lat="44.40256" lon="4.38922">
        <ele>126.5506592</ele>
        <time>2011-05-28T14:06:42Z</time>
      </trkpt>
      <trkpt lat="44.40264" lon="4.38934">
        <ele>126.5506592</ele>
        <time>2011-05-28T14:06:45Z</time>
      </trkpt>
      <trkpt lat="44.40272" lon="4.38947">
        <ele>126.0699463</ele>
        <time>2011-05-28T14:06:48Z</time>
      </trkpt>
      <trkpt lat="44.4028" lon="4.38961">
        <ele>125.5893555</ele>
        <time>2011-05-28T14:06:51Z</time>
      </trkpt>
      <trkpt lat="44.40288" lon="4.38975">
        <ele>124.6280518</ele>
        <time>2011-05-28T14:06:54Z</time>
      </trkpt>
      <trkpt lat="44.40298" lon="4.38987">
        <ele>125.1087646</ele>
        <time>2011-05-28T14:06:57Z</time>
      </trkpt>
      <trkpt lat="44.40306" lon="4.38982">
        <ele>124.1473389</ele>
        <time>2011-05-28T14:06:59Z</time>
      </trkpt>
      <trkpt lat="44.40313" lon="4.3897">
        <ele>123.666748</ele>
        <time>2011-05-28T14:07:01Z</time>
      </trkpt>
      <trkpt lat="44.40323" lon="4.38957">
        <ele>121.2635498</ele>
        <time>2011-05-28T14:07:03Z</time>
      </trkpt>
      <trkpt lat="44.40337" lon="4.38948">
        <ele>119.8214111</ele>
        <time>2011-05-28T14:07:05Z</time>
      </trkpt>
      <trkpt lat="44.40351" lon="4.38937">
        <ele>118.8601074</ele>
        <time>2011-05-28T14:07:07Z</time>
      </trkpt>
      <trkpt lat="44.40367" lon="4.38925">
        <ele>115.9761963</ele>
        <time>2011-05-28T14:07:09Z</time>
      </trkpt>
      <trkpt lat="44.40382" lon="4.3892">
        <ele>114.5341797</ele>
        <time>2011-05-28T14:07:11Z</time>
      </trkpt>
      <trkpt lat="44.40398" lon="4.38923">
        <ele>112.1309814</ele>
        <time>2011-05-28T14:07:13Z</time>
      </trkpt>
      <trkpt lat="44.40415" lon="4.38934">
        <ele>110.208252</ele>
        <time>2011-05-28T14:07:15Z</time>
      </trkpt>
      <trkpt lat="44.40423" lon="4.3894">
        <ele>109.2469482</ele>
        <time>2011-05-28T14:07:16Z</time>
      </trkpt>
      <trkpt lat="44.40432" lon="4.38947">
        <ele>108.7662354</ele>
        <time>2011-05-28T14:07:17Z</time>
      </trkpt>
      <trkpt lat="44.4044" lon="4.38955">
        <ele>108.2856445</ele>
        <time>2011-05-28T14:07:18Z</time>
      </trkpt>
      <trkpt lat="44.40445" lon="4.38967">
        <ele>108.2856445</ele>
        <time>2011-05-28T14:07:19Z</time>
      </trkpt>
      <trkpt lat="44.40451" lon="4.38989">
        <ele>108.7662354</ele>
        <time>2011-05-28T14:07:21Z</time>
      </trkpt>
      <trkpt lat="44.40459" lon="4.39005">
        <ele>107.8050537</ele>
        <time>2011-05-28T14:07:23Z</time>
      </trkpt>
      <trkpt lat="44.40469" lon="4.39012">
        <ele>107.3243408</ele>
        <time>2011-05-28T14:07:25Z</time>
      </trkpt>
      <trkpt lat="44.40479" lon="4.39011">
        <ele>105.8824463</ele>
        <time>2011-05-28T14:07:27Z</time>
      </trkpt>
      <trkpt lat="44.40488" lon="4.39004">
        <ele>105.4017334</ele>
        <time>2011-05-28T14:07:29Z</time>
      </trkpt>
      <trkpt lat="44.40499" lon="4.38997">
        <ele>104.9210205</ele>
        <time>2011-05-28T14:07:31Z</time>
      </trkpt>
      <trkpt lat="44.40511" lon="4.38989">
        <ele>105.4017334</ele>
        <time>2011-05-28T14:07:33Z</time>
      </trkpt>
      <trkpt lat="44.40524" lon="4.38983">
        <ele>104.9210205</ele>
        <time>2011-05-28T14:07:35Z</time>
      </trkpt>
      <trkpt lat="44.40537" lon="4.38978">
        <ele>105.4017334</ele>
        <time>2011-05-28T14:07:37Z</time>
      </trkpt>
      <trkpt lat="44.4055" lon="4.38973">
        <ele>105.4017334</ele>
        <time>2011-05-28T14:07:39Z</time>
      </trkpt>
      <trkpt lat="44.40563" lon="4.38969">
        <ele>105.8824463</ele>
        <time>2011-05-28T14:07:41Z</time>
      </trkpt>
      <trkpt lat="44.40576" lon="4.38963">
        <ele>105.8824463</ele>
        <time>2011-05-28T14:07:43Z</time>
      </trkpt>
      <trkpt lat="44.40588" lon="4.38956">
        <ele>105.8824463</ele>
        <time>2011-05-28T14:07:45Z</time>
      </trkpt>
      <trkpt lat="44.406" lon="4.38951">
        <ele>105.4017334</ele>
        <time>2011-05-28T14:07:47Z</time>
      </trkpt>
      <trkpt lat="44.40611" lon="4.38952">
        <ele>105.8824463</ele>
        <time>2011-05-28T14:07:49Z</time>
      </trkpt>
      <trkpt lat="44.40619" lon="4.38963">
        <ele>106.8436279</ele>
        <time>2011-05-28T14:07:51Z</time>
      </trkpt>
      <trkpt lat="44.40625" lon="4.38975">
        <ele>106.3630371</ele>
        <time>2011-05-28T14:07:53Z</time>
      </trkpt>
      <trkpt lat="44.40631" lon="4.38987">
        <ele>106.8436279</ele>
        <time>2011-05-28T14:07:55Z</time>
      </trkpt>
      <trkpt lat="44.40636" lon="4.38998">
        <ele>106.3630371</ele>
        <time>2011-05-28T14:07:57Z</time>
      </trkpt>
      <trkpt lat="44.40643" lon="4.39012">
        <ele>106.8436279</ele>
        <time>2011-05-28T14:08:00Z</time>
      </trkpt>
      <trkpt lat="44.40648" lon="4.39024">
        <ele>107.8050537</ele>
        <time>2011-05-28T14:08:03Z</time>
      </trkpt>
      <trkpt lat="44.40653" lon="4.39035">
        <ele>108.2856445</ele>
        <time>2011-05-28T14:08:07Z</time>
      </trkpt>
      <trkpt lat="44.4066" lon="4.39045">
        <ele>108.7662354</ele>
        <time>2011-05-28T14:08:21Z</time>
      </trkpt>
      <trkpt lat="44.40671" lon="4.39041">
        <ele>109.7276611</ele>
        <time>2011-05-28T14:08:26Z</time>
      </trkpt>
      <trkpt lat="44.40678" lon="4.39027">
        <ele>107.8050537</ele>
        <time>2011-05-28T14:08:29Z</time>
      </trkpt>
      <trkpt lat="44.40683" lon="4.39016">
        <ele>108.2856445</ele>
        <time>2011-05-28T14:08:31Z</time>
      </trkpt>
      <trkpt lat="44.40689" lon="4.39004">
        <ele>108.2856445</ele>
        <time>2011-05-28T14:08:33Z</time>
      </trkpt>
      <trkpt lat="44.40694" lon="4.38991">
        <ele>107.8050537</ele>
        <time>2011-05-28T14:08:35Z</time>
      </trkpt>
      <trkpt lat="44.40699" lon="4.38978">
        <ele>108.2856445</ele>
        <time>2011-05-28T14:08:37Z</time>
      </trkpt>
      <trkpt lat="44.40704" lon="4.38965">
        <ele>108.2856445</ele>
        <time>2011-05-28T14:08:39Z</time>
      </trkpt>
      <trkpt lat="44.40709" lon="4.38952">
        <ele>108.2856445</ele>
        <time>2011-05-28T14:08:41Z</time>
      </trkpt>
      <trkpt lat="44.40714" lon="4.38939">
        <ele>106.8436279</ele>
        <time>2011-05-28T14:08:43Z</time>
      </trkpt>
      <trkpt lat="44.40719" lon="4.38926">
        <ele>105.8824463</ele>
        <time>2011-05-28T14:08:45Z</time>
      </trkpt>
      <trkpt lat="44.40724" lon="4.38913">
        <ele>106.8436279</ele>
        <time>2011-05-28T14:08:47Z</time>
      </trkpt>
      <trkpt lat="44.40728" lon="4.389">
        <ele>105.8824463</ele>
        <time>2011-05-28T14:08:49Z</time>
      </trkpt>
      <trkpt lat="44.40734" lon="4.38884">
        <ele>105.4017334</ele>
        <time>2011-05-28T14:08:52Z</time>
      </trkpt>
      <trkpt lat="44.40742" lon="4.38871">
        <ele>104.9210205</ele>
        <time>2011-05-28T14:08:55Z</time>
      </trkpt>
      <trkpt lat="44.40751" lon="4.38869">
        <ele>104.9210205</ele>
        <time>2011-05-28T14:08:57Z</time>
      </trkpt>
      <trkpt lat="44.4076" lon="4.38876">
        <ele>104.9210205</ele>
        <time>2011-05-28T14:08:59Z</time>
      </trkpt>
      <trkpt lat="44.40766" lon="4.38889">
        <ele>105.4017334</ele>
        <time>2011-05-28T14:09:01Z</time>
      </trkpt>
      <trkpt lat="44.40771" lon="4.38902">
        <ele>105.4017334</ele>
        <time>2011-05-28T14:09:03Z</time>
      </trkpt>
      <trkpt lat="44.40777" lon="4.38914">
        <ele>105.8824463</ele>
        <time>2011-05-28T14:09:05Z</time>
      </trkpt>
      <trkpt lat="44.40786" lon="4.3892">
        <ele>106.3630371</ele>
        <time>2011-05-28T14:09:07Z</time>
      </trkpt>
      <trkpt lat="44.40797" lon="4.3892">
        <ele>106.8436279</ele>
        <time>2011-05-28T14:09:09Z</time>
      </trkpt>
      <trkpt lat="44.40806" lon="4.38917">
        <ele>106.8436279</ele>
        <time>2011-05-28T14:09:11Z</time>
      </trkpt>
      <trkpt lat="44.40816" lon="4.38917">
        <ele>107.3243408</ele>
        <time>2011-05-28T14:09:13Z</time>
      </trkpt>
      <trkpt lat="44.4083" lon="4.3892">
        <ele>107.8050537</ele>
        <time>2011-05-28T14:09:16Z</time>
      </trkpt>
      <trkpt lat="44.40839" lon="4.38923">
        <ele>107.8050537</ele>
        <time>2011-05-28T14:09:18Z</time>
      </trkpt>
      <trkpt lat="44.40849" lon="4.38927">
        <ele>108.2856445</ele>
        <time>2011-05-28T14:09:20Z</time>
      </trkpt>
      <trkpt lat="44.40858" lon="4.3893">
        <ele>108.2856445</ele>
        <time>2011-05-28T14:09:22Z</time>
      </trkpt>
      <trkpt lat="44.40871" lon="4.38934">
        <ele>107.8050537</ele>
        <time>2011-05-28T14:09:25Z</time>
      </trkpt>
      <trkpt lat="44.40882" lon="4.38938">
        <ele>107.8050537</ele>
        <time>2011-05-28T14:09:28Z</time>
      </trkpt>
      <trkpt lat="44.40892" lon="4.38945">
        <ele>107.8050537</ele>
        <time>2011-05-28T14:09:31Z</time>
      </trkpt>
      <trkpt lat="44.40903" lon="4.38956">
        <ele>108.2856445</ele>
        <time>2011-05-28T14:09:34Z</time>
      </trkpt>
      <trkpt lat="44.40911" lon="4.38963">
        <ele>108.2856445</ele>
        <time>2011-05-28T14:09:36Z</time>
      </trkpt>
      <trkpt lat="44.40919" lon="4.38971">
        <ele>108.2856445</ele>
        <time>2011-05-28T14:09:38Z</time>
      </trkpt>
      <trkpt lat="44.40927" lon="4.38979">
        <ele>108.2856445</ele>
        <time>2011-05-28T14:09:40Z</time>
      </trkpt>
      <trkpt lat="44.40935" lon="4.38986">
        <ele>108.2856445</ele>
        <time>2011-05-28T14:09:42Z</time>
      </trkpt>
      <trkpt lat="44.40944" lon="4.38997">
        <ele>108.7662354</ele>
        <time>2011-05-28T14:09:45Z</time>
      </trkpt>
      <trkpt lat="44.40956" lon="4.39006">
        <ele>108.7662354</ele>
        <time>2011-05-28T14:09:48Z</time>
      </trkpt>
      <trkpt lat="44.40968" lon="4.38999">
        <ele>109.7276611</ele>
        <time>2011-05-28T14:09:51Z</time>
      </trkpt>
      <trkpt lat="44.40974" lon="4.38989">
        <ele>108.7662354</ele>
        <time>2011-05-28T14:09:53Z</time>
      </trkpt>
      <trkpt lat="44.4098" lon="4.38979">
        <ele>108.7662354</ele>
        <time>2011-05-28T14:09:55Z</time>
      </trkpt>
      <trkpt lat="44.40987" lon="4.38968">
        <ele>108.2856445</ele>
        <time>2011-05-28T14:09:57Z</time>
      </trkpt>
      <trkpt lat="44.40993" lon="4.38957">
        <ele>108.2856445</ele>
        <time>2011-05-28T14:09:59Z</time>
      </trkpt>
      <trkpt lat="44.41001" lon="4.38947">
        <ele>107.8050537</ele>
        <time>2011-05-28T14:10:01Z</time>
      </trkpt>
      <trkpt lat="44.41009" lon="4.38937">
        <ele>107.3243408</ele>
        <time>2011-05-28T14:10:03Z</time>
      </trkpt>
      <trkpt lat="44.41018" lon="4.38928">
        <ele>107.8050537</ele>
        <time>2011-05-28T14:10:05Z</time>
      </trkpt>
      <trkpt lat="44.41025" lon="4.38918">
        <ele>107.3243408</ele>
        <time>2011-05-28T14:10:07Z</time>
      </trkpt>
      <trkpt lat="44.41033" lon="4.38909">
        <ele>107.8050537</ele>
        <time>2011-05-28T14:10:09Z</time>
      </trkpt>
      <trkpt lat="44.41041" lon="4.389">
        <ele>108.2856445</ele>
        <time>2011-05-28T14:10:11Z</time>
      </trkpt>
      <trkpt lat="44.41049" lon="4.38891">
        <ele>107.8050537</ele>
        <time>2011-05-28T14:10:13Z</time>
      </trkpt>
      <trkpt lat="44.41058" lon="4.38883">
        <ele>108.2856445</ele>
        <time>2011-05-28T14:10:15Z</time>
      </trkpt>
      <trkpt lat="44.41068" lon="4.38876">
        <ele>108.2856445</ele>
        <time>2011-05-28T14:10:17Z</time>
      </trkpt>
      <trkpt lat="44.41078" lon="4.38871">
        <ele>108.2856445</ele>
        <time>2011-05-28T14:10:19Z</time>
      </trkpt>
      <trkpt lat="44.4109" lon="4.38869">
        <ele>107.3243408</ele>
        <time>2011-05-28T14:10:21Z</time>
      </trkpt>
      <trkpt lat="44.41101" lon="4.38867">
        <ele>107.8050537</ele>
        <time>2011-05-28T14:10:23Z</time>
      </trkpt>
      <trkpt lat="44.41111" lon="4.38861">
        <ele>107.8050537</ele>
        <time>2011-05-28T14:10:25Z</time>
      </trkpt>
      <trkpt lat="44.41119" lon="4.38852">
        <ele>107.3243408</ele>
        <time>2011-05-28T14:10:27Z</time>
      </trkpt>
      <trkpt lat="44.41127" lon="4.38842">
        <ele>107.8050537</ele>
        <time>2011-05-28T14:10:29Z</time>
      </trkpt>
      <trkpt lat="44.41134" lon="4.38831">
        <ele>107.3243408</ele>
        <time>2011-05-28T14:10:31Z</time>
      </trkpt>
      <trkpt lat="44.41142" lon="4.38822">
        <ele>107.8050537</ele>
        <time>2011-05-28T14:10:33Z</time>
      </trkpt>
      <trkpt lat="44.41151" lon="4.38814">
        <ele>108.2856445</ele>
        <time>2011-05-28T14:10:35Z</time>
      </trkpt>
      <trkpt lat="44.4116" lon="4.38807">
        <ele>108.2856445</ele>
        <time>2011-05-28T14:10:37Z</time>
      </trkpt>
      <trkpt lat="44.41169" lon="4.388">
        <ele>108.2856445</ele>
        <time>2011-05-28T14:10:39Z</time>
      </trkpt>
      <trkpt lat="44.41178" lon="4.38794">
        <ele>108.7662354</ele>
        <time>2011-05-28T14:10:41Z</time>
      </trkpt>
      <trkpt lat="44.41187" lon="4.38787">
        <ele>109.2469482</ele>
        <time>2011-05-28T14:10:43Z</time>
      </trkpt>
      <trkpt lat="44.41196" lon="4.3878">
        <ele>109.2469482</ele>
        <time>2011-05-28T14:10:45Z</time>
      </trkpt>
      <trkpt lat="44.41205" lon="4.38773">
        <ele>109.2469482</ele>
        <time>2011-05-28T14:10:47Z</time>
      </trkpt>
      <trkpt lat="44.41214" lon="4.38767">
        <ele>109.7276611</ele>
        <time>2011-05-28T14:10:49Z</time>
      </trkpt>
      <trkpt lat="44.41226" lon="4.3876">
        <ele>109.7276611</ele>
        <time>2011-05-28T14:10:52Z</time>
      </trkpt>
      <trkpt lat="44.41235" lon="4.38754">
        <ele>110.208252</ele>
        <time>2011-05-28T14:10:55Z</time>
      </trkpt>
      <trkpt lat="44.41246" lon="4.3875">
        <ele>110.6888428</ele>
        <time>2011-05-28T14:10:59Z</time>
      </trkpt>
      <trkpt lat="44.41257" lon="4.38747">
        <ele>111.6502686</ele>
        <time>2011-05-28T14:11:03Z</time>
      </trkpt>
      <trkpt lat="44.41262" lon="4.38735">
        <ele>112.1309814</ele>
        <time>2011-05-28T14:11:06Z</time>
      </trkpt>
      <trkpt lat="44.41263" lon="4.38718">
        <ele>112.1309814</ele>
        <time>2011-05-28T14:11:09Z</time>
      </trkpt>
      <trkpt lat="44.41264" lon="4.38705">
        <ele>111.6502686</ele>
        <time>2011-05-28T14:11:11Z</time>
      </trkpt>
      <trkpt lat="44.41266" lon="4.38691">
        <ele>112.1309814</ele>
        <time>2011-05-28T14:11:13Z</time>
      </trkpt>
      <trkpt lat="44.41269" lon="4.38677">
        <ele>111.6502686</ele>
        <time>2011-05-28T14:11:15Z</time>
      </trkpt>
      <trkpt lat="44.41272" lon="4.38663">
        <ele>111.6502686</ele>
        <time>2011-05-28T14:11:17Z</time>
      </trkpt>
      <trkpt lat="44.41275" lon="4.38648">
        <ele>111.1695557</ele>
        <time>2011-05-28T14:11:19Z</time>
      </trkpt>
      <trkpt lat="44.41279" lon="4.38632">
        <ele>111.1695557</ele>
        <time>2011-05-28T14:11:21Z</time>
      </trkpt>
      <trkpt lat="44.41283" lon="4.38617">
        <ele>110.208252</ele>
        <time>2011-05-28T14:11:23Z</time>
      </trkpt>
      <trkpt lat="44.41287" lon="4.38601">
        <ele>110.208252</ele>
        <time>2011-05-28T14:11:25Z</time>
      </trkpt>
      <trkpt lat="44.41292" lon="4.38585">
        <ele>109.7276611</ele>
        <time>2011-05-28T14:11:27Z</time>
      </trkpt>
      <trkpt lat="44.41296" lon="4.3857">
        <ele>109.7276611</ele>
        <time>2011-05-28T14:11:29Z</time>
      </trkpt>
      <trkpt lat="44.41301" lon="4.38554">
        <ele>110.208252</ele>
        <time>2011-05-28T14:11:31Z</time>
      </trkpt>
      <trkpt lat="44.41306" lon="4.38538">
        <ele>109.2469482</ele>
        <time>2011-05-28T14:11:33Z</time>
      </trkpt>
      <trkpt lat="44.41311" lon="4.38522">
        <ele>109.7276611</ele>
        <time>2011-05-28T14:11:35Z</time>
      </trkpt>
      <trkpt lat="44.41317" lon="4.38506">
        <ele>110.208252</ele>
        <time>2011-05-28T14:11:37Z</time>
      </trkpt>
      <trkpt lat="44.41323" lon="4.38491">
        <ele>110.208252</ele>
        <time>2011-05-28T14:11:39Z</time>
      </trkpt>
      <trkpt lat="44.41328" lon="4.38475">
        <ele>110.6888428</ele>
        <time>2011-05-28T14:11:41Z</time>
      </trkpt>
      <trkpt lat="44.41332" lon="4.3846">
        <ele>110.208252</ele>
        <time>2011-05-28T14:11:43Z</time>
      </trkpt>
      <trkpt lat="44.41335" lon="4.38444">
        <ele>110.6888428</ele>
        <time>2011-05-28T14:11:45Z</time>
      </trkpt>
      <trkpt lat="44.41335" lon="4.38428">
        <ele>110.208252</ele>
        <time>2011-05-28T14:11:47Z</time>
      </trkpt>
      <trkpt lat="44.41335" lon="4.3841">
        <ele>110.208252</ele>
        <time>2011-05-28T14:11:49Z</time>
      </trkpt>
      <trkpt lat="44.41335" lon="4.38392">
        <ele>109.7276611</ele>
        <time>2011-05-28T14:11:51Z</time>
      </trkpt>
      <trkpt lat="44.41336" lon="4.38374">
        <ele>109.2469482</ele>
        <time>2011-05-28T14:11:53Z</time>
      </trkpt>
      <trkpt lat="44.41339" lon="4.38356">
        <ele>108.2856445</ele>
        <time>2011-05-28T14:11:55Z</time>
      </trkpt>
      <trkpt lat="44.41344" lon="4.38338">
        <ele>108.7662354</ele>
        <time>2011-05-28T14:11:57Z</time>
      </trkpt>
      <trkpt lat="44.41351" lon="4.38321">
        <ele>108.2856445</ele>
        <time>2011-05-28T14:11:59Z</time>
      </trkpt>
      <trkpt lat="44.41358" lon="4.38304">
        <ele>108.2856445</ele>
        <time>2011-05-28T14:12:01Z</time>
      </trkpt>
      <trkpt lat="44.41365" lon="4.38287">
        <ele>108.7662354</ele>
        <time>2011-05-28T14:12:03Z</time>
      </trkpt>
      <trkpt lat="44.41372" lon="4.3827">
        <ele>109.2469482</ele>
        <time>2011-05-28T14:12:05Z</time>
      </trkpt>
      <trkpt lat="44.41378" lon="4.38252">
        <ele>109.2469482</ele>
        <time>2011-05-28T14:12:07Z</time>
      </trkpt>
      <trkpt lat="44.41383" lon="4.38234">
        <ele>109.2469482</ele>
        <time>2011-05-28T14:12:09Z</time>
      </trkpt>
      <trkpt lat="44.41389" lon="4.38217">
        <ele>108.7662354</ele>
        <time>2011-05-28T14:12:11Z</time>
      </trkpt>
      <trkpt lat="44.41394" lon="4.38201">
        <ele>109.2469482</ele>
        <time>2011-05-28T14:12:13Z</time>
      </trkpt>
      <trkpt lat="44.41398" lon="4.38184">
        <ele>108.7662354</ele>
        <time>2011-05-28T14:12:15Z</time>
      </trkpt>
      <trkpt lat="44.41402" lon="4.38168">
        <ele>109.2469482</ele>
        <time>2011-05-28T14:12:17Z</time>
      </trkpt>
      <trkpt lat="44.41405" lon="4.38153">
        <ele>108.7662354</ele>
        <time>2011-05-28T14:12:19Z</time>
      </trkpt>
      <trkpt lat="44.41409" lon="4.38137">
        <ele>109.2469482</ele>
        <time>2011-05-28T14:12:21Z</time>
      </trkpt>
      <trkpt lat="44.41413" lon="4.38122">
        <ele>109.2469482</ele>
        <time>2011-05-28T14:12:23Z</time>
      </trkpt>
      <trkpt lat="44.41418" lon="4.38107">
        <ele>109.7276611</ele>
        <time>2011-05-28T14:12:25Z</time>
      </trkpt>
      <trkpt lat="44.41422" lon="4.38093">
        <ele>109.7276611</ele>
        <time>2011-05-28T14:12:27Z</time>
      </trkpt>
      <trkpt lat="44.41427" lon="4.38079">
        <ele>110.208252</ele>
        <time>2011-05-28T14:12:29Z</time>
      </trkpt>
      <trkpt lat="44.41431" lon="4.38066">
        <ele>110.208252</ele>
        <time>2011-05-28T14:12:31Z</time>
      </trkpt>
      <trkpt lat="44.41436" lon="4.38053">
        <ele>109.7276611</ele>
        <time>2011-05-28T14:12:33Z</time>
      </trkpt>
      <trkpt lat="44.41441" lon="4.38041">
        <ele>110.208252</ele>
        <time>2011-05-28T14:12:35Z</time>
      </trkpt>
      <trkpt lat="44.41447" lon="4.38028">
        <ele>110.208252</ele>
        <time>2011-05-28T14:12:37Z</time>
      </trkpt>
      <trkpt lat="44.41452" lon="4.38014">
        <ele>110.208252</ele>
        <time>2011-05-28T14:12:39Z</time>
      </trkpt>
      <trkpt lat="44.41458" lon="4.38">
        <ele>110.6888428</ele>
        <time>2011-05-28T14:12:41Z</time>
      </trkpt>
      <trkpt lat="44.41463" lon="4.37986">
        <ele>110.6888428</ele>
        <time>2011-05-28T14:12:43Z</time>
      </trkpt>
      <trkpt lat="44.41468" lon="4.37971">
        <ele>111.1695557</ele>
        <time>2011-05-28T14:12:45Z</time>
      </trkpt>
      <trkpt lat="44.41474" lon="4.37956">
        <ele>111.1695557</ele>
        <time>2011-05-28T14:12:47Z</time>
      </trkpt>
      <trkpt lat="44.41478" lon="4.37939">
        <ele>111.1695557</ele>
        <time>2011-05-28T14:12:49Z</time>
      </trkpt>
      <trkpt lat="44.41483" lon="4.37923">
        <ele>111.1695557</ele>
        <time>2011-05-28T14:12:51Z</time>
      </trkpt>
      <trkpt lat="44.41487" lon="4.37907">
        <ele>111.6502686</ele>
        <time>2011-05-28T14:12:53Z</time>
      </trkpt>
      <trkpt lat="44.41492" lon="4.37893">
        <ele>112.6115723</ele>
        <time>2011-05-28T14:12:55Z</time>
      </trkpt>
      <trkpt lat="44.41496" lon="4.37879">
        <ele>112.1309814</ele>
        <time>2011-05-28T14:12:57Z</time>
      </trkpt>
      <trkpt lat="44.415" lon="4.37866">
        <ele>112.1309814</ele>
        <time>2011-05-28T14:12:59Z</time>
      </trkpt>
      <trkpt lat="44.41503" lon="4.37852">
        <ele>112.1309814</ele>
        <time>2011-05-28T14:13:01Z</time>
      </trkpt>
      <trkpt lat="44.41507" lon="4.37839">
        <ele>112.6115723</ele>
        <time>2011-05-28T14:13:03Z</time>
      </trkpt>
      <trkpt lat="44.4151" lon="4.37825">
        <ele>112.6115723</ele>
        <time>2011-05-28T14:13:05Z</time>
      </trkpt>
      <trkpt lat="44.41513" lon="4.37812">
        <ele>113.0922852</ele>
        <time>2011-05-28T14:13:07Z</time>
      </trkpt>
      <trkpt lat="44.41515" lon="4.37799">
        <ele>113.0922852</ele>
        <time>2011-05-28T14:13:09Z</time>
      </trkpt>
      <trkpt lat="44.41517" lon="4.37786">
        <ele>113.0922852</ele>
        <time>2011-05-28T14:13:11Z</time>
      </trkpt>
      <trkpt lat="44.41519" lon="4.37771">
        <ele>113.0922852</ele>
        <time>2011-05-28T14:13:13Z</time>
      </trkpt>
      <trkpt lat="44.41522" lon="4.37756">
        <ele>113.0922852</ele>
        <time>2011-05-28T14:13:15Z</time>
      </trkpt>
      <trkpt lat="44.41526" lon="4.3774">
        <ele>113.572998</ele>
        <time>2011-05-28T14:13:17Z</time>
      </trkpt>
      <trkpt lat="44.41531" lon="4.37725">
        <ele>113.572998</ele>
        <time>2011-05-28T14:13:19Z</time>
      </trkpt>
      <trkpt lat="44.41535" lon="4.37709">
        <ele>113.572998</ele>
        <time>2011-05-28T14:13:21Z</time>
      </trkpt>
      <trkpt lat="44.4154" lon="4.37694">
        <ele>113.572998</ele>
        <time>2011-05-28T14:13:23Z</time>
      </trkpt>
      <trkpt lat="44.41545" lon="4.37679">
        <ele>113.572998</ele>
        <time>2011-05-28T14:13:25Z</time>
      </trkpt>
      <trkpt lat="44.4155" lon="4.37665">
        <ele>113.572998</ele>
        <time>2011-05-28T14:13:27Z</time>
      </trkpt>
      <trkpt lat="44.41555" lon="4.37651">
        <ele>114.0535889</ele>
        <time>2011-05-28T14:13:29Z</time>
      </trkpt>
      <trkpt lat="44.41559" lon="4.37636">
        <ele>114.0535889</ele>
        <time>2011-05-28T14:13:31Z</time>
      </trkpt>
      <trkpt lat="44.41564" lon="4.37622">
        <ele>114.0535889</ele>
        <time>2011-05-28T14:13:33Z</time>
      </trkpt>
      <trkpt lat="44.41569" lon="4.37607">
        <ele>114.5341797</ele>
        <time>2011-05-28T14:13:35Z</time>
      </trkpt>
      <trkpt lat="44.41575" lon="4.37592">
        <ele>114.5341797</ele>
        <time>2011-05-28T14:13:37Z</time>
      </trkpt>
      <trkpt lat="44.41581" lon="4.37577">
        <ele>114.5341797</ele>
        <time>2011-05-28T14:13:39Z</time>
      </trkpt>
      <trkpt lat="44.41588" lon="4.37564">
        <ele>115.0148926</ele>
        <time>2011-05-28T14:13:41Z</time>
      </trkpt>
      <trkpt lat="44.41595" lon="4.37551">
        <ele>115.0148926</ele>
        <time>2011-05-28T14:13:43Z</time>
      </trkpt>
      <trkpt lat="44.41603" lon="4.37539">
        <ele>115.4956055</ele>
        <time>2011-05-28T14:13:45Z</time>
      </trkpt>
      <trkpt lat="44.41611" lon="4.37527">
        <ele>115.4956055</ele>
        <time>2011-05-28T14:13:47Z</time>
      </trkpt>
      <trkpt lat="44.41618" lon="4.37515">
        <ele>115.0148926</ele>
        <time>2011-05-28T14:13:49Z</time>
      </trkpt>
      <trkpt lat="44.41625" lon="4.37504">
        <ele>114.5341797</ele>
        <time>2011-05-28T14:13:51Z</time>
      </trkpt>
      <trkpt lat="44.41632" lon="4.37494">
        <ele>114.0535889</ele>
        <time>2011-05-28T14:13:53Z</time>
      </trkpt>
      <trkpt lat="44.4164" lon="4.37483">
        <ele>115.0148926</ele>
        <time>2011-05-28T14:13:55Z</time>
      </trkpt>
      <trkpt lat="44.41647" lon="4.37472">
        <ele>115.4956055</ele>
        <time>2011-05-28T14:13:57Z</time>
      </trkpt>
      <trkpt lat="44.41655" lon="4.37461">
        <ele>115.4956055</ele>
        <time>2011-05-28T14:13:59Z</time>
      </trkpt>
      <trkpt lat="44.41663" lon="4.37451">
        <ele>115.4956055</ele>
        <time>2011-05-28T14:14:01Z</time>
      </trkpt>
      <trkpt lat="44.4167" lon="4.3744">
        <ele>115.9761963</ele>
        <time>2011-05-28T14:14:03Z</time>
      </trkpt>
      <trkpt lat="44.41678" lon="4.37431">
        <ele>115.9761963</ele>
        <time>2011-05-28T14:14:05Z</time>
      </trkpt>
      <trkpt lat="44.41686" lon="4.37422">
        <ele>115.4956055</ele>
        <time>2011-05-28T14:14:07Z</time>
      </trkpt>
      <trkpt lat="44.41694" lon="4.37413">
        <ele>116.4567871</ele>
        <time>2011-05-28T14:14:09Z</time>
      </trkpt>
      <trkpt lat="44.41701" lon="4.37405">
        <ele>115.9761963</ele>
        <time>2011-05-28T14:14:11Z</time>
      </trkpt>
      <trkpt lat="44.41708" lon="4.37396">
        <ele>116.4567871</ele>
        <time>2011-05-28T14:14:13Z</time>
      </trkpt>
      <trkpt lat="44.41715" lon="4.37387">
        <ele>116.9375</ele>
        <time>2011-05-28T14:14:15Z</time>
      </trkpt>
      <trkpt lat="44.41722" lon="4.37378">
        <ele>116.4567871</ele>
        <time>2011-05-28T14:14:17Z</time>
      </trkpt>
      <trkpt lat="44.41729" lon="4.37369">
        <ele>116.9375</ele>
        <time>2011-05-28T14:14:19Z</time>
      </trkpt>
      <trkpt lat="44.41735" lon="4.3736">
        <ele>117.4182129</ele>
        <time>2011-05-28T14:14:21Z</time>
      </trkpt>
      <trkpt lat="44.41742" lon="4.37351">
        <ele>118.3793945</ele>
        <time>2011-05-28T14:14:23Z</time>
      </trkpt>
      <trkpt lat="44.41749" lon="4.37341">
        <ele>120.7828369</ele>
        <time>2011-05-28T14:14:25Z</time>
      </trkpt>
      <trkpt lat="44.41756" lon="4.37332">
        <ele>120.302124</ele>
        <time>2011-05-28T14:14:27Z</time>
      </trkpt>
      <trkpt lat="44.41762" lon="4.37321">
        <ele>119.8214111</ele>
        <time>2011-05-28T14:14:29Z</time>
      </trkpt>
      <trkpt lat="44.41769" lon="4.37311">
        <ele>119.8214111</ele>
        <time>2011-05-28T14:14:31Z</time>
      </trkpt>
      <trkpt lat="44.41778" lon="4.37296">
        <ele>120.302124</ele>
        <time>2011-05-28T14:14:34Z</time>
      </trkpt>
      <trkpt lat="44.41786" lon="4.37282">
        <ele>120.7828369</ele>
        <time>2011-05-28T14:14:37Z</time>
      </trkpt>
      <trkpt lat="44.41794" lon="4.37267">
        <ele>120.7828369</ele>
        <time>2011-05-28T14:14:40Z</time>
      </trkpt>
      <trkpt lat="44.41802" lon="4.37252">
        <ele>121.7441406</ele>
        <time>2011-05-28T14:14:43Z</time>
      </trkpt>
      <trkpt lat="44.41808" lon="4.37241">
        <ele>121.7441406</ele>
        <time>2011-05-28T14:14:45Z</time>
      </trkpt>
      <trkpt lat="44.41814" lon="4.3723">
        <ele>122.2247314</ele>
        <time>2011-05-28T14:14:47Z</time>
      </trkpt>
      <trkpt lat="44.4182" lon="4.3722">
        <ele>122.2247314</ele>
        <time>2011-05-28T14:14:49Z</time>
      </trkpt>
      <trkpt lat="44.41825" lon="4.3721">
        <ele>122.7054443</ele>
        <time>2011-05-28T14:14:51Z</time>
      </trkpt>
      <trkpt lat="44.41834" lon="4.37196">
        <ele>123.1861572</ele>
        <time>2011-05-28T14:14:54Z</time>
      </trkpt>
      <trkpt lat="44.4184" lon="4.37186">
        <ele>123.666748</ele>
        <time>2011-05-28T14:14:56Z</time>
      </trkpt>
      <trkpt lat="44.41848" lon="4.37171">
        <ele>124.1473389</ele>
        <time>2011-05-28T14:14:59Z</time>
      </trkpt>
      <trkpt lat="44.41853" lon="4.37161">
        <ele>124.6280518</ele>
        <time>2011-05-28T14:15:01Z</time>
      </trkpt>
      <trkpt lat="44.41859" lon="4.3715">
        <ele>124.6280518</ele>
        <time>2011-05-28T14:15:03Z</time>
      </trkpt>
      <trkpt lat="44.41864" lon="4.37138">
        <ele>124.6280518</ele>
        <time>2011-05-28T14:15:05Z</time>
      </trkpt>
      <trkpt lat="44.4187" lon="4.37125">
        <ele>125.1087646</ele>
        <time>2011-05-28T14:15:07Z</time>
      </trkpt>
      <trkpt lat="44.41876" lon="4.37113">
        <ele>124.6280518</ele>
        <time>2011-05-28T14:15:09Z</time>
      </trkpt>
      <trkpt lat="44.41882" lon="4.371">
        <ele>125.1087646</ele>
        <time>2011-05-28T14:15:11Z</time>
      </trkpt>
      <trkpt lat="44.41889" lon="4.37088">
        <ele>124.6280518</ele>
        <time>2011-05-28T14:15:13Z</time>
      </trkpt>
      <trkpt lat="44.41895" lon="4.37077">
        <ele>125.5893555</ele>
        <time>2011-05-28T14:15:15Z</time>
      </trkpt>
      <trkpt lat="44.41901" lon="4.37065">
        <ele>125.5893555</ele>
        <time>2011-05-28T14:15:17Z</time>
      </trkpt>
      <trkpt lat="44.41908" lon="4.37054">
        <ele>126.0699463</ele>
        <time>2011-05-28T14:15:19Z</time>
      </trkpt>
      <trkpt lat="44.41914" lon="4.37043">
        <ele>125.5893555</ele>
        <time>2011-05-28T14:15:21Z</time>
      </trkpt>
      <trkpt lat="44.4192" lon="4.37032">
        <ele>126.0699463</ele>
        <time>2011-05-28T14:15:23Z</time>
      </trkpt>
      <trkpt lat="44.41927" lon="4.37022">
        <ele>125.5893555</ele>
        <time>2011-05-28T14:15:25Z</time>
      </trkpt>
      <trkpt lat="44.41934" lon="4.37012">
        <ele>126.0699463</ele>
        <time>2011-05-28T14:15:27Z</time>
      </trkpt>
      <trkpt lat="44.4194" lon="4.37002">
        <ele>126.5506592</ele>
        <time>2011-05-28T14:15:29Z</time>
      </trkpt>
      <trkpt lat="44.41948" lon="4.3699">
        <ele>127.5119629</ele>
        <time>2011-05-28T14:15:32Z</time>
      </trkpt>
      <trkpt lat="44.41955" lon="4.36981">
        <ele>127.5119629</ele>
        <time>2011-05-28T14:15:35Z</time>
      </trkpt>
      <trkpt lat="44.41962" lon="4.36973">
        <ele>127.9925537</ele>
        <time>2011-05-28T14:15:38Z</time>
      </trkpt>
      <trkpt lat="44.4197" lon="4.36964">
        <ele>127.9925537</ele>
        <time>2011-05-28T14:15:41Z</time>
      </trkpt>
      <trkpt lat="44.4198" lon="4.36955">
        <ele>127.9925537</ele>
        <time>2011-05-28T14:15:44Z</time>
      </trkpt>
      <trkpt lat="44.41992" lon="4.36947">
        <ele>128.9541016</ele>
        <time>2011-05-28T14:15:47Z</time>
      </trkpt>
      <trkpt lat="44.42" lon="4.36942">
        <ele>128.9541016</ele>
        <time>2011-05-28T14:15:49Z</time>
      </trkpt>
      <trkpt lat="44.4201" lon="4.36939">
        <ele>128.9541016</ele>
        <time>2011-05-28T14:15:51Z</time>
      </trkpt>
      <trkpt lat="44.42021" lon="4.36936">
        <ele>128.9541016</ele>
        <time>2011-05-28T14:15:53Z</time>
      </trkpt>
      <trkpt lat="44.42032" lon="4.36932">
        <ele>129.4346924</ele>
        <time>2011-05-28T14:15:55Z</time>
      </trkpt>
      <trkpt lat="44.42043" lon="4.36928">
        <ele>130.3959961</ele>
        <time>2011-05-28T14:15:57Z</time>
      </trkpt>
      <trkpt lat="44.42054" lon="4.36925">
        <ele>130.876709</ele>
        <time>2011-05-28T14:15:59Z</time>
      </trkpt>
      <trkpt lat="44.42065" lon="4.36922">
        <ele>130.876709</ele>
        <time>2011-05-28T14:16:01Z</time>
      </trkpt>
      <trkpt lat="44.42075" lon="4.36918">
        <ele>131.3572998</ele>
        <time>2011-05-28T14:16:03Z</time>
      </trkpt>
      <trkpt lat="44.42085" lon="4.36915">
        <ele>132.3186035</ele>
        <time>2011-05-28T14:16:05Z</time>
      </trkpt>
      <trkpt lat="44.42095" lon="4.36912">
        <ele>132.7993164</ele>
        <time>2011-05-28T14:16:07Z</time>
      </trkpt>
      <trkpt lat="44.42105" lon="4.3691">
        <ele>133.2799072</ele>
        <time>2011-05-28T14:16:09Z</time>
      </trkpt>
      <trkpt lat="44.42114" lon="4.36908">
        <ele>133.760498</ele>
        <time>2011-05-28T14:16:11Z</time>
      </trkpt>
      <trkpt lat="44.42123" lon="4.36907">
        <ele>134.2412109</ele>
        <time>2011-05-28T14:16:13Z</time>
      </trkpt>
      <trkpt lat="44.42132" lon="4.36906">
        <ele>135.2025146</ele>
        <time>2011-05-28T14:16:15Z</time>
      </trkpt>
      <trkpt lat="44.42142" lon="4.36904">
        <ele>135.2025146</ele>
        <time>2011-05-28T14:16:17Z</time>
      </trkpt>
      <trkpt lat="44.42151" lon="4.36902">
        <ele>135.6831055</ele>
        <time>2011-05-28T14:16:19Z</time>
      </trkpt>
      <trkpt lat="44.4216" lon="4.36901">
        <ele>135.6831055</ele>
        <time>2011-05-28T14:16:21Z</time>
      </trkpt>
      <trkpt lat="44.42169" lon="4.36899">
        <ele>135.2025146</ele>
        <time>2011-05-28T14:16:23Z</time>
      </trkpt>
      <trkpt lat="44.42179" lon="4.36897">
        <ele>136.1639404</ele>
        <time>2011-05-28T14:16:25Z</time>
      </trkpt>
      <trkpt lat="44.42192" lon="4.36895">
        <ele>136.6446533</ele>
        <time>2011-05-28T14:16:28Z</time>
      </trkpt>
      <trkpt lat="44.42205" lon="4.36893">
        <ele>137.1252441</ele>
        <time>2011-05-28T14:16:31Z</time>
      </trkpt>
      <trkpt lat="44.42217" lon="4.36891">
        <ele>137.605835</ele>
        <time>2011-05-28T14:16:34Z</time>
      </trkpt>
      <trkpt lat="44.4223" lon="4.36888">
        <ele>138.0865479</ele>
        <time>2011-05-28T14:16:37Z</time>
      </trkpt>
      <trkpt lat="44.42241" lon="4.36886">
        <ele>138.5672607</ele>
        <time>2011-05-28T14:16:40Z</time>
      </trkpt>
      <trkpt lat="44.42254" lon="4.36884">
        <ele>139.5284424</ele>
        <time>2011-05-28T14:16:43Z</time>
      </trkpt>
      <trkpt lat="44.42266" lon="4.36881">
        <ele>140.0091553</ele>
        <time>2011-05-28T14:16:46Z</time>
      </trkpt>
      <trkpt lat="44.42278" lon="4.36879">
        <ele>140.4898682</ele>
        <time>2011-05-28T14:16:49Z</time>
      </trkpt>
      <trkpt lat="44.42291" lon="4.36877">
        <ele>141.4510498</ele>
        <time>2011-05-28T14:16:52Z</time>
      </trkpt>
      <trkpt lat="44.42304" lon="4.36876">
        <ele>141.4510498</ele>
        <time>2011-05-28T14:16:55Z</time>
      </trkpt>
      <trkpt lat="44.42317" lon="4.36873">
        <ele>141.4510498</ele>
        <time>2011-05-28T14:16:58Z</time>
      </trkpt>
      <trkpt lat="44.42326" lon="4.36872">
        <ele>142.4124756</ele>
        <time>2011-05-28T14:17:00Z</time>
      </trkpt>
      <trkpt lat="44.42339" lon="4.3687">
        <ele>142.4124756</ele>
        <time>2011-05-28T14:17:03Z</time>
      </trkpt>
      <trkpt lat="44.42352" lon="4.36867">
        <ele>143.3736572</ele>
        <time>2011-05-28T14:17:06Z</time>
      </trkpt>
      <trkpt lat="44.42364" lon="4.36863">
        <ele>144.3352051</ele>
        <time>2011-05-28T14:17:09Z</time>
      </trkpt>
      <trkpt lat="44.42377" lon="4.36859">
        <ele>144.8157959</ele>
        <time>2011-05-28T14:17:12Z</time>
      </trkpt>
      <trkpt lat="44.4239" lon="4.36855">
        <ele>146.7384033</ele>
        <time>2011-05-28T14:17:15Z</time>
      </trkpt>
      <trkpt lat="44.42402" lon="4.36851">
        <ele>146.7384033</ele>
        <time>2011-05-28T14:17:18Z</time>
      </trkpt>
      <trkpt lat="44.42413" lon="4.36848">
        <ele>147.2189941</ele>
        <time>2011-05-28T14:17:21Z</time>
      </trkpt>
      <trkpt lat="44.42424" lon="4.36844">
        <ele>147.699707</ele>
        <time>2011-05-28T14:17:24Z</time>
      </trkpt>
      <trkpt lat="44.42436" lon="4.3684">
        <ele>147.699707</ele>
        <time>2011-05-28T14:17:27Z</time>
      </trkpt>
      <trkpt lat="44.42449" lon="4.36834">
        <ele>149.1416016</ele>
        <time>2011-05-28T14:17:30Z</time>
      </trkpt>
      <trkpt lat="44.42461" lon="4.36829">
        <ele>150.1030273</ele>
        <time>2011-05-28T14:17:33Z</time>
      </trkpt>
      <trkpt lat="44.42474" lon="4.36826">
        <ele>151.064209</ele>
        <time>2011-05-28T14:17:36Z</time>
      </trkpt>
      <trkpt lat="44.42487" lon="4.36824">
        <ele>151.064209</ele>
        <time>2011-05-28T14:17:39Z</time>
      </trkpt>
      <trkpt lat="44.42497" lon="4.36824">
        <ele>151.064209</ele>
        <time>2011-05-28T14:17:41Z</time>
      </trkpt>
      <trkpt lat="44.42506" lon="4.36823">
        <ele>151.064209</ele>
        <time>2011-05-28T14:17:43Z</time>
      </trkpt>
      <trkpt lat="44.42519" lon="4.36822">
        <ele>151.5449219</ele>
        <time>2011-05-28T14:17:46Z</time>
      </trkpt>
      <trkpt lat="44.42531" lon="4.36821">
        <ele>152.0257568</ele>
        <time>2011-05-28T14:17:49Z</time>
      </trkpt>
      <trkpt lat="44.42543" lon="4.3682">
        <ele>152.0257568</ele>
        <time>2011-05-28T14:17:52Z</time>
      </trkpt>
      <trkpt lat="44.42553" lon="4.36819">
        <ele>152.0257568</ele>
        <time>2011-05-28T14:17:54Z</time>
      </trkpt>
      <trkpt lat="44.42562" lon="4.36818">
        <ele>152.0257568</ele>
        <time>2011-05-28T14:17:56Z</time>
      </trkpt>
      <trkpt lat="44.42571" lon="4.36817">
        <ele>152.5063477</ele>
        <time>2011-05-28T14:17:58Z</time>
      </trkpt>
      <trkpt lat="44.42584" lon="4.36815">
        <ele>152.0257568</ele>
        <time>2011-05-28T14:18:01Z</time>
      </trkpt>
      <trkpt lat="44.42597" lon="4.36814">
        <ele>152.0257568</ele>
        <time>2011-05-28T14:18:04Z</time>
      </trkpt>
      <trkpt lat="44.42607" lon="4.36813">
        <ele>152.0257568</ele>
        <time>2011-05-28T14:18:06Z</time>
      </trkpt>
      <trkpt lat="44.42616" lon="4.36813">
        <ele>152.5063477</ele>
        <time>2011-05-28T14:18:08Z</time>
      </trkpt>
      <trkpt lat="44.42625" lon="4.36813">
        <ele>152.0257568</ele>
        <time>2011-05-28T14:18:10Z</time>
      </trkpt>
      <trkpt lat="44.42635" lon="4.36813">
        <ele>151.5449219</ele>
        <time>2011-05-28T14:18:12Z</time>
      </trkpt>
      <trkpt lat="44.42646" lon="4.36812">
        <ele>151.064209</ele>
        <time>2011-05-28T14:18:14Z</time>
      </trkpt>
      <trkpt lat="44.42658" lon="4.36812">
        <ele>151.064209</ele>
        <time>2011-05-28T14:18:16Z</time>
      </trkpt>
      <trkpt lat="44.42669" lon="4.36814">
        <ele>151.064209</ele>
        <time>2011-05-28T14:18:18Z</time>
      </trkpt>
      <trkpt lat="44.42681" lon="4.36816">
        <ele>151.064209</ele>
        <time>2011-05-28T14:18:20Z</time>
      </trkpt>
      <trkpt lat="44.42693" lon="4.36819">
        <ele>150.5836182</ele>
        <time>2011-05-28T14:18:22Z</time>
      </trkpt>
      <trkpt lat="44.42706" lon="4.3682">
        <ele>150.1030273</ele>
        <time>2011-05-28T14:18:24Z</time>
      </trkpt>
      <trkpt lat="44.42719" lon="4.36823">
        <ele>149.6223145</ele>
        <time>2011-05-28T14:18:26Z</time>
      </trkpt>
      <trkpt lat="44.42732" lon="4.36825">
        <ele>149.1416016</ele>
        <time>2011-05-28T14:18:28Z</time>
      </trkpt>
      <trkpt lat="44.42746" lon="4.36829">
        <ele>147.699707</ele>
        <time>2011-05-28T14:18:30Z</time>
      </trkpt>
      <trkpt lat="44.42761" lon="4.36834">
        <ele>146.7384033</ele>
        <time>2011-05-28T14:18:32Z</time>
      </trkpt>
      <trkpt lat="44.42777" lon="4.36838">
        <ele>146.2578125</ele>
        <time>2011-05-28T14:18:34Z</time>
      </trkpt>
      <trkpt lat="44.42792" lon="4.36838">
        <ele>145.2963867</ele>
        <time>2011-05-28T14:18:36Z</time>
      </trkpt>
      <trkpt lat="44.42807" lon="4.36835">
        <ele>145.2963867</ele>
        <time>2011-05-28T14:18:38Z</time>
      </trkpt>
      <trkpt lat="44.42821" lon="4.36836">
        <ele>144.8157959</ele>
        <time>2011-05-28T14:18:40Z</time>
      </trkpt>
      <trkpt lat="44.42833" lon="4.3684">
        <ele>145.2963867</ele>
        <time>2011-05-28T14:18:42Z</time>
      </trkpt>
      <trkpt lat="44.42845" lon="4.36844">
        <ele>146.2578125</ele>
        <time>2011-05-28T14:18:44Z</time>
      </trkpt>
      <trkpt lat="44.42856" lon="4.36847">
        <ele>146.7384033</ele>
        <time>2011-05-28T14:18:46Z</time>
      </trkpt>
      <trkpt lat="44.42866" lon="4.3685">
        <ele>146.2578125</ele>
        <time>2011-05-28T14:18:48Z</time>
      </trkpt>
      <trkpt lat="44.42877" lon="4.36853">
        <ele>146.2578125</ele>
        <time>2011-05-28T14:18:50Z</time>
      </trkpt>
      <trkpt lat="44.4289" lon="4.36854">
        <ele>145.7770996</ele>
        <time>2011-05-28T14:18:52Z</time>
      </trkpt>
      <trkpt lat="44.42902" lon="4.36855">
        <ele>146.7384033</ele>
        <time>2011-05-28T14:18:54Z</time>
      </trkpt>
      <trkpt lat="44.42913" lon="4.36854">
        <ele>146.7384033</ele>
        <time>2011-05-28T14:18:56Z</time>
      </trkpt>
      <trkpt lat="44.42925" lon="4.36853">
        <ele>146.2578125</ele>
        <time>2011-05-28T14:18:58Z</time>
      </trkpt>
      <trkpt lat="44.42936" lon="4.36851">
        <ele>145.7770996</ele>
        <time>2011-05-28T14:19:00Z</time>
      </trkpt>
      <trkpt lat="44.42948" lon="4.36848">
        <ele>145.7770996</ele>
        <time>2011-05-28T14:19:02Z</time>
      </trkpt>
      <trkpt lat="44.42959" lon="4.36841">
        <ele>144.8157959</ele>
        <time>2011-05-28T14:19:04Z</time>
      </trkpt>
      <trkpt lat="44.42971" lon="4.36832">
        <ele>144.3352051</ele>
        <time>2011-05-28T14:19:06Z</time>
      </trkpt>
      <trkpt lat="44.42983" lon="4.36821">
        <ele>142.4124756</ele>
        <time>2011-05-28T14:19:08Z</time>
      </trkpt>
      <trkpt lat="44.42996" lon="4.3681">
        <ele>141.9317627</ele>
        <time>2011-05-28T14:19:10Z</time>
      </trkpt>
      <trkpt lat="44.43009" lon="4.36799">
        <ele>139.5284424</ele>
        <time>2011-05-28T14:19:12Z</time>
      </trkpt>
      <trkpt lat="44.43023" lon="4.36787">
        <ele>138.5672607</ele>
        <time>2011-05-28T14:19:14Z</time>
      </trkpt>
      <trkpt lat="44.43038" lon="4.36775">
        <ele>137.1252441</ele>
        <time>2011-05-28T14:19:16Z</time>
      </trkpt>
      <trkpt lat="44.43053" lon="4.36762">
        <ele>136.1639404</ele>
        <time>2011-05-28T14:19:18Z</time>
      </trkpt>
      <trkpt lat="44.43068" lon="4.36748">
        <ele>135.6831055</ele>
        <time>2011-05-28T14:19:20Z</time>
      </trkpt>
      <trkpt lat="44.43083" lon="4.36735">
        <ele>134.2412109</ele>
        <time>2011-05-28T14:19:22Z</time>
      </trkpt>
      <trkpt lat="44.43098" lon="4.36723">
        <ele>132.7993164</ele>
        <time>2011-05-28T14:19:24Z</time>
      </trkpt>
      <trkpt lat="44.43114" lon="4.36712">
        <ele>130.876709</ele>
        <time>2011-05-28T14:19:26Z</time>
      </trkpt>
      <trkpt lat="44.43131" lon="4.36706">
        <ele>128.4733887</ele>
        <time>2011-05-28T14:19:28Z</time>
      </trkpt>
      <trkpt lat="44.43141" lon="4.36704">
        <ele>127.5119629</ele>
        <time>2011-05-28T14:19:29Z</time>
      </trkpt>
      <trkpt lat="44.43151" lon="4.36703">
        <ele>126.5506592</ele>
        <time>2011-05-28T14:19:30Z</time>
      </trkpt>
      <trkpt lat="44.4316" lon="4.36703">
        <ele>123.666748</ele>
        <time>2011-05-28T14:19:31Z</time>
      </trkpt>
      <trkpt lat="44.43175" lon="4.36701">
        <ele>122.2247314</ele>
        <time>2011-05-28T14:19:33Z</time>
      </trkpt>
      <trkpt lat="44.43188" lon="4.367">
        <ele>120.302124</ele>
        <time>2011-05-28T14:19:35Z</time>
      </trkpt>
      <trkpt lat="44.43199" lon="4.36697">
        <ele>118.8601074</ele>
        <time>2011-05-28T14:19:37Z</time>
      </trkpt>
      <trkpt lat="44.43208" lon="4.36689">
        <ele>118.3793945</ele>
        <time>2011-05-28T14:19:39Z</time>
      </trkpt>
      <trkpt lat="44.43211" lon="4.36673">
        <ele>116.4567871</ele>
        <time>2011-05-28T14:19:41Z</time>
      </trkpt>
      <trkpt lat="44.4321" lon="4.36654">
        <ele>115.4956055</ele>
        <time>2011-05-28T14:19:43Z</time>
      </trkpt>
      <trkpt lat="44.43208" lon="4.36634">
        <ele>115.0148926</ele>
        <time>2011-05-28T14:19:45Z</time>
      </trkpt>
      <trkpt lat="44.43206" lon="4.36612">
        <ele>114.0535889</ele>
        <time>2011-05-28T14:19:47Z</time>
      </trkpt>
      <trkpt lat="44.43204" lon="4.3659">
        <ele>113.572998</ele>
        <time>2011-05-28T14:19:49Z</time>
      </trkpt>
      <trkpt lat="44.43202" lon="4.36566">
        <ele>113.0922852</ele>
        <time>2011-05-28T14:19:51Z</time>
      </trkpt>
      <trkpt lat="44.432" lon="4.36543">
        <ele>113.0922852</ele>
        <time>2011-05-28T14:19:53Z</time>
      </trkpt>
      <trkpt lat="44.43203" lon="4.36522">
        <ele>113.572998</ele>
        <time>2011-05-28T14:19:55Z</time>
      </trkpt>
      <trkpt lat="44.43208" lon="4.36501">
        <ele>114.5341797</ele>
        <time>2011-05-28T14:19:57Z</time>
      </trkpt>
      <trkpt lat="44.43213" lon="4.36483">
        <ele>115.0148926</ele>
        <time>2011-05-28T14:19:59Z</time>
      </trkpt>
      <trkpt lat="44.43217" lon="4.36468">
        <ele>115.0148926</ele>
        <time>2011-05-28T14:20:01Z</time>
      </trkpt>
      <trkpt lat="44.43221" lon="4.36454">
        <ele>114.5341797</ele>
        <time>2011-05-28T14:20:03Z</time>
      </trkpt>
      <trkpt lat="44.43225" lon="4.36442">
        <ele>115.4956055</ele>
        <time>2011-05-28T14:20:05Z</time>
      </trkpt>
      <trkpt lat="44.43231" lon="4.36427">
        <ele>115.4956055</ele>
        <time>2011-05-28T14:20:08Z</time>
      </trkpt>
      <trkpt lat="44.43237" lon="4.36412">
        <ele>115.4956055</ele>
        <time>2011-05-28T14:20:11Z</time>
      </trkpt>
      <trkpt lat="44.43242" lon="4.36398">
        <ele>115.9761963</ele>
        <time>2011-05-28T14:20:14Z</time>
      </trkpt>
      <trkpt lat="44.43246" lon="4.36385">
        <ele>116.4567871</ele>
        <time>2011-05-28T14:20:18Z</time>
      </trkpt>
      <trkpt lat="44.43251" lon="4.36374">
        <ele>117.8988037</ele>
        <time>2011-05-28T14:20:25Z</time>
      </trkpt>
      <trkpt lat="44.43256" lon="4.36361">
        <ele>118.8601074</ele>
        <time>2011-05-28T14:20:31Z</time>
      </trkpt>
      <trkpt lat="44.43262" lon="4.3635">
        <ele>119.3408203</ele>
        <time>2011-05-28T14:20:36Z</time>
      </trkpt>
      <trkpt lat="44.43269" lon="4.3634">
        <ele>120.302124</ele>
        <time>2011-05-28T14:20:42Z</time>
      </trkpt>
      <trkpt lat="44.43278" lon="4.36338">
        <ele>120.7828369</ele>
        <time>2011-05-28T14:20:47Z</time>
      </trkpt>
      <trkpt lat="44.43287" lon="4.36345">
        <ele>122.7054443</ele>
        <time>2011-05-28T14:20:54Z</time>
      </trkpt>
      <trkpt lat="44.43296" lon="4.36352">
        <ele>123.666748</ele>
        <time>2011-05-28T14:21:03Z</time>
      </trkpt>
      <trkpt lat="44.43306" lon="4.36354">
        <ele>126.5506592</ele>
        <time>2011-05-28T14:21:11Z</time>
      </trkpt>
      <trkpt lat="44.43315" lon="4.36355">
        <ele>127.5119629</ele>
        <time>2011-05-28T14:21:18Z</time>
      </trkpt>
      <trkpt lat="44.43324" lon="4.36354">
        <ele>128.9541016</ele>
        <time>2011-05-28T14:21:25Z</time>
      </trkpt>
      <trkpt lat="44.43334" lon="4.36354">
        <ele>129.4346924</ele>
        <time>2011-05-28T14:21:33Z</time>
      </trkpt>
      <trkpt lat="44.43343" lon="4.36354">
        <ele>130.876709</ele>
        <time>2011-05-28T14:21:40Z</time>
      </trkpt>
      <trkpt lat="44.43353" lon="4.36353">
        <ele>132.3186035</ele>
        <time>2011-05-28T14:21:47Z</time>
      </trkpt>
      <trkpt lat="44.43363" lon="4.36352">
        <ele>133.760498</ele>
        <time>2011-05-28T14:21:54Z</time>
      </trkpt>
      <trkpt lat="44.43372" lon="4.36353">
        <ele>135.2025146</ele>
        <time>2011-05-28T14:22:01Z</time>
      </trkpt>
      <trkpt lat="44.43381" lon="4.36355">
        <ele>136.6446533</ele>
        <time>2011-05-28T14:22:08Z</time>
      </trkpt>
      <trkpt lat="44.43391" lon="4.36356">
        <ele>137.1252441</ele>
        <time>2011-05-28T14:22:16Z</time>
      </trkpt>
      <trkpt lat="44.43401" lon="4.36358">
        <ele>139.5284424</ele>
        <time>2011-05-28T14:22:24Z</time>
      </trkpt>
      <trkpt lat="44.4341" lon="4.3636">
        <ele>142.4124756</ele>
        <time>2011-05-28T14:22:31Z</time>
      </trkpt>
      <trkpt lat="44.4342" lon="4.36362">
        <ele>143.8543701</ele>
        <time>2011-05-28T14:22:39Z</time>
      </trkpt>
      <trkpt lat="44.43429" lon="4.36366">
        <ele>144.8157959</ele>
        <time>2011-05-28T14:22:46Z</time>
      </trkpt>
      <trkpt lat="44.43439" lon="4.3637">
        <ele>146.2578125</ele>
        <time>2011-05-28T14:22:53Z</time>
      </trkpt>
      <trkpt lat="44.43451" lon="4.36373">
        <ele>146.2578125</ele>
        <time>2011-05-28T14:23:34Z</time>
      </trkpt>
      <trkpt lat="44.4346" lon="4.36372">
        <ele>148.1804199</ele>
        <time>2011-05-28T14:23:42Z</time>
      </trkpt>
      <trkpt lat="44.43469" lon="4.3637">
        <ele>149.1416016</ele>
        <time>2011-05-28T14:23:48Z</time>
      </trkpt>
      <trkpt lat="44.43478" lon="4.36368">
        <ele>149.6223145</ele>
        <time>2011-05-28T14:23:54Z</time>
      </trkpt>
      <trkpt lat="44.43489" lon="4.36365">
        <ele>150.1030273</ele>
        <time>2011-05-28T14:24:00Z</time>
      </trkpt>
      <trkpt lat="44.43499" lon="4.36362">
        <ele>151.064209</ele>
        <time>2011-05-28T14:24:05Z</time>
      </trkpt>
      <trkpt lat="44.43508" lon="4.36359">
        <ele>153.4676514</ele>
        <time>2011-05-28T14:24:10Z</time>
      </trkpt>
      <trkpt lat="44.43518" lon="4.36357">
        <ele>154.4289551</ele>
        <time>2011-05-28T14:24:16Z</time>
      </trkpt>
      <trkpt lat="44.43528" lon="4.36355">
        <ele>155.8709717</ele>
        <time>2011-05-28T14:24:22Z</time>
      </trkpt>
      <trkpt lat="44.43538" lon="4.36354">
        <ele>157.7935791</ele>
        <time>2011-05-28T14:24:28Z</time>
      </trkpt>
      <trkpt lat="44.43548" lon="4.36354">
        <ele>158.2741699</ele>
        <time>2011-05-28T14:24:34Z</time>
      </trkpt>
      <trkpt lat="44.43558" lon="4.36354">
        <ele>159.2354736</ele>
        <time>2011-05-28T14:24:40Z</time>
      </trkpt>
      <trkpt lat="44.43568" lon="4.36354">
        <ele>159.7161865</ele>
        <time>2011-05-28T14:24:46Z</time>
      </trkpt>
      <trkpt lat="44.43577" lon="4.36354">
        <ele>160.1968994</ele>
        <time>2011-05-28T14:24:52Z</time>
      </trkpt>
      <trkpt lat="44.43587" lon="4.36356">
        <ele>162.1195068</ele>
        <time>2011-05-28T14:24:59Z</time>
      </trkpt>
      <trkpt lat="44.43597" lon="4.36358">
        <ele>163.5615234</ele>
        <time>2011-05-28T14:25:06Z</time>
      </trkpt>
      <trkpt lat="44.43607" lon="4.36359">
        <ele>165.003418</ele>
        <time>2011-05-28T14:25:13Z</time>
      </trkpt>
      <trkpt lat="44.43616" lon="4.3636">
        <ele>165.9647217</ele>
        <time>2011-05-28T14:25:20Z</time>
      </trkpt>
      <trkpt lat="44.43626" lon="4.36362">
        <ele>166.9260254</ele>
        <time>2011-05-28T14:25:27Z</time>
      </trkpt>
      <trkpt lat="44.43637" lon="4.36364">
        <ele>167.8873291</ele>
        <time>2011-05-28T14:25:35Z</time>
      </trkpt>
      <trkpt lat="44.43647" lon="4.36365">
        <ele>170.2906494</ele>
        <time>2011-05-28T14:25:43Z</time>
      </trkpt>
      <trkpt lat="44.43657" lon="4.36366">
        <ele>171.2520752</ele>
        <time>2011-05-28T14:25:51Z</time>
      </trkpt>
      <trkpt lat="44.43668" lon="4.36368">
        <ele>172.6939697</ele>
        <time>2011-05-28T14:26:00Z</time>
      </trkpt>
      <trkpt lat="44.43679" lon="4.36372">
        <ele>173.6552734</ele>
        <time>2011-05-28T14:26:08Z</time>
      </trkpt>
      <trkpt lat="44.43688" lon="4.3638">
        <ele>174.6165771</ele>
        <time>2011-05-28T14:26:17Z</time>
      </trkpt>
      <trkpt lat="44.43697" lon="4.36386">
        <ele>176.5393066</ele>
        <time>2011-05-28T14:26:26Z</time>
      </trkpt>
      <trkpt lat="44.43697" lon="4.36374">
        <ele>178.4619141</ele>
        <time>2011-05-28T14:26:34Z</time>
      </trkpt>
      <trkpt lat="44.43691" lon="4.36363">
        <ele>179.4232178</ele>
        <time>2011-05-28T14:26:41Z</time>
      </trkpt>
      <trkpt lat="44.43684" lon="4.36353">
        <ele>179.9038086</ele>
        <time>2011-05-28T14:26:48Z</time>
      </trkpt>
      <trkpt lat="44.43677" lon="4.36343">
        <ele>180.8652344</ele>
        <time>2011-05-28T14:26:55Z</time>
      </trkpt>
      <trkpt lat="44.4367" lon="4.36334">
        <ele>181.3458252</ele>
        <time>2011-05-28T14:27:03Z</time>
      </trkpt>
      <trkpt lat="44.43663" lon="4.36325">
        <ele>182.7878418</ele>
        <time>2011-05-28T14:27:11Z</time>
      </trkpt>
      <trkpt lat="44.43655" lon="4.36315">
        <ele>183.2684326</ele>
        <time>2011-05-28T14:27:19Z</time>
      </trkpt>
      <trkpt lat="44.43647" lon="4.36307">
        <ele>183.7490234</ele>
        <time>2011-05-28T14:27:26Z</time>
      </trkpt>
      <trkpt lat="44.43639" lon="4.36298">
        <ele>184.7105713</ele>
        <time>2011-05-28T14:27:33Z</time>
      </trkpt>
      <trkpt lat="44.43631" lon="4.3629">
        <ele>186.6331787</ele>
        <time>2011-05-28T14:27:41Z</time>
      </trkpt>
      <trkpt lat="44.43624" lon="4.3628">
        <ele>188.0750732</ele>
        <time>2011-05-28T14:27:49Z</time>
      </trkpt>
      <trkpt lat="44.43631" lon="4.36273">
        <ele>189.5169678</ele>
        <time>2011-05-28T14:27:57Z</time>
      </trkpt>
      <trkpt lat="44.43641" lon="4.36272">
        <ele>190.9589844</ele>
        <time>2011-05-28T14:28:05Z</time>
      </trkpt>
      <trkpt lat="44.43651" lon="4.36272">
        <ele>193.3623047</ele>
        <time>2011-05-28T14:28:13Z</time>
      </trkpt>
      <trkpt lat="44.43661" lon="4.36272">
        <ele>193.3623047</ele>
        <time>2011-05-28T14:28:21Z</time>
      </trkpt>
      <trkpt lat="44.43671" lon="4.36273">
        <ele>196.2463379</ele>
        <time>2011-05-28T14:28:29Z</time>
      </trkpt>
      <trkpt lat="44.43682" lon="4.36272">
        <ele>197.6882324</ele>
        <time>2011-05-28T14:28:36Z</time>
      </trkpt>
      <trkpt lat="44.43691" lon="4.36269">
        <ele>198.6495361</ele>
        <time>2011-05-28T14:28:43Z</time>
      </trkpt>
      <trkpt lat="44.437" lon="4.36265">
        <ele>197.6882324</ele>
        <time>2011-05-28T14:28:50Z</time>
      </trkpt>
      <trkpt lat="44.4371" lon="4.36258">
        <ele>198.6495361</ele>
        <time>2011-05-28T14:28:59Z</time>
      </trkpt>
      <trkpt lat="44.43712" lon="4.36268">
        <ele>200.0916748</ele>
        <time>2011-05-28T14:29:10Z</time>
      </trkpt>
      <trkpt lat="44.43715" lon="4.36283">
        <ele>198.6495361</ele>
        <time>2011-05-28T14:29:17Z</time>
      </trkpt>
      <trkpt lat="44.43721" lon="4.36294">
        <ele>198.1689453</ele>
        <time>2011-05-28T14:29:22Z</time>
      </trkpt>
      <trkpt lat="44.43728" lon="4.36305">
        <ele>198.1689453</ele>
        <time>2011-05-28T14:29:27Z</time>
      </trkpt>
      <trkpt lat="44.43735" lon="4.36317">
        <ele>198.6495361</ele>
        <time>2011-05-28T14:29:32Z</time>
      </trkpt>
      <trkpt lat="44.43743" lon="4.36328">
        <ele>199.6108398</ele>
        <time>2011-05-28T14:29:37Z</time>
      </trkpt>
      <trkpt lat="44.43749" lon="4.36343">
        <ele>199.6108398</ele>
        <time>2011-05-28T14:29:42Z</time>
      </trkpt>
      <trkpt lat="44.43754" lon="4.36357">
        <ele>200.0916748</ele>
        <time>2011-05-28T14:29:49Z</time>
      </trkpt>
      <trkpt lat="44.43761" lon="4.36369">
        <ele>201.0528564</ele>
        <time>2011-05-28T14:29:55Z</time>
      </trkpt>
      <trkpt lat="44.43768" lon="4.36379">
        <ele>201.0528564</ele>
        <time>2011-05-28T14:30:00Z</time>
      </trkpt>
      <trkpt lat="44.43774" lon="4.3639">
        <ele>200.5722656</ele>
        <time>2011-05-28T14:30:04Z</time>
      </trkpt>
      <trkpt lat="44.4378" lon="4.36403">
        <ele>199.6108398</ele>
        <time>2011-05-28T14:30:08Z</time>
      </trkpt>
      <trkpt lat="44.43787" lon="4.36415">
        <ele>200.5722656</ele>
        <time>2011-05-28T14:30:12Z</time>
      </trkpt>
      <trkpt lat="44.43794" lon="4.36424">
        <ele>200.5722656</ele>
        <time>2011-05-28T14:30:16Z</time>
      </trkpt>
      <trkpt lat="44.43801" lon="4.36436">
        <ele>200.5722656</ele>
        <time>2011-05-28T14:30:20Z</time>
      </trkpt>
      <trkpt lat="44.43813" lon="4.36441">
        <ele>200.5722656</ele>
        <time>2011-05-28T14:30:24Z</time>
      </trkpt>
      <trkpt lat="44.43825" lon="4.3644">
        <ele>202.0142822</ele>
        <time>2011-05-28T14:30:29Z</time>
      </trkpt>
      <trkpt lat="44.43835" lon="4.36446">
        <ele>202.494873</ele>
        <time>2011-05-28T14:30:33Z</time>
      </trkpt>
      <trkpt lat="44.43843" lon="4.3646">
        <ele>201.0528564</ele>
        <time>2011-05-28T14:30:37Z</time>
      </trkpt>
      <trkpt lat="44.43844" lon="4.36475">
        <ele>202.0142822</ele>
        <time>2011-05-28T14:30:41Z</time>
      </trkpt>
      <trkpt lat="44.43841" lon="4.36487">
        <ele>201.5335693</ele>
        <time>2011-05-28T14:30:44Z</time>
      </trkpt>
      <trkpt lat="44.43837" lon="4.36503">
        <ele>202.0142822</ele>
        <time>2011-05-28T14:30:48Z</time>
      </trkpt>
      <trkpt lat="44.43832" lon="4.36516">
        <ele>200.5722656</ele>
        <time>2011-05-28T14:30:51Z</time>
      </trkpt>
      <trkpt lat="44.4383" lon="4.36531">
        <ele>199.6108398</ele>
        <time>2011-05-28T14:30:54Z</time>
      </trkpt>
      <trkpt lat="44.43834" lon="4.36545">
        <ele>200.0916748</ele>
        <time>2011-05-28T14:30:58Z</time>
      </trkpt>
      <trkpt lat="44.43837" lon="4.36557">
        <ele>200.0916748</ele>
        <time>2011-05-28T14:31:01Z</time>
      </trkpt>
      <trkpt lat="44.43842" lon="4.3657">
        <ele>199.6108398</ele>
        <time>2011-05-28T14:31:04Z</time>
      </trkpt>
      <trkpt lat="44.43847" lon="4.36581">
        <ele>199.6108398</ele>
        <time>2011-05-28T14:31:07Z</time>
      </trkpt>
      <trkpt lat="44.43852" lon="4.36592">
        <ele>200.0916748</ele>
        <time>2011-05-28T14:31:10Z</time>
      </trkpt>
      <trkpt lat="44.43861" lon="4.36602">
        <ele>200.5722656</ele>
        <time>2011-05-28T14:31:14Z</time>
      </trkpt>
      <trkpt lat="44.4387" lon="4.36609">
        <ele>201.5335693</ele>
        <time>2011-05-28T14:31:18Z</time>
      </trkpt>
      <trkpt lat="44.43881" lon="4.36613">
        <ele>203.4561768</ele>
        <time>2011-05-28T14:31:23Z</time>
      </trkpt>
      <trkpt lat="44.43891" lon="4.36617">
        <ele>203.9368896</ele>
        <time>2011-05-28T14:31:29Z</time>
      </trkpt>
      <trkpt lat="44.439" lon="4.3662">
        <ele>205.3787842</ele>
        <time>2011-05-28T14:31:34Z</time>
      </trkpt>
      <trkpt lat="44.43909" lon="4.36625">
        <ele>206.8206787</ele>
        <time>2011-05-28T14:31:39Z</time>
      </trkpt>
      <trkpt lat="44.43917" lon="4.36637">
        <ele>205.8594971</ele>
        <time>2011-05-28T14:31:44Z</time>
      </trkpt>
      <trkpt lat="44.43925" lon="4.36645">
        <ele>206.8206787</ele>
        <time>2011-05-28T14:31:48Z</time>
      </trkpt>
      <trkpt lat="44.43935" lon="4.36652">
        <ele>208.2628174</ele>
        <time>2011-05-28T14:31:54Z</time>
      </trkpt>
      <trkpt lat="44.43945" lon="4.36655">
        <ele>210.1854248</ele>
        <time>2011-05-28T14:32:00Z</time>
      </trkpt>
      <trkpt lat="44.43955" lon="4.36657">
        <ele>211.1467285</ele>
        <time>2011-05-28T14:32:07Z</time>
      </trkpt>
      <trkpt lat="44.43966" lon="4.36661">
        <ele>212.588623</ele>
        <time>2011-05-28T14:32:14Z</time>
      </trkpt>
      <trkpt lat="44.43976" lon="4.36668">
        <ele>214.0306396</ele>
        <time>2011-05-28T14:32:21Z</time>
      </trkpt>
      <trkpt lat="44.43989" lon="4.36677">
        <ele>214.9919434</ele>
        <time>2011-05-28T14:32:28Z</time>
      </trkpt>
      <trkpt lat="44.43999" lon="4.36675">
        <ele>214.9919434</ele>
        <time>2011-05-28T14:32:33Z</time>
      </trkpt>
      <trkpt lat="44.4401" lon="4.36673">
        <ele>216.43396</ele>
        <time>2011-05-28T14:32:38Z</time>
      </trkpt>
      <trkpt lat="44.4402" lon="4.36671">
        <ele>216.43396</ele>
        <time>2011-05-28T14:32:42Z</time>
      </trkpt>
      <trkpt lat="44.44031" lon="4.36667">
        <ele>216.43396</ele>
        <time>2011-05-28T14:32:46Z</time>
      </trkpt>
      <trkpt lat="44.44042" lon="4.36662">
        <ele>215.4726563</ele>
        <time>2011-05-28T14:32:50Z</time>
      </trkpt>
      <trkpt lat="44.44053" lon="4.36657">
        <ele>216.43396</ele>
        <time>2011-05-28T14:32:54Z</time>
      </trkpt>
      <trkpt lat="44.44063" lon="4.36648">
        <ele>216.43396</ele>
        <time>2011-05-28T14:32:58Z</time>
      </trkpt>
      <trkpt lat="44.44074" lon="4.3664">
        <ele>217.3953857</ele>
        <time>2011-05-28T14:33:03Z</time>
      </trkpt>
      <trkpt lat="44.44084" lon="4.3663">
        <ele>218.8372803</ele>
        <time>2011-05-28T14:33:08Z</time>
      </trkpt>
      <trkpt lat="44.44092" lon="4.36621">
        <ele>218.8372803</ele>
        <time>2011-05-28T14:33:12Z</time>
      </trkpt>
      <trkpt lat="44.44101" lon="4.36614">
        <ele>219.3179932</ele>
        <time>2011-05-28T14:33:16Z</time>
      </trkpt>
      <trkpt lat="44.4411" lon="4.36605">
        <ele>220.2791748</ele>
        <time>2011-05-28T14:33:20Z</time>
      </trkpt>
      <trkpt lat="44.44119" lon="4.36594">
        <ele>220.2791748</ele>
        <time>2011-05-28T14:33:24Z</time>
      </trkpt>
      <trkpt lat="44.44127" lon="4.36586">
        <ele>219.798584</ele>
        <time>2011-05-28T14:33:27Z</time>
      </trkpt>
      <trkpt lat="44.44136" lon="4.36576">
        <ele>219.798584</ele>
        <time>2011-05-28T14:33:30Z</time>
      </trkpt>
      <trkpt lat="44.44145" lon="4.36564">
        <ele>218.8372803</ele>
        <time>2011-05-28T14:33:33Z</time>
      </trkpt>
      <trkpt lat="44.44152" lon="4.36551">
        <ele>217.8759766</ele>
        <time>2011-05-28T14:33:36Z</time>
      </trkpt>
      <trkpt lat="44.44158" lon="4.36538">
        <ele>218.3565674</ele>
        <time>2011-05-28T14:33:39Z</time>
      </trkpt>
      <trkpt lat="44.44168" lon="4.36529">
        <ele>216.9146729</ele>
        <time>2011-05-28T14:33:42Z</time>
      </trkpt>
      <trkpt lat="44.4418" lon="4.36532">
        <ele>216.43396</ele>
        <time>2011-05-28T14:33:45Z</time>
      </trkpt>
      <trkpt lat="44.4419" lon="4.36552">
        <ele>215.9532471</ele>
        <time>2011-05-28T14:33:48Z</time>
      </trkpt>
      <trkpt lat="44.4419" lon="4.36568">
        <ele>214.5112305</ele>
        <time>2011-05-28T14:33:50Z</time>
      </trkpt>
      <trkpt lat="44.44189" lon="4.36583">
        <ele>214.5112305</ele>
        <time>2011-05-28T14:33:52Z</time>
      </trkpt>
      <trkpt lat="44.44186" lon="4.36599">
        <ele>214.0306396</ele>
        <time>2011-05-28T14:33:54Z</time>
      </trkpt>
      <trkpt lat="44.44185" lon="4.36617">
        <ele>213.0693359</ele>
        <time>2011-05-28T14:33:56Z</time>
      </trkpt>
      <trkpt lat="44.44184" lon="4.36634">
        <ele>211.6274414</ele>
        <time>2011-05-28T14:33:58Z</time>
      </trkpt>
      <trkpt lat="44.44181" lon="4.36651">
        <ele>211.1467285</ele>
        <time>2011-05-28T14:34:00Z</time>
      </trkpt>
      <trkpt lat="44.44177" lon="4.36665">
        <ele>209.2241211</ele>
        <time>2011-05-28T14:34:02Z</time>
      </trkpt>
      <trkpt lat="44.44177" lon="4.36678">
        <ele>207.3013916</ele>
        <time>2011-05-28T14:34:04Z</time>
      </trkpt>
      <trkpt lat="44.44185" lon="4.36693">
        <ele>204.8980713</ele>
        <time>2011-05-28T14:34:07Z</time>
      </trkpt>
      <trkpt lat="44.44198" lon="4.36703">
        <ele>204.4174805</ele>
        <time>2011-05-28T14:34:09Z</time>
      </trkpt>
      <trkpt lat="44.44211" lon="4.36714">
        <ele>203.4561768</ele>
        <time>2011-05-28T14:34:11Z</time>
      </trkpt>
      <trkpt lat="44.44224" lon="4.36724">
        <ele>202.494873</ele>
        <time>2011-05-28T14:34:13Z</time>
      </trkpt>
      <trkpt lat="44.44237" lon="4.36729">
        <ele>202.494873</ele>
        <time>2011-05-28T14:34:15Z</time>
      </trkpt>
      <trkpt lat="44.4425" lon="4.36729">
        <ele>202.9754639</ele>
        <time>2011-05-28T14:34:17Z</time>
      </trkpt>
      <trkpt lat="44.44261" lon="4.36726">
        <ele>202.494873</ele>
        <time>2011-05-28T14:34:19Z</time>
      </trkpt>
      <trkpt lat="44.44269" lon="4.3672">
        <ele>202.9754639</ele>
        <time>2011-05-28T14:34:21Z</time>
      </trkpt>
      <trkpt lat="44.44276" lon="4.36703">
        <ele>203.4561768</ele>
        <time>2011-05-28T14:34:24Z</time>
      </trkpt>
      <trkpt lat="44.44283" lon="4.36694">
        <ele>202.494873</ele>
        <time>2011-05-28T14:34:26Z</time>
      </trkpt>
      <trkpt lat="44.44294" lon="4.3669">
        <ele>201.5335693</ele>
        <time>2011-05-28T14:34:29Z</time>
      </trkpt>
      <trkpt lat="44.44303" lon="4.36701">
        <ele>201.5335693</ele>
        <time>2011-05-28T14:34:32Z</time>
      </trkpt>
      <trkpt lat="44.44311" lon="4.36715">
        <ele>201.0528564</ele>
        <time>2011-05-28T14:34:35Z</time>
      </trkpt>
      <trkpt lat="44.4432" lon="4.36728">
        <ele>201.0528564</ele>
        <time>2011-05-28T14:34:38Z</time>
      </trkpt>
      <trkpt lat="44.44329" lon="4.36738">
        <ele>201.0528564</ele>
        <time>2011-05-28T14:34:41Z</time>
      </trkpt>
      <trkpt lat="44.44339" lon="4.36747">
        <ele>200.5722656</ele>
        <time>2011-05-28T14:34:45Z</time>
      </trkpt>
      <trkpt lat="44.44347" lon="4.36756">
        <ele>201.0528564</ele>
        <time>2011-05-28T14:34:50Z</time>
      </trkpt>
      <trkpt lat="44.44355" lon="4.36764">
        <ele>201.0528564</ele>
        <time>2011-05-28T14:34:56Z</time>
      </trkpt>
      <trkpt lat="44.44372" lon="4.36769">
        <ele>202.0142822</ele>
        <time>2011-05-28T14:38:14Z</time>
      </trkpt>
      <trkpt lat="44.4438" lon="4.36779">
        <ele>202.494873</ele>
        <time>2011-05-28T14:38:20Z</time>
      </trkpt>
      <trkpt lat="44.44388" lon="4.3679">
        <ele>202.0142822</ele>
        <time>2011-05-28T14:38:25Z</time>
      </trkpt>
      <trkpt lat="44.44397" lon="4.36802">
        <ele>200.5722656</ele>
        <time>2011-05-28T14:38:30Z</time>
      </trkpt>
      <trkpt lat="44.44405" lon="4.36814">
        <ele>199.6108398</ele>
        <time>2011-05-28T14:38:35Z</time>
      </trkpt>
      <trkpt lat="44.44409" lon="4.36828">
        <ele>200.0916748</ele>
        <time>2011-05-28T14:38:39Z</time>
      </trkpt>
      <trkpt lat="44.44408" lon="4.36841">
        <ele>199.6108398</ele>
        <time>2011-05-28T14:38:45Z</time>
      </trkpt>
      <trkpt lat="44.44407" lon="4.36856">
        <ele>199.6108398</ele>
        <time>2011-05-28T14:38:51Z</time>
      </trkpt>
      <trkpt lat="44.44411" lon="4.3687">
        <ele>199.6108398</ele>
        <time>2011-05-28T14:38:56Z</time>
      </trkpt>
      <trkpt lat="44.44419" lon="4.36876">
        <ele>199.6108398</ele>
        <time>2011-05-28T14:39:01Z</time>
      </trkpt>
      <trkpt lat="44.44429" lon="4.36879">
        <ele>199.130127</ele>
        <time>2011-05-28T14:39:05Z</time>
      </trkpt>
      <trkpt lat="44.44439" lon="4.36885">
        <ele>199.130127</ele>
        <time>2011-05-28T14:39:10Z</time>
      </trkpt>
      <trkpt lat="44.44449" lon="4.36892">
        <ele>199.130127</ele>
        <time>2011-05-28T14:39:14Z</time>
      </trkpt>
      <trkpt lat="44.44459" lon="4.36899">
        <ele>198.6495361</ele>
        <time>2011-05-28T14:39:18Z</time>
      </trkpt>
      <trkpt lat="44.44469" lon="4.36905">
        <ele>199.6108398</ele>
        <time>2011-05-28T14:39:22Z</time>
      </trkpt>
      <trkpt lat="44.44478" lon="4.36913">
        <ele>199.130127</ele>
        <time>2011-05-28T14:39:27Z</time>
      </trkpt>
      <trkpt lat="44.44487" lon="4.36922">
        <ele>199.130127</ele>
        <time>2011-05-28T14:39:32Z</time>
      </trkpt>
      <trkpt lat="44.44498" lon="4.36929">
        <ele>199.130127</ele>
        <time>2011-05-28T14:39:37Z</time>
      </trkpt>
      <trkpt lat="44.44508" lon="4.3693">
        <ele>199.130127</ele>
        <time>2011-05-28T14:39:42Z</time>
      </trkpt>
      <trkpt lat="44.4452" lon="4.36925">
        <ele>199.130127</ele>
        <time>2011-05-28T14:39:47Z</time>
      </trkpt>
      <trkpt lat="44.44534" lon="4.36924">
        <ele>198.6495361</ele>
        <time>2011-05-28T14:39:52Z</time>
      </trkpt>
      <trkpt lat="44.44546" lon="4.36928">
        <ele>198.6495361</ele>
        <time>2011-05-28T14:39:57Z</time>
      </trkpt>
      <trkpt lat="44.44559" lon="4.36926">
        <ele>197.2075195</ele>
        <time>2011-05-28T14:40:03Z</time>
      </trkpt>
      <trkpt lat="44.44566" lon="4.36913">
        <ele>196.2463379</ele>
        <time>2011-05-28T14:40:07Z</time>
      </trkpt>
      <trkpt lat="44.44572" lon="4.36901">
        <ele>194.8043213</ele>
        <time>2011-05-28T14:40:11Z</time>
      </trkpt>
      <trkpt lat="44.44578" lon="4.36887">
        <ele>193.8430176</ele>
        <time>2011-05-28T14:40:15Z</time>
      </trkpt>
      <trkpt lat="44.44584" lon="4.36877">
        <ele>192.401123</ele>
        <time>2011-05-28T14:40:19Z</time>
      </trkpt>
      <trkpt lat="44.44593" lon="4.36876">
        <ele>192.8817139</ele>
        <time>2011-05-28T14:40:24Z</time>
      </trkpt>
      <trkpt lat="44.44604" lon="4.36882">
        <ele>193.3623047</ele>
        <time>2011-05-28T14:40:30Z</time>
      </trkpt>
      <trkpt lat="44.44612" lon="4.36883">
        <ele>194.3237305</ele>
        <time>2011-05-28T14:40:35Z</time>
      </trkpt>
      <trkpt lat="44.44615" lon="4.3687">
        <ele>193.8430176</ele>
        <time>2011-05-28T14:40:39Z</time>
      </trkpt>
      <trkpt lat="44.44614" lon="4.36852">
        <ele>192.8817139</ele>
        <time>2011-05-28T14:40:43Z</time>
      </trkpt>
      <trkpt lat="44.44617" lon="4.36837">
        <ele>192.401123</ele>
        <time>2011-05-28T14:40:46Z</time>
      </trkpt>
      <trkpt lat="44.4462" lon="4.36822">
        <ele>192.401123</ele>
        <time>2011-05-28T14:40:49Z</time>
      </trkpt>
      <trkpt lat="44.44623" lon="4.36808">
        <ele>192.401123</ele>
        <time>2011-05-28T14:40:52Z</time>
      </trkpt>
      <trkpt lat="44.44626" lon="4.36794">
        <ele>191.4395752</ele>
        <time>2011-05-28T14:40:55Z</time>
      </trkpt>
      <trkpt lat="44.44633" lon="4.36782">
        <ele>191.9202881</ele>
        <time>2011-05-28T14:40:58Z</time>
      </trkpt>
      <trkpt lat="44.44639" lon="4.36773">
        <ele>191.4395752</ele>
        <time>2011-05-28T14:41:01Z</time>
      </trkpt>
      <trkpt lat="44.44646" lon="4.36762">
        <ele>191.4395752</ele>
        <time>2011-05-28T14:41:05Z</time>
      </trkpt>
      <trkpt lat="44.44652" lon="4.36751">
        <ele>191.4395752</ele>
        <time>2011-05-28T14:41:10Z</time>
      </trkpt>
      <trkpt lat="44.44654" lon="4.36744">
        <ele>189.036377</ele>
        <time>2011-05-28T14:43:43Z</time>
      </trkpt>
    </trkseg>
  </trk>
</gpx>